# Wetter Temperatur Luftdruck Luftfeuchtigkeit Sichtweite Windgeschwindigkeit Windrichtung Zeit
1 Clouds 13 1014 71 10000 2.1 30 21:40 12.07.2020
2 Clouds 13 1014 71 10000 2.1 30 21:40 12.07.2020
3 Clouds 13 1014 71 10000 2.1 30 21:20 12.07.2020
4 Clouds 13 1014 71 10000 3.1 40 20:58 12.07.2020
5 Clouds 13 1014 76 10000 2.6 40 20:39 12.07.2020
6 Clouds 13 1014 76 10000 2.6 40 20:19 12.07.2020
7 Clouds 14 1014 66 10000 2.6 40 19:54 12.07.2020
8 Clouds 14 1015 66 10000 2.1 20 19:36 12.07.2020
9 Rain 14 1015 62 10000 3.1 50 19:18 12.07.2020
10 Rain 14 1015 62 10000 2.6 40 18:40 12.07.2020
11 Rain 14 1015 62 10000 2.1 350 18:19 12.07.2020
12 Clouds 14 1015 58 10000 3.1 340 17:42 12.07.2020
13 Clouds 15 1015 58 10000 3.1 340 17:22 12.07.2020
14 Rain 15 1015 76 10000 5.7 300 16:58 12.07.2020
15 Rain 14 1014 54 10000 4.6 20 16:40 12.07.2020
16 Rain 14 1014 54 10000 4.6 20 16:19 12.07.2020
17 Rain 14 1014 58 10000 4.1 20 15:43 12.07.2020
18 Clear 14 1014 58 10000 4.1 20 15:23 12.07.2020
19 Clear 15 1014 51 10000 3.6 360 14:44 12.07.2020
20 Clear 15 1014 51 10000 3.6 360 14:25 12.07.2020
21 Clear 15 1014 50 10000 3.1 40 13:54 12.07.2020
22 Clear 15 1014 50 10000 3.1 40 13:36 12.07.2020
23 Clear 16 1014 44 10000 4.1 40 13:18 12.07.2020
24 Clear 17 1014 44 10000 4.6 30 12:42 12.07.2020
25 Clear 18 1014 44 10000 4.6 30 12:20 12.07.2020
26 Clear 19 1014 39 10000 4.1 20 11:58 12.07.2020
27 Clear 19 1015 37 10000 3.1 10 11:40 12.07.2020
28 Clear 21 1015 37 10000 5.7 350 11:18 12.07.2020
29 Clear 21 1015 30 10000 5.7 30 10:41 12.07.2020
30 Clear 21 1015 30 10000 5.7 30 10:20 12.07.2020
31 Clear 21 1016 30 10000 5.7 20 09:43 12.07.2020
32 Clear 21 1016 30 10000 5.7 20 09:22 12.07.2020
33 Clear 21 1016 30 10000 5.7 20 09:22 12.07.2020
34 Clear 21 1016 28 10000 6.7 10 08:58 12.07.2020
35 Clear 21 1016 28 10000 7.2 20 08:39 12.07.2020
36 Clear 21 1016 28 10000 7.2 20 08:21 12.07.2020
37 Clear 20 1017 32 10000 7.2 10 07:50 12.07.2020
38 Clear 20 1017 32 10000 7.2 10 07:31 12.07.2020
39 Clear 19 1018 32 10000 7.7 20 06:55 12.07.2020
40 Clear 19 1018 29 10000 7.7 20 06:37 12.07.2020
41 Clear 16 1019 34 10000 8.2 20 06:18 12.07.2020
42 Clear 17 1020 33 10000 7.7 20 04:58 12.07.2020
43 Clear 16 1020 36 10000 5.7 10 04:29 12.07.2020
44 Clear 15 1020 41 10000 9.8 40 03:45 12.07.2020
45 Clear 14 1021 47 10000 4.1 40 03:24 12.07.2020
46 Clear 10 1021 61 10000 5.7 60 02:21 12.07.2020
47 Clear 8 1021 70 10000 3.6 50 01:28 12.07.2020
48 Clear 9 1021 61 10000 3.6 50 00:39 12.07.2020
49 Clear 9 1021 57 10000 3.6 30 00:20 12.07.2020
50 Clear 9 1021 57 10000 3.6 40 23:41 11.07.2020
51 Clear 9 1021 57 10000 3.6 40 23:21 11.07.2020
52 Clear 9 1021 61 10000 5.1 60 22:57 11.07.2020
53 Clear 10 1021 61 10000 5.1 70 22:38 11.07.2020
54 Clear 10 1021 61 10000 5.1 70 22:20 11.07.2020
55 Clear 10 1022 61 10000 4.1 50 21:44 11.07.2020
56 Clear 10 1022 61 10000 4.1 50 21:25 11.07.2020
57 Clear 10 1022 66 10000 4.1 60 20:59 11.07.2020
58 Clear 10 1022 61 10000 4.6 60 20:41 11.07.2020
59 Clear 10 1022 61 10000 4.6 60 20:21 11.07.2020
60 Clear 10 1022 61 10000 5.1 60 19:59 11.07.2020
61 Clear 10 1022 61 10000 5.7 60 19:40 11.07.2020
62 Clear 10 1022 61 10000 5.7 60 19:22 11.07.2020
63 Clear 10 1023 61 10000 4.6 70 18:56 11.07.2020
64 Clear 10 1023 61 10000 4.6 70 18:56 11.07.2020
65 Clear 11 1023 61 10000 3.6 60 18:38 11.07.2020
66 Clear 11 1023 61 10000 3.6 60 18:19 11.07.2020
67 Clear 11 1024 61 10000 4.1 70 17:55 11.07.2020
68 Clear 11 1024 62 10000 4.6 60 17:37 11.07.2020
69 Clear 11 1024 62 10000 4.6 60 17:18 11.07.2020
70 Clear 11 1024 62 10000 5.7 60 16:42 11.07.2020
71 Clear 11 1024 62 10000 5.7 60 16:23 11.07.2020
72 Clear 12 1024 58 10000 7.7 70 15:58 11.07.2020
73 Clear 12 1024 58 10000 7.7 70 15:58 11.07.2020
74 Clear 12 1024 58 10000 7.7 70 15:39 11.07.2020
75 Clear 12 1024 58 10000 7.7 70 15:20 11.07.2020
76 Clear 12 1025 58 10000 7.2 70 14:56 11.07.2020
77 Clear 12 1025 58 10000 6.2 70 14:36 11.07.2020
78 Clear 12 1025 58 10000 6.2 70 14:36 11.07.2020
79 Clear 12 1025 58 10000 6.2 70 14:18 11.07.2020
80 Clear 12 1026 58 10000 3.6 60 13:42 11.07.2020
81 Clear 13 1026 58 10000 3.6 60 13:21 11.07.2020
82 Clear 13 1025 58 10000 3.1 70 12:55 11.07.2020
83 Clear 13 1025 58 10000 3.1 70 12:37 11.07.2020
84 Clear 14 1025 54 10000 3.1 60 12:18 11.07.2020
85 Clear 15 1025 48 10000 4.6 80 11:41 11.07.2020
86 Clear 16 1025 48 10000 4.6 80 11:21 11.07.2020
87 Clear 17 1025 45 10000 4.6 80 10:56 11.07.2020
88 Clear 17 1025 45 10000 4.6 90 10:38 11.07.2020
89 Clear 17 1025 45 10000 4.6 90 10:19 11.07.2020
90 Clear 18 1026 45 10000 4.1 40 09:39 11.07.2020
91 Clear 18 1026 45 10000 4.1 40 09:20 11.07.2020
92 Clear 18 1026 45 10000 4.6 40 08:46 11.07.2020
93 Clear 17 1026 45 10000 4.6 40 08:28 11.07.2020
94 Clear 17 1027 45 10000 5.1 50 07:56 11.07.2020
95 Clear 16 1027 48 10000 4.6 30 07:36 11.07.2020
96 Clear 16 1028 47 10000 5.1 50 07:18 11.07.2020
97 Clear 15 1028 47 10000 6.2 50 06:27 11.07.2020
98 Clear 15 1028 47 10000 7.7 40 05:54 11.07.2020
99 Clear 14 1029 47 10000 7.7 40 05:19 11.07.2020
100 Clear 14 1029 54 10000 6.7 60 04:50 11.07.2020
101 Clear 13 1029 58 10000 6.7 70 04:19 11.07.2020
102 Clear 10 1029 70 10000 2.1 80 02:54 11.07.2020
103 Clear 8 1029 81 10000 3.1 100 02:25 11.07.2020
104 Clear 8 1029 75 10000 3.1 40 01:24 11.07.2020
105 Clear 8 1028 81 10000 1 10 00:57 11.07.2020
106 Clear 8 1028 87 10000 3.1 100 00:37 11.07.2020
107 Clear 8 1028 75 10000 5.1 100 00:18 11.07.2020
108 Clear 9 1028 70 10000 5.1 60 23:45 10.07.2020
109 Clear 8 1028 75 10000 3.6 90 23:26 10.07.2020
110 Clear 9 1028 75 10000 2.6 90 22:56 10.07.2020
111 Clear 9 1028 70 10000 2.1 80 22:38 10.07.2020
112 Clear 9 1028 70 10000 2.1 80 22:18 10.07.2020
113 Clear 10 1029 70 10000 6.2 80 21:38 10.07.2020
114 Clear 9 1029 70 10000 6.2 80 21:20 10.07.2020
115 Clear 9 1029 75 10000 5.7 80 20:55 10.07.2020
116 Clear 9 1029 75 10000 4.1 70 20:36 10.07.2020
117 Clear 9 1029 75 10000 1.5 50 20:18 10.07.2020
118 Clear 9 1029 75 10000 2.6 40 19:43 10.07.2020
119 Clear 9 1029 75 10000 2.6 40 19:22 10.07.2020
120 Clear 9 1029 75 10000 5.7 80 18:58 10.07.2020
121 Clear 9 1029 75 10000 5.7 80 18:58 10.07.2020
122 Clear 9 1029 70 10000 6.2 80 18:37 10.07.2020
123 Clear 10 1029 70 10000 6.2 70 18:18 10.07.2020
124 Clear 9 1030 70 10000 5.1 70 17:43 10.07.2020
125 Clear 10 1030 70 10000 5.1 70 17:24 10.07.2020
126 Clear 10 1029 66 10000 5.7 70 16:57 10.07.2020
127 Clear 10 1030 66 10000 3.1 70 16:39 10.07.2020
128 Clear 10 1030 66 10000 3.1 70 16:18 10.07.2020
129 Clear 10 1030 76 10000 3.6 100 15:44 10.07.2020
130 Clear 10 1030 76 10000 3.6 100 15:21 10.07.2020
131 Clear 10 1030 76 10000 3.1 100 14:54 10.07.2020
132 Clear 11 1030 71 10000 4.1 90 14:36 10.07.2020
133 Clear 10 1029 76 10000 2.6 100 14:18 10.07.2020
134 Clear 10 1029 76 10000 2.6 100 13:54 10.07.2020
135 Clear 11 1029 71 10000 2.6 90 13:36 10.07.2020
136 Clear 11 1029 71 10000 3.1 120 13:18 10.07.2020
137 Clear 12 1029 66 10000 3.6 120 12:42 10.07.2020
138 Clear 12 1029 66 10000 3.6 120 12:23 10.07.2020
139 Clear 14 1028 54 10000 5.1 100 11:58 10.07.2020
140 Clear 14 1028 54 10000 5.1 100 11:38 10.07.2020
141 Clear 14 1028 51 10000 5.1 100 11:18 10.07.2020
142 Clear 15 1028 48 10000 5.1 80 10:41 10.07.2020
143 Clear 16 1028 48 10000 5.1 80 10:21 10.07.2020
144 Clear 16 1028 48 10000 5.1 80 09:56 10.07.2020
145 Clear 16 1028 47 10000 5.1 90 09:36 10.07.2020
146 Clear 16 1028 47 10000 5.1 90 09:18 10.07.2020
147 Clear 16 1028 51 10000 5.1 120 08:54 10.07.2020
148 Clear 16 1028 47 10000 4.1 80 08:36 10.07.2020
149 Clear 15 1028 47 10000 4.6 90 08:18 10.07.2020
150 Clear 15 1029 47 10000 4.6 80 07:41 10.07.2020
151 Clear 15 1029 54 10000 4.1 70 07:20 10.07.2020
152 Clear 15 1029 50 10000 3.6 110 06:45 10.07.2020
153 Clear 14 1030 58 10000 4.6 90 05:54 10.07.2020
154 Clear 13 1031 66 10000 5.7 80 04:31 10.07.2020
155 Clear 10 1031 81 10000 6.2 80 03:26 10.07.2020
156 Clear 8 1031 93 10000 1.5 30 02:48 10.07.2020
157 Clear 7 1030 93 10000 2.6 40 01:39 10.07.2020
158 Clear 7 1029 93 10000 2.6 20 00:40 10.07.2020
159 Clear 7 1029 93 10000 2.6 90 00:18 10.07.2020
160 Clear 7 1029 93 10000 1 30 23:43 09.07.2020
161 Clear 7 1029 93 10000 1 30 23:20 09.07.2020
162 Clear 7 1028 100 10000 0.5 320 22:57 09.07.2020
163 Clear 8 1028 93 10000 0.5 20 22:39 09.07.2020
164 Clear 8 1028 93 10000 0.5 20 22:20 09.07.2020
165 Clear 8 1028 100 10000 2.1 340 21:56 09.07.2020
166 Clear 7 1028 93 10000 1.5 290 21:37 09.07.2020
167 Clear 10 1028 93 10000 1.5 290 21:18 09.07.2020
168 Clear 10 1028 93 10000 1.5 290 21:18 09.07.2020
169 Clear 10 1028 93 10000 2.1 310 20:42 09.07.2020
170 Clear 10 1028 93 10000 2.1 310 20:42 09.07.2020
171 Clear 9 1028 93 10000 2.1 310 20:24 09.07.2020
172 Clear 8 1028 100 10000 2.1 320 19:56 09.07.2020
173 Clear 8 1027 93 10000 2.1 320 19:38 09.07.2020
174 Clouds 8 1027 100 10000 3.71 109 19:19 09.07.2020
175 Clouds 8 1027 93 10000 3.71 109 18:41 09.07.2020
176 Clear 8 1027 93 10000 0.5 310 18:20 09.07.2020
177 Clear 8 1027 93 10000 0.5 310 17:55 09.07.2020
178 Clear 9 1027 100 10000 0.5 60 17:37 09.07.2020
179 Clear 9 1027 100 10000 0.5 60 17:18 09.07.2020
180 Clear 9 1027 93 10000 3.1 170 16:44 09.07.2020
181 Clear 9 1027 93 10000 3.1 170 16:20 09.07.2020
182 Clear 10 1027 87 10000 2.6 180 15:59 09.07.2020
183 Clear 10 1027 87 10000 3.1 210 15:41 09.07.2020
184 Clear 10 1027 87 10000 3.1 210 15:23 09.07.2020
185 Clear 10 1027 81 10000 3.1 190 14:59 09.07.2020
186 Clear 11 1027 81 10000 3.1 170 14:40 09.07.2020
187 Clear 11 1027 81 10000 3.1 170 14:22 09.07.2020
188 Clear 11 1027 76 10000 4.1 170 13:57 09.07.2020
189 Clear 11 1027 76 10000 4.1 170 13:57 09.07.2020
190 Clear 12 1026 71 10000 4.1 180 13:38 09.07.2020
191 Clear 12 1026 71 10000 4.6 180 13:20 09.07.2020
192 Clouds 13 1026 67 10000 4.1 190 12:43 09.07.2020
193 Clouds 14 1026 67 10000 4.1 190 12:24 09.07.2020
194 Clouds 14 1026 67 10000 4.1 190 11:59 09.07.2020
195 Clouds 15 1025 62 10000 4.1 200 11:41 09.07.2020
196 Clouds 15 1025 62 10000 4.1 200 11:22 09.07.2020
197 Clouds 16 1025 55 10000 4.6 200 10:58 09.07.2020
198 Clouds 16 1025 51 10000 4.6 200 10:40 09.07.2020
199 Clouds 17 1025 51 10000 4.6 200 10:21 09.07.2020
200 Clouds 17 1025 51 10000 3.1 230 09:44 09.07.2020
201 Clouds 17 1025 51 10000 3.1 230 09:24 09.07.2020
202 Clouds 17 1025 48 10000 2.6 150 08:54 09.07.2020
203 Clouds 17 1025 51 10000 1 30 08:36 09.07.2020
204 Clouds 17 1025 51 10000 1 190 08:18 09.07.2020
205 Clouds 17 1026 55 10000 2.1 240 07:42 09.07.2020
206 Clouds 16 1026 55 10000 2.1 240 07:21 09.07.2020
207 Clouds 16 1026 55 10000 2.1 240 07:21 09.07.2020
208 Clouds 15 1027 62 10000 2.6 120 06:21 09.07.2020
209 Clouds 15 1027 62 10000 2.6 120 05:57 09.07.2020
210 Clear 13 1028 66 10000 3.1 180 04:29 09.07.2020
211 Clear 10 1027 93 10000 3.7 131 03:22 09.07.2020
212 Haze 6 1026 100 10000 3.1 130 01:56 09.07.2020
213 Clouds 6 1026 93 10000 3.1 220 01:19 09.07.2020
214 Clouds 7 1025 100 10000 3.1 200 00:41 09.07.2020
215 Clouds 7 1025 100 10000 3.1 200 00:22 09.07.2020
216 Clouds 7 1025 100 10000 3.6 190 23:43 08.07.2020
217 Clouds 7 1025 100 10000 3.6 190 23:25 08.07.2020
218 Clouds 7 1025 100 10000 2.6 270 22:56 08.07.2020
219 Clouds 7 1025 93 10000 2.6 360 22:38 08.07.2020
220 Clouds 8 1025 93 10000 2.6 360 22:19 08.07.2020
221 Clouds 8 1025 100 10000 0.5 270 21:55 08.07.2020
222 Clouds 8 1025 100 10000 3.1 143 21:36 08.07.2020
223 Clouds 8 1025 100 10000 2.36 129 21:18 08.07.2020
224 Clear 8 1024 100 10000 2.36 129 20:41 08.07.2020
225 Clouds 8 1024 100 10000 2.29 115 20:23 08.07.2020
226 Clouds 8 1024 100 10000 0.5 240 19:55 08.07.2020
227 Clouds 8 1024 93 10000 2.29 115 19:37 08.07.2020
228 Clouds 9 1024 100 10000 2.6 160 19:18 08.07.2020
229 Clouds 9 1024 100 10000 3.6 180 18:41 08.07.2020
230 Clouds 9 1024 100 10000 2.6 190 18:21 08.07.2020
231 Clouds 9 1024 100 10000 2.99 126 17:57 08.07.2020
232 Clouds 9 1024 93 10000 2.99 126 17:38 08.07.2020
233 Clouds 9 1024 93 10000 2.74 131 17:20 08.07.2020
234 Clouds 9 1024 93 10000 2.74 131 16:57 08.07.2020
235 Clouds 10 1024 93 10000 2.74 131 16:38 08.07.2020
236 Clouds 9 1024 93 10000 2.73 138 16:18 08.07.2020
237 Clouds 10 1024 93 10000 2.73 138 15:56 08.07.2020
238 Clouds 10 1024 93 10000 2.6 40 15:38 08.07.2020
239 Clouds 10 1023 87 10000 2.1 50 15:18 08.07.2020
240 Clouds 10 1023 81 10000 3.1 190 14:42 08.07.2020
241 Clouds 11 1023 81 10000 3.1 190 14:21 08.07.2020
242 Clouds 11 1023 93 10000 3.1 190 13:46 08.07.2020
243 Clouds 12 1023 76 10000 3.1 180 13:27 08.07.2020
244 Clouds 12 1023 81 10000 2.1 230 12:58 08.07.2020
245 Clouds 13 1023 81 10000 2.1 190 12:40 08.07.2020
246 Clouds 13 1023 67 10000 2.6 210 12:19 08.07.2020
247 Clouds 15 1023 67 10000 3.1 210 11:39 08.07.2020
248 Clouds 15 1023 67 10000 3.1 210 11:21 08.07.2020
249 Clouds 16 1023 72 10000 4.1 190 10:56 08.07.2020
250 Clouds 16 1022 72 10000 3.1 180 10:38 08.07.2020
251 Clouds 16 1022 72 10000 3.1 180 10:19 08.07.2020
252 Clouds 16 1022 72 10000 2.1 110 09:43 08.07.2020
253 Clouds 16 1022 72 10000 2.1 110 09:43 08.07.2020
254 Clouds 16 1022 72 10000 2.1 110 09:23 08.07.2020
255 Clouds 16 1023 82 10000 2.1 70 08:43 08.07.2020
256 Clouds 15 1023 82 10000 2.1 70 08:24 08.07.2020
257 Drizzle 15 1023 76 8000 5.7 190 07:48 08.07.2020
258 Drizzle 15 1023 76 8000 5.7 190 07:24 08.07.2020
259 Clouds 15 1023 67 10000 4.1 230 06:56 08.07.2020
260 Rain 16 1024 63 10000 1 330 06:37 08.07.2020
261 Rain 17 1024 59 10000 1.5 350 05:55 08.07.2020
262 Clouds 17 1024 59 10000 2.6 30 05:33 08.07.2020
263 Clouds 16 1024 72 10000 1.5 20 04:36 08.07.2020
264 Clouds 12 1024 93 10000 2.1 60 02:48 08.07.2020
265 Clouds 11 1023 93 10000 2.6 30 01:52 08.07.2020
266 Clouds 11 1023 100 10000 2.6 360 01:32 08.07.2020
267 Rain 11 1022 93 10000 2.1 30 00:28 08.07.2020
268 Rain 12 1022 93 10000 2.6 40 23:59 07.07.2020
269 Clouds 12 1022 93 10000 2.6 50 23:40 07.07.2020
270 Rain 12 1022 93 10000 2.6 50 23:19 07.07.2020
271 Rain 12 1022 100 10000 2.6 40 22:43 07.07.2020
272 Fog 12 1022 100 10000 2.6 40 22:23 07.07.2020
273 Fog 13 1022 100 10000 2.6 40 21:59 07.07.2020
274 Fog 13 1022 100 10000 2.6 40 21:40 07.07.2020
275 Fog 13 1022 100 10000 2.6 40 21:21 07.07.2020
276 Fog 13 1022 100 10000 2.6 40 20:57 07.07.2020
277 Fog 13 1022 100 10000 2.6 40 20:39 07.07.2020
278 Fog 13 1022 93 10000 2.6 40 20:20 07.07.2020
279 Rain 13 1022 93 10000 3.6 150 19:41 07.07.2020
280 Rain 13 1022 93 10000 3.6 190 19:21 07.07.2020
281 Rain 13 1022 93 10000 3.6 190 18:56 07.07.2020
282 Rain 13 1022 93 5000 6.2 190 18:38 07.07.2020
283 Rain 13 1022 93 5000 6.2 190 18:38 07.07.2020
284 Rain 13 1022 93 5000 6.2 190 18:20 07.07.2020
285 Rain 13 1022 100 4000 7.7 250 17:57 07.07.2020
286 Rain 14 1022 93 8000 2.1 320 17:38 07.07.2020
287 Drizzle 14 1022 93 8000 2.1 320 17:20 07.07.2020
288 Clouds 15 1022 93 10000 3.1 30 16:43 07.07.2020
289 Clouds 15 1022 93 10000 3.1 30 16:24 07.07.2020
290 Clouds 14 1022 100 10000 2.6 40 15:58 07.07.2020
291 Clouds 14 1022 93 10000 2.6 30 15:38 07.07.2020
292 Clouds 14 1022 93 10000 2.6 30 15:19 07.07.2020
293 Clouds 14 1022 93 10000 2.6 350 14:46 07.07.2020
294 Clouds 14 1022 93 10000 2.6 330 14:25 07.07.2020
295 Rain 14 1022 87 10000 2.6 350 13:46 07.07.2020
296 Rain 15 1022 87 10000 4.6 300 13:21 07.07.2020
297 Rain 15 1021 87 10000 3.6 260 12:57 07.07.2020
298 Rain 15 1021 87 8000 4.1 270 12:39 07.07.2020
299 Rain 15 1021 82 8000 4.1 270 12:21 07.07.2020
300 Clouds 15 1021 82 10000 2.6 300 11:46 07.07.2020
301 Clouds 15 1021 82 10000 2.6 300 11:24 07.07.2020
302 Rain 16 1021 77 10000 4.1 270 10:58 07.07.2020
303 Rain 15 1021 77 10000 3.1 270 10:40 07.07.2020
304 Rain 15 1021 77 10000 3.1 270 10:21 07.07.2020
305 Clouds 15 1021 87 10000 5.1 270 09:54 07.07.2020
306 Rain 15 1022 87 5000 7.7 320 09:36 07.07.2020
307 Clouds 16 1021 67 10000 6.7 280 09:18 07.07.2020
308 Rain 17 1021 72 10000 3.6 320 08:39 07.07.2020
309 Rain 17 1021 72 10000 3.6 320 08:19 07.07.2020
310 Rain 18 1021 63 10000 6.7 300 07:38 07.07.2020
311 Clouds 17 1022 59 10000 5.7 260 07:20 07.07.2020
312 Clouds 17 1022 63 10000 6.2 270 06:48 07.07.2020
313 Clouds 17 1022 77 10000 5.1 250 06:27 07.07.2020
314 Clouds 17 1023 59 10000 4.1 290 05:47 07.07.2020
315 Clouds 16 1023 72 10000 1.5 30 04:58 07.07.2020
316 Clouds 15 1023 82 10000 2.6 30 03:54 07.07.2020
317 Clouds 15 1023 82 10000 3.1 40 03:32 07.07.2020
318 Clouds 14 1022 87 10000 2.6 300 01:55 07.07.2020
319 Clouds 14 1021 76 10000 1 270 01:19 07.07.2020
320 Clouds 14 1021 71 10000 4.1 280 00:41 07.07.2020
321 Clouds 14 1021 71 10000 4.1 280 00:21 07.07.2020
322 Clouds 14 1020 82 10000 3.1 320 23:44 06.07.2020
323 Clouds 14 1020 82 10000 3.1 320 23:25 06.07.2020
324 Clouds 14 1020 72 10000 5.7 250 22:59 06.07.2020
325 Clouds 14 1020 67 10000 3.6 290 22:39 06.07.2020
326 Clouds 14 1020 81 10000 2.1 270 22:18 06.07.2020
327 Clouds 14 1020 67 10000 3.6 290 22:18 06.07.2020
328 Clouds 15 1020 62 10000 4.6 280 21:56 06.07.2020
329 Clouds 14 1020 71 10000 2.6 320 21:36 06.07.2020
330 Clouds 14 1020 71 10000 2.6 320 21:18 06.07.2020
331 Clouds 14 1020 67 10000 2.6 310 20:41 06.07.2020
332 Clouds 14 1020 67 10000 2.6 310 20:21 06.07.2020
333 Clouds 15 1020 67 10000 3.1 270 19:59 06.07.2020
334 Clouds 15 1020 67 10000 3.6 270 19:40 06.07.2020
335 Clouds 15 1020 67 10000 3.6 270 19:40 06.07.2020
336 Clouds 15 1020 67 10000 3.6 270 19:22 06.07.2020
337 Clouds 15 1020 67 10000 4.1 280 18:58 06.07.2020
338 Clouds 15 1020 62 10000 3.1 290 18:39 06.07.2020
339 Clouds 15 1020 67 10000 3.6 280 18:21 06.07.2020
340 Clouds 16 1020 67 10000 3.6 280 17:54 06.07.2020
341 Clouds 16 1020 67 10000 3.6 290 17:36 06.07.2020
342 Clouds 16 1020 67 10000 3.6 290 17:18 06.07.2020
343 Clouds 16 1020 63 10000 5.7 270 16:42 06.07.2020
344 Clouds 16 1020 63 10000 5.7 270 16:22 06.07.2020
345 Clouds 16 1020 67 10000 4.1 280 15:44 06.07.2020
346 Clouds 16 1020 67 10000 4.1 280 15:26 06.07.2020
347 Clouds 16 1020 67 10000 4.1 280 14:57 06.07.2020
348 Clouds 16 1020 67 10000 4.1 280 14:57 06.07.2020
349 Rain 15 1019 77 10000 3.6 290 14:38 06.07.2020
350 Rain 15 1019 77 10000 3.6 290 14:20 06.07.2020
351 Rain 16 1019 82 10000 3.6 280 13:57 06.07.2020
352 Clouds 16 1019 77 10000 6.2 290 13:38 06.07.2020
353 Rain 15 1019 82 10000 4.6 290 13:19 06.07.2020
354 Rain 15 1019 77 10000 6.2 290 13:19 06.07.2020
355 Rain 15 1018 87 8000 4.1 280 12:42 06.07.2020
356 Rain 15 1018 87 10000 4.6 310 12:19 06.07.2020
357 Rain 15 1018 87 10000 4.6 310 12:19 06.07.2020
358 Rain 15 1018 87 10000 4.6 310 11:58 06.07.2020
359 Rain 15 1018 82 5000 7.7 300 11:38 06.07.2020
360 Rain 15 1018 82 5000 7.7 300 11:20 06.07.2020
361 Rain 15 1018 87 6000 6.2 290 10:56 06.07.2020
362 Rain 16 1017 77 4000 5.7 300 10:37 06.07.2020
363 Rain 16 1017 77 4000 5.7 300 10:18 06.07.2020
364 Rain 16 1017 87 10000 7.7 300 09:41 06.07.2020
365 Rain 16 1017 87 10000 7.7 300 09:21 06.07.2020
366 Clouds 17 1016 72 10000 8.7 310 08:56 06.07.2020
367 Rain 17 1016 72 8000 9.3 310 08:37 06.07.2020
368 Rain 18 1016 72 8000 9.3 310 08:19 06.07.2020
369 Rain 18 1016 72 8000 9.3 310 08:19 06.07.2020
370 Clouds 18 1016 52 10000 10.8 310 07:43 06.07.2020
371 Clouds 18 1016 52 10000 10.8 310 07:23 06.07.2020
372 Clouds 19 1017 55 10000 10.8 310 06:39 06.07.2020
373 Clouds 18 1017 55 10000 8.7 320 06:21 06.07.2020
374 Clouds 19 1017 55 10000 9.3 320 05:38 06.07.2020
375 Rain 18 1017 77 10000 9.3 310 04:52 06.07.2020
376 Rain 15 1017 93 10000 9.3 280 03:26 06.07.2020
377 Rain 13 1016 93 9000 5.1 20 02:22 06.07.2020
378 Rain 13 1015 93 10000 4.1 360 01:26 06.07.2020
379 Rain 14 1015 93 10000 3.1 10 00:36 06.07.2020
380 Rain 14 1014 93 10000 4.6 350 00:18 06.07.2020
381 Clouds 13 1014 93 10000 4.1 30 23:41 05.07.2020
382 Clouds 14 1014 93 10000 4.1 30 23:23 05.07.2020
383 Clouds 14 1014 100 10000 3.6 10 22:59 05.07.2020
384 Rain 14 1014 93 10000 4.1 350 22:39 05.07.2020
385 Rain 15 1014 93 10000 4.1 350 22:19 05.07.2020
386 Rain 15 1014 93 10000 3.1 340 21:57 05.07.2020
387 Clouds 15 1014 93 10000 4.1 20 21:37 05.07.2020
388 Clouds 15 1014 93 10000 4.1 20 21:18 05.07.2020
389 Clouds 15 1014 93 10000 3.1 10 20:55 05.07.2020
390 Rain 15 1014 93 10000 3.1 330 20:37 05.07.2020
391 Rain 15 1014 93 10000 2.6 30 20:19 05.07.2020
392 Clouds 15 1014 93 10000 3.1 30 19:41 05.07.2020
393 Clouds 15 1014 93 10000 3.1 30 19:21 05.07.2020
394 Clouds 15 1015 93 10000 2.6 30 18:55 05.07.2020
395 Rain 15 1015 93 10000 3.1 40 18:37 05.07.2020
396 Rain 15 1015 93 10000 2.6 110 18:18 05.07.2020
397 Rain 15 1016 93 10000 1.5 250 17:42 05.07.2020
398 Rain 15 1016 93 10000 1.5 250 17:19 05.07.2020
399 Rain 16 1015 87 10000 3.6 280 16:45 05.07.2020
400 Rain 16 1015 87 10000 3.6 280 16:26 05.07.2020
401 Rain 16 1015 93 10000 4.1 250 15:59 05.07.2020
402 Rain 17 1015 93 10000 4.1 250 15:39 05.07.2020
403 Rain 16 1015 87 10000 1.5 100 15:19 05.07.2020
404 Rain 17 1014 63 10000 3.1 30 14:43 05.07.2020
405 Rain 17 1014 63 10000 3.1 30 14:23 05.07.2020
406 Thunderstorm 17 1014 63 10000 3.1 320 13:58 05.07.2020
407 Clouds 18 1013 63 10000 4.1 60 13:40 05.07.2020
408 Clouds 18 1013 63 10000 4.1 60 13:20 05.07.2020
409 Clouds 18 1014 55 10000 3.6 70 12:40 05.07.2020
410 Rain 19 1014 52 10000 5.1 330 12:20 05.07.2020
411 Rain 19 1014 52 10000 5.1 330 11:55 05.07.2020
412 Clouds 20 1014 45 10000 4.6 50 11:36 05.07.2020
413 Clouds 20 1014 45 10000 4.6 50 11:36 05.07.2020
414 Clouds 20 1014 45 10000 4.6 50 11:18 05.07.2020
415 Clouds 22 1014 43 10000 2.6 20 10:42 05.07.2020
416 Clouds 22 1014 43 10000 2.6 20 10:20 05.07.2020
417 Clouds 22 1015 40 10000 3.6 350 09:59 05.07.2020
418 Clouds 22 1014 37 10000 5.1 20 09:41 05.07.2020
419 Clouds 23 1014 37 10000 5.1 20 09:20 05.07.2020
420 Clouds 23 1014 33 10000 5.1 30 08:53 05.07.2020
421 Clouds 22 1015 35 10000 5.7 20 08:34 05.07.2020
422 Clouds 23 1015 35 10000 4.1 10 07:51 05.07.2020
423 Clouds 22 1016 37 10000 3.6 30 07:30 05.07.2020
424 Clouds 22 1016 37 10000 3.6 30 06:53 05.07.2020
425 Clouds 21 1017 37 10000 4.1 20 05:58 05.07.2020
426 Clouds 18 1018 42 10000 3.1 40 03:37 05.07.2020
427 Clouds 16 1018 44 10000 3.1 40 02:46 05.07.2020
428 Clouds 15 1018 47 10000 3.6 50 02:28 05.07.2020
429 Clouds 14 1019 54 10000 3.6 60 01:41 05.07.2020
430 Clouds 14 1019 54 10000 3.6 60 01:20 05.07.2020
431 Clouds 14 1018 50 10000 3.6 50 00:41 05.07.2020
432 Clouds 14 1018 50 10000 3.6 50 00:23 05.07.2020
433 Clouds 14 1018 50 10000 3.6 50 00:23 05.07.2020
434 Clouds 14 1019 50 10000 4.6 60 23:48 04.07.2020
435 Clouds 14 1019 50 10000 4.6 60 23:30 04.07.2020
436 Clouds 14 1019 50 10000 4.6 50 22:57 04.07.2020
437 Clouds 14 1019 54 10000 3.1 50 22:38 04.07.2020
438 Clouds 14 1019 54 10000 3.1 50 22:20 04.07.2020
439 Clouds 14 1020 50 10000 2.1 360 21:43 04.07.2020
440 Clouds 14 1020 50 10000 2.1 360 21:23 04.07.2020
441 Clouds 14 1020 50 10000 2.1 360 21:23 04.07.2020
442 Clouds 14 1020 50 10000 3.6 60 20:58 04.07.2020
443 Clouds 14 1020 50 10000 3.1 50 20:40 04.07.2020
444 Clouds 14 1020 54 10000 3.6 30 20:20 04.07.2020
445 Clouds 15 1020 51 10000 6.7 70 19:45 04.07.2020
446 Clouds 14 1021 54 10000 4.1 70 19:22 04.07.2020
447 Clouds 14 1021 58 10000 4.6 60 18:57 04.07.2020
448 Clouds 14 1021 58 10000 4.6 60 18:39 04.07.2020
449 Clouds 14 1021 54 10000 5.7 70 18:21 04.07.2020
450 Clouds 15 1021 54 10000 4.6 70 17:42 04.07.2020
451 Clouds 15 1021 54 10000 4.6 70 17:24 04.07.2020
452 Clouds 15 1022 58 10000 3.1 30 16:57 04.07.2020
453 Clouds 15 1022 58 10000 4.6 60 16:38 04.07.2020
454 Clouds 15 1022 58 10000 4.6 60 16:20 04.07.2020
455 Clouds 15 1022 58 10000 5.1 70 15:46 04.07.2020
456 Clouds 15 1022 58 10000 3.6 60 15:28 04.07.2020
457 Clouds 15 1022 62 10000 4.6 60 14:59 04.07.2020
458 Clouds 16 1022 59 10000 3.6 50 14:38 04.07.2020
459 Clouds 16 1022 59 10000 3.6 50 14:19 04.07.2020
460 Clouds 16 1022 59 10000 5.7 70 13:58 04.07.2020
461 Clouds 16 1022 59 10000 4.6 70 13:39 04.07.2020
462 Clouds 16 1022 55 10000 3.6 80 13:18 04.07.2020
463 Clouds 17 1022 55 10000 3.1 70 12:42 04.07.2020
464 Clouds 17 1022 55 10000 3.1 70 12:21 04.07.2020
465 Clouds 18 1021 52 10000 4.1 70 11:54 04.07.2020
466 Clouds 20 1021 45 10000 4.1 70 11:36 04.07.2020
467 Clouds 21 1021 43 10000 4.6 70 11:18 04.07.2020
468 Clouds 21 1022 40 10000 3.1 50 10:41 04.07.2020
469 Clouds 22 1022 40 10000 3.1 50 10:21 04.07.2020
470 Clouds 22 1021 43 10000 4.6 50 09:58 04.07.2020
471 Clouds 22 1021 43 10000 4.6 50 09:58 04.07.2020
472 Clouds 22 1022 40 10000 3.6 50 09:37 04.07.2020
473 Clouds 22 1022 37 10000 5.1 50 09:18 04.07.2020
474 Clouds 22 1022 37 10000 5.1 50 08:46 04.07.2020
475 Clouds 22 1022 37 10000 6.2 40 08:27 04.07.2020
476 Clouds 22 1022 37 10000 6.2 30 07:46 04.07.2020
477 Clouds 22 1022 37 10000 6.2 30 07:26 04.07.2020
478 Clouds 21 1023 37 10000 7.7 30 06:53 04.07.2020
479 Clouds 20 1024 40 10000 7.7 40 06:22 04.07.2020
480 Clouds 19 1025 39 10000 8.2 40 05:34 04.07.2020
481 Clouds 19 1025 42 10000 6.7 30 04:42 04.07.2020
482 Clouds 15 1025 47 10000 7.2 30 02:49 04.07.2020
483 Clouds 14 1025 50 10000 7.2 30 02:19 04.07.2020
484 Clouds 13 1025 50 10000 5.1 50 01:26 04.07.2020
485 Clouds 13 1025 50 10000 5.1 50 01:26 04.07.2020
486 Clouds 13 1025 50 10000 4.6 50 00:40 04.07.2020
487 Clouds 13 1025 50 10000 4.6 50 00:22 04.07.2020
488 Clouds 14 1024 47 10000 5.7 50 23:40 03.07.2020
489 Clouds 14 1024 50 10000 4.6 50 23:19 03.07.2020
490 Clouds 14 1024 47 10000 5.7 50 23:19 03.07.2020
491 Clouds 14 1024 50 10000 4.6 50 22:55 03.07.2020
492 Clouds 14 1024 50 10000 4.6 60 22:36 03.07.2020
493 Clouds 14 1024 50 10000 4.6 60 22:18 03.07.2020
494 Clouds 15 1025 47 10000 5.1 50 21:40 03.07.2020
495 Clouds 15 1025 47 10000 5.1 50 21:20 03.07.2020
496 Clouds 15 1025 47 10000 7.2 40 20:55 03.07.2020
497 Clouds 15 1025 51 10000 6.2 60 20:36 03.07.2020
498 Clouds 15 1025 51 10000 6.2 60 20:18 03.07.2020
499 Clouds 15 1025 62 10000 5.1 70 19:40 03.07.2020
500 Clouds 14 1025 58 10000 4.6 60 19:19 03.07.2020
501 Clouds 14 1025 62 10000 5.1 70 18:54 03.07.2020
502 Clouds 14 1026 62 10000 5.1 70 18:36 03.07.2020
503 Clouds 14 1026 62 10000 4.6 60 18:18 03.07.2020
504 Clouds 15 1026 62 10000 5.1 60 17:41 03.07.2020
505 Clouds 15 1026 62 10000 5.1 60 17:21 03.07.2020
506 Clouds 14 1026 58 10000 7.7 60 16:41 03.07.2020
507 Clouds 14 1026 58 10000 7.7 60 16:41 03.07.2020
508 Clouds 14 1026 58 10000 7.7 60 16:41 03.07.2020
509 Clouds 15 1026 58 10000 7.7 60 16:23 03.07.2020
510 Clouds 15 1027 62 10000 5.7 70 15:47 03.07.2020
511 Clouds 14 1027 62 10000 5.7 70 15:24 03.07.2020
512 Clouds 15 1027 62 10000 4.6 80 14:58 03.07.2020
513 Clouds 15 1027 67 10000 4.6 70 14:39 03.07.2020
514 Clear 14 1027 67 10000 4.6 70 14:21 03.07.2020
515 Clear 14 1027 67 10000 2.6 80 13:47 03.07.2020
516 Clear 14 1027 67 10000 2.6 80 13:29 03.07.2020
517 Clear 15 1027 67 10000 2.1 80 12:57 03.07.2020
518 Clear 15 1026 62 10000 3.6 80 12:38 03.07.2020
519 Clear 16 1026 59 10000 3.6 80 12:19 03.07.2020
520 Clear 17 1026 55 10000 5.7 80 11:42 03.07.2020
521 Clear 18 1026 55 10000 5.7 80 11:23 03.07.2020
522 Clear 18 1026 52 10000 6.7 80 10:58 03.07.2020
523 Clear 19 1026 48 10000 5.7 80 10:39 03.07.2020
524 Clear 19 1026 48 10000 5.7 80 10:20 03.07.2020
525 Clear 20 1026 45 10000 6.7 60 09:54 03.07.2020
526 Clear 20 1026 48 10000 5.7 60 09:36 03.07.2020
527 Clear 20 1026 48 10000 5.7 60 09:18 03.07.2020
528 Clear 20 1026 45 10000 7.2 60 08:39 03.07.2020
529 Clear 19 1027 48 10000 6.7 50 08:18 03.07.2020
530 Clear 19 1027 48 10000 7.7 50 07:48 03.07.2020
531 Clear 19 1027 48 10000 7.7 50 07:26 03.07.2020
532 Clear 18 1028 48 10000 7.2 60 06:49 03.07.2020
533 Clear 18 1029 51 10000 7.7 60 05:59 03.07.2020
534 Clear 16 1030 55 10000 8.2 60 04:48 03.07.2020
535 Clear 13 1030 66 10000 8.2 60 03:26 03.07.2020
536 Clear 12 1030 71 10000 8.2 60 02:45 03.07.2020
537 Clear 12 1030 76 10000 8.2 60 02:23 03.07.2020
538 Clear 10 1029 81 10000 4.6 90 01:27 03.07.2020
539 Clear 11 1029 76 10000 5.1 60 00:44 03.07.2020
540 Clear 10 1028 76 10000 2.1 10 00:21 03.07.2020
541 Clear 11 1028 76 10000 6.7 90 23:43 02.07.2020
542 Clear 11 1028 76 10000 6.7 90 23:20 02.07.2020
543 Clear 11 1027 76 10000 5.7 80 22:57 02.07.2020
544 Clear 11 1028 76 10000 4.6 80 22:39 02.07.2020
545 Clear 10 1028 76 10000 4.6 80 22:20 02.07.2020
546 Clear 10 1028 76 10000 4.6 80 22:20 02.07.2020
547 Clear 11 1028 76 10000 4.1 90 21:54 02.07.2020
548 Clear 10 1028 81 10000 4.1 60 21:36 02.07.2020
549 Clear 11 1028 81 10000 4.1 60 21:18 02.07.2020
550 Clear 10 1028 81 10000 3.6 70 20:42 02.07.2020
551 Clear 9 1028 81 10000 3.6 70 20:21 02.07.2020
552 Clear 9 1028 81 10000 3.6 70 20:21 02.07.2020
553 Clear 9 1028 81 10000 4.1 90 19:57 02.07.2020
554 Clear 10 1028 81 10000 3.6 70 19:38 02.07.2020
555 Clear 9 1028 81 10000 0.5 340 19:20 02.07.2020
556 Clear 10 1028 81 10000 0.5 340 18:57 02.07.2020
557 Clear 9 1028 93 10000 2.1 360 18:38 02.07.2020
558 Clear 8 1028 93 10000 1.5 20 18:20 02.07.2020
559 Clear 9 1029 93 10000 1.5 80 17:39 02.07.2020
560 Clear 9 1029 93 10000 1.5 80 17:20 02.07.2020
561 Clear 9 1028 87 10000 1 80 16:56 02.07.2020
562 Clear 10 1028 93 10000 1.5 70 16:38 02.07.2020
563 Clear 9 1028 93 10000 1.5 70 16:19 02.07.2020
564 Clear 10 1028 93 10000 1 80 15:54 02.07.2020
565 Clear 10 1028 93 10000 3.6 140 15:36 02.07.2020
566 Clear 11 1028 93 10000 3.6 140 15:18 02.07.2020
567 Clear 11 1028 87 10000 2.6 140 14:42 02.07.2020
568 Clear 11 1028 87 10000 2.6 140 14:19 02.07.2020
569 Clear 12 1027 81 10000 2.6 100 13:40 02.07.2020
570 Clear 12 1027 76 10000 3.6 100 13:21 02.07.2020
571 Clear 13 1027 71 10000 2.6 100 12:59 02.07.2020
572 Clear 13 1026 71 10000 3.1 80 12:39 02.07.2020
573 Clear 14 1026 71 10000 3.1 80 12:21 02.07.2020
574 Clouds 15 1026 62 10000 3.6 90 11:44 02.07.2020
575 Clouds 16 1026 62 10000 3.6 90 11:26 02.07.2020
576 Clouds 17 1025 51 10000 4.1 90 10:55 02.07.2020
577 Clouds 17 1025 48 10000 4.6 130 10:37 02.07.2020
578 Clouds 17 1025 48 10000 4.6 130 10:19 02.07.2020
579 Clouds 18 1025 48 10000 2.6 110 09:42 02.07.2020
580 Clouds 18 1025 48 10000 2.6 110 09:21 02.07.2020
581 Clouds 18 1025 51 10000 3.1 90 08:57 02.07.2020
582 Clouds 18 1025 55 10000 3.6 100 08:38 02.07.2020
583 Clouds 18 1025 51 10000 4.1 110 08:18 02.07.2020
584 Clouds 17 1026 51 10000 4.6 100 07:41 02.07.2020
585 Clouds 17 1026 51 10000 4.6 100 07:20 02.07.2020
586 Clouds 17 1027 55 10000 3.6 130 06:41 02.07.2020
587 Clear 16 1027 58 10000 3.6 100 06:20 02.07.2020
588 Clear 16 1027 58 10000 5.1 100 05:45 02.07.2020
589 Clear 14 1028 66 10000 3.6 80 04:21 02.07.2020
590 Clear 11 1027 87 10000 1.5 340 03:32 02.07.2020
591 Clear 4 1025 93 10000 2.63 100 01:23 02.07.2020
592 Clear 5 1025 93 10000 0.5 30 00:25 02.07.2020
593 Clear 6 1025 93 10000 1.5 360 23:51 01.07.2020
594 Clear 6 1025 100 10000 0.5 350 23:30 01.07.2020
595 Clear 6 1025 100 10000 2.4 105 22:57 01.07.2020
596 Clear 6 1025 93 10000 1.5 10 22:38 01.07.2020
597 Clear 6 1025 93 10000 1.5 10 22:19 01.07.2020
598 Clear 7 1025 93 10000 1.5 350 21:59 01.07.2020
599 Clear 7 1024 93 10000 2.47 113 21:40 01.07.2020
600 Clear 7 1024 93 10000 2.81 127 21:22 01.07.2020
601 Clear 7 1024 100 10000 2.81 127 20:58 01.07.2020
602 Clear 8 1024 93 10000 2.81 127 20:40 01.07.2020
603 Clouds 8 1024 93 10000 2.98 135 20:21 01.07.2020
604 Clouds 9 1024 93 10000 1.5 290 19:54 01.07.2020
605 Clouds 8 1024 100 10000 1.5 290 19:36 01.07.2020
606 Clouds 9 1024 93 10000 2.1 350 19:18 01.07.2020
607 Clouds 9 1024 93 10000 3.39 142 18:42 01.07.2020
608 Clouds 9 1024 93 10000 3.53 147 18:21 01.07.2020
609 Clouds 9 1024 100 10000 3.53 147 17:57 01.07.2020
610 Clouds 10 1024 100 10000 3.53 147 17:38 01.07.2020
611 Clouds 10 1024 100 10000 3.53 153 17:19 01.07.2020
612 Clouds 10 1024 93 10000 3.53 153 16:46 01.07.2020
613 Clouds 10 1024 93 10000 3.01 149 16:26 01.07.2020
614 Clouds 10 1024 93 10000 3.01 149 15:55 01.07.2020
615 Clouds 10 1024 87 10000 3.01 149 15:37 01.07.2020
616 Clouds 10 1024 93 10000 2.6 190 15:18 01.07.2020
617 Clouds 10 1023 87 10000 2.6 190 14:42 01.07.2020
618 Clouds 11 1023 87 10000 2.6 190 14:21 01.07.2020
619 Clouds 12 1023 76 10000 3.1 180 13:57 01.07.2020
620 Clouds 12 1023 76 10000 3.1 200 13:38 01.07.2020
621 Clouds 12 1023 71 10000 3.1 210 13:20 01.07.2020
622 Clouds 13 1023 71 10000 3.1 210 12:56 01.07.2020
623 Clouds 13 1022 66 10000 3.1 180 12:38 01.07.2020
624 Clouds 14 1022 67 10000 4.1 180 12:19 01.07.2020
625 Clouds 15 1022 62 10000 3.6 170 11:40 01.07.2020
626 Clouds 15 1022 62 10000 3.6 170 11:21 01.07.2020
627 Clouds 15 1022 58 10000 3.6 180 10:57 01.07.2020
628 Clouds 15 1021 58 10000 3.6 170 10:39 01.07.2020
629 Clouds 15 1021 58 10000 3.6 170 10:20 01.07.2020
630 Clouds 15 1021 62 10000 4.6 210 09:39 01.07.2020
631 Clouds 16 1021 62 10000 4.6 210 09:20 01.07.2020
632 Clouds 15 1021 62 10000 5.7 180 08:59 01.07.2020
633 Clouds 16 1021 62 10000 4.1 170 08:40 01.07.2020
634 Clouds 16 1021 62 10000 4.1 170 08:20 01.07.2020
635 Clouds 16 1021 59 10000 4.1 190 07:43 01.07.2020
636 Clouds 16 1021 59 10000 4.1 190 07:25 01.07.2020
637 Clouds 16 1021 59 10000 5.1 190 06:57 01.07.2020
638 Clouds 16 1021 62 10000 5.7 210 06:38 01.07.2020
639 Clouds 16 1022 62 10000 4.6 190 06:20 01.07.2020
640 Clouds 15 1022 71 10000 4.6 190 04:30 01.07.2020
641 Clouds 13 1021 82 10000 1.5 140 03:42 01.07.2020
642 Clouds 13 1021 82 10000 1.5 140 03:22 01.07.2020
643 Clouds 12 1020 93 10000 2.6 80 02:19 01.07.2020
644 Rain 12 1019 93 10000 2.6 190 00:49 01.07.2020
645 Rain 13 1019 87 10000 4.6 180 00:29 01.07.2020
646 Clouds 13 1019 87 10000 2.1 160 00:00 01.07.2020
647 Rain 13 1018 93 10000 2.6 240 23:39 30.06.2020
648 Rain 13 1018 93 10000 2.6 240 23:19 30.06.2020
649 Clouds 13 1018 93 10000 1.5 200 22:42 30.06.2020
650 Clouds 13 1018 93 10000 1.5 200 22:19 30.06.2020
651 Rain 13 1018 87 10000 4.6 190 21:43 30.06.2020
652 Rain 13 1018 87 10000 4.6 190 21:20 30.06.2020
653 Rain 13 1017 93 8000 4.1 200 20:59 30.06.2020
654 Rain 13 1017 93 8000 3.6 240 20:41 30.06.2020
655 Rain 14 1017 87 6000 4.1 240 20:20 30.06.2020
656 Rain 14 1017 87 10000 6.7 220 19:44 30.06.2020
657 Rain 15 1017 77 10000 6.2 230 19:21 30.06.2020
658 Rain 15 1017 77 10000 6.2 230 19:21 30.06.2020
659 Rain 15 1017 77 10000 6.2 230 19:21 30.06.2020
660 Rain 15 1017 77 10000 6.2 230 18:57 30.06.2020
661 Rain 15 1016 72 9000 4.1 230 18:38 30.06.2020
662 Clouds 15 1016 67 10000 5.1 240 18:20 30.06.2020
663 Rain 16 1016 82 10000 3.6 250 17:39 30.06.2020
664 Rain 16 1016 82 10000 3.6 250 17:20 30.06.2020
665 Rain 15 1016 87 10000 3.6 270 16:57 30.06.2020
666 Rain 15 1016 87 7000 7.7 240 16:38 30.06.2020
667 Rain 15 1016 87 7000 7.7 240 16:19 30.06.2020
668 Rain 15 1016 87 5000 8.2 250 15:54 30.06.2020
669 Rain 16 1016 67 10000 7.7 260 15:36 30.06.2020
670 Rain 16 1016 67 10000 7.7 260 15:18 30.06.2020
671 Clouds 17 1015 63 10000 6.7 250 14:42 30.06.2020
672 Clouds 17 1015 63 10000 6.7 250 14:21 30.06.2020
673 Clouds 17 1015 63 10000 6.7 260 13:42 30.06.2020
674 Clouds 17 1015 63 10000 6.7 260 13:21 30.06.2020
675 Clouds 17 1015 63 10000 6.7 260 13:21 30.06.2020
676 Clouds 17 1015 72 10000 6.7 250 12:59 30.06.2020
677 Rain 17 1014 82 10000 3.1 290 12:41 30.06.2020
678 Rain 16 1014 82 10000 3.1 290 12:23 30.06.2020
679 Rain 16 1014 87 10000 5.1 250 11:59 30.06.2020
680 Rain 16 1014 87 3000 5.1 270 11:39 30.06.2020
681 Rain 16 1014 87 3000 5.1 270 11:20 30.06.2020
682 Rain 16 1014 82 4000 4.1 290 11:20 30.06.2020
683 Rain 16 1014 82 4000 4.1 290 11:20 30.06.2020
684 Rain 16 1014 82 4000 4.1 290 10:59 30.06.2020
685 Clouds 18 1006 72 10000 10.8 310 16:44 28.06.2020
686 Clouds 18 1006 72 10000 10.8 310 16:26 28.06.2020
687 Clouds 18 1006 72 10000 10.8 310 16:26 28.06.2020
688 Rain 18 1006 72 10000 8.7 330 15:58 28.06.2020
689 Rain 18 1006 72 10000 8.7 330 15:58 28.06.2020
690 Rain 18 1006 82 10000 6.7 330 15:39 28.06.2020
691 Rain 17 1006 82 10000 6.7 330 15:19 28.06.2020
692 Rain 17 1006 82 10000 6.7 330 15:19 28.06.2020
693 Rain 17 1006 93 10000 3.6 260 14:46 28.06.2020
694 Rain 16 1006 93 10000 3.6 260 14:28 28.06.2020
695 Rain 16 1006 93 10000 7.2 340 13:58 28.06.2020
696 Clouds 17 1006 93 10000 4.6 20 13:38 28.06.2020
697 Rain 17 1007 93 10000 3.1 360 13:19 28.06.2020
698 Rain 17 1007 93 10000 3.1 360 12:56 28.06.2020
699 Rain 17 1007 93 7000 4.6 330 12:37 28.06.2020
700 Rain 16 1007 93 7000 4.6 330 12:19 28.06.2020
701 Rain 16 1007 93 4000 3.6 350 11:56 28.06.2020
702 Thunderstorm 16 1007 93 2000 5.1 10 11:37 28.06.2020
703 Thunderstorm 16 1007 93 2000 5.1 10 11:19 28.06.2020
704 Rain 17 1007 100 7000 5.7 340 10:42 28.06.2020
705 Rain 17 1007 100 7000 5.7 340 10:42 28.06.2020
706 Rain 16 1007 100 7000 5.7 340 10:23 28.06.2020
707 Rain 16 1007 100 10000 3.6 10 09:59 28.06.2020
708 Rain 16 1007 93 2500 4.1 350 09:39 28.06.2020
709 Rain 16 1007 93 2500 4.1 350 09:20 28.06.2020
710 Rain 16 1008 93 10000 5.7 340 08:46 28.06.2020
711 Rain 16 1008 93 5000 4.6 300 08:25 28.06.2020
712 Rain 16 1008 88 10000 4.6 290 07:46 28.06.2020
713 Rain 16 1008 88 10000 4.6 290 07:28 28.06.2020
714 Rain 16 1009 93 7000 3.6 310 06:34 28.06.2020
715 Rain 16 1009 93 3500 4.6 290 05:57 28.06.2020
716 Rain 16 1010 93 5000 10.8 310 05:26 28.06.2020
717 Rain 16 1010 93 7000 7.7 10 03:23 28.06.2020
718 Clouds 15 1010 93 10000 6.2 20 02:36 28.06.2020
719 Clouds 15 1010 93 10000 4.6 20 01:48 28.06.2020
720 Rain 15 1010 93 9000 7.2 20 01:25 28.06.2020
721 Rain 15 1009 93 10000 7.2 20 00:43 28.06.2020
722 Rain 15 1010 93 10000 5.7 10 00:22 28.06.2020
723 Rain 15 1010 93 10000 6.7 10 23:40 27.06.2020
724 Rain 15 1010 93 10000 6.7 10 23:22 27.06.2020
725 Rain 15 1009 93 10000 7.2 20 22:56 27.06.2020
726 Clouds 15 1009 93 10000 5.1 20 22:38 27.06.2020
727 Clouds 15 1009 93 10000 5.1 20 22:19 27.06.2020
728 Rain 15 1010 93 10000 5.7 20 21:42 27.06.2020
729 Rain 15 1010 93 10000 5.7 20 21:20 27.06.2020
730 Rain 15 1010 93 10000 5.7 10 20:56 27.06.2020
731 Rain 15 1010 93 10000 5.1 10 20:37 27.06.2020
732 Rain 15 1010 93 5000 6.2 20 20:18 27.06.2020
733 Rain 15 1011 93 10000 5.7 10 19:39 27.06.2020
734 Rain 15 1011 93 10000 5.7 10 19:20 27.06.2020
735 Rain 15 1011 93 3500 4.6 360 18:59 27.06.2020
736 Rain 15 1011 93 7000 5.7 10 18:40 27.06.2020
737 Rain 15 1011 93 10000 6.7 10 18:20 27.06.2020
738 Clouds 15 1012 93 10000 4.6 10 17:41 27.06.2020
739 Clouds 15 1012 93 10000 4.6 10 17:21 27.06.2020
740 Clouds 15 1012 93 10000 5.1 20 16:57 27.06.2020
741 Rain 16 1012 87 10000 4.6 20 16:39 27.06.2020
742 Rain 16 1012 87 10000 4.6 20 16:39 27.06.2020
743 Rain 16 1012 87 10000 4.6 20 16:20 27.06.2020
744 Clouds 16 1012 87 10000 5.7 20 15:45 27.06.2020
745 Clouds 16 1012 87 10000 5.1 30 15:24 27.06.2020
746 Clouds 15 1012 87 10000 4.6 20 14:58 27.06.2020
747 Clouds 15 1013 93 10000 5.1 20 14:39 27.06.2020
748 Clouds 15 1013 93 10000 5.1 20 14:20 27.06.2020
749 Clouds 15 1013 93 10000 5.1 20 13:54 27.06.2020
750 Clouds 16 1013 87 10000 4.1 20 13:36 27.06.2020
751 Clouds 16 1013 87 10000 5.7 10 13:18 27.06.2020
752 Rain 16 1013 88 10000 5.7 20 12:40 27.06.2020
753 Rain 16 1012 88 10000 3.6 30 12:22 27.06.2020
754 Rain 17 1012 88 10000 3.6 30 11:59 27.06.2020
755 Rain 18 1012 82 10000 2.6 10 11:38 27.06.2020
756 Rain 18 1012 82 10000 2.6 10 11:19 27.06.2020
757 Rain 18 1012 77 10000 4.6 360 10:41 27.06.2020
758 Rain 18 1012 77 10000 4.6 360 10:19 27.06.2020
759 Rain 19 1013 72 10000 3.6 350 09:57 27.06.2020
760 Clouds 19 1013 77 10000 2.6 340 09:38 27.06.2020
761 Clouds 19 1013 77 10000 2.6 340 09:20 27.06.2020
762 Rain 18 1013 93 10000 2.6 340 08:42 27.06.2020
763 Rain 18 1013 93 10000 2.6 340 08:22 27.06.2020
764 Rain 18 1013 93 10000 2.6 340 08:22 27.06.2020
765 Rain 17 1013 87 2000 6.2 300 07:46 27.06.2020
766 Drizzle 18 1013 88 10000 4.1 350 07:25 27.06.2020
767 Clouds 18 1014 77 10000 5.1 20 06:50 27.06.2020
768 Clouds 19 1014 77 10000 5.1 20 06:31 27.06.2020
769 Rain 17 1015 88 10000 5.7 10 04:24 27.06.2020
770 Clouds 16 1015 87 10000 5.7 10 03:54 27.06.2020
771 Clouds 15 1015 93 10000 4.6 10 03:30 27.06.2020
772 Rain 14 1015 100 10000 3.6 20 02:36 27.06.2020
773 Rain 13 1015 100 10000 3.1 10 01:49 27.06.2020
774 Rain 13 1014 100 10000 3.6 30 01:24 27.06.2020
775 Rain 14 1014 93 9000 3.6 10 00:38 27.06.2020
776 Rain 14 1014 93 10000 3.6 30 23:46 26.06.2020
777 Rain 14 1014 93 10000 3.6 30 23:26 26.06.2020
778 Rain 14 1014 100 10000 2.6 30 22:57 26.06.2020
779 Clouds 14 1014 100 10000 3.1 40 22:38 26.06.2020
780 Clouds 14 1014 100 10000 3.1 40 22:19 26.06.2020
781 Fog 14 1014 100 10000 2.6 30 21:57 26.06.2020
782 Clouds 14 1014 93 10000 3.6 20 21:38 26.06.2020
783 Clouds 14 1014 93 10000 3.6 20 21:20 26.06.2020
784 Rain 14 1014 93 10000 2.6 20 20:43 26.06.2020
785 Rain 14 1014 93 10000 2.6 20 20:23 26.06.2020
786 Clouds 14 1014 93 10000 3.6 40 19:47 26.06.2020
787 Clouds 14 1014 93 10000 3.6 40 19:47 26.06.2020
788 Rain 14 1014 93 8000 2.6 10 19:24 26.06.2020
789 Rain 14 1014 93 8000 2.6 10 18:58 26.06.2020
790 Rain 14 1014 93 8000 2.6 10 18:58 26.06.2020
791 Rain 15 1014 93 10000 3.6 30 18:38 26.06.2020
792 Rain 15 1014 93 10000 3.6 50 18:19 26.06.2020
793 Rain 15 1014 93 10000 1 140 17:44 26.06.2020
794 Rain 15 1014 93 10000 1 140 17:25 26.06.2020
795 Rain 15 1014 87 10000 3.1 30 16:49 26.06.2020
796 Rain 16 1014 87 10000 3.6 360 16:27 26.06.2020
797 Rain 15 1014 82 10000 3.1 20 15:55 26.06.2020
798 Clouds 15 1014 87 10000 2.1 40 15:37 26.06.2020
799 Clouds 15 1014 87 10000 2.1 40 15:19 26.06.2020
800 Rain 16 1014 77 10000 2.6 350 14:56 26.06.2020
801 Clouds 16 1014 72 10000 3.1 20 14:38 26.06.2020
802 Clouds 16 1014 72 10000 3.1 20 14:19 26.06.2020
803 Clouds 16 1014 67 10000 3.6 360 13:43 26.06.2020
804 Clouds 17 1014 67 10000 4.1 360 13:19 26.06.2020
805 Clouds 18 1014 63 10000 4.1 350 12:42 26.06.2020
806 Clouds 18 1014 63 10000 4.1 350 12:24 26.06.2020
807 Rain 19 1013 59 10000 6.2 310 11:59 26.06.2020
808 Clouds 19 1013 55 10000 7.2 320 11:41 26.06.2020
809 Clouds 19 1013 55 10000 7.2 320 11:22 26.06.2020
810 Rain 20 1013 52 10000 6.2 310 10:58 26.06.2020
811 Rain 20 1013 52 10000 6.2 310 10:58 26.06.2020
812 Rain 20 1013 52 10000 6.2 310 10:39 26.06.2020
813 Rain 20 1013 52 10000 6.2 310 10:19 26.06.2020
814 Clouds 21 1013 49 10000 6.7 310 09:45 26.06.2020
815 Clouds 21 1013 49 10000 6.7 310 09:26 26.06.2020
816 Rain 21 1012 52 10000 6.2 310 08:57 26.06.2020
817 Rain 21 1013 52 10000 6.2 320 08:37 26.06.2020
818 Rain 21 1013 52 10000 6.2 330 08:19 26.06.2020
819 Clouds 21 1013 52 10000 7.2 330 07:44 26.06.2020
820 Clouds 21 1013 52 10000 7.2 330 07:22 26.06.2020
821 Clouds 20 1014 60 10000 6.2 340 06:44 26.06.2020
822 Clouds 20 1014 60 10000 6.2 340 06:26 26.06.2020
823 Rain 20 1014 64 10000 6.2 330 05:48 26.06.2020
824 Clouds 17 1015 82 10000 4.1 10 04:39 26.06.2020
825 Fog 11 1014 93 8000 3.1 30 02:22 26.06.2020
826 Mist 10 1014 93 10000 2.6 50 01:21 26.06.2020
827 Clouds 11 1014 100 10000 3.16 347 00:41 26.06.2020
828 Clouds 11 1013 93 10000 2.6 50 00:20 26.06.2020
829 Clouds 11 1013 93 10000 2.1 50 23:43 25.06.2020
830 Clouds 11 1013 93 10000 2.1 50 23:19 25.06.2020
831 Clouds 11 1013 100 10000 2.6 10 22:56 25.06.2020
832 Clouds 11 1013 93 10000 2.1 30 22:37 25.06.2020
833 Clouds 11 1013 93 10000 2.1 30 22:19 25.06.2020
834 Clouds 12 1014 93 10000 2.6 30 21:56 25.06.2020
835 Clouds 12 1014 93 10000 2.1 20 21:38 25.06.2020
836 Clouds 12 1013 93 10000 3.1 360 21:19 25.06.2020
837 Clouds 12 1013 93 10000 3.1 360 21:19 25.06.2020
838 Clear 12 1014 93 10000 2.6 50 20:44 25.06.2020
839 Clear 12 1014 93 10000 2.6 50 20:23 25.06.2020
840 Clear 12 1014 87 10000 2.1 350 19:58 25.06.2020
841 -273 0 0 0 0 0 19:39 25.06.2020
842 Clear 13 1014 76 10000 3.6 70 19:19 25.06.2020
843 Clear 13 1014 82 10000 3.1 70 18:55 25.06.2020
844 Clear 13 1014 82 10000 3.1 70 18:55 25.06.2020
845 Clear 13 1014 82 10000 3.1 70 18:36 25.06.2020
846 Clouds 14 1014 82 10000 3.6 350 18:18 25.06.2020
847 Rain 14 1015 82 10000 2.6 330 17:39 25.06.2020
848 Rain 14 1015 82 10000 2.6 330 17:19 25.06.2020
849 Clear 14 1015 71 10000 2.1 60 16:41 25.06.2020
850 Clear 14 1015 71 10000 2.1 60 16:22 25.06.2020
851 Clear 14 1015 71 10000 2.6 40 15:46 25.06.2020
852 Clear 14 1015 82 10000 2.1 30 15:27 25.06.2020
853 Clear 14 1015 76 10000 2.1 310 14:58 25.06.2020
854 Clear 15 1015 76 10000 1.79 334 14:40 25.06.2020
855 Clouds 15 1015 76 10000 1.14 352 14:22 25.06.2020
856 Clouds 15 1015 67 10000 0.29 103 13:56 25.06.2020
857 Clouds 16 1016 72 10000 1 190 13:37 25.06.2020
858 Clouds 16 1016 72 10000 1 190 13:19 25.06.2020
859 Clouds 17 1016 63 10000 2.6 90 12:44 25.06.2020
860 Clouds 17 1016 67 10000 2.6 110 12:20 25.06.2020
861 Clouds 18 1016 59 10000 2.6 100 11:44 25.06.2020
862 Clouds 18 1016 59 10000 2.6 100 11:25 25.06.2020
863 Clouds 19 1016 48 10000 2.6 60 10:58 25.06.2020
864 Clouds 19 1016 52 10000 2.6 30 10:40 25.06.2020
865 Clouds 20 1016 42 10000 4.1 20 10:21 25.06.2020
866 Clouds 20 1016 42 10000 4.6 30 09:41 25.06.2020
867 Clouds 20 1016 42 10000 4.6 30 09:23 25.06.2020
868 Clouds 20 1017 45 10000 4.1 20 08:47 25.06.2020
869 Clouds 20 1017 42 10000 4.6 30 08:20 25.06.2020
870 Clouds 20 1018 40 10000 4.1 30 07:46 25.06.2020
871 Clouds 20 1019 42 10000 4.1 20 07:28 25.06.2020
872 Clouds 19 1019 45 10000 4.1 20 06:53 25.06.2020
873 Clouds 18 1020 48 10000 4.1 30 06:27 25.06.2020
874 Clouds 18 1020 48 10000 4.1 30 05:51 25.06.2020
875 Clouds 15 1021 67 10000 3.1 70 04:29 25.06.2020
876 Clouds 12 1022 71 10000 3.6 50 03:34 25.06.2020
877 Clear 10 1022 81 10000 3.6 40 02:42 25.06.2020
878 Clouds 8 1021 81 10000 2.6 10 01:59 25.06.2020
879 Clouds 7 1021 81 10000 2.6 30 01:21 25.06.2020
880 Clouds 7 1021 87 10000 2.6 60 00:44 25.06.2020
881 Clear 7 1021 87 10000 3.1 20 00:21 25.06.2020
882 Clear 7 1021 87 10000 2.6 10 23:44 24.06.2020
883 Clear 7 1021 87 10000 2.6 10 23:26 24.06.2020
884 Clear 7 1021 81 10000 3.1 10 22:58 24.06.2020
885 Clear 8 1021 81 10000 3.1 20 22:40 24.06.2020
886 Clear 7 1022 87 10000 3.1 10 22:20 24.06.2020
887 Clear 7 1022 87 10000 3.1 10 21:55 24.06.2020
888 Clear 8 1022 87 10000 2.6 20 21:36 24.06.2020
889 Clear 8 1022 87 10000 2.6 20 21:18 24.06.2020
890 Clear 8 1022 87 10000 2.6 40 20:57 24.06.2020
891 Clear 8 1022 87 10000 2.6 40 20:57 24.06.2020
892 Clear 8 1022 87 10000 3.1 30 20:38 24.06.2020
893 Clouds 8 1022 87 10000 2.6 20 20:19 24.06.2020
894 Clouds 8 1022 87 10000 2.6 20 19:55 24.06.2020
895 Clouds 8 1022 81 10000 2.6 10 19:36 24.06.2020
896 Clouds 9 1022 81 10000 2.6 10 19:36 24.06.2020
897 Clouds 9 1022 87 10000 3.1 30 19:18 24.06.2020
898 Clouds 9 1022 87 10000 3.1 30 18:57 24.06.2020
899 Clouds 9 1022 93 10000 3.6 30 18:38 24.06.2020
900 Clouds 9 1023 93 10000 3.1 20 18:19 24.06.2020
901 Clouds 9 1023 93 10000 3.1 360 17:43 24.06.2020
902 Clouds 9 1023 93 10000 3.1 360 17:21 24.06.2020
903 Clouds 9 1023 87 10000 3.1 10 16:58 24.06.2020
904 Clouds 10 1023 87 10000 3.1 30 16:40 24.06.2020
905 Clouds 10 1023 87 10000 3.1 30 16:21 24.06.2020
906 Clouds 10 1023 87 10000 3.1 10 15:57 24.06.2020
907 Clouds 10 1022 87 10000 2.6 40 15:38 24.06.2020
908 Clouds 11 1022 87 10000 3.1 20 15:20 24.06.2020
909 Clouds 11 1022 81 10000 2.1 40 14:43 24.06.2020
910 Clouds 12 1022 81 10000 2.1 40 14:25 24.06.2020
911 Clouds 12 1022 81 10000 2.1 30 13:57 24.06.2020
912 Clouds 12 1022 76 10000 0.5 130 13:38 24.06.2020
913 Clouds 13 1022 71 10000 3.1 170 13:18 24.06.2020
914 Clouds 14 1021 62 10000 3.1 250 12:41 24.06.2020
915 Clouds 15 1021 59 10000 3.6 240 12:20 24.06.2020
916 Clouds 16 1021 59 10000 3.6 240 11:56 24.06.2020
917 Clouds 16 1021 55 10000 3.6 250 11:38 24.06.2020
918 Clouds 17 1021 55 10000 3.6 250 11:18 24.06.2020
919 Clouds 18 1021 52 10000 3.6 250 10:43 24.06.2020
920 Clouds 18 1021 52 10000 3.6 250 10:19 24.06.2020
921 Clouds 19 1021 52 10000 6.2 260 09:43 24.06.2020
922 Clouds 19 1021 52 10000 6.2 260 09:22 24.06.2020
923 Clouds 19 1021 52 10000 5.1 250 08:44 24.06.2020
924 Clouds 19 1021 52 10000 5.1 250 08:26 24.06.2020
925 Clouds 19 1021 55 10000 5.1 270 07:55 24.06.2020
926 Clouds 19 1021 52 10000 4.6 280 07:37 24.06.2020
927 Clouds 19 1021 48 10000 5.7 270 07:18 24.06.2020
928 Clouds 19 1021 52 10000 0.5 200 06:39 24.06.2020
929 Clouds 19 1022 59 10000 3.95 250 06:21 24.06.2020
930 Clouds 17 1022 72 10000 3.95 250 05:30 24.06.2020
931 Clouds 16 1023 77 10000 2.6 20 04:36 24.06.2020
932 Clouds 13 1022 87 10000 3.6 30 03:36 24.06.2020
933 Clouds 13 1022 93 10000 3.1 50 02:51 24.06.2020
934 Rain 12 1021 93 10000 3.1 50 01:45 24.06.2020
935 Fog 11 1021 93 10000 2.6 20 00:48 24.06.2020
936 Fog 11 1021 93 10000 2.6 20 00:29 24.06.2020
937 Clouds 11 1020 93 10000 3.1 40 23:46 23.06.2020
938 Fog 10 1020 100 10000 2.6 20 23:20 23.06.2020
939 Fog 10 1020 100 10000 2.6 20 22:57 23.06.2020
940 Fog 10 1020 100 8000 2.6 20 22:36 23.06.2020
941 Fog 11 1020 100 9000 2.6 20 22:18 23.06.2020
942 Fog 11 1020 93 9000 2.6 20 21:41 23.06.2020
943 Fog 11 1020 93 9000 2.6 20 21:20 23.06.2020
944 Clouds 12 1020 100 8000 2.6 10 20:56 23.06.2020
945 Fog 12 1020 93 10000 2.6 20 20:56 23.06.2020
946 Clouds 12 1020 100 8000 2.6 10 20:37 23.06.2020
947 Clouds 12 1020 100 8000 2.6 10 20:19 23.06.2020
948 Mist 12 1020 93 5000 2.1 30 19:49 23.06.2020
949 Clouds 12 1020 100 8000 2.6 20 19:27 23.06.2020
950 Clouds 13 1019 100 9000 2.6 40 18:42 23.06.2020
951 Fog 13 1019 93 10000 1.5 0 18:19 23.06.2020
952 Fog 13 1019 93 10000 1.5 0 17:58 23.06.2020
953 Clouds 13 1020 93 10000 2.6 20 17:39 23.06.2020
954 Clouds 13 1020 93 10000 2.6 20 17:20 23.06.2020
955 Clouds 13 1019 93 10000 1.5 20 16:55 23.06.2020
956 Clouds 14 1019 93 10000 2.6 50 16:37 23.06.2020
957 Clouds 14 1019 93 10000 0.5 50 16:18 23.06.2020
958 Clouds 15 1019 93 10000 2.6 60 15:43 23.06.2020
959 Clouds 15 1019 93 10000 2.6 60 15:24 23.06.2020
960 Clouds 15 1018 93 10000 4.78 233 14:56 23.06.2020
961 Rain 15 1018 93 10000 4.78 233 14:38 23.06.2020
962 Rain 15 1018 87 10000 3.1 250 14:18 23.06.2020
963 Rain 15 1017 87 10000 2.6 290 13:46 23.06.2020
964 Rain 16 1017 72 7000 3.1 250 13:26 23.06.2020
965 Rain 16 1017 72 7000 3.1 250 12:59 23.06.2020
966 Rain 16 1016 72 10000 3.1 260 12:40 23.06.2020
967 Rain 16 1016 63 10000 4.1 270 12:21 23.06.2020
968 Clouds 17 1016 63 10000 4.6 280 11:43 23.06.2020
969 Clouds 18 1016 63 10000 4.6 280 11:23 23.06.2020
970 Clouds 18 1015 59 10000 6.2 280 10:59 23.06.2020
971 Clouds 19 1015 59 10000 6.7 280 10:41 23.06.2020
972 Rain 19 1015 59 10000 3.1 250 10:22 23.06.2020
973 Rain 19 1015 59 10000 3.1 250 09:57 23.06.2020
974 Clouds 19 1015 55 10000 7.7 280 09:38 23.06.2020
975 Clouds 19 1015 55 10000 7.7 280 09:20 23.06.2020
976 Clouds 20 1015 55 10000 7.7 280 08:46 23.06.2020
977 Clouds 19 1015 55 10000 7.7 280 08:26 23.06.2020
978 Clouds 20 1015 55 10000 7.7 290 07:47 23.06.2020
979 Clouds 19 1015 55 10000 8.2 270 07:24 23.06.2020
980 Clouds 19 1015 45 10000 6.7 280 06:53 23.06.2020
981 Clouds 19 1015 45 10000 6.7 280 06:32 23.06.2020
982 Clouds 19 1015 55 10000 7.7 270 05:56 23.06.2020
983 Clouds 19 1015 59 10000 7.7 270 04:52 23.06.2020
984 Clouds 17 1014 63 10000 6.2 280 03:21 23.06.2020
985 Clouds 17 1013 72 10000 4.6 290 02:48 23.06.2020
986 Clouds 16 1013 72 10000 4.6 290 02:29 23.06.2020
987 Clouds 16 1012 72 10000 5.1 270 01:46 23.06.2020
988 Clouds 16 1012 72 10000 4.6 290 01:22 23.06.2020
989 Clouds 16 1011 77 10000 4.1 290 00:41 23.06.2020
990 Rain 16 1011 72 10000 4.1 270 00:20 23.06.2020
991 Rain 16 1011 82 10000 4.6 290 23:39 22.06.2020
992 Rain 16 1011 82 10000 4.6 290 23:39 22.06.2020
993 Rain 16 1011 72 10000 5.7 270 23:19 22.06.2020
994 Rain 16 1011 72 10000 5.7 270 22:59 22.06.2020
995 Clouds 16 1010 72 10000 5.7 290 22:40 22.06.2020
996 Clouds 16 1010 67 10000 6.2 290 22:20 22.06.2020
997 Clouds 16 1010 67 10000 6.2 290 21:58 22.06.2020
998 Clouds 16 1010 67 10000 6.2 290 21:58 22.06.2020
999 Clouds 16 1010 67 10000 6.2 290 21:58 22.06.2020
1000 Clouds 16 1010 63 10000 7.2 300 21:40 22.06.2020
1001 Clouds 16 1010 63 10000 7.2 300 21:21 22.06.2020
1002 Clouds 16 1010 72 10000 5.1 310 20:55 22.06.2020
1003 Rain 16 1010 77 10000 7.2 320 20:36 22.06.2020
1004 Rain 16 1009 72 9000 6.2 310 20:18 22.06.2020
1005 Clouds 17 1009 63 10000 6.7 300 19:43 22.06.2020
1006 Clouds 17 1009 63 10000 6.7 300 19:19 22.06.2020
1007 Clouds 16 1010 67 10000 6.2 320 18:56 22.06.2020
1008 Clouds 17 1010 67 10000 6.2 320 18:36 22.06.2020
1009 Clouds 16 1010 67 10000 7.2 310 18:18 22.06.2020
1010 Rain 16 1010 72 10000 7.2 300 17:39 22.06.2020
1011 Rain 16 1010 72 10000 7.2 300 17:21 22.06.2020
1012 Rain 16 1009 77 10000 8.7 280 16:59 22.06.2020
1013 Rain 16 1009 93 10000 5.1 10 16:41 22.06.2020
1014 Rain 16 1009 93 10000 5.1 10 16:18 22.06.2020
1015 Rain 15 1009 93 10000 5.1 10 15:54 22.06.2020
1016 Rain 15 1008 93 10000 6.2 360 15:36 22.06.2020
1017 Rain 15 1009 87 4500 7.7 330 15:18 22.06.2020
1018 Rain 15 1008 82 8000 4.6 290 14:39 22.06.2020
1019 Rain 16 1008 67 6000 5.7 300 14:20 22.06.2020
1020 Rain 17 1008 67 6000 5.7 300 13:55 22.06.2020
1021 Rain 18 1006 52 10000 8.7 20 13:37 22.06.2020
1022 Rain 19 1007 52 10000 10.3 340 13:19 22.06.2020
1023 Clouds 19 1008 52 10000 7.2 360 12:41 22.06.2020
1024 Clouds 19 1008 52 10000 7.2 360 12:22 22.06.2020
1025 Rain 19 1008 45 10000 10.3 340 11:39 22.06.2020
1026 Rain 19 1008 45 10000 10.3 340 11:20 22.06.2020
1027 Clouds 19 1007 39 10000 11.8 30 10:57 22.06.2020
1028 Clouds 19 1009 42 10000 9.3 30 10:39 22.06.2020
1029 Rain 19 1009 37 10000 8.7 20 10:19 22.06.2020
1030 Rain 19 1009 37 10000 8.7 20 09:58 22.06.2020
1031 Rain 19 1010 37 10000 8.7 20 09:40 22.06.2020
1032 Rain 20 1009 32 10000 8.7 20 09:19 22.06.2020
1033 Rain 20 1009 32 10000 8.7 20 08:57 22.06.2020
1034 Rain 20 1010 30 10000 7.7 10 08:38 22.06.2020
1035 Clouds 21 1010 30 10000 8.2 10 08:19 22.06.2020
1036 Clouds 21 1011 32 10000 7.7 20 07:48 22.06.2020
1037 Clouds 21 1011 32 10000 7.7 20 07:26 22.06.2020
1038 Clouds 20 1012 32 10000 8.2 10 06:39 22.06.2020
1039 Clouds 20 1012 32 10000 8.2 10 06:21 22.06.2020
1040 Clouds 20 1013 28 10000 7.7 20 05:42 22.06.2020
1041 Clouds 18 1014 33 10000 6.2 30 03:48 22.06.2020
1042 Clouds 17 1014 27 10000 7.2 30 02:19 22.06.2020
1043 Clouds 18 1014 27 10000 6.7 30 00:59 22.06.2020
1044 Clouds 18 1013 27 10000 7.2 30 00:38 22.06.2020
1045 Clouds 18 1013 27 10000 8.2 30 23:57 21.06.2020
1046 Clouds 18 1013 32 10000 7.2 30 23:38 21.06.2020
1047 Clouds 18 1013 33 10000 7.2 30 23:20 21.06.2020
1048 Clouds 18 1013 34 10000 6.2 30 22:56 21.06.2020
1049 Clouds 18 1013 34 10000 6.2 30 22:36 21.06.2020
1050 Clouds 18 1014 34 10000 5.7 30 22:18 21.06.2020
1051 Clouds 18 1014 34 10000 5.7 30 21:55 21.06.2020
1052 Clouds 18 1014 36 10000 5.7 30 21:37 21.06.2020
1053 Clouds 18 1014 39 10000 5.7 30 21:19 21.06.2020
1054 Clouds 18 1014 39 10000 5.7 30 20:54 21.06.2020
1055 Clouds 18 1014 39 10000 6.2 30 20:36 21.06.2020
1056 Clear 18 1015 39 10000 5.1 20 20:18 21.06.2020
1057 Clear 18 1015 37 10000 5.1 40 19:41 21.06.2020
1058 Clear 18 1015 37 10000 5.1 40 19:20 21.06.2020
1059 Clear 18 1015 37 10000 4.1 30 18:56 21.06.2020
1060 Clear 18 1015 42 10000 4.6 50 18:38 21.06.2020
1061 Clear 18 1015 51 10000 4.1 70 18:19 21.06.2020
1062 Clear 17 1016 51 10000 5.1 70 17:41 21.06.2020
1063 Clear 16 1016 51 10000 5.1 70 17:22 21.06.2020
1064 Clear 16 1016 51 10000 4.6 60 16:57 21.06.2020
1065 Clear 16 1016 48 10000 5.7 70 16:39 21.06.2020
1066 Clear 16 1016 48 10000 5.7 70 16:21 21.06.2020
1067 Clear 17 1016 48 10000 5.7 70 15:41 21.06.2020
1068 Clear 17 1016 51 10000 5.1 70 15:23 21.06.2020
1069 Clear 17 1016 51 10000 5.1 70 14:58 21.06.2020
1070 Clear 17 1016 48 10000 5.7 70 14:37 21.06.2020
1071 Clear 17 1017 48 10000 4.6 60 14:19 21.06.2020
1072 Clear 17 1017 48 10000 4.6 60 13:55 21.06.2020
1073 Clear 17 1017 48 10000 4.6 70 13:36 21.06.2020
1074 Clear 17 1017 51 10000 4.1 60 13:18 21.06.2020
1075 Clear 17 1017 51 10000 4.1 70 12:42 21.06.2020
1076 Clear 18 1017 51 10000 4.1 70 12:23 21.06.2020
1077 Clear 19 1017 42 10000 3.6 30 11:43 21.06.2020
1078 Clear 20 1017 42 10000 3.6 30 11:25 21.06.2020
1079 Clear 21 1017 37 10000 4.6 30 10:59 21.06.2020
1080 Clear 22 1017 35 10000 4.6 30 10:40 21.06.2020
1081 Clear 22 1017 35 10000 4.6 30 10:22 21.06.2020
1082 Clear 23 1017 35 10000 5.1 40 09:55 21.06.2020
1083 Clear 23 1017 33 10000 5.1 20 09:36 21.06.2020
1084 Clear 22 1017 35 10000 5.7 20 09:18 21.06.2020
1085 Clear 22 1017 35 10000 3.1 30 08:41 21.06.2020
1086 Clear 22 1017 35 10000 3.1 30 08:21 21.06.2020
1087 Clear 21 1018 37 10000 3.6 20 07:59 21.06.2020
1088 Clear 21 1018 37 10000 3.6 30 07:40 21.06.2020
1089 Clear 21 1018 37 10000 3.6 30 07:20 21.06.2020
1090 Clear 21 1018 37 10000 3.6 30 07:20 21.06.2020
1091 Clear 20 1019 37 10000 6.2 30 06:46 21.06.2020
1092 Clear 19 1020 37 10000 6.2 30 05:58 21.06.2020
1093 Clear 17 1021 44 10000 4.6 60 04:49 21.06.2020
1094 Clear 13 1021 54 10000 6.7 70 03:20 21.06.2020
1095 Clear 12 1021 61 10000 7.2 70 02:49 21.06.2020
1096 Clear 10 1021 66 10000 5.7 70 01:48 21.06.2020
1097 Clear 10 1020 61 10000 8.2 70 01:21 21.06.2020
1098 Clear 10 1020 61 10000 8.2 70 00:55 21.06.2020
1099 Clear 10 1020 61 10000 8.2 70 00:36 21.06.2020
1100 Clear 10 1020 61 10000 7.7 70 00:18 21.06.2020
1101 Clear 10 1020 66 10000 7.2 70 23:41 20.06.2020
1102 Clear 10 1020 66 10000 7.2 70 23:21 20.06.2020
1103 Clear 10 1020 66 10000 7.2 80 22:55 20.06.2020
1104 Clear 10 1021 66 10000 6.7 70 22:36 20.06.2020
1105 Clear 9 1021 62 10000 5.7 60 22:18 20.06.2020
1106 Clear 11 1021 62 10000 5.7 60 21:54 20.06.2020
1107 Clear 11 1021 62 10000 5.1 70 21:36 20.06.2020
1108 Clear 11 1021 62 10000 6.2 70 21:18 20.06.2020
1109 Clear 11 1021 62 10000 6.2 70 20:54 20.06.2020
1110 Clear 12 1021 58 10000 6.7 70 20:36 20.06.2020
1111 Clear 12 1021 58 10000 6.7 70 20:18 20.06.2020
1112 Clear 10 1021 58 10000 5.7 60 19:41 20.06.2020
1113 Clear 11 1021 54 10000 5.7 60 19:21 20.06.2020
1114 Clear 11 1021 58 10000 5.7 60 18:43 20.06.2020
1115 Clear 11 1022 58 10000 6.2 60 18:21 20.06.2020
1116 Clear 12 1022 58 10000 6.2 60 17:58 20.06.2020
1117 Clear 12 1022 58 10000 5.7 60 17:39 20.06.2020
1118 Clear 12 1022 58 10000 5.7 60 17:39 20.06.2020
1119 Clear 12 1022 58 10000 6.2 60 17:20 20.06.2020
1120 Clear 12 1022 58 10000 6.2 60 17:20 20.06.2020
1121 Clear 12 1022 58 10000 4.6 60 16:43 20.06.2020
1122 Clear 13 1022 62 10000 4.1 50 16:19 20.06.2020
1123 Clear 13 1022 62 10000 4.1 50 15:58 20.06.2020
1124 Clear 13 1022 62 10000 3.1 30 15:40 20.06.2020
1125 Clear 13 1023 66 10000 2.6 20 15:18 20.06.2020
1126 Clear 13 1023 62 10000 2.1 50 14:43 20.06.2020
1127 Clear 13 1023 62 10000 2.1 50 14:21 20.06.2020
1128 Clear 14 1022 62 10000 2.6 90 13:46 20.06.2020
1129 Clear 14 1022 62 10000 2.6 90 13:26 20.06.2020
1130 Clear 14 1022 62 10000 3.6 80 12:59 20.06.2020
1131 Clear 15 1022 54 10000 4.1 60 12:40 20.06.2020
1132 Clear 15 1022 54 10000 4.1 60 12:20 20.06.2020
1133 Clear 16 1022 54 10000 2.6 70 11:55 20.06.2020
1134 Clear 16 1022 51 10000 4.6 70 11:36 20.06.2020
1135 Clear 17 1022 48 10000 5.7 90 11:18 20.06.2020
1136 Clear 18 1022 45 10000 5.7 90 10:44 20.06.2020
1137 Clear 18 1022 45 10000 5.7 90 10:21 20.06.2020
1138 Clear 19 1022 42 10000 5.1 70 09:54 20.06.2020
1139 Clear 19 1022 42 10000 5.7 50 09:36 20.06.2020
1140 Clear 19 1023 39 10000 5.7 60 09:18 20.06.2020
1141 Clear 19 1023 42 10000 6.2 60 08:44 20.06.2020
1142 Clear 19 1023 42 10000 6.2 60 08:26 20.06.2020
1143 Clear 18 1023 39 10000 6.7 50 07:51 20.06.2020
1144 Clear 18 1024 42 10000 7.2 60 07:27 20.06.2020
1145 Clear 18 1025 48 10000 7.2 70 06:53 20.06.2020
1146 Clear 17 1025 48 10000 7.2 70 06:23 20.06.2020
1147 Clear 16 1025 51 10000 7.7 70 05:50 20.06.2020
1148 Clear 14 1026 62 10000 6.2 80 04:50 20.06.2020
1149 Clear 9 1027 76 10000 6.2 70 02:23 20.06.2020
1150 Clear 7 1026 81 10000 6.7 70 01:46 20.06.2020
1151 Clear 7 1026 81 10000 6.2 80 00:52 20.06.2020
1152 Clear 7 1026 81 10000 4.6 60 00:21 20.06.2020
1153 Clear 6 1026 87 10000 3.6 40 23:49 19.06.2020
1154 Clear 6 1026 87 10000 3.6 40 23:22 19.06.2020
1155 Clear 6 1026 87 10000 3.1 50 22:59 19.06.2020
1156 Clear 6 1026 87 10000 2.1 20 22:40 19.06.2020
1157 Clear 6 1026 87 10000 2.1 80 22:22 19.06.2020
1158 Clear 7 1026 87 10000 2.1 80 21:56 19.06.2020
1159 Clear 7 1026 87 10000 2.1 80 21:56 19.06.2020
1160 Clear 7 1027 81 10000 2.6 90 21:37 19.06.2020
1161 Clear 7 1027 81 10000 3.6 90 21:18 19.06.2020
1162 Clear 7 1027 81 10000 3.6 90 20:57 19.06.2020
1163 Clear 7 1027 81 10000 3.6 80 20:39 19.06.2020
1164 Clear 8 1027 81 10000 3.6 80 20:20 19.06.2020
1165 Clear 8 1027 81 10000 4.1 80 19:55 19.06.2020
1166 Clear 9 1027 81 10000 3.1 80 19:37 19.06.2020
1167 Clear 9 1027 81 10000 3.6 90 19:18 19.06.2020
1168 Clear 9 1028 76 10000 3.6 80 18:40 19.06.2020
1169 Clear 9 1028 76 10000 3.6 80 18:21 19.06.2020
1170 Clear 9 1028 76 10000 3.6 90 17:54 19.06.2020
1171 Clear 10 1028 76 10000 4.6 100 17:36 19.06.2020
1172 Clear 10 1028 76 10000 3.6 90 17:18 19.06.2020
1173 Clear 11 1028 71 10000 3.1 90 16:41 19.06.2020
1174 Clear 11 1028 71 10000 2.6 90 16:22 19.06.2020
1175 Clear 11 1028 71 10000 2.6 90 15:54 19.06.2020
1176 Clear 11 1028 71 10000 3.1 70 15:36 19.06.2020
1177 Clear 11 1028 76 10000 3.6 70 15:18 19.06.2020
1178 Clear 12 1027 71 10000 4.6 90 14:41 19.06.2020
1179 Clear 12 1027 71 10000 3.6 90 14:21 19.06.2020
1180 Clear 12 1027 71 10000 2.6 90 13:59 19.06.2020
1181 Clear 12 1027 71 10000 2.6 90 13:40 19.06.2020
1182 Clear 13 1027 71 10000 2.6 90 13:22 19.06.2020
1183 Clear 13 1026 76 10000 3.6 100 12:45 19.06.2020
1184 Clear 14 1026 76 10000 3.6 100 12:22 19.06.2020
1185 Clouds 15 1026 66 10000 3.1 80 11:57 19.06.2020
1186 Clouds 16 1026 58 10000 2.6 90 11:36 19.06.2020
1187 Clouds 17 1026 51 10000 2.6 130 11:18 19.06.2020
1188 Clouds 18 1026 45 10000 3.6 100 10:43 19.06.2020
1189 Clouds 18 1026 45 10000 3.6 100 10:25 19.06.2020
1190 Clouds 18 1026 48 10000 0.5 100 09:56 19.06.2020
1191 Clouds 18 1026 48 10000 1 150 09:37 19.06.2020
1192 Clouds 18 1026 45 10000 2.1 140 09:19 19.06.2020
1193 Clouds 18 1026 45 10000 2.6 140 08:41 19.06.2020
1194 Clouds 18 1026 45 10000 2.6 140 08:23 19.06.2020
1195 Clouds 19 1026 48 10000 2.6 120 07:42 19.06.2020
1196 Clouds 18 1027 48 10000 3.1 110 07:22 19.06.2020
1197 Clouds 18 1027 48 10000 3.1 110 06:59 19.06.2020
1198 Clouds 17 1027 55 10000 3.6 60 06:23 19.06.2020
1199 Clouds 17 1028 59 10000 3.1 60 05:34 19.06.2020
1200 Clouds 15 1028 67 10000 3.6 70 04:21 19.06.2020
1201 Clouds 9 1027 87 10000 2.1 50 02:24 19.06.2020
1202 Rain 9 1025 93 10000 2.6 50 00:46 19.06.2020
1203 Rain 9 1025 93 10000 3.6 40 00:22 19.06.2020
1204 Rain 9 1025 93 10000 3.6 40 23:58 18.06.2020
1205 Clouds 9 1025 93 10000 2.1 40 23:39 18.06.2020
1206 Clouds 9 1025 93 10000 2.1 40 23:21 18.06.2020
1207 Clouds 9 1024 93 10000 2.38 86 22:41 18.06.2020
1208 Clouds 9 1024 93 10000 2.5 80 22:21 18.06.2020
1209 Clouds 10 1024 100 0 2.5 80 21:57 18.06.2020
1210 Clouds 10 1024 100 0 2.5 80 21:38 18.06.2020
1211 Clouds 9 1024 100 0 3.1 110 21:19 18.06.2020
1212 Clouds 10 1024 93 10000 1 20 20:43 18.06.2020
1213 Clouds 10 1024 93 10000 1 20 20:22 18.06.2020
1214 Clouds 10 1024 93 10000 2.6 30 19:58 18.06.2020
1215 Clouds 10 1024 100 10000 2.6 30 19:40 18.06.2020
1216 Clouds 10 1024 93 10000 4.1 90 19:20 18.06.2020
1217 Clouds 10 1024 93 10000 4.1 10 18:42 18.06.2020
1218 Clouds 11 1024 93 10000 4.1 10 18:23 18.06.2020
1219 Drizzle 11 1024 93 10000 2.1 350 17:57 18.06.2020
1220 Clouds 11 1024 93 10000 1.5 110 17:39 18.06.2020
1221 Clouds 11 1024 93 10000 1.5 110 17:21 18.06.2020
1222 Rain 11 1024 93 10000 1.5 80 16:44 18.06.2020
1223 Rain 11 1024 93 10000 1.5 80 16:25 18.06.2020
1224 Rain 11 1023 93 10000 2.1 80 15:59 18.06.2020
1225 Rain 11 1023 93 5000 1 260 15:40 18.06.2020
1226 Rain 12 1023 93 0 3.41 217 15:20 18.06.2020
1227 Rain 12 1023 93 0 3.41 217 14:57 18.06.2020
1228 Clouds 12 1022 93 0 3.41 217 14:38 18.06.2020
1229 Clouds 12 1022 93 0 4.02 215 14:20 18.06.2020
1230 Rain 12 1022 81 10000 2.1 160 13:47 18.06.2020
1231 Rain 12 1022 81 10000 2.1 160 13:28 18.06.2020
1232 Rain 13 1021 71 10000 3.6 180 12:57 18.06.2020
1233 Rain 14 1021 71 10000 3.6 190 12:39 18.06.2020
1234 Clouds 14 1020 71 10000 3.6 190 12:20 18.06.2020
1235 Clouds 14 1020 71 10000 3.6 190 11:57 18.06.2020
1236 Clouds 15 1020 62 10000 4.1 210 11:38 18.06.2020
1237 Rain 15 1020 59 10000 4.1 240 11:18 18.06.2020
1238 Clouds 16 1019 59 10000 6.2 220 10:40 18.06.2020
1239 Clouds 17 1019 59 10000 7.7 230 10:18 18.06.2020
1240 Rain 17 1018 48 10000 8.7 240 09:46 18.06.2020
1241 Rain 17 1018 48 10000 8.7 240 09:27 18.06.2020
1242 Clouds 18 1018 52 10000 9.8 240 08:57 18.06.2020
1243 Clouds 17 1017 48 10000 8.7 230 08:37 18.06.2020
1244 Rain 17 1017 55 10000 8.7 230 08:19 18.06.2020
1245 Rain 17 1017 59 10000 5.1 270 07:44 18.06.2020
1246 Rain 17 1017 59 10000 5.1 270 07:25 18.06.2020
1247 Rain 16 1018 62 10000 8.2 270 06:42 18.06.2020
1248 Rain 16 1018 71 8000 8.7 240 05:31 18.06.2020
1249 Clouds 16 1016 63 10000 6.7 260 04:20 18.06.2020
1250 Rain 13 1015 62 10000 8.2 250 01:48 18.06.2020
1251 Rain 13 1014 58 10000 5.7 260 01:22 18.06.2020
1252 Rain 13 1014 58 10000 5.7 260 00:52 18.06.2020
1253 Rain 15 1013 58 10000 8.7 250 00:30 18.06.2020
1254 Clouds 15 1013 51 10000 7.7 270 23:55 17.06.2020
1255 Clouds 15 1012 62 10000 6.2 270 23:36 17.06.2020
1256 Rain 15 1012 54 10000 7.7 270 23:18 17.06.2020
1257 Clouds 15 1011 67 10000 6.2 270 22:54 17.06.2020
1258 Clouds 15 1011 67 10000 6.2 270 22:36 17.06.2020
1259 Rain 15 1011 67 10000 7.2 250 22:18 17.06.2020
1260 Clouds 15 1011 67 10000 6.2 270 21:39 17.06.2020
1261 Clouds 15 1011 67 10000 6.2 270 21:20 17.06.2020
1262 Rain 15 1011 67 10000 9.8 250 20:55 17.06.2020
1263 Clouds 15 1011 63 10000 7.7 260 20:37 17.06.2020
1264 Clouds 15 1011 72 10000 7.7 270 20:18 17.06.2020
1265 Clouds 15 1011 63 10000 7.7 260 19:42 17.06.2020
1266 Rain 15 1010 77 10000 9.8 270 19:19 17.06.2020
1267 Rain 16 1010 72 10000 7.7 270 18:48 17.06.2020
1268 Rain 16 1010 72 10000 7.7 270 18:28 17.06.2020
1269 Clouds 16 1010 67 10000 6.2 270 17:47 17.06.2020
1270 Clouds 17 1010 67 10000 6.2 270 17:23 17.06.2020
1271 Clouds 16 1010 87 10000 3.6 310 16:59 17.06.2020
1272 Clouds 16 1010 87 10000 3.6 310 16:59 17.06.2020
1273 Rain 17 1010 82 6000 8.7 310 16:40 17.06.2020
1274 Rain 16 1010 82 6000 8.7 310 16:21 17.06.2020
1275 Clouds 16 1010 72 10000 4.6 270 15:58 17.06.2020
1276 Rain 17 1010 55 10000 5.7 300 15:39 17.06.2020
1277 Rain 17 1010 55 10000 5.7 300 15:21 17.06.2020
1278 Rain 17 1010 55 10000 5.7 300 15:21 17.06.2020
1279 Rain 17 1010 59 10000 4.6 300 14:58 17.06.2020
1280 Clouds 17 1009 55 10000 4.6 290 14:39 17.06.2020
1281 Clouds 18 1009 59 10000 5.1 280 14:19 17.06.2020
1282 Clouds 18 1009 59 10000 5.1 280 13:56 17.06.2020
1283 Rain 18 1009 59 10000 9.3 270 13:38 17.06.2020
1284 Clouds 18 1009 59 10000 6.7 270 13:19 17.06.2020
1285 Rain 18 1009 63 10000 7.2 260 12:42 17.06.2020
1286 Rain 18 1009 63 10000 7.2 260 12:23 17.06.2020
1287 Rain 18 1008 63 10000 9.3 270 11:57 17.06.2020
1288 Rain 18 1008 63 10000 9.3 270 11:57 17.06.2020
1289 Clouds 18 1008 68 10000 6.2 270 11:38 17.06.2020
1290 Rain 18 1008 72 10000 5.7 290 11:20 17.06.2020
1291 Rain 18 1008 72 10000 5.1 290 10:38 17.06.2020
1292 Rain 18 1007 88 10000 5.1 290 10:19 17.06.2020
1293 Rain 18 1007 88 10000 5.1 290 09:58 17.06.2020
1294 Rain 17 1007 88 10000 4.6 290 09:40 17.06.2020
1295 Rain 17 1007 88 9000 7.7 280 09:20 17.06.2020
1296 Rain 18 1007 88 1100 10.3 280 08:45 17.06.2020
1297 Rain 18 1007 88 1100 10.3 280 08:45 17.06.2020
1298 Rain 18 1007 88 1100 10.3 280 08:21 17.06.2020
1299 Rain 21 1006 64 10000 14.9 330 07:56 17.06.2020
1300 Rain 21 1006 60 10000 13.4 330 07:37 17.06.2020
1301 Clouds 22 1007 56 10000 13.9 340 07:19 17.06.2020
1302 Clouds 22 1007 49 10000 12.3 330 06:55 17.06.2020
1303 Clouds 22 1007 49 10000 12.3 330 06:36 17.06.2020
1304 Clouds 22 1008 46 10000 9.8 350 06:18 17.06.2020
1305 Rain 20 1010 36 10000 11.3 350 04:39 17.06.2020
1306 Clouds 16 1010 31 10000 8.7 10 02:48 17.06.2020
1307 Clouds 14 1010 35 10000 6.2 10 01:28 17.06.2020
1308 Clouds 14 1011 30 10000 7.2 10 00:37 17.06.2020
1309 Clouds 14 1011 35 10000 6.7 10 00:19 17.06.2020
1310 Clouds 14 1011 35 10000 6.7 10 23:55 16.06.2020
1311 Clouds 14 1011 37 10000 6.7 10 23:37 16.06.2020
1312 Clouds 14 1012 35 10000 5.7 20 23:18 16.06.2020
1313 Clouds 14 1012 43 10000 6.7 20 22:39 16.06.2020
1314 Clouds 13 1012 50 10000 5.1 10 22:19 16.06.2020
1315 Clouds 13 1012 50 10000 5.1 10 21:58 16.06.2020
1316 Clouds 13 1013 57 10000 5.1 10 21:40 16.06.2020
1317 Clouds 12 1013 57 10000 3.6 20 21:22 16.06.2020
1318 Clouds 12 1014 61 10000 3.6 20 20:55 16.06.2020
1319 Clouds 11 1014 81 10000 3.1 10 20:36 16.06.2020
1320 Clouds 12 1014 76 10000 2.6 10 20:18 16.06.2020
1321 Clouds 11 1014 76 10000 2.6 10 19:56 16.06.2020
1322 Clouds 12 1015 66 10000 3.1 30 19:37 16.06.2020
1323 Clear 11 1015 70 10000 3.1 30 19:18 16.06.2020
1324 Clear 11 1016 76 10000 3.1 30 18:41 16.06.2020
1325 Clear 11 1016 76 10000 3.1 30 18:41 16.06.2020
1326 Clear 11 1016 76 10000 3.1 30 18:21 16.06.2020
1327 Clear 11 1016 81 10000 2.6 360 17:58 16.06.2020
1328 Clear 11 1016 76 10000 3.1 360 17:38 16.06.2020
1329 Clear 12 1016 62 10000 3.1 10 17:20 16.06.2020
1330 Clear 12 1016 62 10000 3.1 10 16:56 16.06.2020
1331 Clear 12 1017 58 10000 3.1 50 16:38 16.06.2020
1332 Clear 12 1017 62 10000 3.1 30 16:19 16.06.2020
1333 Clear 12 1017 62 10000 3.1 30 15:56 16.06.2020
1334 Clear 12 1018 66 10000 3.1 50 15:38 16.06.2020
1335 Clear 12 1018 66 10000 3.1 50 15:38 16.06.2020
1336 Clear 12 1018 66 10000 3.1 50 15:20 16.06.2020
1337 Clear 12 1018 71 10000 2.1 70 14:43 16.06.2020
1338 Clear 13 1018 71 10000 2.1 70 14:25 16.06.2020
1339 Clear 13 1018 66 10000 2.6 60 13:58 16.06.2020
1340 Clear 13 1018 66 10000 2.6 60 13:58 16.06.2020
1341 Clear 13 1018 71 10000 3.1 70 13:40 16.06.2020
1342 Clear 14 1018 66 10000 2.6 90 13:22 16.06.2020
1343 Clear 15 1018 58 10000 2.6 50 12:42 16.06.2020
1344 Clear 16 1018 58 10000 2.6 50 12:21 16.06.2020
1345 Clear 17 1018 55 10000 2.6 40 11:56 16.06.2020
1346 Clear 18 1018 48 10000 3.1 40 11:38 16.06.2020
1347 Clear 19 1018 40 10000 3.6 30 11:19 16.06.2020
1348 Clear 21 1018 40 10000 3.6 30 10:55 16.06.2020
1349 Clear 21 1018 42 10000 4.6 30 10:37 16.06.2020
1350 Clear 21 1019 37 10000 4.1 10 10:18 16.06.2020
1351 Clear 21 1019 37 10000 5.7 40 09:42 16.06.2020
1352 Clear 21 1019 37 10000 5.7 40 09:21 16.06.2020
1353 Clear 21 1020 40 10000 4.6 360 08:48 16.06.2020
1354 Clear 21 1020 40 10000 4.6 360 08:30 16.06.2020
1355 Clear 21 1020 40 10000 6.2 360 07:51 16.06.2020
1356 Clear 21 1021 45 10000 5.1 10 07:28 16.06.2020
1357 Clear 20 1021 45 10000 6.7 30 06:54 16.06.2020
1358 Clear 20 1022 45 10000 7.2 40 06:27 16.06.2020
1359 Clear 19 1023 48 10000 6.7 60 05:45 16.06.2020
1360 Clear 19 1024 55 10000 6.7 30 04:40 16.06.2020
1361 Clear 15 1024 67 10000 2.6 40 03:00 16.06.2020
1362 Clouds 13 1024 76 10000 2.6 20 02:00 16.06.2020
1363 Clouds 13 1024 76 10000 2.6 30 01:30 16.06.2020
1364 Clouds 13 1024 76 10000 2.1 40 00:45 16.06.2020
1365 Clouds 13 1024 76 10000 2.1 40 00:21 16.06.2020
1366 Clouds 13 1024 93 10000 2.1 360 23:43 15.06.2020
1367 Clouds 13 1024 93 10000 2.1 360 23:23 15.06.2020
1368 Clouds 13 1024 87 10000 2.1 350 22:55 15.06.2020
1369 Clouds 13 1024 82 10000 2.1 360 22:37 15.06.2020
1370 Clouds 13 1024 82 10000 2.1 350 22:18 15.06.2020
1371 Clouds 13 1024 82 10000 2.1 350 21:55 15.06.2020
1372 Clouds 13 1024 82 10000 2.1 10 21:37 15.06.2020
1373 Clouds 13 1024 82 10000 2.1 20 21:19 15.06.2020
1374 Clouds 13 1024 82 10000 2.1 20 20:55 15.06.2020
1375 Clouds 13 1024 82 10000 2.6 30 20:37 15.06.2020
1376 Clouds 13 1025 82 10000 2.6 30 20:18 15.06.2020
1377 Clouds 13 1025 82 10000 2.1 20 19:41 15.06.2020
1378 Clouds 13 1025 82 10000 2.1 20 19:22 15.06.2020
1379 Clouds 13 1025 82 10000 2.1 20 19:22 15.06.2020
1380 Clouds 13 1025 82 10000 2.6 10 18:59 15.06.2020
1381 Clouds 13 1025 82 10000 1.5 340 18:41 15.06.2020
1382 Clouds 13 1025 82 10000 1.5 340 18:21 15.06.2020
1383 Clouds 14 1025 76 10000 3.1 20 17:59 15.06.2020
1384 Clouds 13 1025 76 10000 3.6 20 17:40 15.06.2020
1385 Clouds 13 1025 82 10000 2.1 40 17:20 15.06.2020
1386 Clouds 13 1025 82 10000 2.1 40 16:57 15.06.2020
1387 Clouds 13 1025 87 10000 2.6 30 16:39 15.06.2020
1388 Clouds 12 1026 87 10000 2.1 20 16:18 15.06.2020
1389 Clouds 12 1026 93 10000 0.5 74 15:41 15.06.2020
1390 Clouds 12 1026 87 10000 0.54 171 15:21 15.06.2020
1391 Clouds 13 1026 87 10000 0.54 171 14:59 15.06.2020
1392 Clouds 13 1026 87 10000 1.5 100 14:40 15.06.2020
1393 Clouds 13 1025 87 10000 0.5 110 14:20 15.06.2020
1394 Clouds 13 1025 87 10000 0.5 110 13:57 15.06.2020
1395 Clouds 13 1025 81 10000 0.78 184 13:38 15.06.2020
1396 Clouds 14 1025 71 10000 2.1 190 13:18 15.06.2020
1397 Clouds 15 1025 67 10000 2.6 200 12:43 15.06.2020
1398 Clouds 16 1025 67 10000 2.6 200 12:22 15.06.2020
1399 Clouds 17 1025 63 10000 3.6 210 11:58 15.06.2020
1400 Clouds 17 1025 63 10000 3.6 210 11:58 15.06.2020
1401 Clouds 17 1025 63 10000 3.6 210 11:58 15.06.2020
1402 Clouds 18 1024 59 10000 3.6 220 11:40 15.06.2020
1403 Clouds 18 1024 59 10000 3.6 220 11:22 15.06.2020
1404 Clouds 18 1024 59 10000 4.1 240 11:22 15.06.2020
1405 Clouds 19 1024 55 10000 4.6 240 10:42 15.06.2020
1406 Clouds 19 1024 55 10000 4.6 240 10:22 15.06.2020
1407 Clouds 19 1024 52 10000 3.6 250 09:44 15.06.2020
1408 Clouds 19 1024 52 10000 3.6 250 09:23 15.06.2020
1409 Clouds 19 1024 59 10000 2.6 270 08:48 15.06.2020
1410 Clouds 19 1024 59 10000 2.6 270 08:27 15.06.2020
1411 Clouds 19 1025 59 10000 3.6 260 07:57 15.06.2020
1412 Clouds 19 1025 63 10000 3.5 252 07:39 15.06.2020
1413 Clouds 19 1025 68 10000 2.6 30 07:19 15.06.2020
1414 Clouds 19 1026 68 10000 3.1 40 06:28 15.06.2020
1415 Clouds 18 1026 72 10000 1.5 360 05:51 15.06.2020
1416 Clouds 18 1026 72 10000 1.5 360 05:29 15.06.2020
1417 Clouds 16 1027 77 10000 2.1 40 04:22 15.06.2020
1418 Clouds 16 1026 87 10000 2.1 10 03:49 15.06.2020
1419 Clouds 14 1026 87 10000 1.5 40 02:57 15.06.2020
1420 Clouds 14 1026 87 10000 2.6 50 02:29 15.06.2020
1421 Clouds 14 1026 93 10000 2.6 30 01:47 15.06.2020
1422 Clouds 14 1026 87 10000 2.6 10 01:24 15.06.2020
1423 Clouds 14 1025 93 10000 2.6 30 00:45 15.06.2020
1424 Clouds 14 1025 93 10000 2.6 30 00:23 15.06.2020
1425 Clouds 14 1025 93 10000 2.6 40 23:57 14.06.2020
1426 Clouds 14 1025 93 10000 2.6 20 23:39 14.06.2020
1427 Clouds 14 1025 93 10000 2.6 20 23:21 14.06.2020
1428 Clouds 13 1025 93 10000 2.6 40 22:56 14.06.2020
1429 Clouds 13 1025 93 10000 2.6 40 22:56 14.06.2020
1430 Clouds 14 1025 87 10000 2.6 60 22:37 14.06.2020
1431 Clouds 14 1025 93 10000 2.1 40 22:18 14.06.2020
1432 Clouds 14 1025 93 10000 1.5 20 21:55 14.06.2020
1433 Clouds 14 1025 93 10000 1.5 20 21:37 14.06.2020
1434 Clouds 14 1025 93 10000 1.5 10 21:18 14.06.2020
1435 Clouds 14 1025 93 10000 1.5 10 21:18 14.06.2020
1436 Clouds 14 1025 93 10000 1.5 10 20:55 14.06.2020
1437 Clouds 14 1025 93 10000 2.1 30 20:36 14.06.2020
1438 Clouds 14 1025 93 10000 2.6 350 20:18 14.06.2020
1439 Clouds 14 1025 93 10000 2.6 350 19:55 14.06.2020
1440 Clouds 14 1025 93 10000 2.6 40 19:36 14.06.2020
1441 Clouds 14 1025 93 10000 2.6 30 19:18 14.06.2020
1442 Clouds 14 1025 93 10000 2.6 30 18:55 14.06.2020
1443 Rain 14 1025 93 10000 2.6 330 18:37 14.06.2020
1444 Clouds 14 1025 93 10000 2.29 242 18:18 14.06.2020
1445 Clouds 15 1026 93 10000 1.5 50 17:40 14.06.2020
1446 Rain 15 1026 93 10000 1.5 50 17:20 14.06.2020
1447 Rain 15 1025 87 10000 2.6 50 16:58 14.06.2020
1448 Clouds 15 1026 93 10000 2.1 60 16:39 14.06.2020
1449 Clouds 15 1026 93 10000 2.1 80 16:19 14.06.2020
1450 Clouds 15 1026 93 10000 2.1 80 15:56 14.06.2020
1451 Clouds 15 1026 87 10000 2.6 20 15:37 14.06.2020
1452 Clouds 15 1025 87 10000 1 60 15:18 14.06.2020
1453 Clouds 15 1025 87 10000 2.6 60 14:41 14.06.2020
1454 Clouds 15 1025 87 10000 2.53 250 14:23 14.06.2020
1455 Clouds 15 1025 82 10000 2.6 250 13:59 14.06.2020
1456 Clouds 16 1025 82 10000 1 280 13:40 14.06.2020
1457 Clouds 16 1025 72 10000 2.1 300 13:21 14.06.2020
1458 Clouds 16 1025 72 10000 2.1 300 12:57 14.06.2020
1459 Clouds 17 1024 63 10000 2.6 280 12:39 14.06.2020
1460 Clouds 17 1024 59 10000 3.1 270 12:21 14.06.2020
1461 Clouds 17 1024 59 10000 3.1 270 11:57 14.06.2020
1462 Clouds 18 1024 55 10000 3.6 260 11:38 14.06.2020
1463 Clouds 18 1024 63 10000 4.6 250 11:20 14.06.2020
1464 Clouds 20 1024 56 10000 5.7 250 10:42 14.06.2020
1465 Clouds 20 1024 56 10000 5.7 250 10:20 14.06.2020
1466 Rain 20 1023 56 10000 6.2 250 09:51 14.06.2020
1467 Rain 20 1023 56 10000 6.2 250 09:26 14.06.2020
1468 Rain 20 1023 56 10000 5.7 250 08:59 14.06.2020
1469 Clouds 19 1023 56 10000 7.2 240 08:41 14.06.2020
1470 Clouds 20 1023 52 10000 5.7 260 08:18 14.06.2020
1471 Clouds 20 1024 56 10000 6.2 250 07:51 14.06.2020
1472 Clouds 20 1024 56 10000 6.2 250 07:32 14.06.2020
1473 Clouds 20 1024 68 10000 1.5 270 06:35 14.06.2020
1474 Clouds 18 1025 82 10000 2.6 30 05:44 14.06.2020
1475 Clouds 18 1025 77 10000 3.6 30 04:58 14.06.2020
1476 Rain 17 1025 87 10000 2.6 20 04:31 14.06.2020
1477 Rain 14 1025 93 10000 3.6 20 03:23 14.06.2020
1478 Clouds 12 1025 93 8000 3.1 50 02:30 14.06.2020
1479 Rain 12 1024 100 10000 3.1 20 01:42 14.06.2020
1480 Clouds 12 1024 93 10000 2.6 30 01:18 14.06.2020
1481 Clouds 11 1023 100 10000 2.6 40 00:38 14.06.2020
1482 Rain 11 1023 100 10000 2.6 40 00:18 14.06.2020
1483 Clouds 11 1023 100 10000 2.1 40 23:43 13.06.2020
1484 Clouds 11 1023 100 10000 2.1 40 23:23 13.06.2020
1485 Clouds 12 1023 93 10000 2.1 30 22:57 13.06.2020
1486 Clouds 12 1023 93 10000 2.6 20 22:37 13.06.2020
1487 Clouds 12 1023 93 10000 2.6 20 22:37 13.06.2020
1488 Fog 12 1022 93 10000 2.6 30 22:18 13.06.2020
1489 Fog 12 1022 93 10000 2.6 30 22:18 13.06.2020
1490 Fog 12 1022 93 10000 2.6 30 22:18 13.06.2020
1491 Fog 12 1022 93 10000 2.6 30 21:55 13.06.2020
1492 Fog 12 1022 93 10000 2.6 30 21:55 13.06.2020
1493 Fog 12 1023 100 10000 2.6 30 21:37 13.06.2020
1494 Fog 12 1023 93 10000 2.6 30 21:18 13.06.2020
1495 Rain 14 1023 93 9000 2.1 20 20:42 13.06.2020
1496 Fog 13 1023 93 10000 2.6 30 20:19 13.06.2020
1497 Fog 13 1023 93 10000 2.6 30 20:19 13.06.2020
1498 Clouds 14 1023 100 10000 2.6 40 19:42 13.06.2020
1499 Clouds 13 1023 100 10000 2.6 40 19:22 13.06.2020
1500 Fog 14 1023 100 9000 2.6 30 18:59 13.06.2020
1501 Fog 13 1023 93 10000 2.6 30 18:41 13.06.2020
1502 Rain 14 1023 93 9000 2.6 130 18:21 13.06.2020
1503 Rain 14 1023 93 9000 2.6 130 17:59 13.06.2020
1504 Rain 14 1023 93 10000 2.6 90 17:41 13.06.2020
1505 Rain 14 1023 93 10000 2.6 90 17:22 13.06.2020
1506 Rain 14 1023 100 9000 2.6 30 16:56 13.06.2020
1507 Rain 14 1023 100 10000 2.6 310 16:38 13.06.2020
1508 Rain 14 1023 100 10000 2.6 330 16:19 13.06.2020
1509 Rain 15 1023 100 5000 2.1 30 15:44 13.06.2020
1510 Rain 15 1023 100 5000 2.1 30 15:26 13.06.2020
1511 Clouds 15 1022 93 10000 2.1 40 14:56 13.06.2020
1512 Rain 15 1022 93 10000 0.5 10 14:38 13.06.2020
1513 Rain 15 1022 93 10000 2.6 170 14:20 13.06.2020
1514 Rain 15 1022 93 10000 1.5 270 13:42 13.06.2020
1515 Rain 15 1022 93 10000 1.5 270 13:24 13.06.2020
1516 Clouds 15 1022 93 10000 2.6 210 12:44 13.06.2020
1517 Clouds 16 1022 93 10000 2.6 210 12:26 13.06.2020
1518 Clouds 16 1021 87 10000 2.1 290 11:59 13.06.2020
1519 Clouds 16 1021 82 10000 2.6 280 11:40 13.06.2020
1520 Clouds 16 1021 82 10000 2.6 290 11:19 13.06.2020
1521 Clouds 16 1021 82 10000 2.6 290 10:57 13.06.2020
1522 Clouds 17 1021 82 10000 3.1 270 10:38 13.06.2020
1523 Clouds 17 1021 82 10000 5.7 260 10:19 13.06.2020
1524 Rain 18 1021 68 10000 6.2 260 09:45 13.06.2020
1525 Rain 17 1021 68 10000 6.2 260 09:27 13.06.2020
1526 Rain 17 1021 82 10000 5.7 270 08:50 13.06.2020
1527 Rain 17 1021 82 10000 5.7 270 08:32 13.06.2020
1528 Rain 18 1021 72 10000 4.6 250 07:55 13.06.2020
1529 Clouds 18 1021 63 10000 5.1 270 07:30 13.06.2020
1530 Rain 17 1021 67 10000 7.7 290 06:51 13.06.2020
1531 Rain 16 1021 67 10000 7.7 290 06:33 13.06.2020
1532 Rain 16 1022 72 10000 2.6 360 05:47 13.06.2020
1533 Rain 16 1022 72 10000 2.6 360 05:25 13.06.2020
1534 Rain 13 1022 87 8000 2.6 30 03:48 13.06.2020
1535 Clouds 12 1021 81 10000 2.6 30 02:54 13.06.2020
1536 Clouds 11 1021 87 10000 3.1 30 02:34 13.06.2020
1537 Clouds 11 1020 81 10000 4.1 20 01:45 13.06.2020
1538 Clouds 11 1020 93 10000 2.6 10 01:19 13.06.2020
1539 Clouds 11 1020 87 10000 3.1 40 00:42 13.06.2020
1540 Clouds 11 1019 87 10000 2.6 30 00:23 13.06.2020
1541 Clouds 10 1019 87 10000 2.6 30 23:41 12.06.2020
1542 Clouds 10 1019 93 10000 2.6 30 23:19 12.06.2020
1543 Clouds 10 1019 93 10000 2.6 30 22:58 12.06.2020
1544 Clouds 10 1019 93 10000 2.1 50 22:39 12.06.2020
1545 Clouds 10 1019 93 10000 2.6 40 22:19 12.06.2020
1546 Clouds 9 1019 93 10000 3.1 70 21:47 12.06.2020
1547 Clouds 9 1019 93 10000 3.1 70 21:24 12.06.2020
1548 Clouds 10 1019 93 10000 2.6 20 20:58 12.06.2020
1549 Clouds 9 1019 93 10000 3.1 360 20:39 12.06.2020
1550 Clouds 10 1019 87 10000 2.1 60 20:21 12.06.2020
1551 Clouds 10 1019 93 10000 2.6 30 19:47 12.06.2020
1552 Clouds 10 1019 93 10000 2.6 30 19:22 12.06.2020
1553 Clouds 10 1019 87 10000 2.6 40 19:00 12.06.2020
1554 Clouds 11 1019 81 10000 3.1 30 18:37 12.06.2020
1555 Clouds 11 1019 81 10000 3.1 30 18:37 12.06.2020
1556 Clouds 11 1019 87 10000 2.1 20 18:18 12.06.2020
1557 Clouds 11 1019 87 10000 2.6 360 17:45 12.06.2020
1558 Clouds 11 1019 93 0 0.5 280 17:26 12.06.2020
1559 Rain 11 1019 81 10000 1.5 130 16:58 12.06.2020
1560 Rain 12 1018 71 10000 2.6 160 16:40 12.06.2020
1561 Rain 12 1018 71 10000 4.6 160 16:19 12.06.2020
1562 Rain 13 1018 76 10000 3.6 170 15:43 12.06.2020
1563 Rain 13 1018 71 10000 2.1 180 15:19 12.06.2020
1564 Rain 13 1018 67 10000 3.6 210 14:43 12.06.2020
1565 Rain 14 1018 67 10000 3.6 210 14:23 12.06.2020
1566 Rain 13 1017 71 10000 3.6 210 13:58 12.06.2020
1567 Rain 14 1017 71 10000 4.1 210 13:40 12.06.2020
1568 Clouds 14 1016 62 10000 4.1 200 13:19 12.06.2020
1569 Clouds 14 1016 67 10000 4.1 210 12:40 12.06.2020
1570 Clouds 14 1016 67 10000 4.1 210 12:19 12.06.2020
1571 Clouds 15 1016 67 10000 4.1 210 11:56 12.06.2020
1572 Clear 15 1016 58 10000 6.7 210 11:36 12.06.2020
1573 Clear 15 1016 58 10000 6.7 210 11:36 12.06.2020
1574 Clouds 16 1015 51 10000 8.2 210 11:18 12.06.2020
1575 Clouds 16 1015 51 10000 6.7 190 10:42 12.06.2020
1576 Clouds 17 1015 51 10000 6.7 190 10:23 12.06.2020
1577 Rain 17 1014 51 10000 7.2 200 09:44 12.06.2020
1578 Rain 17 1013 48 10000 7.2 200 09:21 12.06.2020
1579 Rain 17 1013 48 10000 7.2 200 09:21 12.06.2020
1580 Clouds 18 1013 48 10000 10.8 210 08:43 12.06.2020
1581 Clouds 18 1013 48 10000 10.8 210 08:24 12.06.2020
1582 Clouds 18 1013 52 10000 9.8 210 07:43 12.06.2020
1583 Clouds 18 1013 52 10000 9.8 210 07:24 12.06.2020
1584 Clouds 18 1013 72 10000 7.7 210 06:44 12.06.2020
1585 Clouds 17 1013 72 10000 7.7 210 06:24 12.06.2020
1586 Rain 16 1013 93 10000 5.7 210 05:50 12.06.2020
1587 Rain 15 1013 82 3000 8.2 210 05:26 12.06.2020
1588 Rain 15 1011 87 10000 5.7 200 03:58 12.06.2020
1589 Rain 15 1010 93 10000 4.6 210 02:43 12.06.2020
1590 Rain 15 1009 93 10000 3.1 210 01:52 12.06.2020
1591 Rain 15 1008 100 5000 2.6 310 01:23 12.06.2020
1592 Rain 15 1008 93 10000 2.1 170 00:41 12.06.2020
1593 Rain 15 1008 93 10000 2.1 170 00:22 12.06.2020
1594 Clouds 15 1008 93 10000 2.6 200 23:58 11.06.2020
1595 Clouds 16 1008 93 10000 3.1 200 23:39 11.06.2020
1596 Clouds 16 1007 93 10000 3.1 190 23:20 11.06.2020
1597 Clouds 16 1007 93 10000 3.1 190 22:56 11.06.2020
1598 Clouds 16 1007 87 10000 3.1 210 22:38 11.06.2020
1599 Clouds 16 1007 87 10000 3.1 210 22:38 11.06.2020
1600 Clouds 17 1007 93 10000 3.1 210 22:19 11.06.2020
1601 Rain 16 1007 93 10000 2.6 220 21:43 11.06.2020
1602 Rain 17 1007 93 8000 2.6 250 21:20 11.06.2020
1603 Rain 17 1007 93 8000 2.6 250 20:58 11.06.2020
1604 Rain 17 1007 100 10000 0.5 280 20:40 11.06.2020
1605 Rain 17 1007 93 10000 2.1 310 20:21 11.06.2020
1606 Rain 17 1007 88 8000 2.6 240 19:44 11.06.2020
1607 Rain 17 1007 88 8000 2.6 240 19:23 11.06.2020
1608 Rain 17 1007 88 8000 2.6 240 18:57 11.06.2020
1609 Clouds 17 1007 88 10000 3.1 250 18:39 11.06.2020
1610 Clouds 17 1007 88 10000 3.1 250 18:39 11.06.2020
1611 Rain 17 1007 88 10000 3.1 290 18:20 11.06.2020
1612 Rain 17 1007 88 10000 3.1 290 17:55 11.06.2020
1613 Clouds 18 1007 88 10000 2.6 300 17:37 11.06.2020
1614 Clouds 18 1007 88 10000 3.1 300 17:18 11.06.2020
1615 Rain 18 1007 88 8000 5.1 290 16:43 11.06.2020
1616 Rain 18 1007 88 8000 5.1 290 16:25 11.06.2020
1617 Rain 18 1007 77 10000 4.1 290 15:58 11.06.2020
1618 Rain 18 1007 77 10000 4.1 290 15:39 11.06.2020
1619 Rain 18 1007 77 10000 4.1 290 15:39 11.06.2020
1620 Rain 18 1007 82 10000 3.1 290 15:21 11.06.2020
1621 Clouds 18 1008 82 10000 3.6 290 14:46 11.06.2020
1622 Clouds 19 1007 77 10000 3.1 290 14:21 11.06.2020
1623 Clouds 19 1007 77 10000 3.1 290 14:21 11.06.2020
1624 Clouds 19 1007 77 10000 3.1 290 13:57 11.06.2020
1625 Clouds 19 1007 72 10000 3.1 290 13:39 11.06.2020
1626 Clouds 18 1007 77 10000 3.1 280 13:20 11.06.2020
1627 Clouds 19 1007 77 10000 3.1 290 12:56 11.06.2020
1628 Clouds 19 1007 77 10000 3.1 280 12:56 11.06.2020
1629 Clouds 19 1007 77 10000 3.1 290 12:38 11.06.2020
1630 Clouds 19 1007 77 10000 3.6 290 12:19 11.06.2020
1631 Clouds 19 1007 77 10000 3.6 290 11:57 11.06.2020
1632 Clouds 19 1006 72 10000 4.6 290 11:38 11.06.2020
1633 Clouds 19 1006 72 10000 4.6 290 11:20 11.06.2020
1634 Clouds 20 1006 72 10000 5.1 290 10:54 11.06.2020
1635 Clouds 21 1006 68 10000 5.1 290 10:36 11.06.2020
1636 Clouds 21 1006 68 10000 5.7 270 10:18 11.06.2020
1637 Clouds 21 1006 68 10000 5.7 280 09:40 11.06.2020
1638 Clouds 21 1006 68 10000 5.7 280 09:22 11.06.2020
1639 Clouds 21 1006 68 10000 5.7 270 08:43 11.06.2020
1640 Rain 21 1006 73 10000 6.2 290 08:19 11.06.2020
1641 Clouds 21 1006 88 10000 3.6 360 07:42 11.06.2020
1642 Rain 20 1006 93 10000 6.2 360 07:24 11.06.2020
1643 Rain 19 1006 93 10000 3.6 360 06:39 11.06.2020
1644 Rain 18 1007 93 5000 4.6 360 06:20 11.06.2020
1645 Drizzle 17 1007 93 4000 3.6 360 04:52 11.06.2020
1646 Rain 16 1007 93 5000 6.7 20 03:26 11.06.2020
1647 Rain 16 1008 93 7000 5.7 10 02:49 11.06.2020
1648 Rain 16 1007 93 2500 4.6 20 01:59 11.06.2020
1649 Rain 16 1007 87 3000 4.6 20 01:39 11.06.2020
1650 Rain 15 1008 93 6000 3.6 360 01:19 11.06.2020
1651 Rain 15 1007 87 10000 3.6 40 00:43 11.06.2020
1652 Rain 16 1007 82 10000 3.6 20 00:24 11.06.2020
1653 Rain 16 1007 82 10000 5.7 360 23:43 10.06.2020
1654 Rain 17 1008 63 10000 5.1 10 23:24 10.06.2020
1655 Rain 18 1007 59 10000 4.6 10 22:56 10.06.2020
1656 Clouds 18 1007 59 10000 4.6 30 22:37 10.06.2020
1657 Rain 19 1007 59 10000 3.6 10 22:18 10.06.2020
1658 Rain 19 1007 59 10000 3.6 10 21:55 10.06.2020
1659 Rain 19 1007 56 10000 4.6 10 21:37 10.06.2020
1660 Clouds 19 1007 55 10000 4.1 30 21:18 10.06.2020
1661 Clouds 19 1007 55 10000 4.1 30 20:55 10.06.2020
1662 Clouds 18 1008 55 10000 4.1 30 20:37 10.06.2020
1663 Rain 18 1008 59 10000 4.1 30 20:18 10.06.2020
1664 Rain 18 1009 59 10000 3.1 50 19:38 10.06.2020
1665 Rain 18 1009 55 10000 3.1 50 19:18 10.06.2020
1666 Rain 19 1009 55 10000 3.1 50 18:56 10.06.2020
1667 Rain 19 1009 55 10000 3.1 50 18:37 10.06.2020
1668 Rain 19 1010 45 10000 6.2 360 18:19 10.06.2020
1669 Clouds 19 1010 45 10000 4.6 40 17:54 10.06.2020
1670 Clouds 19 1010 45 10000 4.6 40 17:36 10.06.2020
1671 Rain 19 1010 45 10000 6.2 360 17:18 10.06.2020
1672 Clouds 19 1010 48 10000 3.6 30 16:41 10.06.2020
1673 Clouds 19 1010 48 10000 3.6 30 16:22 10.06.2020
1674 Clouds 19 1011 55 10000 3.6 40 16:22 10.06.2020
1675 Clouds 19 1011 55 10000 3.6 40 15:59 10.06.2020
1676 Clouds 19 1011 59 10000 3.1 40 15:38 10.06.2020
1677 Rain 19 1011 63 10000 2.6 30 15:20 10.06.2020
1678 Rain 19 1012 63 10000 3.6 30 14:41 10.06.2020
1679 Clouds 19 1012 59 10000 3.6 20 14:22 10.06.2020
1680 Clouds 19 1012 59 10000 3.6 20 13:58 10.06.2020
1681 Clouds 19 1012 63 10000 3.6 50 13:39 10.06.2020
1682 Clouds 19 1012 77 10000 3.1 10 13:21 10.06.2020
1683 Clouds 20 1012 72 10000 3.1 360 12:42 10.06.2020
1684 Clouds 20 1012 56 10000 3.6 360 12:20 10.06.2020
1685 Clouds 20 1012 56 10000 3.6 360 11:56 10.06.2020
1686 Clouds 21 1012 56 10000 3.1 350 11:38 10.06.2020
1687 Clouds 21 1012 60 10000 3.1 350 11:19 10.06.2020
1688 Clouds 22 1012 56 10000 3.1 10 10:44 10.06.2020
1689 Clouds 22 1012 56 10000 3.6 350 10:25 10.06.2020
1690 Clouds 22 1012 53 10000 4.6 350 09:59 10.06.2020
1691 Clouds 23 1012 53 10000 4.6 350 09:39 10.06.2020
1692 Clouds 23 1012 49 10000 6.7 360 09:20 10.06.2020
1693 Clouds 23 1012 49 10000 6.7 360 09:20 10.06.2020
1694 Clouds 23 1012 47 10000 5.7 350 08:43 10.06.2020
1695 Clouds 23 1012 35 10000 4.6 340 08:23 10.06.2020
1696 Clouds 23 1013 33 10000 3.1 360 07:43 10.06.2020
1697 Clouds 23 1013 33 10000 3.6 10 07:24 10.06.2020
1698 Clouds 22 1014 40 10000 2.1 20 06:59 10.06.2020
1699 Clouds 22 1014 40 10000 2.1 20 06:39 10.06.2020
1700 Clouds 21 1014 39 10000 2.1 20 06:18 10.06.2020
1701 Clouds 20 1014 32 10000 5.7 10 05:51 10.06.2020
1702 Clouds 19 1014 39 10000 3.6 60 05:19 10.06.2020
1703 Clouds 18 1015 39 10000 3.1 50 04:29 10.06.2020
1704 Clouds 16 1014 38 10000 4.6 60 02:34 10.06.2020
1705 Clouds 15 1014 36 10000 4.6 70 01:47 10.06.2020
1706 Clouds 14 1014 36 10000 3.1 50 01:21 10.06.2020
1707 Clouds 14 1014 36 10000 3.6 60 00:38 10.06.2020
1708 Clouds 14 1015 41 10000 4.1 70 00:20 10.06.2020
1709 Clouds 14 1015 43 10000 3.1 60 23:42 09.06.2020
1710 Clouds 14 1015 43 10000 3.1 60 23:23 09.06.2020
1711 Clouds 13 1015 41 10000 4.1 60 22:57 09.06.2020
1712 Clouds 12 1015 43 10000 3.6 50 22:39 09.06.2020
1713 Clear 12 1015 43 10000 3.6 60 22:20 09.06.2020
1714 Clear 12 1015 43 10000 3.6 60 21:57 09.06.2020
1715 Clear 12 1016 47 10000 3.6 60 21:39 09.06.2020
1716 Clear 12 1016 47 10000 3.1 50 21:21 09.06.2020
1717 Clear 12 1016 47 10000 3.1 50 20:58 09.06.2020
1718 Clear 12 1016 47 10000 2.6 50 20:39 09.06.2020
1719 Clouds 12 1016 47 10000 3.1 60 20:20 09.06.2020
1720 Clouds 12 1016 47 10000 3.1 60 19:59 09.06.2020
1721 Clouds 12 1016 47 10000 2.6 50 19:39 09.06.2020
1722 Clouds 12 1017 50 10000 2.1 40 19:20 09.06.2020
1723 Clouds 12 1017 50 10000 2.1 40 18:58 09.06.2020
1724 Clouds 12 1017 50 10000 2.6 40 18:39 09.06.2020
1725 Clouds 12 1017 54 10000 2.6 30 18:21 09.06.2020
1726 Clouds 12 1017 54 10000 2.6 30 17:56 09.06.2020
1727 Clouds 12 1017 50 10000 2.1 30 17:37 09.06.2020
1728 Clouds 12 1018 50 10000 2.1 50 17:19 09.06.2020
1729 Clouds 13 1018 50 10000 2.6 20 16:43 09.06.2020
1730 Clouds 13 1018 50 10000 2.6 20 16:23 09.06.2020
1731 Clouds 13 1018 62 10000 2.1 40 15:57 09.06.2020
1732 Clouds 13 1018 71 10000 2.74 72 15:38 09.06.2020
1733 Clouds 12 1018 71 10000 0.5 50 15:20 09.06.2020
1734 Clouds 12 1018 71 10000 0.5 50 14:55 09.06.2020
1735 Clouds 13 1018 76 10000 2.1 60 14:36 09.06.2020
1736 Clear 13 1018 71 10000 2.1 80 14:18 09.06.2020
1737 Clear 14 1018 66 10000 2.1 90 13:42 09.06.2020
1738 Clear 15 1018 62 10000 2.1 110 13:21 09.06.2020
1739 Clear 15 1018 62 10000 2.1 110 12:58 09.06.2020
1740 Clear 16 1018 58 10000 2.1 220 12:40 09.06.2020
1741 Clear 18 1018 45 10000 0.94 190 12:18 09.06.2020
1742 Clear 19 1018 45 10000 0.94 190 11:55 09.06.2020
1743 Clear 20 1018 34 10000 2.1 260 11:36 09.06.2020
1744 Clouds 22 1017 27 10000 2.1 270 11:18 09.06.2020
1745 Clouds 24 1017 23 10000 3.1 40 10:42 09.06.2020
1746 Clear 24 1017 23 10000 3.1 40 10:24 09.06.2020
1747 Clear 25 1018 32 10000 3.1 340 09:44 09.06.2020
1748 Clouds 25 1018 30 10000 3.1 340 09:24 09.06.2020
1749 Clouds 25 1018 23 10000 3.6 330 08:56 09.06.2020
1750 Clouds 25 1018 23 10000 3.1 360 08:38 09.06.2020
1751 Clouds 24 1018 23 10000 3.1 10 08:19 09.06.2020
1752 Clouds 24 1019 25 10000 4.1 10 07:38 09.06.2020
1753 Clouds 24 1019 28 10000 4.6 10 07:19 09.06.2020
1754 Clouds 23 1019 31 10000 4.1 10 06:53 09.06.2020
1755 Clouds 23 1019 31 10000 4.1 10 06:34 09.06.2020
1756 Clear 21 1020 40 10000 3.6 30 05:34 09.06.2020
1757 Clear 13 1020 54 10000 3.6 60 03:21 09.06.2020
1758 Clear 10 1020 62 10000 2.6 40 01:43 09.06.2020
1759 Clear 10 1020 62 10000 2.6 40 01:19 09.06.2020
1760 Clear 9 1019 71 10000 2.6 50 00:49 09.06.2020
1761 Clear 10 1019 66 10000 2.1 50 00:20 09.06.2020
1762 Clear 10 1019 66 10000 2.1 50 23:58 08.06.2020
1763 Clear 10 1019 66 10000 2.6 50 23:37 08.06.2020
1764 Clear 10 1019 66 10000 3.1 60 23:19 08.06.2020
1765 Clear 10 1020 66 10000 3.1 50 22:42 08.06.2020
1766 Clear 10 1020 66 10000 3.1 50 22:22 08.06.2020
1767 Clear 11 1020 62 10000 2.6 40 21:58 08.06.2020
1768 Clear 11 1020 62 10000 3.1 50 21:40 08.06.2020
1769 Clear 10 1020 62 10000 3.1 50 21:21 08.06.2020
1770 Clear 11 1020 66 10000 2.6 40 20:57 08.06.2020
1771 Clear 11 1020 62 10000 4.6 70 20:39 08.06.2020
1772 Clear 12 1020 62 10000 4.6 70 20:20 08.06.2020
1773 Clear 12 1020 62 10000 0.5 30 19:55 08.06.2020
1774 Clear 12 1020 62 10000 0.5 30 19:37 08.06.2020
1775 Clear 12 1020 66 10000 3.1 40 19:18 08.06.2020
1776 Clear 11 1020 76 10000 3.1 10 18:40 08.06.2020
1777 Clear 12 1020 71 10000 2.6 60 18:18 08.06.2020
1778 Clear 12 1020 71 10000 2.6 60 17:56 08.06.2020
1779 Clear 10 1020 93 10000 0.5 10 17:37 08.06.2020
1780 Clear 11 1020 93 10000 0.5 10 17:19 08.06.2020
1781 Clear 11 1020 87 10000 1.5 10 16:45 08.06.2020
1782 Clear 11 1020 87 10000 1.5 10 16:25 08.06.2020
1783 Clear 12 1020 87 10000 2.19 89 15:57 08.06.2020
1784 Clear 12 1020 87 10000 2.19 89 15:39 08.06.2020
1785 Clear 13 1020 76 10000 1 50 15:19 08.06.2020
1786 Clear 13 1020 81 10000 2.6 70 14:41 08.06.2020
1787 Clear 14 1020 76 10000 1 90 14:22 08.06.2020
1788 Clouds 14 1020 76 10000 1 90 13:56 08.06.2020
1789 Clouds 15 1020 71 10000 0.5 170 13:38 08.06.2020
1790 Clouds 15 1020 67 10000 2.6 190 13:19 08.06.2020
1791 Clouds 16 1020 59 10000 2.6 210 12:40 08.06.2020
1792 Clear 18 1020 55 10000 3.1 220 12:19 08.06.2020
1793 Clear 19 1020 45 10000 3.6 250 11:42 08.06.2020
1794 Clouds 20 1020 45 10000 3.6 250 11:24 08.06.2020
1795 Clouds 22 1019 37 10000 3.6 240 10:59 08.06.2020
1796 Clouds 22 1019 35 10000 3.6 250 10:40 08.06.2020
1797 Clouds 23 1019 31 10000 3.6 260 10:21 08.06.2020
1798 Clouds 24 1019 31 10000 3.6 260 09:59 08.06.2020
1799 Clouds 24 1019 31 10000 3.6 260 09:59 08.06.2020
1800 Clouds 24 1019 27 10000 3.6 250 09:41 08.06.2020
1801 Clouds 24 1019 27 10000 3.6 250 09:22 08.06.2020
1802 Clouds 24 1019 29 10000 3.1 30 08:47 08.06.2020
1803 Clouds 24 1019 29 10000 3.1 30 08:47 08.06.2020
1804 Clear 24 1019 29 10000 3.1 30 08:23 08.06.2020
1805 Clear 24 1019 31 10000 3.6 350 07:46 08.06.2020
1806 Clear 24 1020 33 10000 3.6 10 07:24 08.06.2020
1807 Clear 22 1020 35 10000 2.6 10 06:51 08.06.2020
1808 Clear 22 1020 35 10000 2.6 10 06:33 08.06.2020
1809 Clear 21 1021 33 10000 4.6 30 05:52 08.06.2020
1810 Clear 19 1022 45 10000 3.6 50 04:29 08.06.2020
1811 Clear 14 1021 54 10000 5.1 70 02:32 08.06.2020
1812 Clear 13 1021 58 10000 4.1 60 01:55 08.06.2020
1813 Clear 12 1021 58 10000 4.6 70 01:30 08.06.2020
1814 Clear 12 1020 54 10000 5.7 80 00:33 08.06.2020
1815 Clear 12 1020 54 10000 5.7 80 23:58 07.06.2020
1816 Clear 12 1020 54 10000 4.6 60 23:36 07.06.2020
1817 Clear 13 1020 54 10000 5.7 70 23:18 07.06.2020
1818 Clear 14 1020 50 10000 6.2 80 22:39 07.06.2020
1819 Clear 13 1020 58 10000 5.7 80 22:20 07.06.2020
1820 Clear 13 1020 58 10000 5.7 80 21:59 07.06.2020
1821 Clear 12 1020 58 10000 6.2 80 21:39 07.06.2020
1822 Clear 12 1020 58 10000 5.1 70 21:20 07.06.2020
1823 Clear 12 1020 58 10000 6.2 80 21:20 07.06.2020
1824 Clear 12 1020 58 10000 6.2 80 21:20 07.06.2020
1825 Clear 12 1020 58 10000 5.1 70 21:20 07.06.2020
1826 Clear 12 1020 58 10000 5.1 70 20:56 07.06.2020
1827 Clear 12 1020 58 10000 4.6 70 20:38 07.06.2020
1828 Clear 12 1020 58 10000 3.1 70 20:18 07.06.2020
1829 Clear 12 1020 58 10000 3.1 70 19:55 07.06.2020
1830 Clear 11 1020 66 10000 3.1 30 19:55 07.06.2020
1831 Clear 11 1020 66 10000 3.1 30 19:37 07.06.2020
1832 Clear 12 1020 62 10000 3.1 30 19:19 07.06.2020
1833 Clear 12 1020 62 10000 3.6 50 18:54 07.06.2020
1834 Clear 12 1020 62 10000 3.6 50 18:36 07.06.2020
1835 Clear 13 1021 58 10000 4.1 70 18:18 07.06.2020
1836 Clear 13 1020 58 10000 4.6 70 17:41 07.06.2020
1837 Clear 13 1020 58 10000 4.6 70 17:22 07.06.2020
1838 Clear 13 1021 76 10000 1.5 70 16:45 07.06.2020
1839 Clear 14 1021 76 10000 1.5 70 16:23 07.06.2020
1840 Clear 13 1021 87 10000 0.5 50 15:45 07.06.2020
1841 Clear 13 1021 87 10000 0.5 50 15:24 07.06.2020
1842 Clear 13 1020 87 10000 2.38 84 15:00 07.06.2020
1843 Clear 14 1020 87 10000 1.5 180 14:38 07.06.2020
1844 Clouds 14 1020 87 10000 3.04 119 14:19 07.06.2020
1845 Clouds 15 1020 81 10000 3.04 119 13:46 07.06.2020
1846 Clouds 15 1020 81 10000 3.04 119 13:46 07.06.2020
1847 Clouds 15 1020 81 10000 3.04 119 13:45 07.06.2020
1848 Clouds 15 1020 81 10000 3.04 119 13:45 07.06.2020
1849 Clouds 15 1019 82 10000 2.94 139 13:20 07.06.2020
1850 Clouds 17 1019 82 10000 2.94 139 12:44 07.06.2020
1851 Clouds 17 1019 72 10000 1 360 12:26 07.06.2020
1852 Clouds 17 1019 72 10000 1 360 12:26 07.06.2020
1853 Clouds 18 1019 72 10000 1 360 11:56 07.06.2020
1854 Clouds 18 1019 72 10000 1 360 11:56 07.06.2020
1855 Clouds 19 1019 63 10000 2.1 40 11:38 07.06.2020
1856 Clouds 20 1019 64 10000 1.03 137 11:20 07.06.2020
1857 Clouds 22 1019 52 10000 1.5 50 10:58 07.06.2020
1858 Clouds 22 1019 52 10000 1.5 50 10:58 07.06.2020
1859 Clouds 22 1018 46 10000 2.1 60 10:39 07.06.2020
1860 Clouds 23 1018 46 10000 2.1 60 10:19 07.06.2020
1861 Clouds 23 1018 46 10000 3.6 110 09:56 07.06.2020
1862 Clouds 22 1018 49 10000 3.1 110 09:37 07.06.2020
1863 Clouds 22 1018 49 10000 3.1 110 09:19 07.06.2020
1864 Clouds 21 1018 49 10000 2.6 70 08:41 07.06.2020
1865 Clouds 21 1018 52 10000 3.1 110 08:23 07.06.2020
1866 Clouds 21 1018 49 10000 2.6 70 08:23 07.06.2020
1867 Clouds 20 1018 60 10000 4.6 120 07:44 07.06.2020
1868 Clouds 20 1019 72 10000 4.6 130 07:26 07.06.2020
1869 Rain 19 1020 72 10000 4.6 180 06:24 07.06.2020
1870 Rain 18 1021 77 10000 3.1 230 05:34 07.06.2020
1871 Rain 17 1021 82 10000 4.1 80 04:19 07.06.2020
1872 Rain 16 1021 87 10000 3.6 200 02:30 07.06.2020
1873 Thunderstorm 16 1021 82 10000 4.6 220 01:43 07.06.2020
1874 Thunderstorm 16 1021 82 10000 4.6 220 01:24 07.06.2020
1875 Thunderstorm 16 1020 77 10000 2.1 290 00:40 07.06.2020
1876 Thunderstorm 16 1020 77 10000 2.6 330 00:18 07.06.2020
1877 Thunderstorm 16 1020 77 10000 2.6 330 23:55 06.06.2020
1878 Clouds 16 1019 82 10000 2.1 50 23:36 06.06.2020
1879 Rain 16 1019 77 10000 1.5 310 23:18 06.06.2020
1880 Rain 16 1019 77 10000 1.5 310 22:55 06.06.2020
1881 Rain 16 1019 77 10000 2.28 223 22:37 06.06.2020
1882 Rain 16 1020 77 10000 1.5 130 22:18 06.06.2020
1883 Clouds 16 1020 72 10000 1.5 230 21:42 06.06.2020
1884 Clouds 16 1020 72 10000 1.5 230 21:20 06.06.2020
1885 Clouds 16 1020 77 10000 2.1 130 20:41 06.06.2020
1886 Clouds 16 1020 77 10000 2.1 130 20:21 06.06.2020
1887 Clouds 16 1020 72 10000 1 20 19:59 06.06.2020
1888 Clouds 16 1020 72 9000 1.5 310 19:41 06.06.2020
1889 Rain 16 1020 77 9000 2.1 40 19:22 06.06.2020
1890 Clouds 17 1020 67 9000 2.16 155 18:57 06.06.2020
1891 Clouds 17 1020 67 9000 2.16 155 18:39 06.06.2020
1892 Rain 17 1020 72 9000 1.62 254 18:20 06.06.2020
1893 Rain 17 1020 67 9000 2.1 110 17:44 06.06.2020
1894 Rain 17 1020 67 9000 1.5 250 17:21 06.06.2020
1895 Rain 17 1020 67 9000 1.5 250 16:57 06.06.2020
1896 Rain 17 1020 67 8000 1 170 16:39 06.06.2020
1897 Clouds 17 1020 67 9000 0.5 290 16:20 06.06.2020
1898 Clouds 17 1020 59 9000 0.5 240 15:45 06.06.2020
1899 Clouds 17 1020 59 9000 0.5 240 15:21 06.06.2020
1900 Clouds 18 1020 59 9000 3.1 80 14:59 06.06.2020
1901 Clouds 18 1020 67 10000 0.5 30 14:38 06.06.2020
1902 Clouds 18 1020 59 8000 0.5 210 14:19 06.06.2020
1903 Clouds 19 1020 48 10000 2.05 22 13:49 06.06.2020
1904 Clouds 19 1019 48 8000 3.1 60 13:20 06.06.2020
1905 Clouds 19 1019 48 8000 3.1 60 12:58 06.06.2020
1906 Clouds 20 1019 49 10000 3.6 50 12:39 06.06.2020
1907 Clouds 20 1019 52 10000 3.1 50 12:20 06.06.2020
1908 Clouds 21 1019 52 10000 3.1 50 11:56 06.06.2020
1909 Clouds 21 1019 49 10000 3.1 50 11:37 06.06.2020
1910 Clouds 22 1019 49 10000 3.1 50 11:18 06.06.2020
1911 Clouds 22 1019 40 10000 2.6 50 10:56 06.06.2020
1912 Clouds 23 1020 38 10000 3.1 20 10:38 06.06.2020
1913 Clouds 24 1020 31 10000 4.6 30 10:19 06.06.2020
1914 Clouds 24 1020 33 10000 4.1 20 09:43 06.06.2020
1915 Clouds 24 1020 33 10000 4.1 20 09:24 06.06.2020
1916 Clouds 24 1020 29 10000 5.7 20 08:48 06.06.2020
1917 Clouds 24 1020 29 10000 5.7 20 08:25 06.06.2020
1918 Clouds 24 1020 25 10000 6.2 10 07:57 06.06.2020
1919 Clouds 24 1021 33 10000 4.1 20 07:38 06.06.2020
1920 Clouds 24 1021 33 10000 4.1 20 07:20 06.06.2020
1921 Clouds 23 1021 33 10000 5.1 30 06:44 06.06.2020
1922 Clouds 23 1021 33 10000 5.1 30 06:26 06.06.2020
1923 Clouds 22 1022 33 10000 5.1 50 05:41 06.06.2020
1924 Clouds 21 1023 35 10000 5.7 30 04:51 06.06.2020
1925 Clouds 20 1022 37 10000 4.6 60 03:45 06.06.2020
1926 Clouds 19 1022 45 10000 5.1 70 02:35 06.06.2020
1927 Clouds 18 1021 51 10000 4.1 70 01:23 06.06.2020
1928 Clouds 18 1021 51 10000 4.1 70 00:58 06.06.2020
1929 Clouds 18 1020 48 10000 4.6 60 00:40 06.06.2020
1930 Clouds 18 1020 52 10000 8.2 70 00:21 06.06.2020
1931 Clouds 18 1020 55 10000 7.7 80 23:40 05.06.2020
1932 Clouds 18 1020 52 10000 5.7 60 23:20 05.06.2020
1933 Clouds 18 1020 52 10000 5.7 60 22:56 05.06.2020
1934 Clouds 18 1020 52 10000 5.7 60 22:38 05.06.2020
1935 Clouds 18 1020 52 10000 5.7 60 22:20 05.06.2020
1936 Clouds 18 1021 52 10000 6.2 60 21:43 05.06.2020
1937 Clouds 18 1021 52 10000 6.2 60 21:23 05.06.2020
1938 Clouds 18 1021 59 10000 7.2 60 20:59 05.06.2020
1939 Clouds 18 1021 59 10000 7.7 70 20:41 05.06.2020
1940 Clouds 18 1021 59 10000 6.2 70 20:21 05.06.2020
1941 Clouds 18 1021 59 10000 6.7 70 19:44 05.06.2020
1942 Clouds 18 1021 59 10000 6.7 70 19:24 05.06.2020
1943 Clouds 19 1021 59 10000 6.2 70 18:58 05.06.2020
1944 Clouds 19 1021 59 10000 6.2 70 18:58 05.06.2020
1945 Clouds 19 1021 55 10000 8.2 80 18:39 05.06.2020
1946 Clouds 19 1021 59 10000 7.2 70 18:20 05.06.2020
1947 Clouds 19 1021 59 10000 7.2 70 17:58 05.06.2020
1948 Clouds 19 1021 59 10000 7.2 70 17:58 05.06.2020
1949 Clouds 19 1021 55 10000 7.2 80 17:40 05.06.2020
1950 Clouds 19 1021 55 10000 7.2 80 17:19 05.06.2020
1951 Clouds 19 1022 56 10000 7.7 80 16:40 05.06.2020
1952 Clouds 19 1022 56 10000 7.7 80 16:22 05.06.2020
1953 Clouds 19 1022 56 10000 7.7 90 15:57 05.06.2020
1954 Clouds 19 1022 56 10000 7.7 90 15:37 05.06.2020
1955 Clouds 19 1022 56 10000 7.7 90 15:19 05.06.2020
1956 Clouds 19 1022 52 10000 7.2 80 14:56 05.06.2020
1957 Clouds 20 1022 56 10000 6.2 80 14:37 05.06.2020
1958 Clouds 20 1022 56 10000 4.6 60 14:19 05.06.2020
1959 Clouds 20 1022 52 10000 3.1 50 13:42 05.06.2020
1960 Clouds 20 1022 52 10000 2.6 90 13:23 05.06.2020
1961 Clouds 20 1022 52 10000 3.6 90 12:43 05.06.2020
1962 Clouds 21 1022 56 10000 3.6 90 12:20 05.06.2020
1963 Clouds 21 1022 56 10000 3.6 90 11:57 05.06.2020
1964 Clouds 21 1022 53 10000 3.6 90 11:39 05.06.2020
1965 Clouds 22 1022 53 10000 3.6 90 11:20 05.06.2020
1966 Clouds 22 1022 53 10000 4.1 90 10:55 05.06.2020
1967 Clouds 23 1022 49 10000 4.6 100 10:36 05.06.2020
1968 Clouds 23 1022 49 10000 4.6 100 10:18 05.06.2020
1969 Clouds 24 1022 49 10000 5.1 90 09:55 05.06.2020
1970 Clouds 24 1022 47 10000 5.1 100 09:36 05.06.2020
1971 Clouds 24 1022 47 10000 5.7 110 09:18 05.06.2020
1972 Clouds 24 1022 47 10000 6.7 90 08:41 05.06.2020
1973 Clear 25 1022 47 10000 6.7 90 08:20 05.06.2020
1974 Clear 24 1022 47 10000 6.7 90 07:57 05.06.2020
1975 Clear 24 1022 49 10000 6.2 110 07:38 05.06.2020
1976 Clear 24 1022 49 10000 6.2 110 07:19 05.06.2020
1977 Clear 22 1023 49 10000 7.2 90 05:50 05.06.2020
1978 Clear 22 1024 52 10000 7.7 80 05:19 05.06.2020
1979 Clear 19 1024 68 10000 6.7 70 03:53 05.06.2020
1980 Clear 16 1024 67 10000 4.1 80 02:45 05.06.2020
1981 Clear 16 1024 67 10000 4.1 80 02:21 05.06.2020
1982 Clear 15 1023 72 10000 3.6 60 01:52 05.06.2020
1983 Clear 15 1023 67 10000 4.1 80 00:59 05.06.2020
1984 Clear 15 1023 67 10000 5.7 90 00:39 05.06.2020
1985 Clear 15 1023 63 10000 5.1 100 00:19 05.06.2020
1986 Clear 16 1022 63 10000 7.2 90 23:46 04.06.2020
1987 Clear 15 1022 63 10000 7.2 90 23:25 04.06.2020
1988 Clear 16 1022 59 10000 6.2 80 22:45 04.06.2020
1989 Clear 16 1022 59 10000 6.2 80 22:23 04.06.2020
1990 Clear 16 1022 59 10000 6.2 80 21:59 04.06.2020
1991 Clear 16 1022 59 10000 7.7 80 21:40 04.06.2020
1992 Clouds 17 1022 59 10000 7.7 80 21:22 04.06.2020
1993 Clouds 17 1022 59 10000 7.7 80 21:22 04.06.2020
1994 Clouds 17 1022 55 10000 7.2 70 20:58 04.06.2020
1995 Clouds 17 1022 55 10000 7.7 80 20:39 04.06.2020
1996 Clouds 17 1022 55 10000 7.7 80 20:20 04.06.2020
1997 Clouds 17 1022 55 10000 6.7 80 19:57 04.06.2020
1998 Clouds 17 1022 55 10000 6.7 80 19:38 04.06.2020
1999 Clouds 17 1022 55 10000 7.2 80 19:19 04.06.2020
2000 Clouds 18 1022 52 10000 8.7 90 18:40 04.06.2020
2001 Clear 18 1022 52 10000 8.2 100 18:21 04.06.2020
2002 Clear 18 1022 52 10000 7.2 100 17:59 04.06.2020
2003 Clear 18 1022 52 10000 7.2 100 17:41 04.06.2020
2004 Clear 18 1022 52 10000 7.2 100 17:20 04.06.2020
2005 Clear 18 1023 49 10000 2.6 90 16:41 04.06.2020
2006 Clear 18 1023 49 10000 3.1 120 16:21 04.06.2020
2007 Clear 18 1023 49 10000 3.1 120 16:21 04.06.2020
2008 Clear 18 1023 49 10000 3.1 120 15:55 04.06.2020
2009 Clear 18 1023 49 10000 3.1 110 15:37 04.06.2020
2010 Clear 18 1023 49 10000 3.1 130 15:19 04.06.2020
2011 Clear 19 1023 52 10000 3.6 130 14:38 04.06.2020
2012 Clouds 19 1022 49 10000 4.1 100 14:19 04.06.2020
2013 Clouds 19 1022 49 10000 3.1 130 13:43 04.06.2020
2014 Clouds 19 1022 52 10000 4.1 130 13:21 04.06.2020
2015 Clouds 19 1022 52 10000 4.1 130 13:21 04.06.2020
2016 Clouds 20 1022 52 10000 4.1 130 12:59 04.06.2020
2017 Clouds 20 1022 56 10000 3.1 130 12:41 04.06.2020
2018 Clouds 21 1021 52 10000 3.1 140 12:23 04.06.2020
2019 Clouds 21 1021 52 10000 3.1 140 11:58 04.06.2020
2020 Clouds 22 1021 46 10000 3.6 130 11:38 04.06.2020
2021 Clouds 23 1021 41 10000 3.1 120 11:20 04.06.2020
2022 Clouds 24 1021 41 10000 3.1 120 10:56 04.06.2020
2023 Clouds 24 1021 44 10000 3.1 140 10:37 04.06.2020
2024 Clouds 25 1021 38 10000 3.1 130 10:18 04.06.2020
2025 Clouds 25 1021 34 10000 2.6 180 09:42 04.06.2020
2026 Clouds 25 1021 34 10000 2.6 180 09:23 04.06.2020
2027 Clouds 25 1021 36 10000 3.6 180 08:44 04.06.2020
2028 Clouds 25 1021 36 10000 3.6 180 08:26 04.06.2020
2029 Clouds 25 1021 36 10000 3.6 180 07:47 04.06.2020
2030 Clouds 25 1021 33 10000 2.6 180 07:27 04.06.2020
2031 Clouds 24 1022 36 10000 2.6 230 06:44 04.06.2020
2032 Clouds 23 1023 40 10000 2.6 100 06:25 04.06.2020
2033 Clouds 22 1023 46 10000 3.1 70 05:35 04.06.2020
2034 Clouds 21 1023 46 10000 2.1 120 04:33 04.06.2020
2035 Clouds 17 1023 52 10000 2.6 90 03:24 04.06.2020
2036 Clouds 14 1022 63 10000 3.1 70 01:56 04.06.2020
2037 Clouds 14 1022 63 10000 3.1 70 01:56 04.06.2020
2038 Clouds 15 1022 63 10000 2.6 50 01:19 04.06.2020
2039 Clouds 14 1022 67 10000 2.6 90 00:40 04.06.2020
2040 Clouds 14 1021 67 10000 2.6 70 23:41 03.06.2020
2041 Clouds 14 1021 67 10000 2.6 80 23:20 03.06.2020
2042 Clouds 14 1021 67 10000 2.6 80 22:58 03.06.2020
2043 Clouds 14 1021 67 10000 2.6 80 22:58 03.06.2020
2044 Clouds 15 1021 63 10000 4.1 70 22:39 03.06.2020
2045 Clouds 15 1021 63 10000 4.1 70 22:18 03.06.2020
2046 Clouds 15 1021 63 10000 4.1 70 21:56 03.06.2020
2047 Clouds 15 1022 59 10000 2.6 50 21:38 03.06.2020
2048 Clouds 15 1022 59 10000 2.1 90 21:20 03.06.2020
2049 Clouds 16 1022 59 10000 2.6 60 20:43 03.06.2020
2050 Clouds 16 1022 59 10000 3.6 70 20:22 03.06.2020
2051 Clouds 16 1022 59 10000 3.6 70 19:58 03.06.2020
2052 Clouds 16 1022 63 10000 3.1 50 19:40 03.06.2020
2053 Clouds 16 1022 67 10000 2.6 60 19:22 03.06.2020
2054 Clouds 16 1022 67 10000 2.6 60 18:59 03.06.2020
2055 Clouds 16 1022 67 10000 3.1 70 18:41 03.06.2020
2056 Clouds 16 1022 67 10000 2.1 20 18:20 03.06.2020
2057 Clouds 16 1022 67 10000 2.1 20 17:54 03.06.2020
2058 Clouds 16 1022 63 10000 3.1 60 17:36 03.06.2020
2059 Clouds 16 1023 63 10000 3.1 60 17:18 03.06.2020
2060 Clouds 16 1023 67 10000 2.6 60 16:41 03.06.2020
2061 Clouds 15 1023 76 10000 3.1 70 16:20 03.06.2020
2062 Clouds 15 1023 76 10000 3.1 70 15:55 03.06.2020
2063 Clouds 15 1023 76 10000 3.1 70 15:55 03.06.2020
2064 Clouds 15 1023 87 10000 2.1 90 15:37 03.06.2020
2065 Clouds 14 1023 87 10000 2.1 90 15:19 03.06.2020
2066 Clouds 16 1023 82 10000 1 80 14:45 03.06.2020
2067 Clear 16 1023 82 10000 1 80 14:24 03.06.2020
2068 Clear 16 1022 71 10000 2.1 90 13:54 03.06.2020
2069 Clear 16 1022 67 10000 2.6 80 13:36 03.06.2020
2070 Clear 17 1022 67 10000 4.1 20 13:18 03.06.2020
2071 Clear 17 1022 59 10000 4.1 20 12:42 03.06.2020
2072 Clear 19 1021 49 10000 4.1 20 12:20 03.06.2020
2073 Clear 20 1021 40 10000 3.1 240 11:44 03.06.2020
2074 Clear 21 1021 40 10000 3.1 240 11:26 03.06.2020
2075 Clear 23 1021 38 10000 1.5 30 10:55 03.06.2020
2076 Clear 24 1021 36 10000 2.1 20 10:36 03.06.2020
2077 Clear 24 1021 36 10000 2.1 60 10:18 03.06.2020
2078 Clear 24 1021 36 10000 1 50 09:41 03.06.2020
2079 Clear 25 1021 36 10000 1 50 09:19 03.06.2020
2080 Clear 25 1021 38 10000 1.5 10 08:47 03.06.2020
2081 Clouds 24 1021 38 10000 2.6 350 08:22 03.06.2020
2082 Clouds 24 1021 38 10000 2.6 350 07:58 03.06.2020
2083 Clouds 23 1022 43 10000 3.1 10 07:36 03.06.2020
2084 Clouds 23 1022 43 10000 3.1 10 07:18 03.06.2020
2085 Clouds 23 1022 43 10000 3.1 20 06:44 03.06.2020
2086 Clouds 22 1023 43 10000 4.1 30 06:22 03.06.2020
2087 Clouds 22 1023 46 10000 4.6 30 05:44 03.06.2020
2088 Clear 20 1024 48 10000 4.1 40 04:20 03.06.2020
2089 Clear 18 1024 59 10000 4.6 60 03:41 03.06.2020
2090 Clear 14 1024 67 10000 4.1 70 02:34 03.06.2020
2091 Clouds 13 1023 71 10000 4.1 60 01:42 03.06.2020
2092 Clouds 14 1023 67 10000 4.6 70 00:38 03.06.2020
2093 Clouds 14 1023 62 10000 5.1 70 00:19 03.06.2020
2094 Clouds 14 1022 67 10000 4.6 70 23:43 02.06.2020
2095 Clouds 14 1022 67 10000 4.6 70 23:43 02.06.2020
2096 Clouds 15 1022 67 10000 4.6 70 23:24 02.06.2020
2097 Clouds 15 1023 67 10000 5.1 70 22:40 02.06.2020
2098 Clouds 15 1023 67 10000 4.6 70 22:19 02.06.2020
2099 Clouds 15 1023 67 10000 4.6 70 21:57 02.06.2020
2100 Clouds 15 1023 67 10000 3.6 70 21:39 02.06.2020
2101 Clouds 15 1023 67 10000 3.6 70 21:21 02.06.2020
2102 Clouds 15 1023 67 10000 3.6 70 21:21 02.06.2020
2103 Clouds 15 1023 67 10000 3.6 70 21:21 02.06.2020
2104 Clouds 15 1023 67 10000 4.1 70 20:59 02.06.2020
2105 Clouds 14 1023 67 10000 4.1 80 20:40 02.06.2020
2106 Clouds 14 1023 67 10000 4.1 80 20:22 02.06.2020
2107 Clouds 14 1023 76 10000 3.1 90 19:46 02.06.2020
2108 Clouds 14 1024 71 10000 3.1 70 19:26 02.06.2020
2109 Clouds 14 1024 71 10000 3.1 70 18:59 02.06.2020
2110 Clouds 14 1024 67 10000 3.6 70 18:40 02.06.2020
2111 Clouds 14 1024 67 10000 3.6 70 18:40 02.06.2020
2112 Clouds 14 1024 67 10000 4.1 70 18:21 02.06.2020
2113 Clouds 14 1024 67 10000 4.1 70 17:59 02.06.2020
2114 Clouds 14 1023 67 10000 6.2 80 17:40 02.06.2020
2115 Clouds 14 1023 67 10000 6.2 80 17:40 02.06.2020
2116 Clouds 14 1023 67 10000 6.2 80 17:21 02.06.2020
2117 Clouds 14 1024 67 10000 4.6 70 16:56 02.06.2020
2118 Clouds 14 1024 63 10000 4.6 90 16:37 02.06.2020
2119 Clouds 14 1024 63 10000 4.6 90 16:19 02.06.2020
2120 Clouds 15 1024 67 10000 4.1 70 15:40 02.06.2020
2121 Clouds 15 1024 67 10000 4.1 70 15:22 02.06.2020
2122 Clouds 16 1024 72 10000 3.6 80 14:48 02.06.2020
2123 Clouds 16 1024 72 10000 3.1 80 14:28 02.06.2020
2124 Clouds 16 1024 72 10000 2.6 60 13:57 02.06.2020
2125 Clouds 16 1024 72 10000 3.1 110 13:37 02.06.2020
2126 Clouds 16 1024 72 10000 3.1 110 13:37 02.06.2020
2127 Clouds 16 1024 72 10000 3.6 110 13:18 02.06.2020
2128 Clouds 16 1024 72 10000 3.6 110 12:56 02.06.2020
2129 Clouds 17 1023 72 10000 2.6 110 12:38 02.06.2020
2130 Clouds 17 1023 67 10000 3.1 120 12:19 02.06.2020
2131 Clouds 18 1023 59 10000 2.6 110 11:41 02.06.2020
2132 Clouds 19 1023 59 10000 2.6 110 11:23 02.06.2020
2133 Clouds 19 1023 59 10000 4.1 100 10:59 02.06.2020
2134 Clouds 20 1023 52 10000 4.6 90 10:41 02.06.2020
2135 Clouds 21 1023 52 10000 4.6 90 10:21 02.06.2020
2136 Clouds 21 1023 49 10000 3.6 70 09:43 02.06.2020
2137 Clouds 21 1023 49 10000 3.6 70 09:21 02.06.2020
2138 Clouds 21 1023 52 10000 3.1 60 08:55 02.06.2020
2139 -273 0 0 0 0 0 08:28 02.06.2020
2140 Clouds 20 1024 55 10000 5.7 60 07:58 02.06.2020
2141 Clouds 20 1024 55 10000 5.7 60 07:33 02.06.2020
2142 Clouds 20 1024 59 10000 4.1 80 06:59 02.06.2020
2143 Clouds 19 1025 63 10000 4.1 70 06:38 02.06.2020
2144 Clouds 18 1026 67 10000 4.6 70 05:37 02.06.2020
2145 Clouds 17 1026 72 10000 6.2 70 04:24 02.06.2020
2146 Clouds 13 1026 81 10000 4.6 70 02:37 02.06.2020
2147 Clouds 12 1025 81 10000 4.1 70 01:53 02.06.2020
2148 Clouds 11 1025 82 10000 4.1 70 00:46 02.06.2020
2149 Clouds 11 1025 87 10000 3.1 60 00:20 02.06.2020
2150 Clouds 11 1025 87 10000 4.1 70 23:39 01.06.2020
2151 Clouds 11 1025 87 10000 4.1 70 23:19 01.06.2020
2152 Clouds 10 1025 87 10000 4.1 60 22:56 01.06.2020
2153 Clouds 10 1025 87 10000 3.1 50 22:38 01.06.2020
2154 Clouds 12 1025 82 10000 3.1 50 22:18 01.06.2020
2155 Clouds 11 1025 82 10000 4.1 60 21:42 01.06.2020
2156 Clear 11 1025 82 10000 4.1 60 21:21 01.06.2020
2157 Clear 11 1025 82 10000 4.1 60 20:59 01.06.2020
2158 Clear 11 1026 82 10000 4.1 60 20:41 01.06.2020
2159 Clouds 11 1026 82 10000 4.1 60 20:20 01.06.2020
2160 Clouds 11 1026 82 10000 4.1 60 19:58 01.06.2020
2161 Clouds 11 1026 82 10000 4.6 60 19:39 01.06.2020
2162 Clouds 12 1026 93 10000 3.1 50 19:20 01.06.2020
2163 Clouds 11 1026 93 10000 2.1 40 18:57 01.06.2020
2164 Clouds 12 1026 93 10000 2.1 40 18:38 01.06.2020
2165 Clouds 10 1026 93 10000 3.02 105 18:18 01.06.2020
2166 Clouds 10 1026 93 10000 1.5 110 17:41 01.06.2020
2167 Clouds 11 1027 87 10000 0.5 320 17:20 01.06.2020
2168 Clouds 12 1027 87 10000 1.5 20 16:48 01.06.2020
2169 Clouds 12 1026 87 10000 3.1 110 16:26 01.06.2020
2170 Clouds 13 1026 87 10000 3.1 110 15:59 01.06.2020
2171 Clouds 13 1026 87 10000 3.6 90 15:40 01.06.2020
2172 Clouds 12 1026 87 10000 3.6 90 15:21 01.06.2020
2173 Clouds 12 1027 87 10000 1.5 110 14:59 01.06.2020
2174 Clouds 13 1027 82 10000 2.1 110 14:41 01.06.2020
2175 Clouds 14 1027 82 10000 2.6 170 14:21 01.06.2020
2176 Clouds 15 1027 82 10000 2.6 170 13:55 01.06.2020
2177 Clouds 15 1027 82 10000 2.6 170 13:55 01.06.2020
2178 Clouds 15 1027 82 10000 2.6 170 13:37 01.06.2020
2179 Clouds 15 1026 77 10000 1 160 13:18 01.06.2020
2180 Clouds 16 1026 77 10000 1 160 12:55 01.06.2020
2181 Clouds 15 1026 77 10000 1.5 200 12:36 01.06.2020
2182 Clouds 16 1026 67 10000 2.6 110 12:18 01.06.2020
2183 Clouds 17 1026 67 10000 2.1 130 11:39 01.06.2020
2184 Clouds 17 1026 67 10000 2.1 130 11:21 01.06.2020
2185 Clouds 18 1026 59 10000 2.1 120 10:57 01.06.2020
2186 Clouds 18 1026 52 10000 2.6 140 10:37 01.06.2020
2187 Clouds 18 1026 52 10000 2.6 170 10:18 01.06.2020
2188 Clouds 19 1026 52 10000 3.1 160 09:46 01.06.2020
2189 Clouds 19 1026 52 10000 3.1 160 09:27 01.06.2020
2190 Clouds 19 1026 52 10000 3.1 70 08:59 01.06.2020
2191 Clouds 19 1026 59 10000 2.6 80 08:40 01.06.2020
2192 Clouds 19 1026 55 10000 3.6 130 08:22 01.06.2020
2193 Clouds 20 1026 52 10000 4.1 90 07:42 01.06.2020
2194 Clouds 20 1026 52 10000 4.1 90 07:24 01.06.2020
2195 Clouds 20 1027 59 10000 6.7 100 06:51 01.06.2020
2196 Clouds 19 1027 59 10000 6.2 90 05:58 01.06.2020
2197 Clouds 19 1027 59 10000 6.2 90 05:58 01.06.2020
2198 Clouds 18 1028 68 10000 5.1 90 05:22 01.06.2020
2199 Clouds 16 1028 77 10000 3.1 70 04:18 01.06.2020
2200 Clouds 15 1028 82 10000 2.3 81 03:42 01.06.2020
2201 Clouds 14 1028 87 10000 0.5 20 02:57 01.06.2020
2202 Clouds 13 1027 87 10000 2.6 50 01:40 01.06.2020
2203 Clouds 13 1027 93 10000 1.95 67 01:18 01.06.2020
2204 Clouds 13 1027 93 10000 1.95 67 00:56 01.06.2020
2205 Clouds 13 1027 93 10000 2.1 10 00:37 01.06.2020
2206 Clouds 13 1027 93 10000 2.1 10 00:19 01.06.2020
2207 Clouds 13 1027 93 10000 2.1 70 23:41 31.05.2020
2208 Clouds 13 1027 93 10000 2.1 70 23:22 31.05.2020
2209 Clouds 13 1026 93 10000 2.1 60 22:58 31.05.2020
2210 Clouds 14 1026 93 10000 2.1 60 22:40 31.05.2020
2211 Clouds 14 1026 93 10000 2.1 60 22:22 31.05.2020
2212 Clouds 14 1026 93 10000 1.5 40 21:57 31.05.2020
2213 Clouds 14 1026 93 10000 1.5 30 21:39 31.05.2020
2214 Clouds 14 1026 93 10000 1.5 30 21:20 31.05.2020
2215 Clouds 14 1026 93 10000 1.5 30 20:44 31.05.2020
2216 Clouds 14 1026 93 10000 1.5 30 20:25 31.05.2020
2217 Clouds 14 1027 93 10000 1 50 19:56 31.05.2020
2218 Clouds 14 1026 93 10000 1 90 19:38 31.05.2020
2219 Clouds 14 1026 93 10000 1 90 19:20 31.05.2020
2220 Clouds 14 1026 93 10000 1.04 59 18:45 31.05.2020
2221 Clouds 14 1026 93 10000 1.26 92 18:25 31.05.2020
2222 Clouds 14 1027 93 10000 2.6 70 17:59 31.05.2020
2223 Clouds 14 1027 93 10000 2.1 50 17:40 31.05.2020
2224 Clouds 14 1027 93 10000 2.1 50 17:20 31.05.2020
2225 Clouds 14 1027 93 10000 1.65 116 16:41 31.05.2020
2226 Clouds 15 1027 93 10000 1.9 141 16:21 31.05.2020
2227 Clouds 15 1027 93 10000 0.5 360 15:42 31.05.2020
2228 Clouds 15 1027 93 10000 0.5 360 15:23 31.05.2020
2229 Clouds 15 1026 93 10000 2.1 330 14:59 31.05.2020
2230 Clouds 15 1026 93 10000 2.6 330 14:40 31.05.2020
2231 Clouds 15 1026 93 10000 2.6 330 14:19 31.05.2020
2232 Clouds 15 1026 93 10000 2.6 330 14:19 31.05.2020
2233 Rain 16 1026 93 10000 2.1 210 13:55 31.05.2020
2234 Drizzle 16 1026 87 8000 0.5 250 13:36 31.05.2020
2235 Clouds 16 1025 87 10000 1.5 280 13:18 31.05.2020
2236 Clouds 16 1025 82 10000 2.1 260 12:41 31.05.2020
2237 Clouds 16 1025 82 10000 2.1 260 12:23 31.05.2020
2238 Clouds 17 1025 82 10000 3.6 220 11:49 31.05.2020
2239 Clouds 17 1025 72 10000 4.6 210 11:25 31.05.2020
2240 Clouds 18 1025 68 10000 4.6 220 10:59 31.05.2020
2241 Clouds 18 1024 68 10000 5.7 230 10:41 31.05.2020
2242 Clouds 19 1024 68 10000 5.7 230 10:23 31.05.2020
2243 Clouds 18 1024 68 10000 5.7 230 10:23 31.05.2020
2244 Clouds 19 1024 68 10000 5.7 230 09:56 31.05.2020
2245 Rain 19 1024 68 10000 5.7 240 09:38 31.05.2020
2246 Rain 19 1024 68 10000 5.7 240 09:38 31.05.2020
2247 Rain 19 1024 64 10000 6.2 250 09:19 31.05.2020
2248 Rain 19 1024 72 10000 5.7 270 08:42 31.05.2020
2249 Rain 20 1024 72 10000 5.7 270 08:23 31.05.2020
2250 Rain 19 1024 88 10000 2.6 250 07:48 31.05.2020
2251 Rain 19 1024 88 10000 2.6 250 07:21 31.05.2020
2252 Rain 19 1025 93 10000 3.1 280 06:56 31.05.2020
2253 Rain 18 1025 88 5000 6.2 240 06:34 31.05.2020
2254 Rain 18 1025 93 5000 1.5 350 05:46 31.05.2020
2255 Rain 18 1025 93 5000 1.5 350 05:27 31.05.2020
2256 Rain 16 1025 93 4000 3.1 30 03:56 31.05.2020
2257 Rain 15 1025 93 5000 3.1 120 02:59 31.05.2020
2258 Rain 15 1024 93 10000 2.6 30 01:51 31.05.2020
2259 Clouds 15 1024 93 10000 2.6 40 01:30 31.05.2020
2260 Rain 15 1023 93 10000 2.6 30 00:31 31.05.2020
2261 Clouds 15 1023 93 10000 2.6 40 23:59 30.05.2020
2262 Rain 15 1022 93 10000 3.1 20 23:41 30.05.2020
2263 Rain 15 1022 93 10000 3.1 20 23:22 30.05.2020
2264 Clouds 15 1022 93 10000 3.1 20 22:42 30.05.2020
2265 Clouds 15 1022 93 10000 2.1 10 22:23 30.05.2020
2266 Clouds 15 1022 93 10000 2.1 10 21:56 30.05.2020
2267 Clouds 15 1022 87 10000 2.6 310 21:38 30.05.2020
2268 Clouds 15 1022 87 10000 2.6 310 21:20 30.05.2020
2269 Clouds 15 1022 87 10000 2.6 290 20:57 30.05.2020
2270 Rain 15 1022 93 10000 4.85 255 20:38 30.05.2020
2271 Rain 15 1022 93 10000 4.9 255 20:20 30.05.2020
2272 Rain 15 1022 87 10000 3.6 270 19:43 30.05.2020
2273 Rain 15 1022 87 10000 3.6 270 19:22 30.05.2020
2274 Clouds 15 1022 82 10000 2.6 300 18:54 30.05.2020
2275 Rain 15 1022 87 10000 4.1 300 18:36 30.05.2020
2276 Rain 15 1022 93 10000 2.6 80 18:18 30.05.2020
2277 Clouds 15 1022 100 10000 3.1 10 17:38 30.05.2020
2278 Clouds 15 1022 93 10000 2.6 10 17:19 30.05.2020
2279 Clouds 14 1022 87 10000 2.6 330 16:44 30.05.2020
2280 Clouds 14 1022 87 10000 2.6 330 16:23 30.05.2020
2281 Clouds 14 1022 82 10000 3.6 310 15:56 30.05.2020
2282 Rain 14 1022 93 10000 3.1 320 15:38 30.05.2020
2283 Rain 14 1022 87 10000 3.6 280 15:19 30.05.2020
2284 Rain 14 1022 87 10000 2.6 210 14:42 30.05.2020
2285 Rain 14 1022 87 10000 2.6 210 14:21 30.05.2020
2286 Clouds 15 1022 67 10000 3.1 290 13:42 30.05.2020
2287 Clouds 15 1022 76 10000 2.6 290 13:20 30.05.2020
2288 Clouds 15 1021 76 10000 1 200 12:40 30.05.2020
2289 Clouds 15 1021 76 10000 1 200 12:20 30.05.2020
2290 Clouds 15 1021 67 10000 2.6 230 11:56 30.05.2020
2291 Clouds 15 1021 67 10000 4.1 270 11:38 30.05.2020
2292 Rain 15 1021 59 10000 6.2 270 11:20 30.05.2020
2293 Clouds 15 1020 72 10000 5.7 270 10:39 30.05.2020
2294 Clouds 15 1020 72 10000 5.7 270 10:39 30.05.2020
2295 Clouds 15 1020 72 10000 5.7 270 10:39 30.05.2020
2296 Rain 16 1020 59 10000 4.6 270 10:21 30.05.2020
2297 Rain 17 1020 59 10000 6.7 260 09:47 30.05.2020
2298 Rain 17 1020 59 10000 6.7 260 09:29 30.05.2020
2299 Rain 17 1019 59 10000 7.2 250 08:47 30.05.2020
2300 Rain 17 1019 59 10000 7.2 250 08:28 30.05.2020
2301 Rain 16 1020 67 10000 5.7 250 07:44 30.05.2020
2302 Rain 16 1020 67 10000 5.7 250 07:44 30.05.2020
2303 Rain 16 1020 67 10000 5.7 250 07:21 30.05.2020
2304 Rain 15 1020 72 10000 3.6 350 06:33 30.05.2020
2305 Rain 16 1021 76 10000 2.1 260 05:58 30.05.2020
2306 Rain 15 1021 72 10000 2.1 360 05:34 30.05.2020
2307 Clouds 13 1020 82 10000 2.1 50 03:39 30.05.2020
2308 Clouds 12 1020 93 10000 2.6 50 02:30 30.05.2020
2309 Clouds 11 1019 93 10000 1 40 01:45 30.05.2020
2310 Clouds 12 1018 93 10000 2.6 20 00:38 30.05.2020
2311 Rain 12 1018 93 10000 2.1 360 00:18 30.05.2020
2312 Clouds 12 1017 87 10000 2.6 110 23:43 29.05.2020
2313 Clouds 12 1017 93 10000 1 240 23:21 29.05.2020
2314 Clouds 12 1017 93 10000 1 240 22:58 29.05.2020
2315 Clouds 13 1017 81 10000 2.6 240 22:40 29.05.2020
2316 Clouds 13 1017 81 10000 2.6 240 22:19 29.05.2020
2317 Clouds 13 1017 81 10000 3.6 220 21:55 29.05.2020
2318 Clouds 13 1017 81 10000 4.6 230 21:36 29.05.2020
2319 Clouds 13 1016 76 10000 3.6 220 21:18 29.05.2020
2320 Rain 13 1016 76 10000 4.6 210 20:44 29.05.2020
2321 Rain 13 1016 76 10000 4.6 210 20:20 29.05.2020
2322 Rain 13 1016 71 10000 5.7 240 19:56 29.05.2020
2323 Rain 13 1016 76 10000 6.7 250 19:37 29.05.2020
2324 Clouds 13 1016 76 10000 4.6 230 19:19 29.05.2020
2325 Rain 13 1016 76 10000 5.1 240 18:44 29.05.2020
2326 Rain 13 1016 87 10000 4.6 230 18:19 29.05.2020
2327 Rain 13 1016 76 10000 7.2 220 17:40 29.05.2020
2328 Rain 14 1016 76 10000 7.2 220 17:22 29.05.2020
2329 Rain 14 1016 76 10000 7.2 220 17:22 29.05.2020
2330 Rain 14 1015 67 10000 8.2 230 16:58 29.05.2020
2331 Rain 14 1015 67 10000 6.2 240 16:40 29.05.2020
2332 Rain 14 1015 67 10000 6.2 240 16:22 29.05.2020
2333 Rain 14 1015 62 10000 7.7 250 15:54 29.05.2020
2334 Clouds 15 1014 62 10000 8.7 240 15:36 29.05.2020
2335 Rain 15 1014 76 10000 6.7 240 15:18 29.05.2020
2336 Rain 15 1014 76 10000 6.7 240 15:18 29.05.2020
2337 Rain 14 1013 62 10000 8.2 250 14:39 29.05.2020
2338 Rain 15 1013 62 10000 8.2 250 14:20 29.05.2020
2339 Rain 15 1012 93 10000 4.6 260 13:43 29.05.2020
2340 Rain 15 1012 93 10000 4.6 260 13:24 29.05.2020
2341 Rain 14 1012 93 9000 5.7 250 12:58 29.05.2020
2342 Rain 14 1011 87 10000 5.7 250 12:39 29.05.2020
2343 Rain 14 1011 87 10000 5.7 250 12:39 29.05.2020
2344 Rain 14 1011 87 10000 5.7 250 12:20 29.05.2020
2345 Rain 14 1010 93 9000 4.1 260 11:44 29.05.2020
2346 Rain 14 1010 93 9000 4.1 260 11:25 29.05.2020
2347 -273 0 0 0 0 0 10:55 29.05.2020
2348 Rain 15 1009 77 10000 7.2 260 10:36 29.05.2020
2349 Rain 16 1009 93 10000 8.2 250 10:18 29.05.2020
2350 Rain 16 1009 93 10000 8.2 250 10:18 29.05.2020
2351 Rain 17 1009 87 10000 3.1 310 09:41 29.05.2020
2352 Rain 17 1009 87 10000 3.1 310 09:19 29.05.2020
2353 Rain 16 1008 88 10000 7.7 330 08:48 29.05.2020
2354 Rain 16 1008 88 10000 7.7 330 08:25 29.05.2020
2355 Rain 16 1010 93 10000 5.1 290 07:48 29.05.2020
2356 Rain 17 1010 93 10000 5.1 290 07:30 29.05.2020
2357 Thunderstorm 17 1010 82 2500 11.8 270 06:58 29.05.2020
2358 Clouds 20 1010 64 10000 9.8 310 06:39 29.05.2020
2359 Clouds 21 1010 64 10000 9.8 310 06:21 29.05.2020
2360 Clouds 20 1011 73 10000 10.3 300 05:40 29.05.2020
2361 Rain 15 1012 93 10000 5.7 10 02:20 29.05.2020
2362 Rain 14 1012 93 10000 3.6 20 01:27 29.05.2020
2363 Rain 14 1012 93 10000 4.1 10 01:27 29.05.2020
2364 Rain 15 1012 93 10000 3.6 20 00:53 29.05.2020
2365 Rain 15 1012 93 1500 3.6 280 00:32 29.05.2020
2366 Rain 14 1012 93 7000 3.1 210 23:57 28.05.2020
2367 Clouds 14 1011 93 10000 5.7 10 23:38 28.05.2020
2368 Clouds 14 1012 93 10000 6.2 10 23:18 28.05.2020
2369 Clouds 14 1012 93 10000 6.2 10 22:42 28.05.2020
2370 Clouds 14 1012 93 10000 6.2 10 22:23 28.05.2020
2371 Clouds 14 1012 93 10000 6.2 10 21:56 28.05.2020
2372 Clouds 14 1013 93 10000 5.7 10 21:37 28.05.2020
2373 Clouds 14 1013 93 10000 5.7 10 21:19 28.05.2020
2374 Clouds 14 1013 93 10000 6.2 10 20:56 28.05.2020
2375 Clouds 14 1013 93 10000 4.6 10 20:37 28.05.2020
2376 Clouds 14 1013 93 10000 6.2 10 20:18 28.05.2020
2377 Clouds 14 1013 93 10000 6.2 10 20:18 28.05.2020
2378 Clouds 14 1013 87 10000 6.2 10 19:43 28.05.2020
2379 Clouds 14 1013 87 10000 6.2 10 19:20 28.05.2020
2380 Clouds 14 1014 93 10000 5.7 10 18:57 28.05.2020
2381 Clouds 14 1014 93 10000 5.1 10 18:39 28.05.2020
2382 Clouds 14 1014 93 10000 5.1 10 18:21 28.05.2020
2383 Clouds 15 1014 87 10000 4.6 20 17:41 28.05.2020
2384 Rain 15 1015 87 10000 4.6 10 17:22 28.05.2020
2385 Rain 15 1015 87 10000 4.6 10 16:56 28.05.2020
2386 Clouds 15 1015 87 10000 4.6 20 16:36 28.05.2020
2387 Clouds 15 1015 82 10000 4.6 10 16:18 28.05.2020
2388 Clouds 15 1015 82 10000 4.1 20 15:41 28.05.2020
2389 Clouds 15 1015 82 10000 4.1 20 15:23 28.05.2020
2390 Clouds 16 1015 87 10000 3.6 10 14:43 28.05.2020
2391 Clouds 16 1015 87 10000 3.6 10 14:25 28.05.2020
2392 Clouds 17 1015 82 10000 4.1 360 13:49 28.05.2020
2393 Clouds 17 1015 82 10000 4.1 360 13:30 28.05.2020
2394 Clouds 18 1016 77 10000 4.1 360 12:59 28.05.2020
2395 Clouds 18 1016 72 10000 4.6 350 12:38 28.05.2020
2396 Clouds 18 1016 72 10000 5.7 330 12:19 28.05.2020
2397 Clouds 19 1016 68 10000 7.2 320 11:42 28.05.2020
2398 Clouds 19 1016 68 10000 7.2 320 11:24 28.05.2020
2399 Clouds 19 1016 60 10000 7.7 320 10:56 28.05.2020
2400 Clouds 20 1016 64 10000 9.3 320 10:38 28.05.2020
2401 Clouds 20 1016 64 10000 9.3 320 10:18 28.05.2020
2402 Clouds 20 1016 64 10000 9.8 320 09:39 28.05.2020
2403 Clouds 20 1016 64 10000 8.2 320 09:19 28.05.2020
2404 Rain 20 1016 68 10000 10.3 310 08:48 28.05.2020
2405 Rain 19 1016 68 10000 10.3 310 08:26 28.05.2020
2406 Clouds 19 1017 88 10000 2.1 30 07:45 28.05.2020
2407 Rain 19 1017 88 10000 2.1 30 07:26 28.05.2020
2408 Rain 17 1017 93 10000 2.6 50 06:56 28.05.2020
2409 Rain 17 1017 100 10000 5.7 20 06:37 28.05.2020
2410 Rain 16 1019 100 3000 4.1 360 05:41 28.05.2020
2411 Rain 16 1019 93 3000 6.7 360 04:54 28.05.2020
2412 Drizzle 15 1019 93 7000 6.2 360 04:27 28.05.2020
2413 Rain 15 1019 93 8000 5.7 10 03:45 28.05.2020
2414 Rain 14 1019 93 9000 4.6 10 02:45 28.05.2020
2415 Rain 14 1019 93 8000 5.1 20 01:50 28.05.2020
2416 Drizzle 14 1018 93 10000 4.6 10 00:54 28.05.2020
2417 Rain 14 1018 100 10000 4.1 20 00:24 28.05.2020
2418 Rain 13 1018 100 6000 4.1 10 23:57 27.05.2020
2419 Clouds 13 1018 100 10000 4.6 20 23:39 27.05.2020
2420 Rain 13 1018 100 8000 4.6 20 23:20 27.05.2020
2421 Rain 13 1018 100 8000 4.6 20 22:56 27.05.2020
2422 Clouds 13 1018 93 10000 4.1 30 22:38 27.05.2020
2423 Clouds 13 1018 93 10000 4.1 30 22:19 27.05.2020
2424 Rain 13 1019 93 10000 3.6 40 21:41 27.05.2020
2425 Rain 13 1019 93 10000 3.6 40 21:22 27.05.2020
2426 Rain 13 1019 100 0 1 20 20:58 27.05.2020
2427 Rain 13 1019 100 0 2.6 40 20:40 27.05.2020
2428 Rain 13 1019 100 0 2.6 40 20:20 27.05.2020
2429 Rain 13 1019 100 0 2.1 60 19:47 27.05.2020
2430 Rain 13 1019 100 0 2.1 60 19:47 27.05.2020
2431 Rain 13 1019 93 10000 2.1 180 19:21 27.05.2020
2432 Rain 13 1019 93 10000 2.1 180 18:58 27.05.2020
2433 Clouds 14 1019 100 0 0.5 0 18:39 27.05.2020
2434 Rain 13 1019 93 10000 2.1 50 18:19 27.05.2020
2435 Rain 14 1019 87 10000 2.1 40 17:43 27.05.2020
2436 Rain 14 1019 87 10000 2.1 40 17:25 27.05.2020
2437 Clouds 14 1019 93 10000 2.6 20 16:57 27.05.2020
2438 Rain 14 1019 87 10000 3.1 40 16:38 27.05.2020
2439 Rain 14 1019 87 10000 3.6 30 16:20 27.05.2020
2440 Rain 14 1019 87 10000 3.6 30 15:55 27.05.2020
2441 Clouds 14 1019 87 10000 2.6 30 15:37 27.05.2020
2442 Rain 15 1019 87 10000 3.6 30 15:18 27.05.2020
2443 Rain 15 1019 87 10000 3.6 30 14:42 27.05.2020
2444 Clouds 15 1019 87 10000 4.1 40 14:20 27.05.2020
2445 Clouds 16 1019 93 10000 3.1 50 13:42 27.05.2020
2446 Clouds 16 1019 93 10000 3.1 50 13:24 27.05.2020
2447 Clouds 16 1019 87 10000 2.1 350 12:43 27.05.2020
2448 Clouds 16 1019 87 10000 2.1 350 12:24 27.05.2020
2449 Clouds 17 1019 82 10000 3.1 330 11:59 27.05.2020
2450 Rain 17 1019 72 10000 5.1 310 11:37 27.05.2020
2451 Clouds 17 1019 72 10000 4.6 320 11:19 27.05.2020
2452 Clouds 18 1019 72 10000 4.6 320 10:55 27.05.2020
2453 Clouds 18 1019 63 10000 4.6 290 10:36 27.05.2020
2454 Clouds 19 1019 55 10000 6.2 300 10:18 27.05.2020
2455 Clouds 19 1019 52 10000 5.7 280 09:40 27.05.2020
2456 Clouds 19 1019 52 10000 5.7 280 09:21 27.05.2020
2457 Rain 18 1019 59 10000 5.1 320 08:43 27.05.2020
2458 Rain 18 1019 59 10000 5.1 320 08:25 27.05.2020
2459 Clouds 20 1019 60 10000 6.2 330 07:54 27.05.2020
2460 Clouds 19 1019 63 10000 3.6 310 07:35 27.05.2020
2461 Clouds 19 1020 63 10000 4.6 340 06:57 27.05.2020
2462 Clouds 19 1020 72 10000 4.6 10 06:33 27.05.2020
2463 Clouds 17 1021 77 10000 5.1 360 05:55 27.05.2020
2464 Clouds 17 1021 82 10000 4.1 20 05:35 27.05.2020
2465 Rain 15 1022 93 8000 3.6 40 04:19 27.05.2020
2466 Rain 12 1022 93 7000 3.1 320 02:30 27.05.2020
2467 Clouds 12 1021 93 10000 3.6 30 01:51 27.05.2020
2468 Clouds 11 1021 93 10000 3.6 20 01:20 27.05.2020
2469 Clouds 11 1021 93 10000 4.6 30 00:41 27.05.2020
2470 Clouds 12 1021 93 10000 4.6 30 00:19 27.05.2020
2471 Clouds 12 1020 93 10000 2.6 40 23:42 26.05.2020
2472 Clouds 12 1020 93 10000 2.6 40 23:24 26.05.2020
2473 Clouds 12 1021 93 10000 3.1 40 22:59 26.05.2020
2474 Clouds 12 1021 93 10000 3.1 40 22:58 26.05.2020
2475 Rain 11 1021 93 10000 4.6 10 22:38 26.05.2020
2476 Rain 11 1021 93 10000 4.6 10 22:20 26.05.2020
2477 Rain 12 1021 93 10000 2.1 350 21:56 26.05.2020
2478 Rain 12 1021 93 10000 2.1 350 21:56 26.05.2020
2479 Clouds 12 1021 93 10000 2.6 10 21:38 26.05.2020
2480 Clouds 12 1021 93 10000 2.6 10 21:19 26.05.2020
2481 Clouds 12 1021 87 10000 2.6 40 20:42 26.05.2020
2482 Clouds 12 1021 87 10000 2.6 10 20:21 26.05.2020
2483 Clouds 12 1021 87 10000 2.6 10 19:55 26.05.2020
2484 Clouds 12 1021 93 10000 2.6 20 19:37 26.05.2020
2485 Clouds 12 1021 93 10000 3.1 30 19:18 26.05.2020
2486 Clouds 12 1021 93 10000 3.6 30 18:41 26.05.2020
2487 Clouds 13 1021 93 10000 2.6 10 18:21 26.05.2020
2488 Rain 13 1022 93 10000 2.1 50 17:43 26.05.2020
2489 Rain 13 1022 93 10000 2.1 50 17:24 26.05.2020
2490 Rain 13 1022 93 10000 2.6 10 16:59 26.05.2020
2491 Clouds 13 1022 87 10000 2.6 90 16:41 26.05.2020
2492 Rain 13 1022 87 9000 1.5 280 16:19 26.05.2020
2493 Rain 13 1022 87 9000 1.5 280 15:44 26.05.2020
2494 Rain 13 1022 93 10000 2.6 260 15:21 26.05.2020
2495 Rain 13 1022 93 10000 2.6 260 14:56 26.05.2020
2496 Clouds 13 1022 93 10000 2.6 40 14:38 26.05.2020
2497 Clouds 13 1022 93 10000 2.6 40 14:20 26.05.2020
2498 Clouds 13 1021 82 10000 2.1 20 13:41 26.05.2020
2499 Clouds 14 1021 82 10000 2.1 20 13:23 26.05.2020
2500 Clouds 14 1021 82 10000 2.6 350 12:57 26.05.2020
2501 Clouds 14 1021 82 10000 3.1 350 12:38 26.05.2020
2502 Clouds 15 1021 82 10000 3.1 350 12:19 26.05.2020
2503 Clouds 15 1020 77 10000 2.6 350 11:41 26.05.2020
2504 Clouds 16 1020 77 10000 2.6 350 11:21 26.05.2020
2505 Clouds 16 1020 72 10000 2.1 350 10:57 26.05.2020
2506 Clouds 16 1020 67 10000 2.25 239 10:38 26.05.2020
2507 Clouds 17 1020 63 10000 1.5 330 10:18 26.05.2020
2508 Rain 17 1020 67 10000 3.1 290 09:38 26.05.2020
2509 Clouds 16 1019 67 10000 3.1 260 09:19 26.05.2020
2510 Rain 16 1019 67 10000 2.6 340 08:41 26.05.2020
2511 Rain 16 1019 67 10000 2.6 340 08:22 26.05.2020
2512 Clouds 16 1020 67 10000 2.1 310 07:44 26.05.2020
2513 Clouds 17 1020 67 10000 2.1 310 07:23 26.05.2020
2514 Clouds 17 1020 67 10000 0.5 270 06:53 26.05.2020
2515 Clouds 16 1020 72 10000 2.1 320 06:31 26.05.2020
2516 Clouds 15 1021 76 10000 3.1 320 05:43 26.05.2020
2517 Drizzle 15 1021 76 10000 2.6 40 05:21 26.05.2020
2518 Rain 14 1021 82 10000 2.6 40 04:48 26.05.2020
2519 Rain 14 1021 82 10000 2.6 40 04:30 26.05.2020
2520 Rain 13 1020 82 10000 2.6 40 03:49 26.05.2020
2521 Rain 11 1020 100 10000 3.1 50 02:36 26.05.2020
2522 Rain 10 1019 93 10000 2.6 340 01:47 26.05.2020
2523 Rain 10 1018 93 10000 2.6 20 00:44 26.05.2020
2524 Rain 10 1018 93 10000 2.6 20 00:26 26.05.2020
2525 Drizzle 10 1018 93 10000 2.1 50 23:59 25.05.2020
2526 Rain 10 1018 93 10000 2.6 90 23:39 25.05.2020
2527 Rain 10 1017 93 10000 3.1 50 23:20 25.05.2020
2528 Rain 11 1017 93 10000 3.1 50 22:56 25.05.2020
2529 Rain 10 1018 100 8000 0.5 70 22:37 25.05.2020
2530 Rain 11 1017 93 8000 2.1 20 22:19 25.05.2020
2531 Rain 11 1017 93 8000 2.1 20 21:58 25.05.2020
2532 Drizzle 11 1017 93 9000 3.1 360 21:38 25.05.2020
2533 Drizzle 11 1017 93 9000 3.1 360 21:20 25.05.2020
2534 Clouds 11 1017 93 10000 3.1 60 20:59 25.05.2020
2535 -273 0 0 0 0 0 20:59 25.05.2020
2536 Clouds 11 1017 93 10000 3.1 60 20:59 25.05.2020
2537 Clouds 11 1017 93 10000 3.1 60 20:59 25.05.2020
2538 Clouds 11 1017 93 10000 3.1 60 20:59 25.05.2020
2539 Clouds 11 1017 93 10000 3.6 70 20:40 25.05.2020
2540 Clouds 11 1017 93 10000 3.6 70 20:20 25.05.2020
2541 Clouds 11 1017 93 10000 3.1 70 19:55 25.05.2020
2542 Rain 11 1017 93 10000 2.1 10 19:37 25.05.2020
2543 Rain 11 1016 93 10000 2.1 40 19:18 25.05.2020
2544 Clouds 11 1016 93 10000 0.5 350 18:43 25.05.2020
2545 Clouds 11 1016 93 10000 0.5 350 18:21 25.05.2020
2546 Clouds 11 1016 93 10000 1.5 340 17:55 25.05.2020
2547 Clouds 12 1016 87 10000 1.5 170 17:37 25.05.2020
2548 Clouds 12 1016 87 10000 2.6 180 17:18 25.05.2020
2549 Rain 12 1015 81 10000 2.6 150 16:41 25.05.2020
2550 Rain 12 1015 81 10000 2.6 150 16:22 25.05.2020
2551 Rain 13 1015 81 10000 4.1 190 15:58 25.05.2020
2552 Rain 13 1015 76 10000 4.1 240 15:40 25.05.2020
2553 Rain 12 1014 76 10000 9.3 210 15:18 25.05.2020
2554 Rain 13 1014 66 10000 5.7 230 14:43 25.05.2020
2555 Rain 13 1014 66 10000 5.7 230 14:24 25.05.2020
2556 Rain 13 1013 62 10000 6.2 200 13:57 25.05.2020
2557 Rain 13 1012 66 10000 7.2 220 13:37 25.05.2020
2558 Rain 13 1012 66 10000 6.2 240 13:19 25.05.2020
2559 Rain 13 1012 66 10000 6.2 240 12:54 25.05.2020
2560 Rain 13 1011 76 10000 6.2 200 12:36 25.05.2020
2561 Rain 13 1011 81 8000 5.1 230 12:18 25.05.2020
2562 Rain 12 1011 81 10000 8.7 230 11:38 25.05.2020
2563 Rain 12 1010 71 10000 6.2 200 11:19 25.05.2020
2564 Rain 14 1009 76 10000 6.2 200 10:43 25.05.2020
2565 Rain 14 1008 54 10000 9.8 240 10:21 25.05.2020
2566 Rain 14 1008 54 10000 9.8 240 09:57 25.05.2020
2567 Rain 14 1008 71 10000 9.8 240 09:38 25.05.2020
2568 Rain 14 1008 71 10000 9.8 240 09:19 25.05.2020
2569 Rain 13 1008 67 9000 10.8 250 08:57 25.05.2020
2570 Rain 14 1007 71 8000 10.3 260 08:36 25.05.2020
2571 Rain 14 1007 71 8000 10.3 260 08:36 25.05.2020
2572 Rain 14 1007 67 10000 8.7 250 08:18 25.05.2020
2573 Rain 14 1007 71 10000 9.3 250 07:42 25.05.2020
2574 Rain 14 1007 71 10000 9.3 250 07:20 25.05.2020
2575 Rain 14 1007 82 7000 8.2 260 06:46 25.05.2020
2576 Rain 14 1007 82 7000 8.2 260 06:27 25.05.2020
2577 Rain 15 1003 67 7000 8.2 250 03:46 25.05.2020
2578 Rain 15 1003 67 7000 8.2 250 03:22 25.05.2020
2579 Rain 15 1003 82 5000 9.8 270 02:44 25.05.2020
2580 Rain 16 1001 77 8000 12.9 260 01:42 25.05.2020
2581 Rain 17 1001 55 10000 9.8 270 00:58 25.05.2020
2582 Rain 17 1000 72 10000 9.3 270 00:33 25.05.2020
2583 Rain 17 999 72 10000 9.8 270 23:59 24.05.2020
2584 Clouds 17 998 72 10000 9.8 270 23:40 24.05.2020
2585 Clouds 17 998 72 10000 9.8 270 23:22 24.05.2020
2586 Clouds 17 997 72 10000 10.3 270 22:58 24.05.2020
2587 Rain 17 996 72 10000 10.3 270 22:40 24.05.2020
2588 Rain 17 996 82 10000 9.3 280 22:18 24.05.2020
2589 Rain 17 996 82 10000 9.3 280 21:55 24.05.2020
2590 Rain 17 995 88 4000 8.7 290 21:37 24.05.2020
2591 Rain 17 995 77 10000 10.3 310 21:18 24.05.2020
2592 Rain 17 995 93 10000 9.8 320 20:43 24.05.2020
2593 Rain 17 995 93 10000 9.8 320 20:21 24.05.2020
2594 Rain 17 995 82 5000 9.8 330 19:57 24.05.2020
2595 Rain 17 993 82 10000 13.4 320 19:38 24.05.2020
2596 Rain 17 995 87 10000 15.4 330 19:19 24.05.2020
2597 Rain 17 995 87 10000 8.2 10 18:43 24.05.2020
2598 Rain 16 995 87 10000 8.2 10 18:23 24.05.2020
2599 Rain 16 995 87 10000 8.2 10 18:23 24.05.2020
2600 Rain 14 995 93 10000 8.7 20 17:58 24.05.2020
2601 Rain 14 996 93 9000 8.7 10 17:40 24.05.2020
2602 Rain 14 995 87 10000 15.4 330 17:21 24.05.2020
2603 Rain 13 996 93 10000 10.3 20 16:56 24.05.2020
2604 Rain 13 996 93 10000 10.3 20 16:37 24.05.2020
2605 Rain 13 996 93 10000 10.3 10 16:19 24.05.2020
2606 Rain 13 996 93 10000 10.3 10 15:55 24.05.2020
2607 Rain 13 997 93 5000 10.8 10 15:37 24.05.2020
2608 Rain 13 997 87 5000 11.8 10 15:18 24.05.2020
2609 Rain 13 996 87 10000 10.8 20 14:42 24.05.2020
2610 Rain 13 996 87 10000 10.8 20 14:22 24.05.2020
2611 Rain 13 996 87 8000 12.9 20 13:57 24.05.2020
2612 Rain 13 997 87 8000 11.3 10 13:38 24.05.2020
2613 Rain 13 997 87 8000 11.3 10 13:20 24.05.2020
2614 Rain 13 995 76 10000 12.9 10 12:57 24.05.2020
2615 Rain 13 996 87 10000 9.3 40 12:38 24.05.2020
2616 Rain 13 997 87 8000 7.7 40 12:19 24.05.2020
2617 Rain 13 997 87 8000 7.7 40 11:56 24.05.2020
2618 Rain 13 998 82 5000 8.7 20 11:38 24.05.2020
2619 Rain 13 997 87 7000 7.2 10 11:19 24.05.2020
2620 Rain 14 995 71 5000 13.9 40 10:43 24.05.2020
2621 Rain 14 995 71 5000 13.9 40 10:24 24.05.2020
2622 Rain 15 995 55 7000 16.5 40 09:59 24.05.2020
2623 Rain 15 994 58 10000 10.8 50 09:41 24.05.2020
2624 Rain 15 996 67 10000 11.3 50 09:18 24.05.2020
2625 Rain 13 999 76 7000 8.7 50 08:43 24.05.2020
2626 Rain 13 999 76 7000 8.7 50 08:25 24.05.2020
2627 Rain 14 1000 67 8000 10.8 30 07:59 24.05.2020
2628 Rain 15 1001 51 9000 11.8 30 07:41 24.05.2020
2629 Rain 16 1001 51 9000 11.8 30 07:21 24.05.2020
2630 Rain 18 1003 21 10000 11.8 30 06:45 24.05.2020
2631 Rain 21 1003 21 10000 9.8 40 05:50 24.05.2020
2632 Rain 21 1007 32 10000 8.2 40 03:59 24.05.2020
2633 Clouds 21 1007 32 10000 8.7 50 03:40 24.05.2020
2634 Rain 20 1008 30 10000 10.3 30 02:30 24.05.2020
2635 Clouds 20 1009 28 10000 7.7 40 01:32 24.05.2020
2636 Rain 21 1010 26 10000 10.3 30 00:38 24.05.2020
2637 Rain 21 1010 26 10000 10.3 30 00:20 24.05.2020
2638 Clouds 21 1010 26 10000 8.2 50 23:40 23.05.2020
2639 Clouds 21 1010 26 10000 8.2 50 23:21 23.05.2020
2640 Clouds 21 1011 26 10000 7.7 40 22:57 23.05.2020
2641 Clouds 21 1011 26 10000 6.7 40 22:37 23.05.2020
2642 Clouds 21 1011 26 10000 6.7 40 22:19 23.05.2020
2643 Clouds 21 1012 26 10000 7.2 50 21:57 23.05.2020
2644 Clouds 21 1013 26 10000 6.7 50 21:37 23.05.2020
2645 Clouds 21 1013 26 10000 6.7 40 21:19 23.05.2020
2646 Clouds 21 1013 26 10000 6.7 40 20:54 23.05.2020
2647 Clouds 21 1014 26 10000 7.2 40 20:36 23.05.2020
2648 Clouds 21 1014 26 10000 7.2 40 20:18 23.05.2020
2649 Clouds 21 1015 26 10000 6.7 40 19:41 23.05.2020
2650 Clouds 21 1014 26 10000 7.2 40 19:19 23.05.2020
2651 Clouds 21 1014 26 10000 7.2 40 18:55 23.05.2020
2652 Clouds 21 1015 26 10000 6.7 40 18:36 23.05.2020
2653 Clouds 21 1015 27 10000 7.7 40 18:18 23.05.2020
2654 Clouds 21 1015 27 10000 7.7 40 17:54 23.05.2020
2655 Clouds 20 1015 27 10000 7.2 50 17:36 23.05.2020
2656 Clouds 20 1015 26 10000 7.7 40 17:18 23.05.2020
2657 Clouds 20 1015 28 10000 6.2 50 16:41 23.05.2020
2658 Clouds 19 1015 29 10000 6.2 50 16:21 23.05.2020
2659 Clouds 19 1016 28 10000 3.6 50 15:58 23.05.2020
2660 Clouds 19 1016 36 10000 4.1 60 15:39 23.05.2020
2661 Clouds 19 1016 36 10000 4.1 60 15:21 23.05.2020
2662 Clouds 18 1017 41 10000 2.1 50 14:42 23.05.2020
2663 Clouds 19 1017 41 10000 2.1 50 14:42 23.05.2020
2664 Clouds 19 1017 41 10000 2.1 50 14:24 23.05.2020
2665 Clear 19 1016 36 10000 3.1 60 13:56 23.05.2020
2666 Clear 19 1016 33 10000 3.6 70 13:37 23.05.2020
2667 Clear 19 1015 29 10000 3.6 80 13:18 23.05.2020
2668 Clear 20 1015 28 10000 3.1 70 12:41 23.05.2020
2669 Clear 21 1015 32 10000 3.6 70 12:20 23.05.2020
2670 Clear 22 1015 32 10000 3.6 70 11:57 23.05.2020
2671 Clear 23 1014 32 10000 5.7 70 11:37 23.05.2020
2672 Clear 24 1014 20 10000 5.7 60 11:19 23.05.2020
2673 Clear 25 1014 20 10000 5.7 60 10:55 23.05.2020
2674 Clear 26 1015 19 10000 6.2 40 10:36 23.05.2020
2675 Clear 26 1015 19 10000 6.2 30 10:18 23.05.2020
2676 Clear 26 1015 28 10000 4.6 20 09:42 23.05.2020
2677 Clear 26 1015 28 10000 4.6 20 09:24 23.05.2020
2678 Clear 26 1016 19 10000 5.1 30 08:57 23.05.2020
2679 Clear 26 1017 19 10000 5.1 30 08:37 23.05.2020
2680 Clear 26 1017 21 10000 6.2 30 08:18 23.05.2020
2681 Clear 26 1017 21 10000 6.2 10 07:44 23.05.2020
2682 Clear 26 1017 21 10000 6.2 10 07:22 23.05.2020
2683 Clear 26 1018 23 10000 7.7 30 06:42 23.05.2020
2684 Clear 24 1019 27 10000 6.7 20 05:55 23.05.2020
2685 Clear 20 1020 39 10000 5.7 30 03:52 23.05.2020
2686 Clear 19 1021 39 10000 4.6 60 03:23 23.05.2020
2687 Clear 16 1021 47 10000 4.6 70 02:33 23.05.2020
2688 Clear 14 1020 50 10000 5.1 70 01:46 23.05.2020
2689 Clear 13 1020 50 10000 4.1 70 01:18 23.05.2020
2690 Clear 13 1020 50 10000 4.1 60 00:41 23.05.2020
2691 Clear 13 1020 54 10000 3.6 60 23:59 22.05.2020
2692 Clear 14 1020 50 10000 4.1 60 23:40 22.05.2020
2693 Clear 13 1020 50 10000 4.1 60 23:20 22.05.2020
2694 Clear 13 1020 54 10000 3.6 70 22:57 22.05.2020
2695 Clear 13 1020 54 10000 3.6 80 22:39 22.05.2020
2696 Clear 13 1020 54 10000 3.6 80 22:20 22.05.2020
2697 Clear 13 1020 50 10000 5.1 80 21:46 22.05.2020
2698 Clear 12 1020 50 10000 5.1 80 21:22 22.05.2020
2699 Clear 13 1020 50 10000 5.1 70 20:55 22.05.2020
2700 Clear 13 1020 47 10000 5.1 60 20:37 22.05.2020
2701 Clear 12 1020 47 10000 4.6 60 20:18 22.05.2020
2702 Clear 13 1020 47 10000 3.6 40 19:44 22.05.2020
2703 Clear 13 1020 47 10000 3.6 40 19:25 22.05.2020
2704 Clear 14 1020 47 10000 4.1 50 18:41 22.05.2020
2705 Clear 13 1020 47 10000 4.1 50 18:22 22.05.2020
2706 Clear 13 1020 44 10000 4.1 50 17:59 22.05.2020
2707 Clear 12 1021 47 10000 4.1 60 17:39 22.05.2020
2708 Clear 12 1021 62 10000 2.6 50 17:19 22.05.2020
2709 Clear 12 1021 62 10000 2.6 50 16:55 22.05.2020
2710 Clear 13 1021 50 10000 3.1 60 16:37 22.05.2020
2711 Clear 13 1021 50 10000 3.6 50 16:18 22.05.2020
2712 Clear 13 1021 47 10000 3.6 60 15:41 22.05.2020
2713 Clear 14 1021 54 10000 3.6 60 15:21 22.05.2020
2714 Clear 12 1021 62 10000 1 60 14:45 22.05.2020
2715 Clear 14 1021 62 10000 1 60 14:25 22.05.2020
2716 Clear 14 1021 62 10000 1 150 13:49 22.05.2020
2717 Clear 16 1021 54 10000 4.1 60 13:21 22.05.2020
2718 Clear 16 1021 54 10000 4.1 60 12:59 22.05.2020
2719 Clear 17 1020 45 10000 3.6 240 12:39 22.05.2020
2720 Clear 18 1021 48 10000 2.6 220 12:20 22.05.2020
2721 Clear 20 1020 32 10000 4.1 60 11:44 22.05.2020
2722 Clear 21 1020 32 10000 4.1 60 11:21 22.05.2020
2723 Clear 21 1020 32 10000 4.1 60 11:21 22.05.2020
2724 Clear 21 1020 32 10000 4.1 60 11:21 22.05.2020
2725 Clear 22 1020 35 10000 3.6 250 10:55 22.05.2020
2726 Clear 23 1020 25 10000 5.7 240 10:37 22.05.2020
2727 Clear 24 1020 25 10000 5.7 240 10:18 22.05.2020
2728 Clear 24 1020 27 10000 5.7 240 09:42 22.05.2020
2729 Clear 24 1020 25 10000 5.7 240 09:20 22.05.2020
2730 Clear 24 1020 27 10000 5.7 240 08:46 22.05.2020
2731 Clear 23 1020 27 10000 5.7 240 08:22 22.05.2020
2732 Clear 23 1020 27 10000 5.7 240 08:22 22.05.2020
2733 Clear 24 1020 27 10000 5.7 240 07:58 22.05.2020
2734 Clear 23 1021 28 10000 5.7 240 07:39 22.05.2020
2735 Clear 23 1021 31 10000 5.1 30 07:21 22.05.2020
2736 Clear 22 1022 33 10000 5.7 360 06:40 22.05.2020
2737 Clear 21 1023 35 10000 4.1 30 05:58 22.05.2020
2738 Clear 21 1023 37 10000 5.1 30 05:34 22.05.2020
2739 Clear 20 1024 48 10000 4.1 50 04:45 22.05.2020
2740 Clear 17 1023 51 10000 3.6 50 03:49 22.05.2020
2741 Clear 14 1023 58 10000 4.6 60 03:28 22.05.2020
2742 Clear 11 1023 66 10000 4.1 70 01:57 22.05.2020
2743 Clear 11 1022 66 10000 5.1 70 01:30 22.05.2020
2744 Clear 11 1022 66 10000 5.1 70 00:50 22.05.2020
2745 Clear 10 1022 66 10000 5.1 70 00:28 22.05.2020
2746 Clear 11 1022 66 10000 4.6 70 23:54 21.05.2020
2747 Clear 11 1022 66 10000 5.7 70 23:36 21.05.2020
2748 Clear 11 1022 66 10000 4.1 70 23:18 21.05.2020
2749 Clear 12 1022 66 10000 4.1 70 22:55 21.05.2020
2750 Clear 12 1022 66 10000 5.1 70 22:36 21.05.2020
2751 Clear 12 1022 66 10000 6.7 80 22:18 21.05.2020
2752 Clear 12 1022 66 10000 6.7 80 22:18 21.05.2020
2753 Clear 12 1023 62 10000 6.7 80 21:43 21.05.2020
2754 Clear 11 1023 62 10000 6.7 80 21:25 21.05.2020
2755 Clear 12 1023 66 10000 4.1 60 20:46 21.05.2020
2756 Clear 12 1023 66 10000 4.1 60 20:22 21.05.2020
2757 Clear 10 1024 71 10000 3.1 50 19:57 21.05.2020
2758 Clear 10 1024 71 10000 2.1 50 19:38 21.05.2020
2759 Clear 9 1024 81 10000 2.6 30 19:19 21.05.2020
2760 Clear 9 1024 81 10000 1.5 20 18:40 21.05.2020
2761 Clear 8 1025 87 10000 2.1 20 18:20 21.05.2020
2762 Clear 8 1025 87 10000 2.1 20 17:58 21.05.2020
2763 Clear 9 1025 87 10000 2.1 320 17:40 21.05.2020
2764 Clear 9 1025 87 10000 2.86 98 17:22 21.05.2020
2765 Clear 11 1025 87 10000 2.86 98 16:46 21.05.2020
2766 Clear 12 1025 87 10000 2.1 150 16:24 21.05.2020
2767 Clear 13 1025 82 10000 3.1 190 15:47 21.05.2020
2768 Clear 12 1025 81 10000 2.1 210 15:24 21.05.2020
2769 Clear 13 1025 82 10000 3.6 180 14:57 21.05.2020
2770 Clear 13 1025 71 10000 1 120 14:38 21.05.2020
2771 Clear 14 1025 72 10000 4.1 170 14:18 21.05.2020
2772 Clear 15 1024 62 10000 2.6 110 13:41 21.05.2020
2773 Clear 15 1024 62 10000 2.6 110 13:22 21.05.2020
2774 Clear 16 1024 72 10000 3.6 190 12:57 21.05.2020
2775 Clear 16 1024 54 10000 2.6 90 12:37 21.05.2020
2776 Clear 17 1024 48 10000 2.6 80 12:18 21.05.2020
2777 Clear 19 1023 42 10000 2.6 70 11:42 21.05.2020
2778 Clear 19 1023 42 10000 2.6 70 11:23 21.05.2020
2779 Clear 20 1023 40 10000 2.6 70 10:57 21.05.2020
2780 Clear 21 1023 37 10000 3.6 120 10:39 21.05.2020
2781 Clear 21 1023 37 10000 2.6 70 10:19 21.05.2020
2782 Clear 21 1024 37 10000 3.6 50 09:43 21.05.2020
2783 Clear 21 1024 37 10000 3.6 50 09:25 21.05.2020
2784 Clear 21 1024 37 10000 2.6 70 08:59 21.05.2020
2785 Clouds 21 1024 40 10000 3.6 70 08:40 21.05.2020
2786 Clouds 21 1024 40 10000 3.6 70 08:22 21.05.2020
2787 Clouds 20 1025 42 10000 3.6 50 07:44 21.05.2020
2788 Clouds 20 1025 42 10000 3.6 50 07:25 21.05.2020
2789 Clouds 20 1026 45 10000 5.7 50 06:48 21.05.2020
2790 Clouds 19 1026 48 10000 3.6 80 05:53 21.05.2020
2791 Clear 18 1027 55 10000 5.7 90 04:53 21.05.2020
2792 Clear 13 1028 71 10000 5.1 70 03:21 21.05.2020
2793 Clear 11 1028 81 10000 3.6 60 02:37 21.05.2020
2794 Clear 10 1027 87 10000 2.6 60 02:18 21.05.2020
2795 Clear 10 1027 87 10000 3.1 50 01:42 21.05.2020
2796 Clear 9 1027 87 10000 3.1 40 01:18 21.05.2020
2797 Clear 9 1027 87 10000 2.6 50 00:44 21.05.2020
2798 Clear 9 1027 87 10000 2.6 50 00:21 21.05.2020
2799 Clear 9 1027 87 10000 0.5 40 23:40 20.05.2020
2800 Clear 9 1027 87 10000 3.09 86 23:19 20.05.2020
2801 Clear 9 1027 87 10000 3.09 86 22:55 20.05.2020
2802 Clear 8 1027 93 10000 2.1 30 22:37 20.05.2020
2803 Clear 8 1027 93 10000 1 30 22:19 20.05.2020
2804 Clear 7 1027 93 10000 3.33 82 21:40 20.05.2020
2805 Clear 5 1027 93 10000 3.31 83 21:20 20.05.2020
2806 Clear 5 1027 93 10000 1.5 150 20:44 20.05.2020
2807 Clear 5 1027 93 10000 1.5 150 20:24 20.05.2020
2808 Clear 5 1028 93 10000 1.5 80 19:55 20.05.2020
2809 Clear 5 1028 93 10000 0.5 50 19:37 20.05.2020
2810 Clear 7 1028 93 10000 2.1 70 19:18 20.05.2020
2811 Clear 7 1028 93 10000 0.5 30 18:42 20.05.2020
2812 Clear 7 1028 93 10000 0.5 30 18:22 20.05.2020
2813 Clear 9 1028 93 10000 1.5 160 17:41 20.05.2020
2814 Clear 9 1028 93 10000 1.5 160 17:22 20.05.2020
2815 Clear 9 1028 93 10000 1 20 16:56 20.05.2020
2816 Clear 10 1028 93 10000 4.14 105 16:38 20.05.2020
2817 Clear 10 1028 93 10000 4.14 105 16:19 20.05.2020
2818 Clear 11 1028 81 10000 2.6 180 15:43 20.05.2020
2819 Clear 11 1028 81 10000 3.6 200 15:25 20.05.2020
2820 Clear 13 1028 71 10000 4.1 190 14:45 20.05.2020
2821 Clear 13 1028 71 10000 4.1 190 14:23 20.05.2020
2822 Clear 13 1028 71 10000 4.6 180 13:55 20.05.2020
2823 Clear 14 1027 71 10000 4.1 200 13:37 20.05.2020
2824 Clear 14 1027 67 10000 3.6 210 13:18 20.05.2020
2825 Clear 14 1027 67 10000 3.6 210 13:18 20.05.2020
2826 Clear 15 1027 67 10000 4.6 220 12:42 20.05.2020
2827 Clear 15 1027 67 10000 4.6 220 12:20 20.05.2020
2828 Clear 17 1027 55 10000 4.6 240 11:38 20.05.2020
2829 Clear 16 1027 55 10000 4.6 240 11:37 20.05.2020
2830 Clear 17 1027 55 10000 4.6 240 11:19 20.05.2020
2831 Clear 18 1026 55 10000 5.1 270 10:44 20.05.2020
2832 Clear 18 1026 55 10000 5.1 270 10:22 20.05.2020
2833 Clear 19 1026 52 10000 5.7 250 09:57 20.05.2020
2834 Clear 19 1026 52 10000 4.6 260 09:38 20.05.2020
2835 Clear 19 1026 52 10000 4.6 260 09:19 20.05.2020
2836 Clear 20 1027 45 10000 3.6 200 08:41 20.05.2020
2837 Clear 19 1027 48 10000 3.6 210 08:19 20.05.2020
2838 Clear 19 1027 48 10000 3.6 210 08:19 20.05.2020
2839 Clear 19 1027 48 10000 3.6 210 07:49 20.05.2020
2840 Clear 19 1027 48 10000 2.6 250 07:23 20.05.2020
2841 Smoke 19 1028 48 10000 4.1 200 06:49 20.05.2020
2842 Clear 17 1030 55 10000 5.1 90 05:52 20.05.2020
2843 Clear 16 1030 62 10000 3.6 70 04:37 20.05.2020
2844 Clear 15 1030 67 10000 2.6 320 03:55 20.05.2020
2845 Clear 13 1030 71 10000 2.1 350 03:25 20.05.2020
2846 Clear 5 1030 100 9000 2.1 330 01:33 20.05.2020
2847 Clear 5 1029 100 10000 1 330 00:48 20.05.2020
2848 Clear 5 1029 100 10000 1 330 00:25 20.05.2020
2849 Clear 4 1029 93 10000 2.1 350 23:47 19.05.2020
2850 Clear 4 1029 93 10000 2.1 350 23:23 19.05.2020
2851 Clear 4 1029 100 10000 0.5 340 22:58 19.05.2020
2852 Clear 5 1029 93 10000 3.15 119 22:39 19.05.2020
2853 Clear 5 1029 93 10000 3.48 119 22:20 19.05.2020
2854 Clear 5 1029 93 10000 3.48 119 21:59 19.05.2020
2855 Clear 5 1029 86 10000 1 310 21:39 19.05.2020
2856 Clear 6 1029 86 10000 1 310 21:21 19.05.2020
2857 Clear 6 1029 93 10000 2.1 310 20:58 19.05.2020
2858 Clear 6 1029 86 10000 1.5 320 20:40 19.05.2020
2859 Clear 6 1029 86 10000 3.85 103 20:22 19.05.2020
2860 Clear 6 1029 86 10000 3.85 103 19:56 19.05.2020
2861 Clear 6 1029 93 10000 3.85 103 19:37 19.05.2020
2862 Clear 7 1029 93 10000 3.81 108 19:19 19.05.2020
2863 Clear 8 1029 87 10000 2.6 190 18:43 19.05.2020
2864 Clear 7 1029 93 10000 3.61 121 18:21 19.05.2020
2865 Clear 8 1029 87 10000 3.61 121 17:44 19.05.2020
2866 Clear 9 1029 87 10000 2.93 126 17:22 19.05.2020
2867 Clear 9 1029 81 10000 2.93 126 16:59 19.05.2020
2868 Clear 10 1029 87 10000 2.93 126 16:39 19.05.2020
2869 Clear 11 1029 81 10000 3.1 170 16:21 19.05.2020
2870 Clear 11 1029 71 10000 3.6 190 15:48 19.05.2020
2871 Clear 12 1029 71 10000 3.6 190 15:23 19.05.2020
2872 Clear 13 1029 66 10000 4.1 190 14:59 19.05.2020
2873 Clear 13 1029 66 10000 5.1 190 14:41 19.05.2020
2874 Clear 13 1028 66 10000 5.1 200 14:21 19.05.2020
2875 Clear 13 1028 66 10000 5.1 200 13:58 19.05.2020
2876 Clear 14 1028 67 10000 4.1 190 13:40 19.05.2020
2877 Clear 14 1028 67 10000 4.1 190 13:21 19.05.2020
2878 Clear 14 1028 58 10000 3.6 210 12:58 19.05.2020
2879 Clear 15 1027 58 10000 3.6 200 12:39 19.05.2020
2880 Clear 15 1027 51 10000 3.1 130 12:21 19.05.2020
2881 Clear 16 1027 55 10000 4.1 190 11:55 19.05.2020
2882 Clear 17 1027 45 10000 3.6 150 11:37 19.05.2020
2883 Clear 18 1026 39 10000 4.1 110 11:19 19.05.2020
2884 Clear 19 1026 39 10000 4.1 140 10:45 19.05.2020
2885 Clear 19 1026 39 10000 4.1 140 10:27 19.05.2020
2886 Clear 19 1026 37 10000 4.1 160 09:56 19.05.2020
2887 Clear 19 1026 37 10000 3.6 150 09:38 19.05.2020
2888 Clear 19 1026 37 10000 3.6 160 09:20 19.05.2020
2889 Clear 19 1027 39 10000 3.1 160 08:42 19.05.2020
2890 Clear 19 1027 39 10000 3.1 160 08:23 19.05.2020
2891 Clear 18 1027 42 10000 3.1 120 07:43 19.05.2020
2892 Clear 18 1027 42 10000 3.1 120 07:25 19.05.2020
2893 Clouds 18 1029 45 10000 3.1 110 06:45 19.05.2020
2894 Clouds 17 1029 45 10000 3.1 110 06:24 19.05.2020
2895 Clouds 17 1030 48 10000 4.6 130 05:40 19.05.2020
2896 Clouds 16 1030 48 10000 5.1 120 04:55 19.05.2020
2897 Clouds 16 1030 48 10000 5.1 120 04:55 19.05.2020
2898 Clear 12 1030 71 10000 2.6 330 03:45 19.05.2020
2899 Clear 3 1030 100 10000 2.1 350 01:23 19.05.2020
2900 Smoke 3 1029 93 10000 4.1 140 00:43 19.05.2020
2901 Smoke 4 1029 93 10000 4.1 140 00:21 19.05.2020
2902 Smoke 6 1029 86 10000 4.1 140 23:40 18.05.2020
2903 Smoke 6 1029 86 10000 4.1 140 23:21 18.05.2020
2904 Smoke 6 1029 93 10000 4.1 140 22:59 18.05.2020
2905 Clear 6 1029 93 10000 2.6 170 22:39 18.05.2020
2906 Clear 6 1029 93 10000 2.6 170 22:21 18.05.2020
2907 Clear 6 1029 93 10000 2.6 170 22:21 18.05.2020
2908 Smoke 7 1029 75 10000 4.1 140 21:43 18.05.2020
2909 Smoke 8 1029 75 10000 4.1 140 21:22 18.05.2020
2910 Smoke 7 1028 81 10000 4.1 140 20:58 18.05.2020
2911 Smoke 7 1028 81 10000 4.1 140 20:58 18.05.2020
2912 Smoke 8 1028 75 10000 4.1 140 20:40 18.05.2020
2913 Smoke 8 1028 75 10000 4.1 140 20:21 18.05.2020
2914 Smoke 8 1028 75 10000 4.1 140 20:21 18.05.2020
2915 Smoke 9 1028 75 10000 4.1 140 19:56 18.05.2020
2916 Smoke 9 1028 66 10000 4.1 140 19:38 18.05.2020
2917 Smoke 9 1028 62 10000 4.1 140 19:18 18.05.2020
2918 Clear 9 1028 66 10000 4.1 180 18:45 18.05.2020
2919 Clear 10 1028 66 10000 4.1 180 18:22 18.05.2020
2920 Clear 10 1028 66 10000 4.1 190 17:40 18.05.2020
2921 Smoke 10 1028 62 10000 2.6 140 17:18 18.05.2020
2922 Smoke 11 1028 62 10000 2.6 140 16:57 18.05.2020
2923 Clear 11 1028 62 10000 3.6 170 16:38 18.05.2020
2924 Clear 11 1028 62 10000 4.1 180 16:18 18.05.2020
2925 Clear 11 1028 62 10000 4.1 180 15:56 18.05.2020
2926 Clear 12 1027 58 10000 4.6 190 15:37 18.05.2020
2927 Clear 12 1027 62 10000 4.6 190 15:19 18.05.2020
2928 Clear 13 1027 58 10000 5.1 190 14:43 18.05.2020
2929 Clear 13 1027 58 10000 5.1 190 14:24 18.05.2020
2930 Clouds 14 1026 54 10000 5.7 190 13:57 18.05.2020
2931 Clouds 14 1026 51 10000 5.7 200 13:39 18.05.2020
2932 Clouds 14 1025 54 10000 6.7 200 13:19 18.05.2020
2933 Clouds 15 1025 54 10000 6.7 200 12:56 18.05.2020
2934 Clear 15 1025 51 10000 5.1 190 12:37 18.05.2020
2935 Clouds 15 1025 55 10000 6.7 200 12:18 18.05.2020
2936 Clear 16 1024 51 10000 6.7 200 11:46 18.05.2020
2937 Clear 17 1024 51 10000 6.7 200 11:26 18.05.2020
2938 Clear 17 1024 45 10000 7.7 180 10:55 18.05.2020
2939 Clear 18 1024 45 10000 7.2 200 10:37 18.05.2020
2940 Clear 18 1024 42 10000 7.7 210 10:19 18.05.2020
2941 Clear 19 1024 39 10000 8.7 190 09:42 18.05.2020
2942 Clear 19 1024 39 10000 8.7 190 09:23 18.05.2020
2943 Clear 19 1024 39 10000 7.7 200 08:42 18.05.2020
2944 Clear 19 1024 37 10000 7.7 180 08:24 18.05.2020
2945 Clear 20 1024 37 10000 7.7 180 07:50 18.05.2020
2946 Clouds 19 1024 37 10000 6.7 190 07:26 18.05.2020
2947 Clouds 19 1024 37 10000 6.7 190 07:26 18.05.2020
2948 Clouds 19 1025 42 10000 7.7 170 06:49 18.05.2020
2949 Clouds 19 1025 42 10000 7.7 170 06:31 18.05.2020
2950 Clouds 18 1026 48 10000 8.2 190 05:49 18.05.2020
2951 Clouds 17 1026 55 10000 6.7 170 04:40 18.05.2020
2952 Clear 14 1026 76 10000 1.5 120 03:30 18.05.2020
2953 Clear 10 1025 93 10000 1.5 320 01:58 18.05.2020
2954 Clouds 5 1024 93 10000 0.5 40 00:50 18.05.2020
2955 Clear 5 1024 100 10000 1 60 00:22 18.05.2020
2956 Clouds 5 1024 93 10000 2.6 30 23:56 17.05.2020
2957 Clouds 5 1024 93 10000 0.5 20 23:38 17.05.2020
2958 Clouds 5 1023 100 10000 4.42 162 23:19 17.05.2020
2959 Clear 5 1023 100 10000 4.42 162 22:55 17.05.2020
2960 Clear 5 1023 100 10000 4.42 162 22:36 17.05.2020
2961 Clear 6 1023 100 10000 3.42 153 22:18 17.05.2020
2962 Clear 6 1023 93 10000 3.42 153 21:41 17.05.2020
2963 Clear 7 1023 93 10000 3.41 153 21:20 17.05.2020
2964 Clear 7 1023 93 10000 3.41 153 20:57 17.05.2020
2965 Clear 7 1023 93 10000 3.41 153 20:39 17.05.2020
2966 Clouds 8 1023 87 10000 2.6 210 20:19 17.05.2020
2967 Clouds 9 1023 87 10000 2.6 210 19:47 17.05.2020
2968 Clouds 10 1023 87 10000 2.6 210 19:28 17.05.2020
2969 Clouds 11 1023 87 10000 2.1 210 18:58 17.05.2020
2970 Clouds 12 1023 81 10000 3.6 180 18:38 17.05.2020
2971 Clouds 12 1023 76 10000 3.6 190 18:20 17.05.2020
2972 Clouds 13 1023 76 10000 6.2 190 17:41 17.05.2020
2973 Clouds 13 1023 76 10000 6.2 190 17:23 17.05.2020
2974 Clouds 14 1023 76 10000 6.2 190 16:57 17.05.2020
2975 Clouds 14 1023 71 10000 7.7 190 16:39 17.05.2020
2976 Clouds 14 1023 76 10000 4.1 200 16:20 17.05.2020
2977 Clouds 15 1023 72 10000 3.6 210 15:47 17.05.2020
2978 Clouds 15 1023 72 10000 3.6 210 15:25 17.05.2020
2979 Clouds 15 1022 76 10000 3.6 180 14:58 17.05.2020
2980 Clouds 15 1022 76 10000 3.6 180 14:58 17.05.2020
2981 Clouds 15 1022 72 10000 5.1 200 14:40 17.05.2020
2982 Clouds 15 1022 72 10000 5.1 200 14:22 17.05.2020
2983 Clouds 16 1022 67 10000 4.6 210 13:43 17.05.2020
2984 Clouds 16 1021 67 10000 4.1 220 13:21 17.05.2020
2985 Clouds 18 1020 63 10000 6.2 240 10:50 17.05.2020
2986 Clouds 17 1023 59 10000 1.5 180 03:55 17.05.2020
2987 Clouds 13 1023 76 10000 3.6 70 02:28 17.05.2020
2988 Clouds 11 1023 93 10000 3.1 70 01:55 17.05.2020
2989 Clouds 10 1023 93 10000 2.83 126 00:56 17.05.2020
2990 Clouds 11 1022 93 10000 0.5 300 00:37 17.05.2020
2991 Clouds 11 1022 87 10000 0.5 260 23:57 16.05.2020
2992 Clouds 11 1022 87 10000 0.5 260 23:57 16.05.2020
2993 Clouds 12 1022 81 10000 2.6 250 23:39 16.05.2020
2994 Clouds 12 1022 76 10000 1 360 23:19 16.05.2020
2995 Clouds 12 1022 76 10000 1 360 22:55 16.05.2020
2996 Clouds 13 1022 76 10000 1.5 70 22:36 16.05.2020
2997 Clouds 13 1022 82 10000 4.1 120 22:18 16.05.2020
2998 Clouds 13 1022 76 10000 2.6 70 21:42 16.05.2020
2999 Clouds 13 1022 76 10000 2.6 70 21:23 16.05.2020
3000 Clouds 14 1022 72 10000 3.1 70 20:57 16.05.2020
3001 Clouds 14 1022 72 10000 3.1 70 20:38 16.05.2020
3002 Clouds 14 1022 72 10000 3.1 70 20:20 16.05.2020
3003 Clouds 14 1022 76 10000 3.6 120 19:43 16.05.2020
3004 Clouds 15 1022 67 10000 3.6 80 19:23 16.05.2020
3005 Clouds 15 1022 67 10000 3.1 70 18:59 16.05.2020
3006 Clouds 15 1022 67 10000 3.6 70 18:41 16.05.2020
3007 Clouds 16 1022 67 10000 3.6 70 18:22 16.05.2020
3008 Clouds 16 1023 67 10000 4.1 90 17:42 16.05.2020
3009 Clouds 16 1023 67 10000 4.1 90 17:22 16.05.2020
3010 Clouds 16 1023 63 10000 4.1 110 16:59 16.05.2020
3011 Clouds 16 1023 72 10000 4.1 130 16:39 16.05.2020
3012 Clouds 16 1023 72 10000 4.1 130 16:19 16.05.2020
3013 Clouds 16 1023 63 10000 3.6 140 15:54 16.05.2020
3014 Clouds 17 1023 63 10000 3.6 140 15:36 16.05.2020
3015 Clouds 16 1024 67 10000 3.1 160 15:18 16.05.2020
3016 Clouds 16 1024 67 10000 3.1 190 14:42 16.05.2020
3017 Clouds 16 1024 67 10000 3.6 170 14:20 16.05.2020
3018 Clouds 16 1024 67 10000 3.6 170 13:55 16.05.2020
3019 Smoke 16 1024 63 10000 6.2 100 13:36 16.05.2020
3020 Smoke 16 1023 63 10000 6.2 100 13:18 16.05.2020
3021 Clouds 17 1023 63 10000 4.1 160 12:42 16.05.2020
3022 Clouds 18 1023 59 10000 3.6 130 12:19 16.05.2020
3023 Clouds 19 1023 59 10000 3.6 130 11:42 16.05.2020
3024 Clouds 19 1023 59 10000 3.6 130 11:23 16.05.2020
3025 Clouds 20 1023 56 10000 5.1 110 10:58 16.05.2020
3026 Clouds 20 1023 56 10000 5.7 110 10:40 16.05.2020
3027 Clouds 20 1023 52 10000 6.2 100 10:21 16.05.2020
3028 Clouds 21 1023 56 10000 6.7 120 09:47 16.05.2020
3029 Clouds 21 1023 56 10000 6.7 120 09:29 16.05.2020
3030 Clouds 21 1023 56 10000 6.7 120 09:29 16.05.2020
3031 Clouds 21 1023 52 10000 6.7 120 08:59 16.05.2020
3032 Clouds 21 1023 56 10000 6.7 100 08:40 16.05.2020
3033 Clouds 21 1024 56 10000 5.7 100 08:19 16.05.2020
3034 Clouds 20 1024 56 10000 6.7 90 07:43 16.05.2020
3035 Clouds 20 1024 56 10000 6.7 90 07:43 16.05.2020
3036 Clouds 20 1025 59 10000 6.2 80 07:21 16.05.2020
3037 Clouds 20 1025 59 10000 5.1 130 06:47 16.05.2020
3038 Clouds 20 1025 59 10000 5.1 130 06:21 16.05.2020
3039 Clouds 19 1026 63 10000 4.6 130 05:43 16.05.2020
3040 Clouds 19 1026 63 10000 4.6 130 05:24 16.05.2020
3041 Clouds 16 1026 72 10000 4.1 170 03:29 16.05.2020
3042 Clouds 15 1026 77 10000 4.6 180 02:47 16.05.2020
3043 Clouds 15 1026 77 10000 4.6 180 02:19 16.05.2020
3044 Clouds 14 1025 72 10000 3.6 140 01:40 16.05.2020
3045 Clouds 13 1025 72 10000 3.1 130 00:58 16.05.2020
3046 Clouds 13 1025 82 10000 3.1 160 00:40 16.05.2020
3047 Clouds 13 1024 82 8000 4.56 121 00:20 16.05.2020
3048 Clouds 13 1024 87 7000 2.1 210 23:40 15.05.2020
3049 Smoke 13 1024 93 10000 4.1 120 23:19 15.05.2020
3050 Clouds 12 1024 87 10000 7.2 170 22:42 15.05.2020
3051 Clouds 12 1024 87 10000 7.2 170 22:22 15.05.2020
3052 Smoke 12 1024 87 10000 2.6 150 21:57 15.05.2020
3053 Clouds 13 1023 87 10000 3.1 210 21:39 15.05.2020
3054 Smoke 13 1023 87 10000 2.6 120 21:21 15.05.2020
3055 Smoke 13 1023 87 10000 2.6 120 20:56 15.05.2020
3056 Clouds 13 1023 93 10000 3.6 180 20:37 15.05.2020
3057 Clouds 13 1023 93 10000 3.6 180 20:37 15.05.2020
3058 Smoke 13 1023 93 10000 2.6 120 20:19 15.05.2020
3059 Clouds 13 1023 93 10000 3.1 190 19:43 15.05.2020
3060 Clouds 13 1023 93 10000 3.1 190 19:24 15.05.2020
3061 Smoke 14 1023 93 10000 2.6 120 18:54 15.05.2020
3062 Smoke 14 1023 93 10000 2.6 120 18:54 15.05.2020
3063 Clouds 13 1023 93 10000 2.6 190 18:36 15.05.2020
3064 Smoke 13 1023 93 10000 2.6 150 18:18 15.05.2020
3065 Smoke 13 1023 93 10000 2.6 150 18:18 15.05.2020
3066 Clouds 14 1023 87 10000 2.6 210 17:37 15.05.2020
3067 Smoke 14 1023 93 10000 2.6 150 17:19 15.05.2020
3068 Clouds 14 1023 93 10000 2.1 170 16:56 15.05.2020
3069 Clouds 14 1023 93 10000 2.1 170 16:37 15.05.2020
3070 Smoke 15 1023 87 10000 2.6 150 16:18 15.05.2020
3071 Clouds 16 1023 82 10000 3.6 210 15:41 15.05.2020
3072 Clouds 16 1023 82 10000 3.6 210 15:41 15.05.2020
3073 -273 0 0 0 0 0 15:21 15.05.2020
3074 Clouds 17 1023 77 10000 3.1 200 14:57 15.05.2020
3075 Clouds 17 1023 72 10000 4.6 200 14:39 15.05.2020
3076 Clouds 17 1023 72 10000 4.6 200 14:21 15.05.2020
3077 Clouds 17 1023 72 10000 4.6 200 14:21 15.05.2020
3078 Clouds 18 1022 72 10000 5.7 200 13:42 15.05.2020
3079 Clouds 18 1022 72 10000 5.7 200 13:22 15.05.2020
3080 Clouds 19 1022 72 10000 7.7 210 12:56 15.05.2020
3081 Clear 19 1022 77 10000 6.7 200 12:37 15.05.2020
3082 Clouds 20 1021 72 10000 7.2 230 12:18 15.05.2020
3083 Clouds 20 1021 72 10000 7.2 230 12:18 15.05.2020
3084 Clouds 20 1021 72 10000 7.2 230 11:56 15.05.2020
3085 Clouds 20 1021 82 10000 6.7 210 11:37 15.05.2020
3086 Clouds 21 1020 73 10000 5.7 200 11:18 15.05.2020
3087 Clouds 22 1020 60 10000 5.1 240 10:54 15.05.2020
3088 Clouds 22 1020 60 10000 5.7 240 10:36 15.05.2020
3089 Clouds 23 1020 56 10000 6.7 200 10:18 15.05.2020
3090 Clouds 23 1020 53 10000 6.7 210 09:39 15.05.2020
3091 Clouds 24 1019 47 10000 7.2 220 09:19 15.05.2020
3092 Clouds 24 1019 47 10000 7.2 220 08:58 15.05.2020
3093 Clouds 24 1019 41 10000 6.7 220 08:37 15.05.2020
3094 Clouds 24 1020 53 10000 5.7 220 08:19 15.05.2020
3095 Clouds 24 1020 53 10000 6.2 230 07:44 15.05.2020
3096 Clouds 24 1020 53 10000 6.2 230 07:24 15.05.2020
3097 Clouds 23 1020 50 10000 5.7 250 06:52 15.05.2020
3098 Clear 22 1020 30 10000 2.6 260 05:49 15.05.2020
3099 Clear 20 1021 42 8000 2.6 220 04:28 15.05.2020
3100 Clear 20 1021 42 8000 2.6 220 04:28 15.05.2020
3101 Clear 17 1020 54 7000 1 30 03:47 15.05.2020
3102 Smoke 11 1020 81 5000 1.92 15 02:35 15.05.2020
3103 Smoke 5 1019 86 4500 2.1 10 01:24 15.05.2020
3104 Clear 6 1019 86 10000 2.1 360 00:50 15.05.2020
3105 Clear 6 1019 86 10000 2.1 360 00:30 15.05.2020
3106 Clear 6 1019 86 10000 1.86 28 23:45 14.05.2020
3107 Clear 6 1019 86 10000 2.2 41 23:24 14.05.2020
3108 Smoke 7 1019 87 10000 2.6 30 22:59 14.05.2020
3109 Smoke 9 1019 87 10000 2.6 30 22:40 14.05.2020
3110 Smoke 7 1019 81 10000 2.6 30 22:19 14.05.2020
3111 Smoke 7 1019 81 10000 2.6 30 21:57 14.05.2020
3112 Clear 7 1019 87 10000 2.1 40 21:39 14.05.2020
3113 Smoke 7 1019 81 10000 1.5 70 21:19 14.05.2020
3114 Smoke 7 1019 81 10000 1.5 70 20:55 14.05.2020
3115 Clear 8 1019 81 10000 1.5 10 20:36 14.05.2020
3116 Smoke 8 1019 81 10000 1.5 70 20:18 14.05.2020
3117 Clear 8 1019 81 10000 2.34 48 19:40 14.05.2020
3118 Smoke 9 1020 75 10000 1.5 70 19:21 14.05.2020
3119 Smoke 9 1020 75 10000 1.5 70 18:58 14.05.2020
3120 Smoke 9 1020 70 10000 1.5 70 18:38 14.05.2020
3121 Smoke 9 1020 70 10000 1.5 70 18:20 14.05.2020
3122 Smoke 10 1020 70 10000 1.5 70 17:59 14.05.2020
3123 Clear 10 1020 70 10000 2.1 30 17:37 14.05.2020
3124 Clear 11 1021 70 10000 2.6 10 17:19 14.05.2020
3125 Clear 11 1021 70 10000 2.6 10 16:57 14.05.2020
3126 Clear 11 1021 66 10000 2.1 360 16:38 14.05.2020
3127 Clear 11 1021 66 10000 2.1 360 16:19 14.05.2020
3128 Smoke 12 1021 62 10000 1.5 70 15:56 14.05.2020
3129 Clear 12 1021 62 10000 2.1 10 15:37 14.05.2020
3130 Clear 13 1021 58 10000 2.1 10 15:18 14.05.2020
3131 Clear 14 1020 58 10000 1 40 14:40 14.05.2020
3132 Clear 15 1020 50 10000 1.5 70 14:20 14.05.2020
3133 Clear 16 1020 50 10000 1.5 70 13:57 14.05.2020
3134 Clear 17 1020 50 10000 2.6 70 13:39 14.05.2020
3135 Clear 17 1020 50 10000 2.6 70 13:20 14.05.2020
3136 Clear 18 1020 38 10000 2.1 100 12:58 14.05.2020
3137 Clear 19 1020 42 10000 1.23 166 12:39 14.05.2020
3138 Clear 20 1020 30 10000 1.5 280 12:20 14.05.2020
3139 Clear 21 1020 30 10000 1.5 280 11:57 14.05.2020
3140 Clear 23 1020 19 10000 2.6 310 11:38 14.05.2020
3141 Clear 23 1020 19 10000 2.6 310 11:38 14.05.2020
3142 Clear 24 1020 19 10000 2.6 310 11:19 14.05.2020
3143 Clear 26 1020 35 10000 4.1 270 10:45 14.05.2020
3144 Clear 27 1020 30 10000 4.1 270 10:26 14.05.2020
3145 Clear 27 1020 13 10000 3.6 290 09:57 14.05.2020
3146 Clear 27 1020 13 10000 4.6 310 09:38 14.05.2020
3147 Clear 27 1020 13 10000 4.6 310 09:19 14.05.2020
3148 Clear 27 1020 17 10000 3.6 270 08:40 14.05.2020
3149 Clear 27 1020 17 10000 3.6 270 08:20 14.05.2020
3150 Clear 27 1020 22 10000 2.6 110 07:45 14.05.2020
3151 Clear 27 1020 22 10000 2.6 110 07:24 14.05.2020
3152 Clear 26 1021 26 10000 1 310 06:54 14.05.2020
3153 Clear 25 1021 27 10000 1 20 06:28 14.05.2020
3154 Clear 24 1022 27 10000 2.6 350 05:44 14.05.2020
3155 Clear 24 1022 27 10000 2.6 350 05:23 14.05.2020
3156 Clear 22 1022 26 10000 1.5 10 04:24 14.05.2020
3157 Smoke 17 1022 48 4000 2.94 32 03:21 14.05.2020
3158 Smoke 13 1022 81 5000 0.5 330 02:40 14.05.2020
3159 Smoke 9 1022 87 5000 2.8 41 01:53 14.05.2020
3160 Clear 9 1021 87 6000 2.27 59 00:58 14.05.2020
3161 Clear 10 1021 81 6000 1 30 00:30 14.05.2020
3162 Smoke 11 1020 76 7000 2.6 50 23:57 13.05.2020
3163 Clear 11 1020 76 6000 1.5 190 23:38 13.05.2020
3164 Clear 13 1020 66 6000 1.5 200 23:18 13.05.2020
3165 Smoke 13 1020 66 5000 3.6 200 22:42 13.05.2020
3166 Smoke 13 1020 66 5000 3.6 200 22:22 13.05.2020
3167 Smoke 14 1020 62 5000 1 10 21:59 13.05.2020
3168 Smoke 14 1020 54 5000 2.6 10 21:40 13.05.2020
3169 Clear 14 1020 54 6000 3.6 30 21:19 13.05.2020
3170 Clear 15 1020 54 6000 3.6 30 20:56 13.05.2020
3171 Clear 15 1020 54 7000 3.1 30 20:38 13.05.2020
3172 Clouds 15 1020 54 7000 3.1 40 20:19 13.05.2020
3173 Clouds 15 1020 55 8000 3.6 30 19:42 13.05.2020
3174 Clouds 15 1020 55 8000 3.6 30 19:23 13.05.2020
3175 Clouds 15 1021 55 10000 4.6 60 18:44 13.05.2020
3176 Clouds 14 1021 55 10000 4.6 60 18:22 13.05.2020
3177 Clouds 14 1021 67 10000 2.1 50 17:58 13.05.2020
3178 Clouds 14 1021 71 10000 1.5 50 17:38 13.05.2020
3179 Clouds 14 1021 76 10000 2.01 90 17:18 13.05.2020
3180 Clouds 14 1021 67 10000 2.01 90 16:41 13.05.2020
3181 Clouds 15 1021 67 10000 2.1 10 16:19 13.05.2020
3182 Clouds 16 1021 67 10000 2.1 10 15:55 13.05.2020
3183 Clouds 17 1021 62 10000 1 80 15:37 13.05.2020
3184 Clouds 17 1021 59 10000 1.63 107 15:18 13.05.2020
3185 Clouds 17 1021 55 10000 1.5 230 14:42 13.05.2020
3186 Clouds 18 1021 55 10000 1.5 230 14:24 13.05.2020
3187 Clouds 18 1021 51 10000 2.6 70 13:59 13.05.2020
3188 Clouds 18 1021 51 10000 2.6 70 13:59 13.05.2020
3189 Clouds 18 1021 51 10000 3.6 80 13:41 13.05.2020
3190 Clouds 19 1021 51 10000 3.6 80 13:22 13.05.2020
3191 Clouds 19 1021 55 10000 2.6 110 12:58 13.05.2020
3192 Clouds 19 1021 55 10000 2.6 110 12:58 13.05.2020
3193 Clouds 19 1021 48 10000 3.1 210 12:39 13.05.2020
3194 Clouds 20 1021 48 10000 3.1 210 12:20 13.05.2020
3195 Clouds 21 1021 43 10000 3.6 240 11:56 13.05.2020
3196 Clouds 21 1021 43 10000 3.6 240 11:56 13.05.2020
3197 Clouds 22 1021 46 10000 3.1 250 11:37 13.05.2020
3198 Clouds 23 1021 43 10000 4.1 250 11:19 13.05.2020
3199 Clouds 24 1020 27 10000 3.6 260 10:57 13.05.2020
3200 Clouds 25 1020 27 10000 2.1 300 10:38 13.05.2020
3201 Clouds 26 1020 21 10000 2.6 10 10:19 13.05.2020
3202 Clouds 27 1020 21 10000 2.6 350 09:46 13.05.2020
3203 Clouds 27 1020 21 10000 2.6 350 09:24 13.05.2020
3204 Clouds 27 1020 22 10000 3.6 10 08:58 13.05.2020
3205 Clouds 27 1020 21 10000 4.1 350 08:37 13.05.2020
3206 Clouds 27 1020 22 10000 3.6 10 08:19 13.05.2020
3207 Clouds 26 1020 22 10000 4.6 10 07:48 13.05.2020
3208 Clouds 26 1020 22 10000 4.6 10 07:30 13.05.2020
3209 Clouds 25 1021 29 10000 4.6 30 06:51 13.05.2020
3210 Clouds 24 1021 29 10000 4.6 30 06:33 13.05.2020
3211 Clouds 23 1022 31 10000 7.2 20 05:34 13.05.2020
3212 Clouds 20 1023 52 10000 3.6 60 03:37 13.05.2020
3213 Clouds 15 1023 67 10000 7.2 70 02:34 13.05.2020
3214 Clouds 14 1023 71 10000 7.7 70 01:45 13.05.2020
3215 Clouds 14 1023 71 10000 6.7 70 00:55 13.05.2020
3216 Clouds 14 1023 71 10000 6.7 70 00:22 13.05.2020
3217 Clouds 14 1023 71 10000 6.7 70 23:55 12.05.2020
3218 Clouds 14 1022 71 10000 7.7 70 23:36 12.05.2020
3219 Clouds 14 1023 71 10000 7.2 70 23:18 12.05.2020
3220 Clouds 14 1023 71 10000 7.7 70 22:42 12.05.2020
3221 Clouds 14 1023 71 10000 7.7 70 22:22 12.05.2020
3222 Clouds 15 1023 71 10000 7.7 70 21:56 12.05.2020
3223 Clouds 15 1023 71 10000 6.7 60 21:37 12.05.2020
3224 Clouds 15 1023 71 10000 6.7 60 21:37 12.05.2020
3225 Clouds 15 1023 67 10000 7.7 70 21:19 12.05.2020
3226 Clouds 15 1023 67 10000 7.7 70 20:57 12.05.2020
3227 Clouds 15 1023 67 10000 6.7 70 20:38 12.05.2020
3228 Clouds 15 1023 67 10000 6.7 70 20:20 12.05.2020
3229 Clouds 15 1023 67 10000 6.7 70 19:56 12.05.2020
3230 Clouds 15 1023 63 10000 8.2 70 19:38 12.05.2020
3231 Clouds 16 1023 67 10000 7.2 80 19:20 12.05.2020
3232 Clouds 16 1023 67 10000 7.2 80 18:43 12.05.2020
3233 Clouds 15 1023 67 10000 7.2 80 18:24 12.05.2020
3234 Clouds 16 1024 67 10000 5.7 80 17:58 12.05.2020
3235 Clouds 16 1024 67 10000 3.6 70 17:39 12.05.2020
3236 Clouds 16 1024 67 10000 3.6 70 17:21 12.05.2020
3237 Clouds 17 1024 63 10000 5.1 90 16:43 12.05.2020
3238 Clear 17 1024 63 10000 5.1 90 16:23 12.05.2020
3239 Clear 17 1024 63 10000 5.7 100 15:56 12.05.2020
3240 Clear 17 1024 63 10000 3.6 110 15:37 12.05.2020
3241 Clear 17 1024 63 10000 2.6 90 15:18 12.05.2020
3242 Clear 17 1024 63 10000 2.6 90 15:18 12.05.2020
3243 Clear 17 1024 63 10000 2.6 90 14:55 12.05.2020
3244 Clear 16 1024 82 10000 2.6 100 14:36 12.05.2020
3245 Clouds 17 1024 67 10000 2.6 100 14:18 12.05.2020
3246 Clouds 17 1024 76 9000 2.6 110 13:55 12.05.2020
3247 Clouds 17 1024 72 10000 3.1 90 13:37 12.05.2020
3248 Smoke 17 1024 67 5000 3.1 120 13:18 12.05.2020
3249 Smoke 18 1024 67 5000 3.1 120 12:56 12.05.2020
3250 Smoke 18 1024 67 5000 3.1 120 12:56 12.05.2020
3251 Smoke 18 1024 63 2500 3.6 130 12:37 12.05.2020
3252 Smoke 18 1024 63 2500 3.6 130 12:37 12.05.2020
3253 Smoke 19 1024 55 3500 3.1 110 12:19 12.05.2020
3254 Smoke 19 1024 55 3500 3.1 110 11:56 12.05.2020
3255 Clouds 20 1023 49 10000 3.6 90 11:37 12.05.2020
3256 Clouds 21 1023 49 10000 3.6 110 11:19 12.05.2020
3257 Clouds 21 1023 49 10000 3.6 110 10:55 12.05.2020
3258 Clouds 22 1023 46 10000 5.7 90 10:37 12.05.2020
3259 Clouds 22 1023 49 10000 4.6 110 10:18 12.05.2020
3260 Clouds 22 1023 49 10000 4.6 110 09:55 12.05.2020
3261 Clouds 22 1023 46 10000 3.6 80 09:37 12.05.2020
3262 Clouds 22 1023 49 10000 5.1 110 09:18 12.05.2020
3263 Clouds 22 1024 52 10000 5.1 110 08:39 12.05.2020
3264 Clouds 22 1024 52 10000 5.1 110 08:19 12.05.2020
3265 Clouds 21 1024 52 10000 4.1 120 07:44 12.05.2020
3266 Clouds 21 1024 52 10000 4.1 120 07:25 12.05.2020
3267 Clouds 21 1024 52 10000 4.6 120 06:50 12.05.2020
3268 Clouds 21 1025 52 10000 5.7 90 06:29 12.05.2020
3269 Clouds 20 1025 56 10000 5.7 120 05:59 12.05.2020
3270 Clouds 20 1026 59 10000 7.2 80 05:41 12.05.2020
3271 Clouds 18 1026 68 10000 4.6 100 03:48 12.05.2020
3272 Clouds 16 1026 67 10000 4.6 100 02:53 12.05.2020
3273 Clouds 16 1025 72 10000 4.6 100 02:26 12.05.2020
3274 Clouds 15 1025 77 10000 3.6 80 01:29 12.05.2020
3275 Clouds 14 1025 82 10000 2.1 80 00:37 12.05.2020
3276 Clouds 14 1024 82 10000 1 90 00:18 12.05.2020
3277 Clear 13 1024 82 10000 1.5 20 23:42 11.05.2020
3278 Clear 14 1024 82 10000 1.5 20 23:22 11.05.2020
3279 Clear 14 1024 82 10000 2.1 10 22:59 11.05.2020
3280 Clear 14 1024 82 10000 2.1 10 22:59 11.05.2020
3281 Clouds 15 1024 87 10000 3.1 80 22:41 11.05.2020
3282 Clouds 14 1024 87 10000 3.1 80 22:21 11.05.2020
3283 Clouds 14 1024 87 10000 3.1 70 21:59 11.05.2020
3284 Clouds 14 1024 82 10000 2.1 100 21:40 11.05.2020
3285 Clouds 14 1024 82 10000 2.6 180 21:19 11.05.2020
3286 Clouds 14 1024 82 10000 2.6 180 20:59 11.05.2020
3287 Clouds 13 1024 87 10000 5.7 110 20:40 11.05.2020
3288 Clear 13 1024 87 10000 2.1 130 20:21 11.05.2020
3289 Clear 13 1024 87 10000 2.1 130 19:56 11.05.2020
3290 Clear 13 1024 93 10000 2.6 50 19:38 11.05.2020
3291 Clear 13 1024 100 10000 2.6 100 19:20 11.05.2020
3292 Clear 13 1024 100 10000 2.6 100 18:56 11.05.2020
3293 Clear 13 1024 100 800 0.5 160 18:37 11.05.2020
3294 Clear 13 1024 93 10000 2.1 160 18:18 11.05.2020
3295 Clear 13 1024 93 10000 2.1 160 17:55 11.05.2020
3296 Clear 13 1024 93 10000 2.1 220 17:36 11.05.2020
3297 Clear 13 1024 93 10000 2.1 220 17:36 11.05.2020
3298 Clear 13 1024 93 10000 2.1 220 17:36 11.05.2020
3299 Clear 14 1024 87 10000 3.1 180 17:18 11.05.2020
3300 Clear 14 1024 93 10000 3.1 180 16:42 11.05.2020
3301 Clear 14 1024 93 10000 3.1 180 16:22 11.05.2020
3302 Clear 14 1024 87 10000 2.1 210 15:58 11.05.2020
3303 Clear 15 1023 87 10000 2.6 200 15:39 11.05.2020
3304 Clear 15 1023 82 10000 3.1 200 15:19 11.05.2020
3305 Clear 15 1023 82 10000 3.1 200 14:55 11.05.2020
3306 Clear 16 1023 82 10000 4.6 190 14:37 11.05.2020
3307 Clear 16 1023 77 10000 5.7 180 14:18 11.05.2020
3308 Clear 16 1023 77 10000 5.7 180 14:18 11.05.2020
3309 Clear 17 1023 82 10000 4.6 190 13:41 11.05.2020
3310 Clear 17 1023 72 10000 5.1 200 13:22 11.05.2020
3311 Clear 17 1023 72 10000 5.1 200 13:22 11.05.2020
3312 Clear 18 1023 72 10000 5.7 210 12:58 11.05.2020
3313 Clear 18 1022 68 10000 5.1 210 12:40 11.05.2020
3314 Clear 18 1022 68 10000 6.2 220 12:22 11.05.2020
3315 Clear 19 1022 68 10000 6.2 220 11:56 11.05.2020
3316 Clear 19 1022 64 10000 7.2 230 11:38 11.05.2020
3317 Clear 19 1022 64 10000 7.2 230 11:38 11.05.2020
3318 Clear 19 1022 64 10000 6.7 220 11:19 11.05.2020
3319 Clouds 21 1021 53 10000 6.2 240 10:55 11.05.2020
3320 Clouds 21 1021 53 10000 6.2 240 10:55 11.05.2020
3321 Clouds 21 1021 53 10000 6.2 240 10:37 11.05.2020
3322 Clouds 22 1021 53 10000 5.1 270 10:18 11.05.2020
3323 Clouds 22 1021 53 10000 5.1 270 09:55 11.05.2020
3324 Clouds 23 1021 43 10000 5.7 190 09:36 11.05.2020
3325 Clouds 23 1021 43 10000 5.1 190 09:18 11.05.2020
3326 Clouds 23 1021 43 10000 4.1 210 08:39 11.05.2020
3327 Clouds 22 1021 46 10000 4.6 180 08:19 11.05.2020
3328 Clouds 23 1021 43 10000 4.6 190 07:50 11.05.2020
3329 Clouds 22 1021 43 10000 4.6 190 07:32 11.05.2020
3330 Clouds 22 1021 43 10000 4.6 190 07:32 11.05.2020
3331 Clouds 22 1021 43 10000 5.7 190 06:55 11.05.2020
3332 Clouds 22 1022 46 10000 5.7 200 06:31 11.05.2020
3333 Clouds 20 1022 52 10000 1 220 05:31 11.05.2020
3334 Clear 19 1023 52 10000 3.44 182 04:58 11.05.2020
3335 Clear 14 1023 93 10000 3.04 164 03:46 11.05.2020
3336 Clear 9 1023 93 10000 2.89 148 02:35 11.05.2020
3337 Clear 5 1022 100 10000 0.5 310 01:47 11.05.2020
3338 Clear 4 1022 100 10000 2.1 40 00:54 11.05.2020
3339 Clear 5 1022 93 10000 2.1 80 00:24 11.05.2020
3340 Clear 5 1021 93 10000 1 250 23:46 10.05.2020
3341 Clear 5 1021 93 10000 1 250 23:27 10.05.2020
3342 Clear 5 1021 93 10000 1 290 22:59 10.05.2020
3343 Clear 6 1021 93 10000 2.95 163 22:41 10.05.2020
3344 Clear 6 1021 93 10000 2.89 156 22:23 10.05.2020
3345 Clear 6 1021 93 10000 2.6 50 21:46 10.05.2020
3346 Clear 6 1021 93 10000 2.6 50 21:21 10.05.2020
3347 Clear 6 1021 93 10000 2.6 50 21:21 10.05.2020
3348 Clear 6 1021 93 10000 3.98 165 20:56 10.05.2020
3349 Clear 7 1021 93 10000 3.98 165 20:38 10.05.2020
3350 Clouds 7 1021 93 10000 3.88 175 20:20 10.05.2020
3351 Clouds 7 1021 93 10000 3.88 175 19:54 10.05.2020
3352 Clouds 8 1021 93 10000 2.1 130 19:36 10.05.2020
3353 Clouds 8 1021 93 10000 2.6 190 19:18 10.05.2020
3354 Clouds 8 1021 93 10000 2.6 190 18:54 10.05.2020
3355 Clouds 9 1021 93 10000 0.5 270 18:36 10.05.2020
3356 Clouds 9 1021 93 10000 3.17 166 18:18 10.05.2020
3357 Clouds 10 1021 87 10000 2.1 90 17:41 10.05.2020
3358 Clouds 10 1021 87 10000 2.1 90 17:22 10.05.2020
3359 Clouds 10 1021 87 10000 2.6 200 16:59 10.05.2020
3360 Clouds 12 1021 81 10000 3.1 210 16:41 10.05.2020
3361 Clouds 12 1021 81 10000 3.1 210 16:19 10.05.2020
3362 Clouds 13 1021 76 10000 1.5 200 15:55 10.05.2020
3363 Clouds 13 1021 67 10000 3.1 170 15:36 10.05.2020
3364 Clear 14 1021 67 10000 4.6 200 15:18 10.05.2020
3365 Clear 15 1021 62 10000 5.1 190 14:39 10.05.2020
3366 Clear 15 1021 62 10000 5.1 190 14:20 10.05.2020
3367 Clear 15 1021 62 10000 5.1 190 14:20 10.05.2020
3368 Clear 15 1021 63 10000 4.1 210 13:59 10.05.2020
3369 Clear 15 1021 63 10000 4.1 210 13:59 10.05.2020
3370 Clear 15 1021 63 10000 4.1 210 13:59 10.05.2020
3371 Clear 15 1021 62 10000 3.1 210 13:39 10.05.2020
3372 Clear 15 1021 62 10000 3.1 210 13:21 10.05.2020
3373 Clear 16 1021 59 10000 3.6 220 12:58 10.05.2020
3374 Clear 16 1020 52 10000 4.1 220 12:40 10.05.2020
3375 Clear 16 1020 52 10000 4.1 220 12:40 10.05.2020
3376 Clear 18 1020 52 10000 4.6 230 12:21 10.05.2020
3377 Clear 18 1020 52 10000 4.6 230 11:58 10.05.2020
3378 Clear 18 1020 52 10000 4.6 230 11:58 10.05.2020
3379 Clear 19 1020 45 10000 4.6 240 11:39 10.05.2020
3380 Clear 20 1020 45 10000 4.6 230 11:20 10.05.2020
3381 Clear 20 1020 45 10000 4.6 240 11:20 10.05.2020
3382 Clear 21 1020 46 10000 4.1 230 10:48 10.05.2020
3383 Clear 22 1020 33 10000 4.1 210 10:29 10.05.2020
3384 Clear 22 1020 35 10000 4.6 230 09:59 10.05.2020
3385 Clear 23 1020 35 10000 5.1 220 09:40 10.05.2020
3386 Clear 23 1019 35 10000 6.7 240 09:21 10.05.2020
3387 Clear 23 1019 35 10000 6.7 240 08:52 10.05.2020
3388 Clear 23 1019 31 10000 7.7 240 08:24 10.05.2020
3389 Clear 24 1020 31 10000 1 210 07:46 10.05.2020
3390 Clear 24 1020 31 10000 1 210 07:21 10.05.2020
3391 Clear 24 1020 33 10000 3.1 310 06:58 10.05.2020
3392 Clear 23 1021 33 10000 2.6 340 06:37 10.05.2020
3393 Clear 22 1021 35 10000 4.1 20 06:18 10.05.2020
3394 Clear 21 1022 35 10000 4.6 20 05:41 10.05.2020
3395 Clear 20 1023 45 10000 3.1 30 04:39 10.05.2020
3396 Clear 19 1023 45 10000 3.1 30 04:20 10.05.2020
3397 Clear 17 1023 51 10000 4.1 70 03:39 10.05.2020
3398 Clear 12 1023 58 10000 5.1 70 02:53 10.05.2020
3399 Clear 11 1023 58 10000 5.1 70 02:24 10.05.2020
3400 Clear 9 1022 66 10000 5.7 70 01:42 10.05.2020
3401 Clear 9 1022 66 10000 5.7 70 01:21 10.05.2020
3402 Clear 9 1022 66 10000 5.1 80 00:55 10.05.2020
3403 Clear 9 1022 66 10000 3.6 80 00:29 10.05.2020
3404 Clear 9 1022 66 10000 4.6 70 23:59 09.05.2020
3405 Clear 9 1022 66 10000 4.6 50 23:39 09.05.2020
3406 Clear 9 1022 66 10000 4.6 50 23:20 09.05.2020
3407 Clear 9 1023 66 10000 3.6 60 22:43 09.05.2020
3408 Clear 9 1023 66 10000 3.6 60 22:24 09.05.2020
3409 Clear 9 1023 66 10000 3.1 50 21:59 09.05.2020
3410 Clear 10 1023 66 10000 4.1 50 21:41 09.05.2020
3411 Clear 10 1023 66 10000 4.1 50 21:21 09.05.2020
3412 Clear 9 1023 66 10000 4.1 70 20:58 09.05.2020
3413 Clear 7 1024 93 10000 2.6 40 20:38 09.05.2020
3414 Clear 7 1024 93 10000 2.6 40 20:20 09.05.2020
3415 Clear 8 1024 87 10000 2.78 78 19:56 09.05.2020
3416 Clear 7 1024 93 10000 2.78 78 19:38 09.05.2020
3417 Clear 7 1024 87 10000 2.1 10 19:19 09.05.2020
3418 Clear 7 1024 87 10000 2.1 360 18:44 09.05.2020
3419 Clear 7 1024 87 10000 2.1 360 18:26 09.05.2020
3420 Clear 8 1024 81 10000 2.1 30 17:46 09.05.2020
3421 Clear 8 1024 81 10000 2.1 30 17:23 09.05.2020
3422 Clear 8 1024 81 10000 2.1 30 17:23 09.05.2020
3423 Clear 9 1024 87 10000 2.6 40 16:57 09.05.2020
3424 Clear 10 1025 87 10000 2.1 70 16:39 09.05.2020
3425 Clear 11 1025 87 10000 3.1 180 16:19 09.05.2020
3426 Clear 11 1025 87 10000 3.1 180 16:19 09.05.2020
3427 Clear 12 1025 81 10000 3.6 180 15:44 09.05.2020
3428 Clear 12 1025 81 10000 3.6 180 15:26 09.05.2020
3429 Clear 13 1025 66 10000 3.6 180 14:56 09.05.2020
3430 Clouds 13 1025 66 10000 4.1 180 14:38 09.05.2020
3431 Clear 13 1025 62 10000 4.6 180 14:18 09.05.2020
3432 Clear 13 1025 62 10000 4.6 180 14:18 09.05.2020
3433 Clear 13 1025 62 10000 4.6 180 13:56 09.05.2020
3434 Clear 13 1024 62 10000 4.6 180 13:38 09.05.2020
3435 Clear 14 1024 67 10000 3.1 190 13:18 09.05.2020
3436 Clear 15 1024 58 10000 3.6 190 12:40 09.05.2020
3437 Clear 16 1024 48 10000 2.6 50 12:21 09.05.2020
3438 Clear 17 1024 42 10000 2.6 90 11:45 09.05.2020
3439 Clear 18 1024 39 10000 3.1 60 11:20 09.05.2020
3440 Clear 19 1024 39 10000 3.1 60 10:55 09.05.2020
3441 Clear 20 1024 39 10000 2.6 100 10:37 09.05.2020
3442 Clear 20 1024 39 10000 3.1 100 10:19 09.05.2020
3443 Clear 20 1024 42 10000 3.1 130 09:44 09.05.2020
3444 Clear 19 1024 39 10000 1.5 320 09:20 09.05.2020
3445 Clear 19 1024 39 10000 1.5 320 08:55 09.05.2020
3446 Clouds 19 1024 42 10000 2.6 70 08:36 09.05.2020
3447 Clouds 19 1024 42 10000 3.6 50 07:56 09.05.2020
3448 Clouds 19 1025 42 10000 3.1 360 07:38 09.05.2020
3449 Clouds 19 1025 42 10000 3.1 360 07:20 09.05.2020
3450 Clouds 18 1026 45 10000 3.1 70 06:27 09.05.2020
3451 Clouds 18 1026 45 10000 3.1 70 06:27 09.05.2020
3452 Clear 18 1026 48 10000 4.1 80 05:50 09.05.2020
3453 Clear 17 1026 48 10000 4.1 80 05:20 09.05.2020
3454 Clear 15 1027 66 10000 5.7 70 03:39 09.05.2020
3455 Clear 12 1027 71 10000 6.2 70 02:54 09.05.2020
3456 Clear 11 1026 81 10000 5.7 70 02:30 09.05.2020
3457 Clouds 9 1026 81 10000 1 50 01:49 09.05.2020
3458 Clouds 9 1026 81 10000 1 50 01:21 09.05.2020
3459 Clouds 9 1026 87 10000 0.5 30 00:42 09.05.2020
3460 Clear 8 1025 87 10000 0.5 50 00:18 09.05.2020
3461 Clear 8 1025 93 10000 1 30 23:43 08.05.2020
3462 Clear 8 1025 93 10000 1 30 23:25 08.05.2020
3463 Clear 7 1025 93 10000 2.1 360 22:55 08.05.2020
3464 Clear 5 1026 93 10000 1.5 330 22:37 08.05.2020
3465 Clear 5 1025 100 10000 2.1 350 22:19 08.05.2020
3466 Clear 6 1025 100 10000 2.1 350 21:54 08.05.2020
3467 Clear 7 1025 93 10000 2.1 350 21:36 08.05.2020
3468 Clear 6 1025 100 10000 2.1 340 21:18 08.05.2020
3469 Clear 6 1025 93 10000 2.33 100 20:41 08.05.2020
3470 Clear 6 1025 93 10000 2.35 82 20:23 08.05.2020
3471 Clear 6 1025 93 10000 2.35 82 19:58 08.05.2020
3472 Clear 8 1024 93 10000 1.5 30 19:40 08.05.2020
3473 Clear 6 1024 93 10000 1.5 350 19:20 08.05.2020
3474 Clear 6 1024 93 10000 1.5 350 19:20 08.05.2020
3475 Clear 8 1024 93 10000 2.66 89 18:45 08.05.2020
3476 Clear 7 1025 93 10000 2.81 109 18:27 08.05.2020
3477 Clear 8 1025 93 10000 2.81 109 17:43 08.05.2020
3478 Clear 8 1025 93 10000 2.81 109 17:43 08.05.2020
3479 Clear 9 1025 87 10000 2.1 50 17:20 08.05.2020
3480 Clear 9 1025 87 10000 2.1 50 16:56 08.05.2020
3481 Clear 10 1025 93 10000 2.1 180 16:37 08.05.2020
3482 Clear 10 1025 87 10000 0.5 70 16:19 08.05.2020
3483 Clear 11 1025 81 10000 2.6 170 15:42 08.05.2020
3484 Clear 11 1025 81 10000 2.6 180 15:22 08.05.2020
3485 Clear 12 1025 76 10000 2.6 170 14:56 08.05.2020
3486 Clear 12 1025 71 10000 2.6 190 14:38 08.05.2020
3487 Clear 12 1024 62 10000 2.6 190 14:18 08.05.2020
3488 Clear 13 1024 62 10000 3.1 190 13:41 08.05.2020
3489 Clear 13 1024 62 10000 3.1 190 13:41 08.05.2020
3490 Clear 13 1024 58 10000 3.6 210 13:20 08.05.2020
3491 Clear 13 1024 58 10000 3.6 210 12:59 08.05.2020
3492 Clear 14 1024 62 10000 3.1 200 12:38 08.05.2020
3493 Clear 15 1023 54 10000 3.1 210 12:20 08.05.2020
3494 Clear 16 1023 48 10000 3.6 210 11:44 08.05.2020
3495 Clear 16 1023 48 10000 3.6 210 11:23 08.05.2020
3496 Clear 17 1023 45 10000 5.1 190 10:58 08.05.2020
3497 Clear 17 1023 42 10000 5.7 180 10:40 08.05.2020
3498 Clear 18 1023 42 10000 6.2 180 10:19 08.05.2020
3499 Clear 18 1023 42 10000 6.2 180 09:56 08.05.2020
3500 Clear 18 1023 45 10000 6.7 190 09:37 08.05.2020
3501 Clear 18 1022 42 10000 3.1 190 09:18 08.05.2020
3502 Clear 18 1022 42 10000 3.1 190 09:18 08.05.2020
3503 Clear 19 1022 42 10000 6.7 160 08:42 08.05.2020
3504 Clouds 18 1022 45 10000 6.7 190 08:21 08.05.2020
3505 Clouds 18 1022 45 10000 6.2 180 07:43 08.05.2020
3506 Clouds 18 1023 45 10000 5.1 180 07:23 08.05.2020
3507 Clouds 18 1023 45 10000 5.1 180 06:50 08.05.2020
3508 Clouds 17 1023 48 10000 4.1 170 06:22 08.05.2020
3509 Clouds 17 1023 51 10000 5.7 170 05:41 08.05.2020
3510 Clouds 16 1023 59 10000 5.7 170 04:30 08.05.2020
3511 Clouds 13 1022 93 10000 2.6 180 02:32 08.05.2020
3512 Fog 12 1021 100 10000 2.1 190 01:45 08.05.2020
3513 Fog 12 1021 100 10000 2.1 190 01:23 08.05.2020
3514 Clouds 12 1020 93 10000 3.1 200 00:51 08.05.2020
3515 Clouds 12 1020 93 10000 3.1 200 00:29 08.05.2020
3516 Clouds 13 1020 100 10000 3.6 210 23:58 07.05.2020
3517 Clouds 13 1019 93 10000 2.6 180 23:40 07.05.2020
3518 Clouds 13 1020 100 10000 3.1 170 23:21 07.05.2020
3519 Clouds 13 1019 100 10000 2.1 290 22:54 07.05.2020
3520 Rain 14 1019 93 10000 1.5 340 22:36 07.05.2020
3521 Rain 14 1019 100 10000 1.5 110 22:18 07.05.2020
3522 Rain 14 1019 100 10000 1.5 110 21:54 07.05.2020
3523 Rain 14 1019 93 2300 3.1 50 21:36 07.05.2020
3524 Rain 14 1019 100 4000 3.1 180 21:18 07.05.2020
3525 Clouds 14 1019 93 10000 2.6 30 20:41 07.05.2020
3526 Clouds 14 1019 93 10000 3.1 50 20:20 07.05.2020
3527 Clouds 14 1019 93 10000 3.1 50 20:20 07.05.2020
3528 Clouds 14 1019 93 10000 3.1 50 19:50 07.05.2020
3529 Rain 14 1019 93 10000 3.1 60 19:24 07.05.2020
3530 Rain 14 1019 100 10000 2.6 30 18:59 07.05.2020
3531 Drizzle 14 1019 93 8000 2.1 10 18:39 07.05.2020
3532 Drizzle 14 1019 93 8000 2.1 10 18:20 07.05.2020
3533 Rain 14 1019 93 10000 3.1 60 17:42 07.05.2020
3534 Rain 14 1019 93 7000 1 40 17:21 07.05.2020
3535 Rain 15 1020 93 7000 2.6 90 16:43 07.05.2020
3536 Drizzle 14 1020 93 10000 2.6 60 16:20 07.05.2020
3537 Clouds 14 1020 100 10000 1.5 50 15:58 07.05.2020
3538 Clouds 14 1020 100 10000 1.5 50 15:58 07.05.2020
3539 Rain 15 1020 93 10000 1.5 130 15:39 07.05.2020
3540 Rain 15 1020 93 6000 6.2 270 15:19 07.05.2020
3541 Rain 15 1020 93 10000 2.1 10 14:59 07.05.2020
3542 Rain 15 1020 87 10000 2.1 320 14:41 07.05.2020
3543 Rain 15 1019 82 10000 2.6 360 14:18 07.05.2020
3544 Clouds 15 1019 87 10000 2.1 350 13:42 07.05.2020
3545 Clouds 15 1019 87 10000 2.1 350 13:24 07.05.2020
3546 Clouds 15 1019 72 10000 3.1 300 12:43 07.05.2020
3547 Clouds 16 1019 72 10000 3.1 300 12:20 07.05.2020
3548 Clouds 16 1019 67 10000 3.6 280 11:54 07.05.2020
3549 Rain 17 1019 72 10000 4.1 290 11:36 07.05.2020
3550 Clouds 17 1019 63 10000 4.6 260 11:18 07.05.2020
3551 Rain 17 1019 63 10000 3.6 290 10:40 07.05.2020
3552 Rain 17 1019 63 10000 3.6 290 10:20 07.05.2020
3553 Clouds 18 1019 77 10000 2.6 300 09:41 07.05.2020
3554 Clouds 18 1019 77 10000 2.6 300 09:20 07.05.2020
3555 Clouds 18 1019 82 10000 2.6 200 08:56 07.05.2020
3556 Rain 17 1019 82 10000 1 240 08:37 07.05.2020
3557 Rain 17 1020 87 9000 3.6 310 08:19 07.05.2020
3558 Rain 17 1020 72 5000 6.2 280 07:43 07.05.2020
3559 Rain 17 1020 72 5000 6.2 280 07:43 07.05.2020
3560 Rain 17 1020 72 5000 6.2 280 07:25 07.05.2020
3561 Rain 16 1021 77 10000 3.6 10 06:45 07.05.2020
3562 Rain 16 1021 77 10000 3.6 10 06:45 07.05.2020
3563 Rain 16 1021 77 10000 3.6 10 06:23 07.05.2020
3564 Clouds 16 1021 72 10000 3.1 10 05:28 07.05.2020
3565 Clouds 14 1021 82 10000 3.1 10 03:50 07.05.2020
3566 Rain 14 1021 82 10000 5.1 280 03:23 07.05.2020
3567 Clouds 12 1021 87 10000 2.1 30 02:41 07.05.2020
3568 Rain 11 1021 93 10000 2.6 30 01:41 07.05.2020
3569 Rain 11 1021 93 10000 2.6 30 01:23 07.05.2020
3570 Clouds 11 1020 93 10000 4.1 20 00:44 07.05.2020
3571 Clouds 11 1020 93 10000 4.1 20 00:25 07.05.2020
3572 Clouds 10 1020 93 10000 2.6 360 23:46 06.05.2020
3573 Clouds 10 1020 93 10000 2.6 360 23:24 06.05.2020
3574 Clouds 10 1020 93 10000 2.6 20 22:57 06.05.2020
3575 Clouds 10 1020 100 10000 2.6 60 22:39 06.05.2020
3576 Clouds 10 1020 93 10000 3.1 40 22:19 06.05.2020
3577 Clouds 10 1020 93 10000 3.1 40 21:56 06.05.2020
3578 Clouds 11 1020 93 10000 2.1 20 21:37 06.05.2020
3579 Clouds 11 1020 93 10000 2.6 30 21:18 06.05.2020
3580 Clouds 11 1020 93 10000 3.1 30 20:42 06.05.2020
3581 Clouds 10 1020 93 10000 3.1 30 20:22 06.05.2020
3582 Clouds 10 1020 93 10000 3.1 30 20:22 06.05.2020
3583 Clouds 11 1020 100 10000 2.6 360 19:57 06.05.2020
3584 Clouds 11 1020 100 10000 2.6 20 19:38 06.05.2020
3585 Clouds 11 1020 93 10000 1.5 50 19:19 06.05.2020
3586 Clouds 11 1020 93 10000 1.5 50 18:58 06.05.2020
3587 Clouds 11 1020 93 10000 3.1 40 18:38 06.05.2020
3588 Clouds 11 1020 93 10000 3.1 40 18:20 06.05.2020
3589 Clouds 12 1020 93 10000 3.6 60 17:55 06.05.2020
3590 Rain 12 1020 93 9000 3.1 110 17:37 06.05.2020
3591 Clouds 12 1020 93 10000 3.1 10 17:18 06.05.2020
3592 Clouds 12 1020 93 10000 3.1 10 16:58 06.05.2020
3593 Drizzle 12 1020 93 10000 1.5 340 16:40 06.05.2020
3594 Clouds 12 1019 87 10000 2.6 90 16:20 06.05.2020
3595 Clouds 13 1019 87 10000 2.6 90 15:56 06.05.2020
3596 Clouds 13 1019 81 10000 2.6 40 15:38 06.05.2020
3597 Clouds 13 1019 93 10000 7.03 222 15:18 06.05.2020
3598 Clouds 13 1019 87 10000 2.6 100 14:40 06.05.2020
3599 Rain 13 1019 76 10000 6.2 210 14:19 06.05.2020
3600 Rain 13 1019 76 10000 6.2 210 13:58 06.05.2020
3601 Clouds 13 1018 87 10000 3.6 170 13:39 06.05.2020
3602 Clouds 13 1018 87 10000 3.6 170 13:19 06.05.2020
3603 Rain 13 1018 87 10000 10.8 230 12:43 06.05.2020
3604 Rain 13 1018 87 10000 10.8 230 12:25 06.05.2020
3605 Rain 14 1017 62 10000 6.7 240 11:42 06.05.2020
3606 Rain 14 1017 67 10000 6.7 260 11:23 06.05.2020
3607 Rain 14 1017 67 10000 6.7 260 10:59 06.05.2020
3608 Rain 15 1017 71 10000 6.7 240 10:40 06.05.2020
3609 Rain 15 1016 71 10000 7.7 220 10:20 06.05.2020
3610 Rain 15 1016 71 10000 7.7 220 09:59 06.05.2020
3611 Rain 14 1016 81 10000 8.2 250 09:38 06.05.2020
3612 Rain 15 1016 76 10000 8.7 230 09:20 06.05.2020
3613 Rain 15 1016 71 4000 7.7 240 08:44 06.05.2020
3614 Rain 16 1015 51 10000 9.3 240 08:21 06.05.2020
3615 Rain 16 1015 51 10000 9.3 240 07:57 06.05.2020
3616 Rain 15 1015 59 10000 12.9 220 07:38 06.05.2020
3617 Clouds 15 1015 51 10000 7.7 250 07:19 06.05.2020
3618 Rain 16 1015 55 10000 11.8 250 06:46 06.05.2020
3619 Rain 15 1015 55 10000 11.8 250 06:21 06.05.2020
3620 Rain 14 1014 71 10000 10.8 260 05:49 06.05.2020
3621 Rain 14 1014 71 10000 10.8 260 05:49 06.05.2020
3622 Rain 14 1014 71 10000 10.8 260 05:31 06.05.2020
3623 Rain 14 1014 71 10000 9.8 250 03:53 06.05.2020
3624 Rain 13 1013 81 10000 7.7 290 03:28 06.05.2020
3625 Rain 14 1013 71 10000 7.7 260 02:54 06.05.2020
3626 Rain 13 1013 71 10000 7.7 250 02:26 06.05.2020
3627 Rain 13 1011 76 10000 7.7 270 01:43 06.05.2020
3628 Rain 13 1011 76 10000 7.7 270 01:21 06.05.2020
3629 Rain 13 1011 54 10000 10.8 280 00:44 06.05.2020
3630 Clouds 13 1011 58 10000 9.3 260 00:19 06.05.2020
3631 Clouds 13 1011 58 10000 9.3 260 00:19 06.05.2020
3632 Clouds 14 1010 58 10000 9.8 270 23:41 05.05.2020
3633 Clouds 14 1010 58 10000 9.8 270 23:20 05.05.2020
3634 Clouds 14 1010 66 10000 9.3 260 22:55 05.05.2020
3635 Rain 14 1010 58 10000 10.3 270 22:37 05.05.2020
3636 Rain 14 1010 71 8000 10.8 270 22:18 05.05.2020
3637 Rain 14 1009 62 10000 9.8 270 21:41 05.05.2020
3638 Rain 14 1009 62 10000 9.8 270 21:21 05.05.2020
3639 Rain 15 1009 71 10000 9.8 270 20:59 05.05.2020
3640 Rain 14 1009 71 10000 9.3 270 20:40 05.05.2020
3641 Clouds 15 1009 67 10000 11.3 260 20:20 05.05.2020
3642 Clouds 14 1009 67 10000 11.3 260 19:59 05.05.2020
3643 Rain 15 1008 71 10000 9.8 270 19:38 05.05.2020
3644 Rain 15 1008 76 10000 9.8 270 19:20 05.05.2020
3645 Rain 15 1008 63 10000 10.8 280 18:56 05.05.2020
3646 Rain 15 1008 63 10000 10.8 280 18:38 05.05.2020
3647 Rain 15 1008 72 10000 9.8 280 18:19 05.05.2020
3648 Clouds 15 1008 67 10000 11.8 290 17:44 05.05.2020
3649 Clouds 15 1008 67 10000 11.8 290 17:25 05.05.2020
3650 Clouds 15 1007 63 10000 9.8 290 16:59 05.05.2020
3651 Rain 16 1007 59 10000 11.3 280 16:37 05.05.2020
3652 Rain 16 1007 55 10000 11.3 300 16:18 05.05.2020
3653 Rain 17 1007 55 10000 11.3 300 15:56 05.05.2020
3654 Clouds 18 1006 59 10000 11.8 290 15:38 05.05.2020
3655 Rain 18 1006 63 10000 11.8 300 15:19 05.05.2020
3656 Rain 18 1006 63 10000 11.8 300 14:54 05.05.2020
3657 Rain 18 1005 72 10000 10.8 290 14:36 05.05.2020
3658 Rain 18 1005 72 10000 9.8 300 14:18 05.05.2020
3659 Rain 17 1005 82 10000 11.3 310 13:41 05.05.2020
3660 Rain 17 1005 93 10000 11.8 310 13:21 05.05.2020
3661 Rain 17 1005 93 10000 11.8 310 12:59 05.05.2020
3662 Rain 17 1005 77 3000 14.9 290 12:40 05.05.2020
3663 Rain 17 1004 88 4900 13.9 320 12:20 05.05.2020
3664 Clouds 19 1004 52 10000 11.8 340 11:59 05.05.2020
3665 Clouds 20 1005 56 10000 12.3 330 11:40 05.05.2020
3666 Clouds 21 1005 52 10000 10.8 320 11:19 05.05.2020
3667 Clouds 21 1005 52 10000 10.8 320 10:54 05.05.2020
3668 Clouds 21 1005 56 10000 14.4 320 10:36 05.05.2020
3669 Rain 20 1005 68 10000 10.8 330 10:18 05.05.2020
3670 Rain 20 1006 60 10000 12.3 330 09:43 05.05.2020
3671 Rain 20 1006 60 10000 12.3 330 09:43 05.05.2020
3672 Rain 20 1006 60 10000 12.3 330 09:25 05.05.2020
3673 Rain 21 1007 53 10000 11.3 330 08:42 05.05.2020
3674 Rain 21 1007 53 10000 9.8 320 08:21 05.05.2020
3675 Rain 21 1007 53 10000 9.8 320 07:58 05.05.2020
3676 Clouds 21 1008 53 10000 9.3 330 07:39 05.05.2020
3677 Clouds 22 1009 53 10000 9.8 320 07:19 05.05.2020
3678 Clouds 22 1009 53 10000 9.8 320 06:50 05.05.2020
3679 Clouds 22 1009 56 10000 9.3 320 06:29 05.05.2020
3680 Clouds 22 1009 56 10000 9.3 320 06:29 05.05.2020
3681 Clouds 22 1009 56 10000 9.3 320 06:29 05.05.2020
3682 Clouds 22 1009 56 10000 9.3 320 06:29 05.05.2020
3683 Clouds 22 1009 56 10000 9.3 320 06:29 05.05.2020
3684 Clouds 21 1010 73 10000 5.7 340 05:43 05.05.2020
3685 Rain 20 1011 77 10000 9.3 320 04:52 05.05.2020
3686 Drizzle 16 1012 93 8000 2.6 10 02:28 05.05.2020
3687 Clouds 16 1012 100 10000 3.1 20 00:54 05.05.2020
3688 Clouds 16 1012 100 10000 2.6 20 00:23 05.05.2020
3689 Clouds 16 1012 93 10000 2.6 40 23:48 04.05.2020
3690 Clouds 16 1012 93 10000 2.6 40 23:25 04.05.2020
3691 Clouds 16 1012 93 10000 3.1 60 22:57 04.05.2020
3692 Clouds 16 1013 93 10000 2.6 20 22:38 04.05.2020
3693 Clouds 16 1013 93 10000 2.6 20 22:20 04.05.2020
3694 Clouds 16 1013 93 10000 2.6 10 21:56 04.05.2020
3695 Clouds 16 1013 93 10000 1.5 360 21:35 04.05.2020
3696 Clouds 16 1013 100 10000 2.1 20 20:59 04.05.2020
3697 Clouds 16 1013 100 10000 2.1 20 20:59 04.05.2020
3698 -273 0 0 0 0 0 20:59 04.05.2020
3699 Clouds 16 1013 100 10000 2.1 20 20:59 04.05.2020
3700 Clouds 16 1014 100 10000 2.1 20 20:38 04.05.2020
3701 Clouds 16 1014 100 10000 2.1 20 20:38 04.05.2020
3702 Clouds 16 1014 100 10000 2.1 20 20:38 04.05.2020
3703 Clouds 16 1014 100 10000 2.6 360 20:18 04.05.2020
3704 Clouds 16 1014 100 10000 1.65 288 19:43 04.05.2020
3705 Clouds 16 1014 100 10000 1.22 276 19:21 04.05.2020
3706 Clouds 16 1014 100 10000 2.1 180 18:57 04.05.2020
3707 Clouds 17 1015 93 10000 1.5 190 18:38 04.05.2020
3708 Clouds 17 1015 93 10000 1.5 190 18:38 04.05.2020
3709 Clouds 16 1015 93 10000 2.1 200 18:18 04.05.2020
3710 Clouds 16 1015 93 10000 2.1 200 18:18 04.05.2020
3711 Clouds 17 1015 93 10000 2.1 200 17:55 04.05.2020
3712 Clouds 17 1015 93 10000 2.1 200 17:55 04.05.2020
3713 Clouds 17 1015 93 10000 2.1 180 17:37 04.05.2020
3714 Clouds 17 1015 93 10000 3.1 170 17:18 04.05.2020
3715 Clouds 17 1015 93 10000 3.1 170 16:42 04.05.2020
3716 Drizzle 17 1015 93 6000 3.1 190 16:22 04.05.2020
3717 Clouds 17 1015 100 10000 2.1 130 15:47 04.05.2020
3718 Rain 17 1015 93 5000 2.6 180 15:26 04.05.2020
3719 Rain 17 1015 100 10000 0.5 80 15:00 04.05.2020
3720 Drizzle 18 1015 93 500 0.5 60 14:41 04.05.2020
3721 Drizzle 18 1015 93 500 0.5 60 14:41 04.05.2020
3722 Rain 18 1015 93 9000 1 190 14:19 04.05.2020
3723 Rain 18 1014 93 10000 2.6 190 12:49 04.05.2020
3724 Rain 18 1014 93 10000 2.6 190 12:26 04.05.2020
3725 Rain 18 1014 93 10000 2.6 190 12:26 04.05.2020
3726 Rain 18 1014 93 10000 2.6 190 12:26 04.05.2020
3727 Rain 18 1014 93 10000 2.6 190 12:26 04.05.2020
3728 Rain 18 1014 93 10000 2.6 190 12:26 04.05.2020
3729 Rain 19 1013 93 10000 2.1 290 10:36 04.05.2020
3730 Rain 19 1013 93 10000 2.1 290 10:36 04.05.2020
3731 Rain 19 1013 100 5000 6.2 270 09:26 04.05.2020
3732 Rain 19 1013 100 5000 6.2 270 09:26 04.05.2020
3733 Rain 19 1013 100 5000 6.2 270 09:26 04.05.2020
3734 Rain 19 1013 100 5000 6.2 270 09:26 04.05.2020
3735 Rain 19 1013 100 5000 6.2 270 09:26 04.05.2020
3736 Rain 19 1013 93 10000 4.6 310 07:52 04.05.2020
3737 Thunderstorm 20 1013 82 1200 8.7 270 07:33 04.05.2020
3738 Thunderstorm 20 1013 82 1200 8.7 270 07:33 04.05.2020
3739 Thunderstorm 20 1013 82 1200 8.7 270 07:33 04.05.2020
3740 Thunderstorm 20 1013 82 1200 8.7 270 07:33 04.05.2020
3741 Thunderstorm 20 1013 82 1200 8.7 270 07:33 04.05.2020
3742 Rain 22 1013 78 10000 6.2 330 04:58 04.05.2020
3743 Rain 20 1013 93 10000 5.1 30 03:27 04.05.2020
3744 Clouds 19 1015 93 10000 4.1 10 02:32 04.05.2020
3745 Rain 19 1013 88 10000 4.1 10 00:46 04.05.2020
3746 Rain 19 1013 93 10000 5.1 350 23:46 03.05.2020
3747 Rain 19 1013 93 10000 5.1 350 23:25 03.05.2020
3748 Clouds 19 1013 100 10000 4.1 20 22:57 03.05.2020
3749 Clouds 19 1013 100 10000 4.1 20 22:39 03.05.2020
3750 Clouds 19 1013 100 10000 3.6 10 22:21 03.05.2020
3751 Clouds 19 1013 100 10000 4.1 10 21:41 03.05.2020
3752 Clouds 19 1013 100 10000 4.1 10 21:21 03.05.2020
3753 Clouds 19 1013 100 10000 4.1 10 20:47 03.05.2020
3754 Clouds 19 1013 100 10000 4.1 10 20:47 03.05.2020
3755 Clouds 19 1013 100 10000 4.1 10 20:23 03.05.2020
3756 Rain 18 1013 93 10000 5.1 350 19:56 03.05.2020
3757 Rain 18 1013 93 10000 5.1 350 19:56 03.05.2020
3758 Clouds 18 1013 100 10000 3.1 10 19:37 03.05.2020
3759 Clouds 18 1013 100 10000 3.1 10 19:37 03.05.2020
3760 Clouds 18 1013 93 10000 2.6 30 19:18 03.05.2020
3761 Clouds 19 1013 100 10000 4.1 20 18:39 03.05.2020
3762 Clear 18 1014 100 10000 3.1 10 18:20 03.05.2020
3763 Clear 18 1014 100 10000 3.1 10 17:56 03.05.2020
3764 Clear 18 1014 100 10000 3.6 20 17:37 03.05.2020
3765 Clear 18 1014 93 10000 2.1 50 17:19 03.05.2020
3766 Clear 19 1015 100 10000 3.1 10 16:40 03.05.2020
3767 Clear 19 1015 100 10000 3.1 10 16:40 03.05.2020
3768 Rain 19 1015 100 10000 3.1 360 16:19 03.05.2020
3769 Rain 19 1015 100 10000 3.1 360 15:56 03.05.2020
3770 Rain 19 1015 100 10000 3.1 20 15:38 03.05.2020
3771 Clear 19 1015 100 10000 2.6 360 15:19 03.05.2020
3772 Clear 20 1015 100 10000 2.6 360 14:54 03.05.2020
3773 Clear 20 1015 100 10000 2.6 20 14:36 03.05.2020
3774 Clouds 20 1015 94 10000 2.1 360 14:18 03.05.2020
3775 Clouds 21 1015 94 10000 2.1 340 13:37 03.05.2020
3776 Clouds 21 1015 94 10000 2.1 340 13:37 03.05.2020
3777 Clouds 22 1014 77 10000 2.6 300 12:52 03.05.2020
3778 Clouds 22 1014 77 10000 2.6 300 12:27 03.05.2020
3779 Clouds 22 1014 77 10000 2.6 300 12:27 03.05.2020
3780 Clouds 23 1014 73 10000 1.5 310 11:57 03.05.2020
3781 Clouds 23 1014 78 10000 4.6 310 11:39 03.05.2020
3782 Clouds 24 1014 64 10000 3.6 290 11:20 03.05.2020
3783 Clouds 24 1014 64 10000 3.6 290 10:54 03.05.2020
3784 Clouds 25 1014 61 10000 3.6 290 10:24 03.05.2020
3785 Clouds 25 1013 47 10000 6.2 290 09:40 03.05.2020
3786 Clouds 25 1013 47 10000 6.2 290 09:40 03.05.2020
3787 Clouds 26 1013 34 10000 7.7 300 08:58 03.05.2020
3788 Clouds 26 1014 50 10000 8.2 320 08:35 03.05.2020
3789 Clouds 26 1014 50 10000 8.2 320 08:35 03.05.2020
3790 Clouds 27 1014 21 10000 5.7 300 07:42 03.05.2020
3791 Clouds 27 1014 21 10000 5.7 300 07:42 03.05.2020
3792 Clouds 27 1014 21 10000 5.7 300 07:42 03.05.2020
3793 Clouds 27 1014 21 10000 5.7 300 07:42 03.05.2020
3794 Clouds 27 1014 21 10000 5.7 300 07:42 03.05.2020
3795 Clouds 28 1015 14 10000 7.2 350 06:44 03.05.2020
3796 Clouds 28 1015 14 10000 7.2 350 06:44 03.05.2020
3797 Clear 28 1015 14 10000 6.7 350 05:54 03.05.2020
3798 Clear 27 1016 15 10000 5.7 360 05:35 03.05.2020
3799 Clear 26 1016 26 10000 7.2 360 04:27 03.05.2020
3800 Clear 24 1016 22 10000 4.1 10 03:31 03.05.2020
3801 Clear 20 1016 28 10000 4.1 50 02:31 03.05.2020
3802 Clear 18 1016 31 10000 4.1 60 01:50 03.05.2020
3803 Clear 18 1015 30 10000 5.1 60 01:27 03.05.2020
3804 Clear 17 1015 30 10000 4.1 60 01:01 03.05.2020
3805 Clear 17 1015 30 10000 4.1 60 01:01 03.05.2020
3806 Clear 17 1015 30 10000 4.1 60 01:01 03.05.2020
3807 Clear 17 1016 38 10000 3.1 40 00:38 03.05.2020
3808 Clear 17 1016 38 10000 3.1 40 00:20 03.05.2020
3809 Clear 17 1015 30 10000 3.1 30 23:45 02.05.2020
3810 Clear 18 1015 30 10000 3.1 30 23:27 02.05.2020
3811 Clear 18 1015 27 10000 3.1 30 22:56 02.05.2020
3812 Clear 18 1014 30 10000 4.1 50 22:37 02.05.2020
3813 Clear 19 1015 30 10000 4.1 50 22:19 02.05.2020
3814 Clear 19 1015 29 10000 4.1 60 21:40 02.05.2020
3815 Clear 19 1015 29 10000 4.1 60 21:19 02.05.2020
3816 Clear 19 1015 29 10000 4.1 50 20:57 02.05.2020
3817 Clear 19 1015 29 10000 5.7 60 20:38 02.05.2020
3818 Clear 19 1015 29 10000 5.7 60 20:19 02.05.2020
3819 Clouds 18 1015 36 10000 4.1 30 19:57 02.05.2020
3820 Clear 19 1015 29 10000 4.6 60 19:39 02.05.2020
3821 Clear 19 1015 29 10000 4.1 50 19:19 02.05.2020
3822 Clear 18 1015 29 10000 4.1 50 18:56 02.05.2020
3823 Clear 19 1015 29 10000 5.7 60 18:37 02.05.2020
3824 Clear 18 1015 26 10000 5.1 50 18:18 02.05.2020
3825 Clear 18 1016 29 10000 4.6 50 17:40 02.05.2020
3826 Clear 18 1016 34 10000 3.6 50 17:20 02.05.2020
3827 Clear 18 1016 34 10000 3.6 50 16:59 02.05.2020
3828 Clear 18 1016 34 10000 3.6 50 16:40 02.05.2020
3829 Clear 17 1016 34 10000 3.6 50 16:22 02.05.2020
3830 Clear 17 1016 47 10000 2.6 40 15:43 02.05.2020
3831 Clear 17 1016 47 10000 2.6 40 15:20 02.05.2020
3832 Clear 18 1016 41 10000 3.6 56 14:58 02.05.2020
3833 Clear 18 1016 39 10000 1.5 50 14:40 02.05.2020
3834 Clear 19 1016 39 10000 1.5 50 14:21 02.05.2020
3835 Clear 20 1016 36 10000 2.1 110 13:40 02.05.2020
3836 Clear 20 1016 34 10000 2.6 170 13:22 02.05.2020
3837 Clear 21 1016 34 10000 2.6 170 12:55 02.05.2020
3838 Clear 21 1016 26 10000 3.6 230 12:37 02.05.2020
3839 Clear 22 1016 25 10000 3.1 250 12:18 02.05.2020
3840 Clear 24 1016 22 10000 2.6 260 11:41 02.05.2020
3841 Clear 26 1015 19 10000 3.6 240 11:22 02.05.2020
3842 Clear 27 1015 18 10000 0.5 230 10:59 02.05.2020
3843 Clear 27 1015 15 10000 1.5 190 10:39 02.05.2020
3844 Clear 28 1015 15 10000 1.5 140 10:20 02.05.2020
3845 Clear 28 1015 15 10000 1.5 190 10:20 02.05.2020
3846 Clear 28 1015 15 10000 1.5 140 09:57 02.05.2020
3847 Clear 27 1015 15 10000 1.5 250 09:38 02.05.2020
3848 Clear 27 1015 15 10000 1.5 250 09:20 02.05.2020
3849 Clear 28 1015 25 10000 4.1 20 08:46 02.05.2020
3850 Clear 27 1015 25 10000 4.1 20 08:27 02.05.2020
3851 Clear 27 1016 18 10000 3.1 330 07:48 02.05.2020
3852 Clear 27 1016 18 10000 3.1 330 07:29 02.05.2020
3853 Clear 27 1016 18 10000 3.1 330 07:29 02.05.2020
3854 Clear 26 1017 22 10000 4.6 40 06:51 02.05.2020
3855 Clear 24 1018 25 10000 5.1 40 05:30 02.05.2020
3856 Clear 23 1018 27 10000 5.7 20 04:59 02.05.2020
3857 Clear 23 1018 28 10000 7.2 20 04:25 02.05.2020
3858 Clear 17 1019 41 10000 5.1 60 02:44 02.05.2020
3859 Clouds 16 1019 41 10000 5.1 60 02:24 02.05.2020
3860 Clear 15 1018 44 10000 5.7 60 01:49 02.05.2020
3861 Clear 14 1018 41 10000 5.1 60 00:48 02.05.2020
3862 Clear 14 1018 41 10000 5.1 60 00:28 02.05.2020
3863 Clear 15 1018 41 10000 4.1 60 23:58 01.05.2020
3864 Clear 15 1018 41 10000 4.6 60 23:39 01.05.2020
3865 Clear 15 1018 41 10000 4.6 60 23:20 01.05.2020
3866 Clear 15 1018 41 10000 4.6 60 22:55 01.05.2020
3867 Clear 15 1018 41 10000 4.1 70 22:37 01.05.2020
3868 Clear 15 1018 41 10000 4.1 70 22:18 01.05.2020
3869 Clear 15 1018 41 10000 4.1 70 21:54 01.05.2020
3870 Clear 15 1018 41 10000 5.1 70 21:36 01.05.2020
3871 Clear 15 1018 47 10000 5.1 80 21:18 01.05.2020
3872 Clear 15 1018 47 10000 5.1 80 20:54 01.05.2020
3873 Clear 15 1019 47 10000 5.1 70 20:36 01.05.2020
3874 Clear 15 1019 47 10000 5.1 70 20:18 01.05.2020
3875 Clear 16 1019 44 10000 4.1 60 19:41 01.05.2020
3876 Clear 16 1019 44 10000 4.1 60 19:22 01.05.2020
3877 Clear 16 1019 44 10000 4.1 60 19:22 01.05.2020
3878 Clear 16 1019 44 10000 4.1 70 18:56 01.05.2020
3879 Clear 16 1019 44 10000 4.1 70 18:38 01.05.2020
3880 Clear 16 1019 44 10000 4.6 60 18:19 01.05.2020
3881 Clear 16 1019 44 10000 4.6 60 18:19 01.05.2020
3882 Clear 16 1020 44 10000 4.6 70 17:41 01.05.2020
3883 Clear 16 1020 44 10000 4.6 70 17:23 01.05.2020
3884 Clear 16 1020 44 10000 4.6 70 17:23 01.05.2020
3885 Clear 16 1020 38 10000 4.1 60 16:58 01.05.2020
3886 Clear 17 1020 38 10000 4.6 70 16:40 01.05.2020
3887 Clear 17 1020 38 10000 4.6 70 16:21 01.05.2020
3888 Clear 17 1020 36 10000 5.7 80 15:58 01.05.2020
3889 Clear 17 1020 36 10000 4.6 80 15:39 01.05.2020
3890 Clear 17 1020 36 10000 4.6 80 15:20 01.05.2020
3891 Clear 17 1020 38 10000 3.1 100 14:44 01.05.2020
3892 Clouds 17 1020 36 10000 4.1 90 14:25 01.05.2020
3893 Clouds 17 1020 36 10000 4.1 90 13:57 01.05.2020
3894 Clouds 17 1021 41 10000 3.1 90 13:38 01.05.2020
3895 Clouds 17 1021 41 10000 3.1 90 13:38 01.05.2020
3896 Clouds 17 1021 41 10000 3.1 90 13:38 01.05.2020
3897 Clouds 17 1021 41 10000 3.1 90 13:38 01.05.2020
3898 Clouds 18 1021 39 10000 3.1 110 13:20 01.05.2020
3899 Clouds 19 1021 39 10000 3.6 90 12:55 01.05.2020
3900 Clouds 19 1020 32 10000 3.1 100 12:37 01.05.2020
3901 Clouds 20 1020 32 10000 2.6 80 12:18 01.05.2020
3902 Clouds 20 1020 28 10000 4.1 80 12:18 01.05.2020
3903 Clouds 22 1020 24 10000 5.1 90 11:42 01.05.2020
3904 Clouds 22 1020 24 10000 5.1 90 11:23 01.05.2020
3905 Clouds 23 1020 25 10000 4.6 90 10:58 01.05.2020
3906 Clouds 24 1020 23 10000 4.6 70 10:38 01.05.2020
3907 Clouds 24 1020 23 10000 6.2 70 10:19 01.05.2020
3908 Clouds 24 1020 23 10000 6.2 70 09:44 01.05.2020
3909 Clouds 24 1020 23 10000 6.2 70 09:19 01.05.2020
3910 Clouds 24 1020 23 10000 6.7 40 08:55 01.05.2020
3911 Clouds 24 1021 25 10000 6.7 70 08:37 01.05.2020
3912 Clear 23 1021 25 10000 6.7 50 08:19 01.05.2020
3913 Clear 23 1022 27 10000 7.2 60 07:42 01.05.2020
3914 Clear 23 1022 27 10000 7.2 60 07:22 01.05.2020
3915 Clear 22 1023 30 10000 8.2 60 06:39 01.05.2020
3916 Clear 20 1024 32 10000 8.7 40 05:32 01.05.2020
3917 Clear 19 1025 34 10000 7.7 50 04:20 01.05.2020
3918 Clear 15 1026 41 10000 7.7 50 02:59 01.05.2020
3919 Clear 15 1026 47 10000 5.7 80 02:40 01.05.2020
3920 Clear 14 1026 54 10000 7.2 70 01:58 01.05.2020
3921 Clear 13 1026 54 10000 6.2 70 01:28 01.05.2020
3922 Clear 12 1026 54 10000 4.1 60 00:41 01.05.2020
3923 Clear 12 1026 54 10000 4.1 60 00:22 01.05.2020
3924 Clear 12 1026 50 10000 3.6 50 23:58 30.04.2020
3925 Clear 12 1026 50 10000 5.1 70 23:39 30.04.2020
3926 Clear 12 1026 50 10000 4.6 80 23:21 30.04.2020
3927 Clear 12 1026 50 10000 4.6 80 22:59 30.04.2020
3928 Clear 11 1026 57 10000 3.6 90 22:40 30.04.2020
3929 Clear 11 1026 65 10000 3.1 100 22:19 30.04.2020
3930 Clear 11 1026 65 10000 3.1 100 21:55 30.04.2020
3931 Clear 9 1026 65 10000 2.6 100 21:37 30.04.2020
3932 Clear 9 1026 61 10000 2.6 100 21:18 30.04.2020
3933 Clear 12 1026 61 10000 2.1 110 20:41 30.04.2020
3934 Clear 13 1026 47 10000 3.1 90 20:19 30.04.2020
3935 Clear 14 1025 43 10000 4.1 90 19:47 30.04.2020
3936 Clear 14 1025 43 10000 4.1 90 19:27 30.04.2020
3937 Clear 15 1025 43 10000 5.1 90 18:59 30.04.2020
3938 Clear 14 1025 41 10000 4.1 90 18:39 30.04.2020
3939 Clear 15 1025 41 10000 4.1 90 18:21 30.04.2020
3940 Clear 15 1025 43 10000 4.1 90 17:59 30.04.2020
3941 Clear 15 1026 38 10000 4.6 80 17:40 30.04.2020
3942 Clear 15 1026 41 10000 4.6 70 17:21 30.04.2020
3943 Clear 15 1026 41 10000 4.6 70 16:57 30.04.2020
3944 Clear 15 1026 44 10000 1.5 90 16:39 30.04.2020
3945 Clear 15 1026 46 10000 3.6 100 16:19 30.04.2020
3946 Clear 15 1026 43 10000 3.6 80 15:48 30.04.2020
3947 Clear 15 1026 43 10000 3.6 80 15:25 30.04.2020
3948 Clear 15 1026 43 10000 3.1 80 14:58 30.04.2020
3949 Clear 15 1026 41 10000 2.6 100 14:39 30.04.2020
3950 Clear 16 1026 41 10000 1.5 100 14:19 30.04.2020
3951 Clear 15 1026 41 10000 1.5 100 13:55 30.04.2020
3952 Clear 16 1026 38 10000 3.1 100 13:37 30.04.2020
3953 Clear 16 1026 38 10000 3.1 100 13:37 30.04.2020
3954 Clear 17 1026 36 10000 3.1 100 13:19 30.04.2020
3955 Clear 18 1026 31 10000 3.6 90 12:41 30.04.2020
3956 Clear 18 1026 31 10000 3.6 90 12:20 30.04.2020
3957 Clear 19 1026 29 10000 6.2 90 11:58 30.04.2020
3958 Clear 20 1026 28 10000 7.7 90 11:36 30.04.2020
3959 Clear 20 1026 26 10000 8.2 80 11:18 30.04.2020
3960 Clear 21 1026 26 10000 7.2 100 10:41 30.04.2020
3961 Clear 21 1026 28 10000 7.7 80 10:22 30.04.2020
3962 Clear 21 1026 28 10000 7.7 80 09:57 30.04.2020
3963 Clear 21 1026 26 10000 7.2 70 09:39 30.04.2020
3964 Clear 21 1026 26 10000 7.2 70 09:20 30.04.2020
3965 Clear 21 1026 26 10000 7.2 70 09:20 30.04.2020
3966 Clear 21 1026 28 10000 7.7 100 08:47 30.04.2020
3967 Clear 21 1026 28 10000 7.7 100 08:26 30.04.2020
3968 Clear 21 1028 32 10000 7.2 70 07:48 30.04.2020
3969 Clear 20 1028 32 10000 7.2 70 07:26 30.04.2020
3970 Clear 20 1028 32 10000 8.2 70 06:59 30.04.2020
3971 Clear 20 1028 32 10000 8.2 70 06:59 30.04.2020
3972 Clear 19 1029 32 10000 6.2 80 06:32 30.04.2020
3973 Clear 18 1030 36 10000 8.7 60 05:47 30.04.2020
3974 Clear 17 1031 39 10000 6.2 80 04:43 30.04.2020
3975 Clear 17 1031 39 10000 6.2 80 04:23 30.04.2020
3976 Clear 13 1031 58 10000 4.6 80 02:48 30.04.2020
3977 Clear 13 1031 58 10000 4.6 80 02:27 30.04.2020
3978 Clear 11 1031 66 10000 5.1 90 01:37 30.04.2020
3979 Clear 11 1030 66 10000 6.2 90 00:50 30.04.2020
3980 Clear 11 1030 66 10000 6.7 90 00:20 30.04.2020
3981 Clear 11 1030 57 10000 6.7 90 23:58 29.04.2020
3982 Clear 11 1030 62 10000 5.7 80 23:39 29.04.2020
3983 Clear 11 1030 62 10000 5.7 80 23:21 29.04.2020
3984 Clear 11 1029 57 10000 6.2 80 22:56 29.04.2020
3985 Clear 12 1029 54 10000 6.7 80 22:38 29.04.2020
3986 Clear 12 1029 54 10000 5.7 90 22:18 29.04.2020
3987 Clear 12 1029 54 10000 7.2 90 21:38 29.04.2020
3988 Clear 12 1029 54 10000 7.2 100 21:19 29.04.2020
3989 Clear 12 1029 54 10000 7.2 100 20:57 29.04.2020
3990 Clear 12 1029 54 10000 6.2 100 20:38 29.04.2020
3991 Clear 13 1029 54 10000 6.7 100 20:18 29.04.2020
3992 Clear 13 1029 54 10000 6.7 100 20:18 29.04.2020
3993 Clear 13 1029 54 10000 7.7 100 19:43 29.04.2020
3994 Clear 13 1029 54 10000 7.7 100 19:22 29.04.2020
3995 Clear 14 1029 50 10000 8.2 100 18:57 29.04.2020
3996 Clear 14 1029 50 10000 6.2 110 18:38 29.04.2020
3997 Clear 14 1029 47 10000 4.6 100 18:18 29.04.2020
3998 Clear 14 1029 47 10000 4.6 110 17:41 29.04.2020
3999 Clear 14 1029 47 10000 4.6 110 17:21 29.04.2020
4000 Clear 14 1029 47 10000 7.2 90 16:40 29.04.2020
4001 Clear 14 1029 47 10000 7.2 90 16:40 29.04.2020
4002 Clear 14 1028 54 10000 7.2 90 16:20 29.04.2020
4003 Clear 14 1029 54 10000 3.1 120 15:58 29.04.2020
4004 Clear 14 1029 54 10000 3.1 120 15:58 29.04.2020
4005 Clear 14 1028 62 10000 4.1 120 15:40 29.04.2020
4006 Clear 14 1028 62 10000 4.1 120 15:21 29.04.2020
4007 Clear 14 1028 62 10000 4.1 120 15:21 29.04.2020
4008 Clear 14 1028 62 10000 7.2 90 14:59 29.04.2020
4009 Clear 15 1028 50 10000 2.6 140 14:41 29.04.2020
4010 Clear 15 1028 50 10000 2.6 140 14:22 29.04.2020
4011 Clear 16 1028 47 10000 2.6 150 13:55 29.04.2020
4012 Clear 16 1027 47 10000 3.1 130 13:37 29.04.2020
4013 Clear 16 1027 41 10000 3.1 130 13:18 29.04.2020
4014 Clear 18 1027 36 10000 4.1 110 12:40 29.04.2020
4015 Clear 19 1026 34 10000 6.2 100 12:19 29.04.2020
4016 Clear 19 1026 34 10000 6.2 100 11:58 29.04.2020
4017 Clear 20 1026 32 10000 5.7 110 11:36 29.04.2020
4018 Clear 21 1026 32 10000 5.7 110 11:18 29.04.2020
4019 Clear 21 1026 30 10000 7.7 110 10:37 29.04.2020
4020 Clear 22 1026 28 10000 6.7 110 10:19 29.04.2020
4021 Clear 22 1026 28 10000 6.7 110 09:57 29.04.2020
4022 Clear 22 1026 26 10000 6.7 120 09:38 29.04.2020
4023 Clear 22 1026 28 10000 6.2 110 09:18 29.04.2020
4024 Clear 21 1026 28 10000 6.7 100 08:43 29.04.2020
4025 Clear 21 1026 28 10000 6.7 100 08:24 29.04.2020
4026 Clear 21 1027 30 10000 6.7 70 07:48 29.04.2020
4027 Clear 21 1027 30 10000 6.7 70 07:25 29.04.2020
4028 Clear 21 1027 28 10000 6.7 70 06:51 29.04.2020
4029 Clear 20 1027 32 10000 7.2 120 06:31 29.04.2020
4030 Clear 18 1028 39 10000 6.2 100 05:22 29.04.2020
4031 Clear 18 1029 39 10000 5.7 80 04:45 29.04.2020
4032 Clear 17 1029 44 10000 4.6 110 04:18 29.04.2020
4033 Clear 13 1029 54 10000 7.2 100 02:49 29.04.2020
4034 Clear 10 1027 61 10000 7.2 100 01:44 29.04.2020
4035 Clear 10 1027 61 10000 7.2 100 01:26 29.04.2020
4036 Clear 10 1027 54 10000 7.2 100 00:50 29.04.2020
4037 Clear 11 1026 57 10000 7.2 100 00:20 29.04.2020
4038 Clear 11 1026 57 10000 7.2 100 23:52 28.04.2020
4039 Clear 11 1026 57 10000 2.6 170 23:24 28.04.2020
4040 Clear 11 1026 54 10000 4.6 150 22:58 28.04.2020
4041 Clear 11 1026 54 10000 4.1 160 22:37 28.04.2020
4042 Clear 11 1026 54 10000 4.1 150 22:18 28.04.2020
4043 Clear 11 1026 54 10000 4.1 150 21:57 28.04.2020
4044 Clear 11 1026 54 10000 5.1 140 21:38 28.04.2020
4045 Clear 11 1026 58 10000 4.6 150 21:20 28.04.2020
4046 Clear 11 1026 58 10000 4.6 150 20:55 28.04.2020
4047 Clear 12 1026 58 10000 4.1 140 20:37 28.04.2020
4048 Clear 12 1026 58 10000 7.2 100 20:19 28.04.2020
4049 Clear 12 1025 54 10000 5.7 130 19:43 28.04.2020
4050 Clear 12 1025 54 10000 5.7 130 19:22 28.04.2020
4051 Clear 12 1025 54 10000 7.2 100 18:59 28.04.2020
4052 Clear 13 1025 54 10000 4.6 180 18:59 28.04.2020
4053 Clear 13 1025 54 10000 4.6 180 18:40 28.04.2020
4054 Haze 12 1025 54 10000 7.7 100 18:19 28.04.2020
4055 -273 0 0 0 0 0 18:19 28.04.2020
4056 Haze 13 1025 54 10000 7.7 100 17:58 28.04.2020
4057 Clear 12 1025 62 10000 4.1 190 17:36 28.04.2020
4058 Clear 13 1025 58 10000 3.6 200 17:18 28.04.2020
4059 Clear 13 1025 58 10000 3.6 200 17:18 28.04.2020
4060 Clear 13 1025 62 10000 7.7 100 16:43 28.04.2020
4061 Clear 13 1025 58 10000 7.7 100 16:23 28.04.2020
4062 Clear 14 1025 58 10000 7.7 100 15:58 28.04.2020
4063 Clear 14 1024 58 10000 5.7 190 15:39 28.04.2020
4064 Clear 15 1024 54 10000 5.1 140 15:21 28.04.2020
4065 Clear 15 1024 54 10000 5.1 140 14:59 28.04.2020
4066 Clear 15 1023 58 10000 5.7 180 14:40 28.04.2020
4067 Clear 16 1023 55 10000 6.2 190 14:21 28.04.2020
4068 Clear 16 1023 55 10000 6.2 190 13:58 28.04.2020
4069 Clear 16 1023 51 10000 6.2 210 13:38 28.04.2020
4070 Clear 17 1022 51 10000 7.2 210 13:19 28.04.2020
4071 Clear 17 1022 55 10000 6.7 220 12:44 28.04.2020
4072 Clear 17 1022 55 10000 6.7 220 12:25 28.04.2020
4073 Clear 18 1022 45 10000 6.2 240 11:45 28.04.2020
4074 Clear 19 1022 45 10000 6.2 240 11:26 28.04.2020
4075 Clear 20 1021 34 10000 4.6 210 10:59 28.04.2020
4076 Clear 20 1021 34 10000 4.6 210 10:59 28.04.2020
4077 Clear 20 1021 35 10000 5.7 210 10:39 28.04.2020
4078 Clear 20 1021 35 10000 5.7 210 10:39 28.04.2020
4079 Clear 20 1021 32 10000 5.7 230 10:19 28.04.2020
4080 Clear 21 1021 32 10000 5.7 230 09:57 28.04.2020
4081 Clear 21 1021 35 10000 5.1 220 09:39 28.04.2020
4082 Clear 21 1021 35 10000 6.2 200 09:20 28.04.2020
4083 Clear 21 1021 35 10000 6.2 210 08:45 28.04.2020
4084 Clouds 21 1021 35 10000 6.2 210 08:26 28.04.2020
4085 Clouds 21 1022 37 10000 6.2 190 07:45 28.04.2020
4086 Clouds 21 1022 37 10000 6.2 180 07:20 28.04.2020
4087 Clouds 21 1022 40 10000 7.2 190 06:50 28.04.2020
4088 Clouds 20 1022 40 10000 8.2 170 06:22 28.04.2020
4089 Clouds 20 1022 40 10000 8.7 180 05:41 28.04.2020
4090 Clouds 19 1022 42 10000 7.7 190 04:56 28.04.2020
4091 Clouds 16 1022 67 10000 5.1 180 02:59 28.04.2020
4092 Clouds 16 1022 77 10000 4.1 180 02:33 28.04.2020
4093 Clouds 15 1021 82 10000 4.1 190 01:23 28.04.2020
4094 Clouds 15 1020 87 10000 3.6 200 00:55 28.04.2020
4095 Clouds 15 1020 87 10000 3.6 210 00:22 28.04.2020
4096 Clouds 15 1019 93 10000 5.1 190 23:45 27.04.2020
4097 Clouds 15 1019 93 10000 5.1 190 23:23 27.04.2020
4098 Drizzle 15 1019 93 10000 6.2 180 22:55 27.04.2020
4099 Rain 15 1019 93 10000 8.7 190 22:37 27.04.2020
4100 Clouds 16 1019 87 10000 5.7 180 22:18 27.04.2020
4101 Clouds 17 1019 87 10000 5.7 180 21:55 27.04.2020
4102 Rain 17 1018 93 7000 6.7 190 21:37 27.04.2020
4103 Rain 17 1018 87 10000 4.1 200 21:18 27.04.2020
4104 Rain 17 1018 87 10000 4.1 200 20:43 27.04.2020
4105 Rain 17 1018 87 10000 4.1 200 20:22 27.04.2020
4106 Rain 16 1019 87 10000 4.1 200 19:58 27.04.2020
4107 Clouds 16 1019 82 10000 2.1 30 19:39 27.04.2020
4108 Rain 16 1019 87 10000 4.1 200 19:20 27.04.2020
4109 Rain 16 1019 87 10000 4.1 200 18:56 27.04.2020
4110 Clouds 16 1019 82 10000 4.8 205 18:38 27.04.2020
4111 Rain 16 1019 87 10000 4.1 200 18:19 27.04.2020
4112 Clouds 16 1019 82 10000 1.5 200 17:43 27.04.2020
4113 Clouds 16 1019 82 10000 1.5 200 17:43 27.04.2020
4114 Clouds 16 1019 82 10000 1.5 200 17:21 27.04.2020
4115 Clouds 16 1019 77 10000 1.5 190 16:56 27.04.2020
4116 Clouds 17 1019 72 10000 2.6 200 16:38 27.04.2020
4117 Clouds 17 1019 63 10000 3.1 210 16:20 27.04.2020
4118 Clouds 18 1019 63 10000 3.1 210 15:56 27.04.2020
4119 Clouds 18 1019 63 10000 3.6 220 15:37 27.04.2020
4120 Clouds 18 1019 67 10000 3.1 220 15:18 27.04.2020
4121 Clouds 17 1019 63 10000 4.1 210 14:41 27.04.2020
4122 Clouds 18 1019 59 10000 5.7 210 14:20 27.04.2020
4123 Clouds 18 1019 59 10000 5.7 210 13:57 27.04.2020
4124 Clouds 19 1019 59 10000 6.2 210 13:39 27.04.2020
4125 Clouds 19 1019 59 10000 6.2 210 13:39 27.04.2020
4126 Clouds 19 1019 63 10000 5.7 210 13:19 27.04.2020
4127 Clouds 19 1018 59 10000 6.2 210 12:43 27.04.2020
4128 Clouds 19 1018 59 10000 6.2 210 12:23 27.04.2020
4129 Clouds 19 1018 60 10000 7.2 230 11:57 27.04.2020
4130 Clouds 20 1018 64 10000 8.2 230 11:38 27.04.2020
4131 Clouds 20 1017 60 10000 8.2 240 11:19 27.04.2020
4132 Clear 21 1017 64 10000 6.7 210 10:42 27.04.2020
4133 Clouds 21 1017 56 10000 6.7 240 10:24 27.04.2020
4134 Clouds 22 1017 56 10000 7.7 240 09:58 27.04.2020
4135 Clouds 22 1017 53 10000 7.7 210 09:40 27.04.2020
4136 Clouds 22 1017 49 10000 8.2 230 09:18 27.04.2020
4137 Clouds 22 1017 49 10000 8.2 230 08:53 27.04.2020
4138 Clouds 23 1017 56 10000 7.7 230 08:33 27.04.2020
4139 Clouds 23 1017 53 10000 7.2 240 07:45 27.04.2020
4140 Clouds 23 1017 49 10000 7.2 220 07:27 27.04.2020
4141 Clouds 23 1017 49 10000 7.2 220 06:58 27.04.2020
4142 Clouds 23 1018 47 10000 5.1 270 06:30 27.04.2020
4143 Clouds 23 1018 49 10000 3.1 230 05:57 27.04.2020
4144 Clouds 22 1018 56 9000 2.1 200 05:19 27.04.2020
4145 Clouds 21 1019 68 8000 1.5 210 04:39 27.04.2020
4146 Clouds 21 1019 68 8000 1.5 210 04:39 27.04.2020
4147 Clouds 17 1019 82 8000 2.6 230 03:47 27.04.2020
4148 Clouds 14 1019 93 10000 2.1 100 02:32 27.04.2020
4149 Clouds 10 1019 93 4800 1.5 50 01:20 27.04.2020
4150 Clouds 10 1019 100 10000 2.1 80 00:40 27.04.2020
4151 Clouds 10 1019 100 10000 2.1 80 00:40 27.04.2020
4152 Clouds 10 1019 93 10000 0.5 360 00:18 27.04.2020
4153 Clouds 10 1019 93 10000 0.5 360 23:55 26.04.2020
4154 Clouds 10 1019 93 10000 2.32 152 23:36 26.04.2020
4155 Clouds 10 1019 93 10000 2.32 152 23:36 26.04.2020
4156 Clouds 11 1019 93 10000 2.32 152 23:18 26.04.2020
4157 Clouds 11 1019 100 10000 2.32 152 22:40 26.04.2020
4158 Clouds 11 1019 93 10000 2.32 152 22:21 26.04.2020
4159 Clouds 11 1019 93 10000 2.32 152 21:59 26.04.2020
4160 Clouds 11 1019 93 10000 2.32 152 21:59 26.04.2020
4161 Clouds 12 1019 93 10000 0.5 50 21:40 26.04.2020
4162 Clouds 12 1019 93 10000 2.71 154 21:19 26.04.2020
4163 Clouds 12 1019 93 10000 2.71 154 20:55 26.04.2020
4164 Clouds 13 1019 93 10000 1.5 50 20:37 26.04.2020
4165 Clouds 13 1020 93 10000 2.71 154 20:19 26.04.2020
4166 Clouds 13 1020 93 10000 2.71 154 19:57 26.04.2020
4167 Clouds 14 1020 93 10000 1.5 190 19:36 26.04.2020
4168 Clouds 14 1020 93 10000 2.71 154 19:18 26.04.2020
4169 Clouds 15 1020 93 10000 2.71 154 18:43 26.04.2020
4170 Clouds 14 1020 93 10000 3.62 166 18:24 26.04.2020
4171 Clouds 14 1020 93 10000 3.62 166 18:24 26.04.2020
4172 Clouds 16 1021 93 10000 2.1 170 17:44 26.04.2020
4173 Clouds 16 1021 87 10000 3.1 200 17:23 26.04.2020
4174 Clouds 16 1021 87 10000 3.1 210 16:58 26.04.2020
4175 Clouds 16 1021 82 10000 3.1 200 16:39 26.04.2020
4176 Clouds 17 1021 82 10000 2.6 200 16:20 26.04.2020
4177 Clouds 17 1021 82 10000 2.6 200 15:57 26.04.2020
4178 Clouds 17 1021 72 10000 4.6 190 15:37 26.04.2020
4179 Clear 18 1021 72 10000 4.6 210 15:18 26.04.2020
4180 Clear 18 1021 82 10000 3.6 200 14:41 26.04.2020
4181 Clear 18 1021 72 10000 4.6 210 14:19 26.04.2020
4182 Clear 19 1021 72 10000 4.6 210 13:59 26.04.2020
4183 Clear 19 1021 77 10000 4.1 180 13:40 26.04.2020
4184 Clear 19 1021 68 10000 4.1 220 13:22 26.04.2020
4185 Clear 20 1020 68 10000 4.1 220 12:56 26.04.2020
4186 Clear 20 1020 72 10000 3.6 200 12:37 26.04.2020
4187 Clear 21 1020 68 10000 4.1 230 12:19 26.04.2020
4188 Clear 22 1020 53 10000 4.6 220 11:54 26.04.2020
4189 Clear 22 1020 47 10000 4.6 220 11:36 26.04.2020
4190 Clear 24 1020 47 10000 4.6 240 11:18 26.04.2020
4191 Clear 24 1020 44 10000 4.6 240 10:42 26.04.2020
4192 Clear 25 1020 44 10000 4.6 250 10:24 26.04.2020
4193 Clear 25 1020 44 10000 4.6 250 09:58 26.04.2020
4194 Clear 25 1020 44 10000 5.7 250 09:38 26.04.2020
4195 Clear 26 1020 44 10000 4.1 230 09:19 26.04.2020
4196 Clear 26 1020 41 10000 3.1 320 08:41 26.04.2020
4197 Clear 26 1020 44 10000 3.1 210 08:22 26.04.2020
4198 Clear 26 1020 41 10000 2.1 210 07:49 26.04.2020
4199 Clear 26 1020 41 10000 2.1 210 07:24 26.04.2020
4200 Clouds 26 1021 44 10000 2.1 190 06:50 26.04.2020
4201 Clouds 24 1022 47 10000 1.5 100 06:25 26.04.2020
4202 Clouds 24 1022 47 10000 2.6 30 05:51 26.04.2020
4203 Clouds 24 1022 49 10000 3.1 90 05:32 26.04.2020
4204 Clouds 22 1023 56 10000 4.6 80 04:39 26.04.2020
4205 Clouds 19 1024 72 10000 3.6 70 03:40 26.04.2020
4206 Clouds 16 1023 93 10000 1.98 121 02:37 26.04.2020
4207 Clouds 15 1023 93 10000 1.99 121 02:19 26.04.2020
4208 Clouds 13 1023 100 10000 1.99 121 01:36 26.04.2020
4209 Clouds 12 1022 93 10000 1.99 121 00:41 26.04.2020
4210 Clouds 12 1022 93 10000 2.6 30 00:21 26.04.2020
4211 Clouds 12 1022 93 10000 1.89 140 00:21 26.04.2020
4212 Clouds 12 1022 93 10000 2.6 30 23:56 25.04.2020
4213 Clouds 12 1022 93 10000 2.6 10 23:37 25.04.2020
4214 Clouds 11 1022 100 10000 1.89 140 23:18 25.04.2020
4215 Clouds 13 1022 93 10000 1 80 22:42 25.04.2020
4216 Clouds 13 1022 100 10000 1.89 140 22:20 25.04.2020
4217 Clouds 13 1022 100 10000 1.89 140 21:58 25.04.2020
4218 Clouds 13 1022 93 10000 1.61 139 21:39 25.04.2020
4219 Clouds 11 1022 100 10000 1.96 140 21:19 25.04.2020
4220 Clouds 12 1022 93 10000 1.96 140 20:43 25.04.2020
4221 Clouds 12 1022 93 10000 1.96 140 20:23 25.04.2020
4222 Clouds 13 1022 100 10000 2.1 30 19:59 25.04.2020
4223 Clouds 13 1022 93 10000 1.96 140 19:39 25.04.2020
4224 Clouds 13 1022 93 10000 1.96 140 19:21 25.04.2020
4225 Clouds 13 1022 93 10000 1.96 140 18:56 25.04.2020
4226 Clouds 13 1022 93 10000 1.5 20 18:37 25.04.2020
4227 Clouds 14 1022 93 10000 0.5 140 18:18 25.04.2020
4228 Clouds 14 1022 93 10000 0.5 140 17:55 25.04.2020
4229 Clouds 14 1022 87 10000 1.5 110 17:36 25.04.2020
4230 Clouds 15 1023 87 10000 3.1 190 17:18 25.04.2020
4231 Clouds 15 1023 87 10000 2.1 200 16:43 25.04.2020
4232 Clouds 15 1023 87 10000 2.1 200 16:25 25.04.2020
4233 Clouds 16 1023 87 10000 2.1 230 15:58 25.04.2020
4234 Clouds 16 1023 77 10000 2.6 230 15:38 25.04.2020
4235 Clouds 17 1023 77 10000 2.6 220 15:19 25.04.2020
4236 Clouds 17 1023 77 10000 2.6 220 15:19 25.04.2020
4237 Clouds 17 1023 77 10000 2.6 220 14:56 25.04.2020
4238 Clouds 17 1023 72 10000 3.1 210 14:37 25.04.2020
4239 Clouds 18 1022 68 10000 3.6 210 14:18 25.04.2020
4240 Clouds 18 1022 68 10000 4.1 210 13:41 25.04.2020
4241 Clouds 19 1022 72 10000 3.6 210 13:19 25.04.2020
4242 Clouds 19 1022 72 10000 3.6 210 12:57 25.04.2020
4243 Rain 19 1022 72 10000 4.1 220 12:38 25.04.2020
4244 Clouds 20 1021 68 10000 4.6 230 12:19 25.04.2020
4245 Clouds 20 1021 68 10000 5.7 240 11:43 25.04.2020
4246 Clouds 21 1021 60 10000 4.1 250 11:25 25.04.2020
4247 Clouds 22 1021 53 10000 5.1 230 10:59 25.04.2020
4248 Clouds 22 1021 53 10000 5.1 230 10:41 25.04.2020
4249 Clouds 23 1020 47 10000 4.6 230 10:21 25.04.2020
4250 Clouds 24 1020 50 10000 4.6 230 09:45 25.04.2020
4251 Clouds 24 1020 50 10000 4.6 230 09:26 25.04.2020
4252 Clouds 24 1020 56 10000 5.1 210 08:56 25.04.2020
4253 Clouds 24 1020 56 10000 4.1 210 08:38 25.04.2020
4254 Clouds 24 1020 60 10000 5.7 230 08:19 25.04.2020
4255 Clouds 23 1020 60 10000 6.2 190 07:44 25.04.2020
4256 Clouds 23 1020 60 10000 6.2 190 07:22 25.04.2020
4257 Clouds 22 1021 77 10000 5.7 210 06:43 25.04.2020
4258 Rain 20 1021 82 10000 5.1 190 05:46 25.04.2020
4259 Rain 20 1021 82 10000 5.1 190 05:27 25.04.2020
4260 Rain 19 1021 82 10000 1 240 04:24 25.04.2020
4261 Rain 18 1020 93 10000 2.6 10 02:44 25.04.2020
4262 Rain 18 1019 93 10000 2.1 10 02:19 25.04.2020
4263 Rain 18 1019 93 10000 2.1 10 02:19 25.04.2020
4264 Clouds 17 1019 93 10000 2.6 50 01:49 25.04.2020
4265 Rain 17 1018 93 10000 1.5 20 01:19 25.04.2020
4266 Rain 17 1019 93 10000 3.6 40 00:49 25.04.2020
4267 Rain 17 1019 93 10000 3.6 40 00:28 25.04.2020
4268 Rain 17 1018 93 5000 0.5 90 23:42 24.04.2020
4269 Rain 18 1018 93 5000 0.5 90 23:21 24.04.2020
4270 Clouds 18 1018 93 10000 1.5 10 22:41 24.04.2020
4271 Clouds 18 1018 93 10000 1.5 10 22:21 24.04.2020
4272 Rain 18 1017 93 10000 2.82 299 21:59 24.04.2020
4273 Rain 18 1017 93 10000 2.6 80 21:41 24.04.2020
4274 Rain 18 1017 93 10000 2.6 80 21:23 24.04.2020
4275 Clouds 18 1018 88 10000 2.1 10 21:00 24.04.2020
4276 Clouds 18 1018 88 10000 3.1 20 20:41 24.04.2020
4277 Clouds 18 1018 88 10000 1.5 60 20:19 24.04.2020
4278 Clouds 18 1018 88 10000 1.5 60 20:19 24.04.2020
4279 Clouds 18 1018 88 10000 1.5 60 19:57 24.04.2020
4280 Clouds 18 1018 88 10000 2.6 90 19:38 24.04.2020
4281 Clouds 18 1018 88 10000 2.6 30 19:20 24.04.2020
4282 Clouds 18 1018 88 10000 3.03 275 18:40 24.04.2020
4283 Clouds 18 1018 88 10000 3.32 237 18:22 24.04.2020
4284 Clouds 18 1018 88 10000 1 320 17:44 24.04.2020
4285 Clouds 18 1018 88 10000 1 320 17:25 24.04.2020
4286 Clouds 18 1018 88 10000 1 310 16:59 24.04.2020
4287 Clouds 18 1018 82 10000 1 260 16:41 24.04.2020
4288 Clouds 18 1018 82 10000 1 260 16:22 24.04.2020
4289 Clouds 19 1018 82 10000 1.5 220 15:59 24.04.2020
4290 Clouds 19 1018 82 10000 2.6 240 15:38 24.04.2020
4291 Clouds 19 1018 82 10000 2.6 220 15:18 24.04.2020
4292 Clouds 19 1018 82 10000 2.1 270 14:40 24.04.2020
4293 Clouds 19 1018 82 10000 2.1 270 14:21 24.04.2020
4294 Clouds 19 1018 77 10000 2.1 270 13:57 24.04.2020
4295 Clouds 20 1017 72 10000 2.6 230 13:38 24.04.2020
4296 Rain 20 1017 72 10000 2.6 0 13:19 24.04.2020
4297 Clouds 20 1017 72 10000 3.1 240 12:42 24.04.2020
4298 Clouds 20 1017 72 10000 3.1 240 12:23 24.04.2020
4299 Rain 21 1017 68 10000 2.6 0 11:58 24.04.2020
4300 Clouds 21 1017 68 10000 4.1 260 11:38 24.04.2020
4301 Clouds 21 1017 64 10000 4.6 260 11:20 24.04.2020
4302 Clouds 21 1017 64 10000 4.6 260 10:55 24.04.2020
4303 Clouds 22 1017 60 10000 4.6 260 10:36 24.04.2020
4304 Clouds 22 1016 60 10000 4.1 260 10:18 24.04.2020
4305 Clouds 22 1016 60 10000 4.1 270 09:45 24.04.2020
4306 Clouds 23 1016 60 10000 4.1 270 09:24 24.04.2020
4307 Clouds 23 1016 56 10000 4.1 250 08:58 24.04.2020
4308 Clouds 23 1016 60 10000 4.1 240 08:37 24.04.2020
4309 Clouds 22 1016 60 10000 4.1 240 08:37 24.04.2020
4310 Clouds 23 1017 60 10000 4.1 260 08:18 24.04.2020
4311 Clouds 22 1017 60 10000 4.6 250 07:44 24.04.2020
4312 Clouds 22 1017 60 10000 4.6 250 07:26 24.04.2020
4313 Clouds 22 1017 60 10000 3.6 260 06:51 24.04.2020
4314 Clouds 22 1017 60 10000 4.6 260 06:32 24.04.2020
4315 Clouds 22 1017 60 10000 3.1 270 05:44 24.04.2020
4316 Clouds 23 1018 68 10000 0.5 330 04:26 24.04.2020
4317 Clouds 18 1018 77 10000 5.1 250 02:58 24.04.2020
4318 Clouds 18 1018 77 10000 3.1 10 02:38 24.04.2020
4319 Clouds 16 1018 87 10000 3.1 10 01:58 24.04.2020
4320 Clouds 15 1018 93 10000 2.1 10 00:58 24.04.2020
4321 Clouds 15 1017 87 10000 2.1 10 00:21 24.04.2020
4322 Clouds 15 1017 87 10000 2.1 10 23:56 23.04.2020
4323 Clouds 15 1017 93 10000 2.6 360 23:37 23.04.2020
4324 Clouds 15 1017 93 10000 2.6 60 23:18 23.04.2020
4325 Clouds 15 1017 93 10000 2.6 60 22:55 23.04.2020
4326 Clouds 14 1017 93 10000 1.61 189 22:36 23.04.2020
4327 Clouds 14 1017 87 10000 1.61 189 22:18 23.04.2020
4328 Clouds 14 1017 87 10000 1.61 189 21:55 23.04.2020
4329 Clouds 14 1017 87 10000 1.61 189 21:55 23.04.2020
4330 Clouds 14 1017 93 10000 1.56 188 21:37 23.04.2020
4331 Clouds 14 1017 87 10000 2.07 173 21:18 23.04.2020
4332 Clouds 14 1018 93 10000 1.5 30 20:41 23.04.2020
4333 Clouds 14 1018 93 10000 1.5 30 20:21 23.04.2020
4334 Clouds 14 1018 93 10000 1.5 20 19:56 23.04.2020
4335 Clouds 15 1018 87 10000 2.07 173 19:38 23.04.2020
4336 Clouds 15 1018 87 10000 2.07 173 19:20 23.04.2020
4337 Clouds 15 1018 93 10000 2.07 173 18:55 23.04.2020
4338 Clouds 15 1018 93 10000 2.07 173 18:36 23.04.2020
4339 Clouds 16 1018 93 10000 2.57 170 18:18 23.04.2020
4340 Clouds 16 1018 87 10000 2.1 170 17:40 23.04.2020
4341 Clouds 16 1018 87 10000 2.1 170 17:22 23.04.2020
4342 Clouds 17 1019 77 10000 2.6 200 16:57 23.04.2020
4343 Clouds 17 1019 72 10000 3.6 200 16:38 23.04.2020
4344 Clouds 17 1019 72 10000 3.1 210 16:19 23.04.2020
4345 Clouds 17 1019 72 10000 3.1 210 16:19 23.04.2020
4346 Clouds 17 1019 72 10000 3.6 190 15:42 23.04.2020
4347 Clouds 18 1019 68 10000 3.6 190 15:23 23.04.2020
4348 Clouds 18 1019 68 10000 3.6 190 14:57 23.04.2020
4349 Clouds 18 1019 68 10000 4.6 190 14:38 23.04.2020
4350 Clouds 19 1018 60 10000 4.1 200 14:19 23.04.2020
4351 Clouds 19 1019 72 10000 3.6 180 13:55 23.04.2020
4352 Clouds 19 1019 72 10000 3.6 210 13:36 23.04.2020
4353 Clouds 19 1018 68 10000 3.1 200 13:18 23.04.2020
4354 Clouds 20 1018 64 10000 1.5 190 12:42 23.04.2020
4355 Clouds 20 1018 64 10000 1.5 190 12:24 23.04.2020
4356 Clouds 21 1018 56 10000 4.1 220 11:56 23.04.2020
4357 Clouds 21 1018 49 10000 4.6 240 11:38 23.04.2020
4358 Clouds 22 1018 46 10000 5.1 250 11:18 23.04.2020
4359 Clouds 23 1018 41 10000 4.6 250 10:41 23.04.2020
4360 Clouds 24 1018 44 10000 4.6 250 10:21 23.04.2020
4361 Clouds 24 1018 41 10000 5.1 260 09:41 23.04.2020
4362 Clouds 25 1018 41 10000 4.6 250 09:20 23.04.2020
4363 Clouds 25 1018 41 10000 4.6 250 08:57 23.04.2020
4364 Clouds 25 1018 44 10000 3.1 270 08:39 23.04.2020
4365 Clouds 25 1018 47 10000 3.1 230 08:21 23.04.2020
4366 Clouds 25 1019 50 10000 3.6 310 07:42 23.04.2020
4367 Clouds 25 1019 50 10000 3.6 310 07:23 23.04.2020
4368 Clouds 24 1020 60 10000 2.1 240 06:47 23.04.2020
4369 Clouds 24 1020 60 10000 2.6 230 05:58 23.04.2020
4370 Clouds 22 1021 77 10000 2.6 140 05:22 23.04.2020
4371 Clouds 23 1021 77 10000 2.1 20 04:51 23.04.2020
4372 Clouds 17 1020 93 10000 3.1 60 02:24 23.04.2020
4373 Rain 16 1020 93 10000 3.1 30 01:41 23.04.2020
4374 Rain 16 1019 93 10000 2.1 20 01:18 23.04.2020
4375 Rain 16 1019 100 10000 2.1 50 00:36 23.04.2020
4376 Rain 16 1019 93 10000 2.6 70 00:18 23.04.2020
4377 Rain 16 1019 93 10000 2.6 20 23:42 22.04.2020
4378 Rain 16 1018 100 10000 1.5 30 23:22 22.04.2020
4379 Rain 16 1018 100 10000 1.5 30 22:54 22.04.2020
4380 Clouds 16 1018 93 10000 2.1 30 22:36 22.04.2020
4381 Rain 16 1018 93 10000 1.5 0 22:18 22.04.2020
4382 Rain 16 1018 93 10000 1.5 0 21:54 22.04.2020
4383 Rain 17 1018 93 10000 1.5 0 21:36 22.04.2020
4384 Rain 16 1018 93 10000 1.5 0 21:18 22.04.2020
4385 Rain 16 1018 93 10000 1.5 0 20:43 22.04.2020
4386 Rain 16 1018 93 10000 1.5 0 20:19 22.04.2020
4387 Rain 16 1018 93 10000 1.5 0 20:19 22.04.2020
4388 Rain 16 1018 93 10000 1.5 0 19:57 22.04.2020
4389 Rain 16 1018 93 10000 1.5 0 19:57 22.04.2020
4390 Clouds 16 1018 100 10000 2.1 40 19:38 22.04.2020
4391 Clouds 17 1018 93 10000 2.1 20 19:18 22.04.2020
4392 Clouds 16 1018 93 10000 2.1 20 18:57 22.04.2020
4393 Clouds 16 1018 93 10000 2.1 20 18:57 22.04.2020
4394 Clouds 16 1018 93 10000 2.1 20 18:57 22.04.2020
4395 Clouds 17 1018 93 10000 2.1 10 18:39 22.04.2020
4396 Clouds 17 1018 93 10000 2.6 50 18:20 22.04.2020
4397 Clouds 18 1018 88 10000 2.6 80 17:43 22.04.2020
4398 Clouds 18 1018 93 10000 2.6 90 17:25 22.04.2020
4399 Rain 18 1018 93 10000 2.1 20 16:58 22.04.2020
4400 Clouds 19 1018 88 10000 1.5 220 16:39 22.04.2020
4401 Rain 19 1018 82 10000 2.6 210 16:20 22.04.2020
4402 Clouds 19 1018 88 10000 2.1 290 15:41 22.04.2020
4403 Rain 19 1017 77 10000 2.1 270 15:22 22.04.2020
4404 Rain 20 1017 77 10000 2.1 270 14:58 22.04.2020
4405 Rain 19 1017 72 10000 2.1 260 14:38 22.04.2020
4406 Clouds 19 1017 72 10000 3.1 250 14:19 22.04.2020
4407 Clouds 20 1017 72 10000 2.6 260 13:45 22.04.2020
4408 Clouds 20 1017 72 10000 2.6 270 13:21 22.04.2020
4409 Clouds 20 1017 72 10000 2.6 270 12:57 22.04.2020
4410 Clouds 21 1016 68 10000 3.6 270 12:39 22.04.2020
4411 Clouds 21 1016 77 10000 3.1 280 12:20 22.04.2020
4412 Rain 21 1016 73 10000 3.1 290 11:40 22.04.2020
4413 Clouds 21 1016 77 10000 3.1 300 11:20 22.04.2020
4414 Clouds 21 1016 77 10000 3.1 300 10:58 22.04.2020
4415 Rain 22 1016 73 10000 5.1 290 10:38 22.04.2020
4416 Rain 22 1015 73 10000 6.2 290 10:18 22.04.2020
4417 Rain 22 1015 77 6000 7.7 290 09:39 22.04.2020
4418 Clouds 22 1015 64 10000 5.7 270 09:20 22.04.2020
4419 Clouds 23 1015 64 10000 5.7 270 08:55 22.04.2020
4420 Rain 23 1015 69 10000 5.7 270 08:37 22.04.2020
4421 Clouds 23 1015 60 10000 5.7 290 08:18 22.04.2020
4422 Clouds 23 1015 60 10000 5.7 290 07:51 22.04.2020
4423 Clouds 23 1015 60 10000 5.7 290 07:23 22.04.2020
4424 Clouds 23 1016 60 10000 6.2 300 06:52 22.04.2020
4425 -273 0 0 0 0 0 05:47 22.04.2020
4426 Clouds 24 1016 53 10000 6.2 280 05:27 22.04.2020
4427 Rain 21 1017 68 10000 7.2 280 03:55 22.04.2020
4428 Clouds 18 1016 82 10000 3.1 30 02:37 22.04.2020
4429 Clouds 16 1015 100 10000 2.6 20 01:42 22.04.2020
4430 Clouds 16 1015 100 10000 2.6 20 01:23 22.04.2020
4431 Clouds 15 1015 93 10000 2.6 40 00:45 22.04.2020
4432 Clouds 15 1015 93 10000 2.6 40 00:20 22.04.2020
4433 Clouds 15 1015 93 10000 2.6 50 23:45 21.04.2020
4434 Clouds 15 1015 93 10000 2.6 50 23:23 21.04.2020
4435 Clouds 15 1014 93 10000 2.6 50 22:59 21.04.2020
4436 Clouds 15 1014 93 10000 2.6 50 22:39 21.04.2020
4437 Clouds 15 1014 93 10000 2.53 328 22:20 21.04.2020
4438 Clouds 16 1014 93 10000 2.53 328 21:57 21.04.2020
4439 Clouds 15 1015 87 10000 2.1 30 21:39 21.04.2020
4440 Clouds 15 1015 87 10000 2.1 30 21:39 21.04.2020
4441 Clouds 16 1014 100 10000 3.1 10 21:21 21.04.2020
4442 Clouds 16 1014 100 10000 3.6 20 20:40 21.04.2020
4443 Clouds 16 1014 100 10000 3.6 20 20:22 21.04.2020
4444 Clouds 16 1015 100 10000 3.1 30 19:58 21.04.2020
4445 Clouds 16 1015 100 10000 2.41 320 19:38 21.04.2020
4446 Clouds 16 1015 100 10000 3.6 20 19:18 21.04.2020
4447 Clouds 16 1015 87 10000 2.1 40 18:55 21.04.2020
4448 Clouds 15 1015 93 10000 2.1 30 18:36 21.04.2020
4449 Clouds 15 1015 87 10000 2.6 30 18:18 21.04.2020
4450 Clear 15 1016 93 10000 2.1 50 17:39 21.04.2020
4451 Clouds 15 1016 93 10000 2.6 30 17:20 21.04.2020
4452 Clear 16 1016 93 10000 2.65 293 16:56 21.04.2020
4453 Clouds 16 1016 87 10000 2.1 50 16:36 21.04.2020
4454 Clouds 16 1016 93 10000 2.1 40 16:18 21.04.2020
4455 Clouds 17 1016 93 10000 2.1 40 15:55 21.04.2020
4456 Clouds 17 1016 93 10000 2.1 50 15:36 21.04.2020
4457 Clouds 17 1016 87 10000 2.1 60 15:18 21.04.2020
4458 Clouds 18 1016 87 10000 1.5 40 14:44 21.04.2020
4459 Clouds 18 1016 82 10000 3.15 294 14:23 21.04.2020
4460 Clouds 18 1016 82 10000 2.1 300 13:55 21.04.2020
4461 Clouds 19 1015 77 10000 2.1 290 13:37 21.04.2020
4462 Clouds 20 1015 68 10000 2.1 280 13:18 21.04.2020
4463 Clouds 20 1015 68 10000 3.6 290 12:38 21.04.2020
4464 Clouds 21 1015 64 10000 3.6 270 12:19 21.04.2020
4465 Clouds 21 1015 64 10000 3.6 270 11:57 21.04.2020
4466 Clouds 22 1015 60 10000 4.1 280 11:38 21.04.2020
4467 Clouds 22 1015 56 10000 4.6 300 11:19 21.04.2020
4468 Clouds 23 1015 56 10000 4.6 300 10:58 21.04.2020
4469 Clouds 23 1015 64 10000 5.1 310 10:39 21.04.2020
4470 Clouds 23 1015 64 10000 5.1 310 10:39 21.04.2020
4471 Clouds 23 1015 53 10000 4.6 300 10:20 21.04.2020
4472 Clouds 24 1015 53 10000 4.6 300 09:55 21.04.2020
4473 Clouds 23 1015 53 10000 5.1 290 09:36 21.04.2020
4474 Clouds 23 1015 53 10000 5.1 290 09:36 21.04.2020
4475 Clouds 23 1015 50 10000 5.1 290 09:18 21.04.2020
4476 Clouds 24 1015 53 10000 4.6 290 08:42 21.04.2020
4477 Clouds 24 1015 53 10000 4.6 290 08:23 21.04.2020
4478 Clouds 23 1015 60 10000 5.1 260 07:49 21.04.2020
4479 Clouds 23 1015 60 10000 5.1 260 07:26 21.04.2020
4480 Clouds 22 1016 56 10000 4.6 300 06:50 21.04.2020
4481 Clouds 23 1016 53 10000 4.6 320 06:24 21.04.2020
4482 Clouds 23 1016 56 10000 5.1 310 05:49 21.04.2020
4483 Clouds 23 1016 68 10000 4.1 360 04:54 21.04.2020
4484 Clouds 20 1017 77 10000 6.2 300 03:45 21.04.2020
4485 Clouds 16 1016 93 10000 3.1 20 01:53 21.04.2020
4486 Clouds 16 1015 93 10000 2.6 40 01:29 21.04.2020
4487 Clouds 16 1015 93 10000 2.6 60 00:38 21.04.2020
4488 Clouds 16 1015 93 10000 3.1 30 23:48 20.04.2020
4489 Clouds 16 1015 93 10000 3.1 30 23:26 20.04.2020
4490 Clouds 16 1015 93 10000 2.6 50 22:58 20.04.2020
4491 Clouds 16 1015 93 10000 2.6 30 22:40 20.04.2020
4492 Clouds 16 1015 100 10000 4.1 30 22:21 20.04.2020
4493 Clouds 16 1015 100 10000 4.1 30 22:21 20.04.2020
4494 Clouds 17 1015 100 10000 4.1 30 21:58 20.04.2020
4495 Clouds 17 1015 93 10000 3.6 10 21:39 20.04.2020
4496 Rain 17 1015 93 10000 2.6 20 21:19 20.04.2020
4497 Rain 17 1015 93 10000 2.6 20 20:58 20.04.2020
4498 Clouds 17 1015 93 10000 3.6 360 20:39 20.04.2020
4499 Drizzle 17 1016 93 4000 3.1 350 20:19 20.04.2020
4500 Drizzle 17 1016 93 4000 3.1 350 19:58 20.04.2020
4501 Rain 18 1016 88 10000 3.6 30 19:39 20.04.2020
4502 Rain 18 1016 88 10000 3.6 30 19:19 20.04.2020
4503 Rain 18 1016 82 10000 3.1 10 18:43 20.04.2020
4504 Rain 18 1016 82 10000 3.1 10 18:23 20.04.2020
4505 Drizzle 18 1016 82 10000 3.1 10 17:56 20.04.2020
4506 Rain 18 1016 77 10000 3.1 360 17:38 20.04.2020
4507 Clouds 19 1016 77 10000 2.1 350 17:19 20.04.2020
4508 Clouds 19 1016 77 10000 2.1 350 16:58 20.04.2020
4509 Rain 19 1016 72 10000 2.1 270 16:39 20.04.2020
4510 Clouds 19 1016 68 10000 2.6 290 16:18 20.04.2020
4511 Clouds 19 1016 68 10000 2.6 280 15:43 20.04.2020
4512 Clouds 19 1016 68 10000 2.6 280 15:24 20.04.2020
4513 Clouds 20 1015 68 10000 3.6 280 14:58 20.04.2020
4514 Clouds 20 1015 72 10000 4.6 260 14:40 20.04.2020
4515 Clouds 20 1015 60 10000 3.6 280 14:19 20.04.2020
4516 Clouds 20 1015 60 10000 3.6 280 13:54 20.04.2020
4517 Clouds 20 1015 60 10000 4.1 270 13:36 20.04.2020
4518 Clouds 20 1015 60 10000 4.1 270 13:36 20.04.2020
4519 Clouds 20 1014 60 10000 3.1 280 13:18 20.04.2020
4520 Clouds 20 1014 60 10000 5.1 280 12:42 20.04.2020
4521 Clouds 21 1014 56 10000 5.1 270 12:19 20.04.2020
4522 Rain 21 1014 60 10000 5.7 280 11:41 20.04.2020
4523 Rain 21 1014 60 10000 5.7 280 11:22 20.04.2020
4524 Rain 22 1014 53 10000 6.2 270 10:57 20.04.2020
4525 Clouds 22 1014 46 10000 7.7 290 10:39 20.04.2020
4526 Clouds 23 1014 49 10000 8.2 270 10:19 20.04.2020
4527 Clouds 23 1014 49 10000 8.2 270 09:56 20.04.2020
4528 Clouds 22 1014 56 10000 6.7 280 09:37 20.04.2020
4529 Rain 22 1014 56 10000 8.2 290 09:19 20.04.2020
4530 Clouds 22 1014 46 10000 7.7 290 08:41 20.04.2020
4531 Clouds 23 1014 49 10000 6.7 280 08:22 20.04.2020
4532 Clouds 23 1014 49 10000 6.7 280 07:52 20.04.2020
4533 Clouds 23 1014 43 10000 8.2 280 07:29 20.04.2020
4534 Clouds 23 1014 46 10000 8.2 280 06:58 20.04.2020
4535 Clouds 23 1014 49 10000 8.2 290 06:36 20.04.2020
4536 Clouds 22 1014 46 10000 6.7 290 05:43 20.04.2020
4537 Clouds 21 1015 52 10000 7.2 290 04:18 20.04.2020
4538 Clouds 15 1014 82 10000 2.6 60 02:46 20.04.2020
4539 Clouds 15 1014 82 10000 2.6 60 02:46 20.04.2020
4540 Clouds 14 1014 87 10000 2.1 30 01:52 20.04.2020
4541 Clouds 13 1014 87 10000 2.6 30 01:28 20.04.2020
4542 Clouds 11 1014 87 10000 2.6 20 00:36 20.04.2020
4543 Clouds 11 1013 93 10000 2.6 30 23:59 19.04.2020
4544 Clouds 10 1014 87 10000 2.6 10 23:39 19.04.2020
4545 Clouds 10 1014 87 10000 2.6 10 23:20 19.04.2020
4546 Clouds 10 1014 87 10000 2.6 20 22:41 19.04.2020
4547 Clouds 10 1014 87 10000 2.6 20 22:23 19.04.2020
4548 Clouds 11 1014 87 10000 2.6 10 21:58 19.04.2020
4549 Clouds 12 1014 93 10000 1.5 30 21:40 19.04.2020
4550 Clouds 11 1014 93 10000 1.5 30 21:21 19.04.2020
4551 Clear 10 1014 93 10000 2.6 40 20:55 19.04.2020
4552 Clear 10 1015 93 10000 3.6 30 20:37 19.04.2020
4553 Clouds 10 1015 93 10000 2.1 30 20:19 19.04.2020
4554 Clouds 10 1015 87 10000 2.1 30 19:41 19.04.2020
4555 Clouds 11 1015 93 10000 2.6 10 19:23 19.04.2020
4556 Clouds 12 1015 93 10000 2.6 10 18:58 19.04.2020
4557 Clouds 12 1015 87 10000 2.1 20 18:40 19.04.2020
4558 Clouds 12 1015 87 10000 2.1 20 18:40 19.04.2020
4559 Clouds 11 1015 87 10000 2.1 20 18:20 19.04.2020
4560 Clouds 12 1015 93 10000 2.1 10 17:59 19.04.2020
4561 Clouds 13 1016 87 10000 1 360 17:40 19.04.2020
4562 Clouds 13 1016 87 10000 1 360 17:22 19.04.2020
4563 Clouds 13 1016 87 10000 1.72 273 16:58 19.04.2020
4564 Clouds 14 1016 81 10000 1.5 60 16:38 19.04.2020
4565 Clouds 14 1016 81 10000 1.5 60 16:20 19.04.2020
4566 Clouds 14 1016 87 10000 1.5 30 15:43 19.04.2020
4567 Clouds 14 1015 81 10000 2.1 60 15:22 19.04.2020
4568 Clouds 14 1015 81 10000 2.1 60 14:56 19.04.2020
4569 Clouds 15 1015 76 10000 0.5 90 14:37 19.04.2020
4570 Clouds 15 1015 71 10000 0.5 210 14:19 19.04.2020
4571 Clouds 16 1015 67 10000 2.1 220 13:40 19.04.2020
4572 Clouds 16 1015 67 10000 2.1 220 13:21 19.04.2020
4573 Clouds 17 1014 59 10000 4.6 220 12:50 19.04.2020
4574 Clouds 18 1014 59 10000 4.6 220 12:25 19.04.2020
4575 Clouds 18 1014 59 10000 4.6 220 12:25 19.04.2020
4576 Clouds 19 1013 55 10000 6.2 230 11:59 19.04.2020
4577 Clouds 19 1013 52 10000 5.7 240 11:37 19.04.2020
4578 Clouds 20 1013 56 10000 6.7 230 11:19 19.04.2020
4579 Clouds 20 1013 56 10000 6.7 230 10:56 19.04.2020
4580 Clouds 20 1013 56 10000 6.2 230 10:38 19.04.2020
4581 Clouds 20 1013 52 10000 7.7 210 10:19 19.04.2020
4582 Clouds 21 1013 52 10000 8.7 220 09:45 19.04.2020
4583 Clouds 21 1013 52 10000 8.7 220 09:27 19.04.2020
4584 Rain 21 1012 60 10000 7.7 230 08:41 19.04.2020
4585 Rain 22 1012 60 10000 7.7 230 08:23 19.04.2020
4586 Clouds 21 1012 64 10000 8.7 220 07:59 19.04.2020
4587 Clouds 21 1013 64 10000 8.7 240 07:41 19.04.2020
4588 Clouds 21 1013 64 10000 8.7 240 07:22 19.04.2020
4589 Clouds 22 1013 56 10000 9.3 250 06:29 19.04.2020
4590 Clouds 22 1013 49 10000 8.2 250 05:55 19.04.2020
4591 Clouds 22 1013 64 10000 9.3 240 04:43 19.04.2020
4592 Rain 19 1011 88 10000 5.7 250 02:59 19.04.2020
4593 Rain 20 1010 72 10000 9.3 230 02:21 19.04.2020
4594 Rain 20 1010 72 10000 9.3 230 01:38 19.04.2020
4595 Rain 19 1009 93 10000 3.6 280 00:48 19.04.2020
4596 Rain 18 1009 93 10000 3.6 280 00:25 19.04.2020
4597 Rain 18 1009 93 3000 3.6 270 23:48 18.04.2020
4598 Rain 18 1008 88 10000 4.1 10 23:22 18.04.2020
4599 Rain 18 1008 88 10000 4.1 10 22:59 18.04.2020
4600 Clouds 18 1008 88 10000 3.6 360 22:40 18.04.2020
4601 Clouds 18 1008 88 10000 3.6 360 22:21 18.04.2020
4602 Clouds 18 1008 88 10000 4.1 20 21:56 18.04.2020
4603 Clouds 18 1009 88 10000 2.6 20 21:37 18.04.2020
4604 Clouds 18 1009 88 10000 2.6 20 21:37 18.04.2020
4605 Clouds 17 1009 88 10000 2.1 350 21:19 18.04.2020
4606 Clouds 18 1009 88 10000 3.6 360 20:42 18.04.2020
4607 Clouds 18 1009 88 10000 4.1 20 20:22 18.04.2020
4608 Clouds 18 1009 88 10000 4.1 20 19:56 18.04.2020
4609 Clouds 18 1009 88 10000 4.1 20 19:56 18.04.2020
4610 Clouds 18 1010 88 10000 3.6 30 19:37 18.04.2020
4611 Clouds 18 1010 88 10000 1.5 360 19:19 18.04.2020
4612 Clouds 18 1011 88 10000 2.6 350 18:38 18.04.2020
4613 Clouds 18 1011 93 10000 1.5 290 18:19 18.04.2020
4614 Clouds 18 1011 93 10000 1.5 290 18:19 18.04.2020
4615 Clouds 18 1012 88 10000 2.6 310 17:43 18.04.2020
4616 Clouds 18 1012 88 10000 2.6 310 17:21 18.04.2020
4617 Clouds 19 1011 77 10000 2.6 250 16:57 18.04.2020
4618 Clouds 19 1011 77 10000 2.6 250 16:38 18.04.2020
4619 Clouds 19 1012 88 10000 3.6 250 16:19 18.04.2020
4620 Clouds 19 1012 93 10000 2.1 250 15:39 18.04.2020
4621 Clouds 19 1012 93 10000 2.1 250 15:39 18.04.2020
4622 Clouds 18 1012 93 10000 2.1 250 15:21 18.04.2020
4623 Clouds 19 1011 93 10000 1.5 250 14:46 18.04.2020
4624 Clouds 19 1011 93 10000 1.5 250 14:27 18.04.2020
4625 Rain 19 1011 93 10000 2.1 200 13:58 18.04.2020
4626 Rain 19 1011 82 10000 2.1 240 13:40 18.04.2020
4627 Rain 19 1010 88 10000 2.1 220 13:19 18.04.2020
4628 Rain 19 1010 82 10000 3.6 210 12:42 18.04.2020
4629 Rain 19 1010 82 10000 3.6 210 12:42 18.04.2020
4630 Rain 19 1010 82 10000 3.6 210 12:23 18.04.2020
4631 Rain 19 1010 82 10000 3.6 230 11:55 18.04.2020
4632 Rain 19 1010 82 10000 2.6 230 11:36 18.04.2020
4633 Rain 20 1010 77 10000 4.1 230 11:18 18.04.2020
4634 Rain 20 1010 64 10000 5.1 230 10:40 18.04.2020
4635 Rain 20 1010 68 10000 4.6 200 10:19 18.04.2020
4636 Rain 21 1010 68 10000 4.6 200 09:58 18.04.2020
4637 Rain 21 1009 73 10000 4.1 200 09:38 18.04.2020
4638 Rain 21 1009 73 10000 4.1 200 09:20 18.04.2020
4639 Rain 21 1009 73 10000 4.1 200 09:20 18.04.2020
4640 Rain 20 1011 72 10000 2.6 250 08:39 18.04.2020
4641 Rain 21 1010 60 10000 2.6 240 08:21 18.04.2020
4642 Rain 21 1011 56 10000 4.6 210 07:41 18.04.2020
4643 Rain 21 1011 53 10000 3.1 230 07:19 18.04.2020
4644 Rain 21 1011 52 10000 2.1 230 06:30 18.04.2020
4645 Rain 20 1012 52 10000 1.26 239 05:43 18.04.2020
4646 Rain 20 1013 49 10000 0.5 290 04:47 18.04.2020
4647 -273 0 0 0 0 0 04:47 18.04.2020
4648 Rain 20 1013 49 10000 0.5 290 04:28 18.04.2020
4649 Clouds 18 1013 63 10000 1.5 310 02:57 18.04.2020
4650 Clouds 17 1013 77 10000 1.36 259 02:37 18.04.2020
4651 Clouds 15 1012 87 10000 1.36 259 02:19 18.04.2020
4652 Clouds 13 1012 93 10000 1.36 259 01:35 18.04.2020
4653 Clouds 12 1012 93 10000 1.36 259 00:47 18.04.2020
4654 Clouds 12 1012 93 10000 0.6 185 00:23 18.04.2020
4655 Clouds 12 1013 93 10000 1.5 360 23:56 17.04.2020
4656 Clouds 12 1013 87 10000 0.6 185 23:38 17.04.2020
4657 Clouds 12 1013 93 10000 0.6 185 23:18 17.04.2020
4658 Clouds 12 1013 93 10000 0.6 185 22:56 17.04.2020
4659 Clouds 13 1013 93 10000 0.6 185 22:37 17.04.2020
4660 Clouds 13 1013 81 10000 0.6 185 22:18 17.04.2020
4661 Clouds 12 1013 93 10000 1.13 195 21:42 17.04.2020
4662 Clouds 13 1013 87 10000 1.51 164 21:21 17.04.2020
4663 Clouds 12 1013 93 10000 1.31 130 21:21 17.04.2020
4664 Clouds 13 1013 87 10000 1.51 164 20:57 17.04.2020
4665 Clouds 13 1014 87 10000 1 350 20:38 17.04.2020
4666 Clouds 13 1014 87 10000 1.51 164 20:19 17.04.2020
4667 Clouds 13 1014 87 10000 1.51 164 19:57 17.04.2020
4668 Clouds 13 1014 81 10000 1.51 164 19:39 17.04.2020
4669 Clouds 14 1014 82 10000 1.51 164 19:21 17.04.2020
4670 Clouds 14 1015 82 10000 1.51 164 18:44 17.04.2020
4671 Clouds 15 1015 82 10000 2.46 175 18:23 17.04.2020
4672 Clouds 15 1015 82 10000 2.46 175 18:23 17.04.2020
4673 Clouds 15 1015 82 10000 2.1 210 17:55 17.04.2020
4674 Clouds 17 1015 72 10000 2.6 210 17:36 17.04.2020
4675 Clouds 17 1015 67 10000 2.1 190 17:18 17.04.2020
4676 Clouds 17 1015 67 10000 2.1 190 17:18 17.04.2020
4677 Clouds 18 1015 63 10000 2.6 200 16:41 17.04.2020
4678 Clouds 18 1015 63 10000 2.6 200 16:22 17.04.2020
4679 Clouds 19 1016 59 10000 3.1 180 15:41 17.04.2020
4680 Clouds 19 1016 59 10000 3.1 180 15:23 17.04.2020
4681 Clouds 20 1016 56 10000 4.1 210 14:55 17.04.2020
4682 Clouds 20 1016 56 10000 3.6 210 14:37 17.04.2020
4683 Clouds 20 1016 56 10000 4.1 210 14:19 17.04.2020
4684 Clouds 20 1016 56 10000 3.6 210 13:40 17.04.2020
4685 Clouds 21 1016 56 10000 4.1 230 13:20 17.04.2020
4686 Clouds 21 1016 56 10000 4.1 230 12:58 17.04.2020
4687 Clouds 22 1015 49 10000 4.1 230 12:40 17.04.2020
4688 Clouds 22 1015 47 10000 4.1 240 12:21 17.04.2020
4689 Clouds 23 1015 44 10000 4.1 240 11:40 17.04.2020
4690 Clouds 24 1015 41 10000 4.1 240 11:19 17.04.2020
4691 Clouds 26 1015 36 10000 4.6 240 10:44 17.04.2020
4692 Clouds 26 1015 36 10000 4.6 230 10:23 17.04.2020
4693 Clouds 26 1015 36 10000 4.6 230 09:57 17.04.2020
4694 Clouds 26 1015 26 10000 4.6 210 09:39 17.04.2020
4695 Clouds 26 1015 28 10000 3.6 220 09:19 17.04.2020
4696 Clouds 26 1015 28 10000 3.6 220 08:49 17.04.2020
4697 Clouds 27 1015 28 10000 3.6 220 08:28 17.04.2020
4698 Clouds 27 1015 28 10000 3.6 210 07:58 17.04.2020
4699 Clouds 27 1016 30 10000 3.6 200 07:40 17.04.2020
4700 Clouds 27 1016 30 10000 2.6 180 07:19 17.04.2020
4701 Clouds 27 1016 31 10000 2.6 100 06:44 17.04.2020
4702 Clouds 25 1017 33 10000 2.1 90 05:58 17.04.2020
4703 Clouds 20 1019 45 10000 5.7 70 03:27 17.04.2020
4704 Clouds 19 1018 48 10000 4.6 70 02:55 17.04.2020
4705 Clouds 16 1018 51 10000 3.1 60 01:46 17.04.2020
4706 Clouds 16 1018 48 10000 2.6 70 01:22 17.04.2020
4707 Clouds 17 1018 45 10000 4.06 92 00:21 17.04.2020
4708 Clouds 17 1018 45 10000 4.06 92 23:55 16.04.2020
4709 Clouds 17 1017 45 10000 5.1 90 23:37 16.04.2020
4710 Clouds 17 1017 45 10000 7.2 90 23:18 16.04.2020
4711 Clouds 16 1018 45 10000 4.6 80 22:40 16.04.2020
4712 Clouds 16 1018 45 10000 4.6 80 22:22 16.04.2020
4713 Clouds 16 1018 48 10000 3.6 90 21:58 16.04.2020
4714 Clouds 16 1018 48 10000 2.6 70 21:40 16.04.2020
4715 Clouds 16 1018 48 10000 1.5 100 21:19 16.04.2020
4716 Clouds 16 1018 48 10000 2.1 60 20:42 16.04.2020
4717 Clouds 16 1018 48 10000 2.1 60 20:42 16.04.2020
4718 Clouds 15 1019 59 10000 2.1 350 20:22 16.04.2020
4719 Clouds 15 1018 87 10000 2.1 300 19:59 16.04.2020
4720 Clouds 14 1018 87 10000 2.1 300 19:39 16.04.2020
4721 Clouds 15 1019 87 10000 4.1 100 19:19 16.04.2020
4722 Clouds 15 1019 82 10000 3.75 93 18:55 16.04.2020
4723 Clouds 15 1019 82 10000 3.75 93 18:36 16.04.2020
4724 Clouds 15 1019 82 10000 4.1 100 18:18 16.04.2020
4725 Clouds 15 1019 76 10000 3.6 210 17:42 16.04.2020
4726 Clouds 15 1019 76 10000 3.6 210 17:23 16.04.2020
4727 Clouds 16 1020 72 10000 4.1 200 16:55 16.04.2020
4728 Clouds 16 1020 67 10000 4.1 190 16:36 16.04.2020
4729 Clouds 17 1020 67 10000 4.1 100 16:18 16.04.2020
4730 Clouds 17 1020 63 10000 4.6 200 15:40 16.04.2020
4731 Clouds 17 1020 63 10000 5.1 190 15:19 16.04.2020
4732 Clouds 17 1020 63 10000 5.1 190 14:56 16.04.2020
4733 Clouds 18 1020 68 10000 5.7 190 14:37 16.04.2020
4734 Clouds 18 1020 68 10000 5.7 190 14:37 16.04.2020
4735 Clouds 18 1020 63 10000 6.2 190 14:19 16.04.2020
4736 Clouds 18 1020 63 10000 6.2 190 13:42 16.04.2020
4737 Clouds 19 1019 60 10000 4.6 200 13:23 16.04.2020
4738 Clouds 19 1019 60 10000 4.6 200 12:58 16.04.2020
4739 Clouds 19 1019 60 10000 5.1 220 12:40 16.04.2020
4740 Clouds 20 1019 56 10000 5.7 220 12:20 16.04.2020
4741 Clouds 20 1019 56 10000 5.7 220 11:59 16.04.2020
4742 Clouds 21 1019 53 10000 6.7 240 11:41 16.04.2020
4743 Clouds 22 1019 46 10000 7.2 230 11:21 16.04.2020
4744 Clouds 22 1019 46 10000 7.2 230 10:55 16.04.2020
4745 Clouds 23 1018 44 10000 4.6 260 10:37 16.04.2020
4746 Clouds 23 1018 36 10000 3.6 60 10:18 16.04.2020
4747 Clouds 24 1018 33 10000 2.1 60 09:39 16.04.2020
4748 Clouds 25 1018 33 10000 2.1 60 09:21 16.04.2020
4749 Clouds 25 1018 36 10000 2.6 20 08:57 16.04.2020
4750 Clouds 25 1019 38 10000 3.1 170 08:39 16.04.2020
4751 Clouds 25 1019 38 10000 3.1 170 08:21 16.04.2020
4752 Clouds 25 1020 41 10000 3.6 90 07:43 16.04.2020
4753 Clouds 24 1020 41 10000 3.6 100 07:23 16.04.2020
4754 Clouds 23 1021 43 10000 3.6 110 06:42 16.04.2020
4755 Clouds 23 1021 43 10000 4.1 90 06:23 16.04.2020
4756 Clouds 21 1022 49 10000 4.6 70 04:54 16.04.2020
4757 Clouds 18 1023 55 10000 3.1 130 03:29 16.04.2020
4758 Clouds 17 1023 67 10000 0.5 260 02:59 16.04.2020
4759 Clouds 15 1023 87 10000 0.5 300 02:39 16.04.2020
4760 Clouds 13 1023 93 10000 2.6 270 01:40 16.04.2020
4761 Clouds 12 1022 87 10000 2.1 340 00:57 16.04.2020
4762 Clouds 12 1022 87 10000 2.1 340 00:26 16.04.2020
4763 Clouds 12 1022 93 10000 2.1 340 23:55 15.04.2020
4764 Clouds 12 1022 87 10000 2.1 360 23:37 15.04.2020
4765 Clouds 12 1022 93 10000 1.5 10 23:19 15.04.2020
4766 Clouds 13 1022 100 10000 0.5 150 22:39 15.04.2020
4767 Clouds 12 1022 93 10000 0.5 360 22:21 15.04.2020
4768 Clouds 12 1022 93 10000 0.5 360 21:56 15.04.2020
4769 Clouds 13 1022 93 10000 1.5 10 21:38 15.04.2020
4770 Clouds 13 1022 93 10000 2.1 200 21:20 15.04.2020
4771 Clouds 13 1022 93 10000 2.1 200 20:55 15.04.2020
4772 Clouds 13 1022 93 10000 2.1 200 20:55 15.04.2020
4773 Clouds 13 1021 93 10000 2.6 200 20:37 15.04.2020
4774 Clouds 14 1022 87 10000 3.1 180 20:19 15.04.2020
4775 Clouds 14 1021 93 10000 1.5 60 19:41 15.04.2020
4776 Clouds 14 1021 93 10000 2.6 190 19:20 15.04.2020
4777 Clouds 14 1021 93 10000 2.6 190 19:20 15.04.2020
4778 Clouds 15 1021 87 10000 3.6 150 18:42 15.04.2020
4779 Clouds 15 1021 81 10000 2.1 220 18:23 15.04.2020
4780 Clouds 15 1021 81 10000 2.1 220 17:58 15.04.2020
4781 Clouds 15 1021 82 10000 2.6 190 17:39 15.04.2020
4782 Clouds 15 1022 76 10000 2.6 180 17:20 15.04.2020
4783 Clouds 16 1022 76 10000 2.6 180 16:56 15.04.2020
4784 Clouds 16 1022 72 10000 3.6 190 16:37 15.04.2020
4785 Clouds 17 1022 72 10000 3.1 170 16:19 15.04.2020
4786 Clouds 17 1022 72 10000 3.1 170 15:57 15.04.2020
4787 Clouds 17 1022 63 10000 3.6 160 15:38 15.04.2020
4788 Clouds 18 1022 68 10000 4.6 190 15:19 15.04.2020
4789 Clouds 18 1022 68 10000 4.6 190 14:56 15.04.2020
4790 Clouds 18 1022 63 10000 4.1 200 14:38 15.04.2020
4791 Clouds 18 1022 63 10000 4.1 200 14:38 15.04.2020
4792 Clouds 18 1021 59 10000 5.1 200 14:20 15.04.2020
4793 Clouds 19 1021 59 10000 5.1 200 13:56 15.04.2020
4794 Clouds 19 1021 59 10000 6.7 210 13:37 15.04.2020
4795 Clouds 19 1021 59 10000 4.6 220 13:18 15.04.2020
4796 Clouds 20 1021 56 10000 6.7 210 12:42 15.04.2020
4797 Clouds 20 1020 52 10000 6.2 230 12:23 15.04.2020
4798 Clouds 20 1020 52 10000 6.2 230 12:23 15.04.2020
4799 Clouds 21 1020 52 10000 6.2 230 11:59 15.04.2020
4800 Clouds 21 1020 52 10000 6.7 230 11:40 15.04.2020
4801 Clouds 21 1020 52 10000 6.7 230 11:21 15.04.2020
4802 Clouds 22 1020 53 10000 7.7 230 10:40 15.04.2020
4803 Clouds 22 1020 53 10000 7.7 230 10:21 15.04.2020
4804 Clouds 22 1020 56 10000 7.2 230 09:58 15.04.2020
4805 Clouds 23 1020 49 10000 6.2 240 09:40 15.04.2020
4806 Clouds 23 1020 49 10000 6.2 240 09:21 15.04.2020
4807 Clouds 23 1020 44 10000 6.7 230 08:58 15.04.2020
4808 Clouds 24 1020 44 10000 7.7 230 08:39 15.04.2020
4809 Clouds 24 1020 44 10000 6.2 260 08:19 15.04.2020
4810 Clouds 24 1020 44 10000 6.2 260 08:19 15.04.2020
4811 Clouds 24 1020 47 10000 6.7 250 07:51 15.04.2020
4812 Clouds 24 1020 47 10000 6.7 250 07:31 15.04.2020
4813 Clouds 23 1021 56 10000 5.1 220 06:33 15.04.2020
4814 Clouds 22 1021 64 10000 6.2 240 05:50 15.04.2020
4815 Clouds 22 1021 53 10000 5.7 250 04:50 15.04.2020
4816 Clouds 22 1021 53 10000 6.2 250 04:26 15.04.2020
4817 Clouds 20 1021 60 10000 2.6 50 03:26 15.04.2020
4818 Clouds 19 1021 67 10000 7.2 230 02:52 15.04.2020
4819 Clouds 18 1020 82 10000 7.2 230 01:54 15.04.2020
4820 Clouds 17 1020 82 10000 7.2 230 01:25 15.04.2020
4821 Clouds 17 1020 82 10000 2.1 30 00:52 15.04.2020
4822 Clouds 17 1020 82 10000 2.1 30 00:31 15.04.2020
4823 Clouds 17 1020 82 10000 2.1 50 23:57 14.04.2020
4824 Clouds 17 1020 82 10000 3.1 40 23:39 14.04.2020
4825 Clouds 17 1020 82 10000 3.1 40 23:21 14.04.2020
4826 Clouds 17 1019 76 10000 2.1 200 22:58 14.04.2020
4827 Clouds 17 1020 63 10000 2.6 220 22:39 14.04.2020
4828 Clouds 18 1019 59 10000 3.6 230 22:21 14.04.2020
4829 Clouds 18 1019 59 10000 3.6 230 21:57 14.04.2020
4830 Clouds 18 1019 63 10000 4.6 230 21:39 14.04.2020
4831 Clouds 18 1019 72 10000 2.6 220 21:20 14.04.2020
4832 Clouds 18 1019 72 10000 2.6 220 20:58 14.04.2020
4833 Clouds 18 1019 63 10000 2.6 220 20:39 14.04.2020
4834 Clouds 18 1019 63 10000 2.6 220 20:21 14.04.2020
4835 Clouds 18 1019 63 10000 2.6 230 20:21 14.04.2020
4836 Clouds 18 1019 63 10000 2.6 220 19:41 14.04.2020
4837 Clouds 18 1019 63 10000 2.6 220 19:23 14.04.2020
4838 Clouds 18 1019 63 10000 3.1 240 18:59 14.04.2020
4839 Clouds 18 1019 63 10000 3.6 230 18:40 14.04.2020
4840 Clouds 19 1019 59 10000 3.1 260 18:21 14.04.2020
4841 Clouds 19 1019 59 10000 3.1 260 17:58 14.04.2020
4842 Clouds 19 1019 60 10000 4.1 250 17:38 14.04.2020
4843 Clouds 19 1019 60 10000 4.1 250 17:20 14.04.2020
4844 Clouds 19 1019 60 10000 3.6 230 16:56 14.04.2020
4845 Clouds 19 1019 63 10000 3.6 240 16:38 14.04.2020
4846 Clouds 19 1019 63 10000 3.6 230 16:19 14.04.2020
4847 Clouds 19 1019 63 10000 3.6 230 15:55 14.04.2020
4848 Clouds 19 1019 68 10000 3.6 220 15:37 14.04.2020
4849 Clouds 19 1019 68 10000 3.6 240 15:18 14.04.2020
4850 Clouds 19 1019 68 10000 3.6 240 14:55 14.04.2020
4851 Clouds 20 1019 64 10000 4.6 230 14:37 14.04.2020
4852 Clouds 20 1019 64 10000 4.6 230 14:37 14.04.2020
4853 Clouds 20 1018 64 10000 4.6 220 14:19 14.04.2020
4854 Clouds 20 1018 64 10000 4.6 220 14:19 14.04.2020
4855 Clouds 20 1018 64 10000 5.1 230 13:40 14.04.2020
4856 Clouds 20 1018 68 10000 5.1 240 13:22 14.04.2020
4857 Clouds 21 1018 56 10000 5.7 230 12:42 14.04.2020
4858 Clouds 21 1018 56 10000 5.7 230 12:22 14.04.2020
4859 Clouds 21 1018 56 10000 4.6 230 11:57 14.04.2020
4860 Clouds 21 1018 49 10000 6.2 220 11:39 14.04.2020
4861 Clouds 21 1018 49 10000 6.2 220 11:20 14.04.2020
4862 Clouds 21 1018 49 10000 6.2 220 11:20 14.04.2020
4863 Clouds 22 1017 46 10000 6.2 230 10:47 14.04.2020
4864 Clouds 22 1017 46 10000 6.2 230 10:28 14.04.2020
4865 Clouds 23 1017 43 10000 6.7 230 09:58 14.04.2020
4866 Clouds 23 1015 46 0 2.68 329 09:40 14.04.2020
4867 Clouds 24 1017 41 10000 5.7 240 09:22 14.04.2020
4868 Clouds 24 1017 36 10000 7.7 220 08:44 14.04.2020
4869 Clouds 24 1017 36 10000 7.7 220 08:24 14.04.2020
4870 Clouds 25 1017 38 10000 6.7 240 07:56 14.04.2020
4871 Clouds 25 1017 41 10000 5.1 250 07:32 14.04.2020
4872 Clouds 25 1017 44 10000 5.1 260 06:57 14.04.2020
4873 Clouds 25 1018 44 10000 5.1 210 06:33 14.04.2020
4874 Clouds 23 1018 49 0 2.69 208 04:48 14.04.2020
4875 Clouds 19 1019 77 10000 1 250 03:00 14.04.2020
4876 Clouds 15 1018 100 10000 2.6 190 02:18 14.04.2020
4877 Clouds 14 1018 100 10000 2.6 190 01:25 14.04.2020
4878 Clouds 15 1017 93 10000 2.6 210 00:42 14.04.2020
4879 Clouds 14 1017 93 10000 3.1 200 00:19 14.04.2020
4880 Clouds 14 1017 93 10000 3.1 200 23:45 13.04.2020
4881 Clouds 15 1017 93 10000 3.1 200 23:26 13.04.2020
4882 Fog 15 1016 100 10000 2.6 160 22:59 13.04.2020
4883 Clouds 15 1016 93 10000 2.6 210 22:41 13.04.2020
4884 Clouds 15 1016 93 10000 2.6 210 22:22 13.04.2020
4885 Clouds 15 1016 93 10000 1.5 210 21:56 13.04.2020
4886 Clouds 16 1016 93 10000 1.5 180 21:37 13.04.2020
4887 Clouds 16 1016 93 10000 1.5 180 21:37 13.04.2020
4888 Clouds 16 1016 93 10000 1.5 180 21:37 13.04.2020
4889 Clouds 16 1016 93 10000 1.5 180 21:37 13.04.2020
4890 Clouds 15 1017 93 10000 2.25 158 21:19 13.04.2020
4891 Clouds 16 1017 93 10000 2.25 158 20:54 13.04.2020
4892 Clouds 16 1017 93 10000 2.25 158 20:54 13.04.2020
4893 Clouds 16 1017 87 10000 1 50 20:36 13.04.2020
4894 Clouds 16 1017 82 10000 2.6 210 20:18 13.04.2020
4895 Clouds 16 1017 82 10000 2.6 210 20:18 13.04.2020
4896 Clouds 17 1017 88 10000 2.6 200 19:39 13.04.2020
4897 Clouds 17 1017 87 10000 2.6 210 19:20 13.04.2020
4898 Clouds 17 1017 87 10000 2.6 210 18:59 13.04.2020
4899 Clouds 17 1017 87 10000 2.6 190 18:39 13.04.2020
4900 Clouds 18 1017 82 10000 3.6 160 18:20 13.04.2020
4901 Clouds 18 1017 82 10000 3.6 160 17:58 13.04.2020
4902 Clouds 18 1017 82 10000 3.6 160 17:58 13.04.2020
4903 Clouds 18 1017 82 10000 3.6 160 17:58 13.04.2020
4904 Clouds 18 1017 82 10000 4.6 190 17:38 13.04.2020
4905 Clouds 18 1017 82 10000 4.6 190 17:38 13.04.2020
4906 Clouds 18 1017 82 10000 4.6 190 17:19 13.04.2020
4907 Clouds 19 1017 77 10000 5.1 190 16:58 13.04.2020
4908 Clouds 19 1017 77 10000 5.7 190 16:40 13.04.2020
4909 Clouds 19 1017 77 10000 5.7 190 16:20 13.04.2020
4910 Clouds 19 1017 72 10000 5.7 190 15:58 13.04.2020
4911 Clouds 19 1017 72 10000 5.1 210 15:39 13.04.2020
4912 Clouds 20 1017 72 10000 5.1 210 15:21 13.04.2020
4913 Clouds 20 1017 72 10000 3.6 200 14:54 13.04.2020
4914 Clouds 20 1017 72 10000 3.1 210 14:36 13.04.2020
4915 Clouds 20 1017 68 10000 3.6 210 14:18 13.04.2020
4916 Clouds 20 1017 68 10000 3.6 210 13:54 13.04.2020
4917 Clouds 20 1017 68 10000 4.1 220 13:36 13.04.2020
4918 Clouds 21 1017 73 10000 3.1 230 13:18 13.04.2020
4919 Clouds 21 1016 64 10000 5.1 240 12:55 13.04.2020
4920 Clouds 22 1016 60 10000 4.6 240 12:37 13.04.2020
4921 Clouds 22 1016 68 10000 4.6 240 12:18 13.04.2020
4922 Clouds 23 1015 50 10000 6.2 250 11:41 13.04.2020
4923 Clouds 24 1015 47 10000 5.1 260 11:18 13.04.2020
4924 Clouds 24 1015 47 10000 5.1 260 11:18 13.04.2020
4925 Clouds 24 1015 47 10000 5.1 260 10:55 13.04.2020
4926 Clouds 25 1015 44 10000 5.7 260 10:37 13.04.2020
4927 Clouds 25 1015 44 10000 5.7 250 10:19 13.04.2020
4928 Clouds 26 1015 41 10000 4.1 260 09:45 13.04.2020
4929 Clouds 26 1015 41 10000 4.1 260 09:26 13.04.2020
4930 Clouds 26 1015 44 10000 4.1 260 08:49 13.04.2020
4931 Clouds 26 1015 47 10000 3.6 270 08:30 13.04.2020
4932 Clouds 26 1015 41 10000 4.1 290 07:58 13.04.2020
4933 Clouds 26 1015 41 10000 3.6 280 07:38 13.04.2020
4934 Clouds 26 1015 44 10000 3.6 270 07:20 13.04.2020
4935 Clouds 26 1016 47 10000 4.1 260 06:47 13.04.2020
4936 Clouds 25 1016 57 10000 3.6 240 05:56 13.04.2020
4937 Clouds 24 1017 53 10000 3.1 190 05:28 13.04.2020
4938 Clouds 24 1017 57 10000 3.6 210 04:52 13.04.2020
4939 Clouds 24 1017 57 10000 3.6 210 04:22 13.04.2020
4940 Clouds 22 1018 73 10000 1.5 30 03:45 13.04.2020
4941 Clouds 21 1017 82 10000 2.28 215 02:49 13.04.2020
4942 Clouds 17 1016 100 10000 1.5 10 01:49 13.04.2020
4943 Clouds 17 1016 100 10000 1.5 10 01:30 13.04.2020
4944 Clouds 17 1016 93 10000 2.6 20 00:53 13.04.2020
4945 Clouds 17 1016 93 10000 2.6 20 00:31 13.04.2020
4946 Clouds 17 1016 93 10000 2.1 10 23:58 12.04.2020
4947 Clear 18 1015 93 10000 1.5 30 23:40 12.04.2020
4948 Clear 18 1015 93 10000 1.5 30 23:21 12.04.2020
4949 Clear 17 1015 93 10000 2.1 50 22:55 12.04.2020
4950 Clouds 18 1015 93 10000 1.5 50 22:36 12.04.2020
4951 Clouds 18 1015 100 10000 2.1 50 22:18 12.04.2020
4952 Clouds 18 1015 93 10000 2.1 360 21:38 12.04.2020
4953 Clouds 17 1015 93 10000 2.76 223 21:20 12.04.2020
4954 Clouds 17 1015 100 10000 1.5 40 20:43 12.04.2020
4955 Clouds 18 1015 100 10000 1.5 50 20:23 12.04.2020
4956 Clouds 18 1015 100 10000 1.5 50 19:59 12.04.2020
4957 Clouds 18 1016 93 10000 2.76 223 19:40 12.04.2020
4958 Clouds 18 1016 93 10000 2.76 223 19:19 12.04.2020
4959 Clouds 18 1016 93 10000 3.1 210 18:57 12.04.2020
4960 Clouds 18 1016 93 10000 3.1 210 18:57 12.04.2020
4961 Clouds 18 1016 93 10000 3.1 210 18:38 12.04.2020
4962 Clouds 19 1016 93 10000 3.1 220 18:19 12.04.2020
4963 Clouds 19 1016 88 10000 2.6 230 17:42 12.04.2020
4964 Clouds 19 1016 88 10000 2.6 230 17:24 12.04.2020
4965 Clouds 19 1016 88 10000 2.1 230 16:59 12.04.2020
4966 Clouds 19 1016 88 10000 2.6 220 16:40 12.04.2020
4967 Clouds 19 1016 88 10000 2.6 220 16:20 12.04.2020
4968 Clouds 20 1016 77 10000 2.1 220 15:50 12.04.2020
4969 Clouds 20 1016 77 10000 2.6 230 15:31 12.04.2020
4970 Clouds 21 1016 83 10000 3.1 230 14:57 12.04.2020
4971 Clouds 21 1016 78 10000 3.1 220 14:38 12.04.2020
4972 Clouds 22 1016 78 10000 3.1 220 14:19 12.04.2020
4973 Clouds 22 1015 73 10000 4.6 230 13:43 12.04.2020
4974 Clouds 22 1015 73 10000 4.6 230 13:25 12.04.2020
4975 Clouds 22 1015 73 10000 4.6 230 13:25 12.04.2020
4976 Clouds 22 1015 69 10000 4.1 250 12:56 12.04.2020
4977 Clouds 23 1015 73 10000 4.1 260 12:38 12.04.2020
4978 Clouds 23 1015 64 10000 4.6 260 12:19 12.04.2020
4979 Clouds 24 1015 64 10000 4.6 260 11:57 12.04.2020
4980 Clouds 24 1014 61 10000 4.1 260 11:36 12.04.2020
4981 Clouds 25 1014 61 10000 3.6 260 11:18 12.04.2020
4982 Clouds 25 1014 61 10000 3.6 260 11:18 12.04.2020
4983 Clouds 25 1014 61 10000 3.6 260 10:55 12.04.2020
4984 Clouds 25 1014 61 10000 3.6 260 10:55 12.04.2020
4985 Clouds 25 1014 61 10000 5.1 250 10:37 12.04.2020
4986 Clouds 25 1014 69 10000 4.6 260 10:18 12.04.2020
4987 Clouds 25 1014 69 10000 5.1 250 09:40 12.04.2020
4988 Clouds 25 1014 69 10000 5.1 250 09:22 12.04.2020
4989 Clouds 25 1014 73 10000 3.6 270 09:00 12.04.2020
4990 Clouds 25 1014 78 10000 4.1 250 08:41 12.04.2020
4991 Clouds 25 1014 78 10000 4.1 250 08:23 12.04.2020
4992 Drizzle 25 1014 83 6000 5.1 270 07:45 12.04.2020
4993 Clouds 25 1015 78 10000 4.1 260 07:19 12.04.2020
4994 Clouds 26 1015 74 10000 5.1 230 06:35 12.04.2020
4995 Clouds 25 1015 78 10000 3.6 260 05:55 12.04.2020
4996 Clouds 25 1015 78 10000 3.6 260 05:36 12.04.2020
4997 Clouds 25 1015 83 10000 0.5 100 03:44 12.04.2020
4998 Clouds 25 1015 83 10000 0.5 100 03:44 12.04.2020
4999 Clouds 24 1015 83 10000 0.5 100 03:22 12.04.2020
5000 Clouds 23 1015 83 10000 1 150 02:34 12.04.2020
5001 Clouds 23 1014 83 10000 2.1 200 01:48 12.04.2020
5002 Clouds 23 1015 83 10000 3.1 210 00:58 12.04.2020
5003 Clouds 23 1014 83 10000 3.6 220 00:39 12.04.2020
5004 Clouds 22 1014 83 10000 3.1 230 00:19 12.04.2020
5005 Clouds 22 1014 88 10000 2.1 210 23:46 11.04.2020
5006 Clouds 21 1014 88 10000 2.1 210 23:25 11.04.2020
5007 Clouds 22 1013 83 10000 1.5 210 22:42 11.04.2020
5008 Clouds 22 1013 83 10000 1.5 210 22:42 11.04.2020
5009 Clouds 22 1013 88 10000 2.1 10 22:23 11.04.2020
5010 Clouds 22 1013 88 10000 2.1 10 22:23 11.04.2020
5011 Clouds 22 1013 88 10000 2.1 10 21:57 11.04.2020
5012 Clouds 22 1013 83 10000 2.1 220 21:37 11.04.2020
5013 Clouds 22 1013 83 10000 2.1 220 21:37 11.04.2020
5014 Clouds 22 1013 83 10000 2.1 220 21:19 11.04.2020
5015 Clouds 22 1014 83 10000 2.1 10 20:58 11.04.2020
5016 Clouds 22 1014 83 10000 1.5 210 20:39 11.04.2020
5017 Clouds 22 1014 83 10000 2.1 10 20:20 11.04.2020
5018 Clouds 22 1014 83 10000 2.1 10 19:58 11.04.2020
5019 Clouds 23 1014 78 10000 1.5 280 19:39 11.04.2020
5020 Clouds 23 1014 78 10000 2.1 10 19:19 11.04.2020
5021 Clouds 23 1014 78 10000 2.1 10 18:56 11.04.2020
5022 Clouds 23 1014 78 10000 2.1 10 18:56 11.04.2020
5023 Clouds 23 1014 73 10000 3.1 250 18:38 11.04.2020
5024 Clouds 23 1014 73 10000 2.6 230 18:20 11.04.2020
5025 Clouds 23 1014 73 10000 2.6 230 17:58 11.04.2020
5026 Clouds 23 1014 69 10000 2.1 10 17:40 11.04.2020
5027 Clouds 23 1014 73 10000 2.1 10 17:20 11.04.2020
5028 Clouds 24 1014 73 10000 2.1 10 16:55 11.04.2020
5029 Clouds 24 1014 73 10000 3.6 220 16:37 11.04.2020
5030 Clouds 24 1014 78 10000 3.6 240 16:18 11.04.2020
5031 Clouds 24 1014 57 10000 3.6 270 15:37 11.04.2020
5032 Clouds 24 1014 50 10000 3.1 290 15:19 11.04.2020
5033 Clouds 25 1013 53 10000 2.1 20 14:42 11.04.2020
5034 Clouds 25 1013 53 10000 2.1 20 14:24 11.04.2020
5035 Clouds 25 1013 57 10000 3.1 30 13:59 11.04.2020
5036 Clouds 26 1013 53 10000 1.25 165 13:39 11.04.2020
5037 Clouds 26 1013 50 10000 2.6 270 13:19 11.04.2020
5038 Clouds 26 1013 47 10000 2.6 280 12:41 11.04.2020
5039 Clouds 26 1013 47 10000 2.6 280 12:41 11.04.2020
5040 Clouds 27 1013 42 10000 3.6 270 12:19 11.04.2020
5041 Clouds 27 1013 42 10000 3.6 270 11:56 11.04.2020
5042 Clouds 28 1013 35 10000 3.1 270 11:38 11.04.2020
5043 Clouds 29 1013 25 10000 2.6 250 11:19 11.04.2020
5044 Clouds 31 1013 22 10000 5.1 220 10:43 11.04.2020
5045 Clouds 32 1013 21 10000 6.7 260 10:22 11.04.2020
5046 Clouds 32 1013 21 10000 6.7 260 09:59 11.04.2020
5047 Clouds 33 1012 15 10000 8.2 260 09:39 11.04.2020
5048 Clouds 33 1012 15 10000 8.2 260 09:39 11.04.2020
5049 Clouds 34 1012 15 10000 8.2 260 09:21 11.04.2020
5050 Clouds 38 1012 10 10000 5.1 240 08:47 11.04.2020
5051 Clouds 38 1012 10 10000 5.1 240 08:28 11.04.2020
5052 Clouds 39 1012 12 10000 3.1 330 07:52 11.04.2020
5053 Clouds 38 1013 11 10000 2.1 300 07:34 11.04.2020
5054 Clouds 38 1014 17 10000 4.6 20 06:50 11.04.2020
5055 Clouds 36 1014 19 10000 6.2 250 06:19 11.04.2020
5056 Clouds 36 1014 19 10000 6.2 250 05:55 11.04.2020
5057 Clouds 28 1015 50 10000 6.7 70 03:41 11.04.2020
5058 Clouds 25 1015 60 10000 8.2 70 02:24 11.04.2020
5059 Clouds 22 1015 64 10000 6.7 60 01:24 11.04.2020
5060 Clouds 22 1015 64 10000 6.7 80 00:44 11.04.2020
5061 Clear 23 1015 60 10000 5.1 70 00:20 11.04.2020
5062 Clear 23 1015 60 10000 5.1 70 00:20 11.04.2020
5063 Clear 23 1015 60 10000 5.1 70 23:57 10.04.2020
5064 Clear 23 1015 60 10000 6.2 70 23:38 10.04.2020
5065 Clear 24 1015 60 10000 6.2 70 23:19 10.04.2020
5066 Clear 24 1015 53 10000 7.7 70 22:43 10.04.2020
5067 Clear 24 1015 53 10000 7.7 70 22:22 10.04.2020
5068 Clear 25 1015 47 10000 8.2 90 21:58 10.04.2020
5069 Clear 25 1015 44 10000 8.2 80 21:40 10.04.2020
5070 Clear 25 1015 44 10000 8.7 80 21:20 10.04.2020
5071 Clear 25 1015 42 10000 7.7 80 20:43 10.04.2020
5072 Clear 26 1015 42 10000 7.7 80 20:24 10.04.2020
5073 Clear 26 1015 42 10000 7.7 80 19:58 10.04.2020
5074 Clear 26 1015 39 10000 7.7 90 19:40 10.04.2020
5075 Clear 26 1015 39 10000 5.7 90 19:20 10.04.2020
5076 Clear 25 1015 39 10000 5.7 90 18:58 10.04.2020
5077 Clear 26 1015 42 10000 5.1 90 18:39 10.04.2020
5078 Clear 25 1015 44 10000 2.6 20 18:21 10.04.2020
5079 Clear 24 1015 44 10000 2.6 20 17:58 10.04.2020
5080 Clear 24 1016 56 10000 2.1 330 17:39 10.04.2020
5081 Clear 23 1016 56 10000 1 360 17:20 10.04.2020
5082 Clear 23 1016 56 10000 1 360 16:56 10.04.2020
5083 Clear 23 1016 56 10000 1 30 16:38 10.04.2020
5084 Clear 24 1016 56 10000 1 30 16:20 10.04.2020
5085 Clear 24 1016 53 10000 2.1 20 15:56 10.04.2020
5086 Clear 24 1016 53 10000 2.6 50 15:37 10.04.2020
5087 Clouds 25 1016 53 10000 2.6 60 15:18 10.04.2020
5088 Clouds 25 1016 53 10000 2.6 60 14:56 10.04.2020
5089 Clouds 25 1016 50 10000 2.1 180 14:38 10.04.2020
5090 Clouds 26 1015 45 10000 2.6 220 14:18 10.04.2020
5091 Clouds 26 1015 45 10000 2.6 220 14:18 10.04.2020
5092 Clouds 27 1015 45 10000 3.6 260 13:43 10.04.2020
5093 Clouds 27 1015 42 10000 1 270 13:21 10.04.2020
5094 Clouds 29 1015 33 10000 2.1 260 12:43 10.04.2020
5095 Clouds 30 1015 26 10000 2.6 250 12:23 10.04.2020
5096 Clouds 32 1015 26 10000 2.6 250 11:56 10.04.2020
5097 Clouds 33 1015 21 10000 2.6 250 11:38 10.04.2020
5098 Clouds 33 1015 21 10000 2.6 250 11:20 10.04.2020
5099 Clouds 34 1015 21 10000 3.6 260 10:44 10.04.2020
5100 Clouds 34 1015 21 10000 3.6 260 10:23 10.04.2020
5101 Clouds 35 1014 21 10000 3.1 260 09:57 10.04.2020
5102 Clouds 35 1014 21 10000 4.6 250 09:38 10.04.2020
5103 Clouds 35 1014 21 10000 4.6 250 09:18 10.04.2020
5104 Clouds 35 1014 21 10000 5.1 240 08:42 10.04.2020
5105 Clouds 35 1014 21 10000 5.1 240 08:23 10.04.2020
5106 Clouds 35 1014 26 10000 4.1 270 07:45 10.04.2020
5107 Clouds 35 1015 26 10000 3.1 250 07:24 10.04.2020
5108 Clouds 35 1015 31 10000 1 280 06:49 10.04.2020
5109 Clouds 32 1015 31 10000 1 280 06:28 10.04.2020
5110 Clouds 33 1015 35 10000 2.6 230 05:40 10.04.2020
5111 Clouds 32 1016 40 10000 2.6 260 04:58 10.04.2020
5112 Clouds 29 1016 54 10000 3.6 80 03:49 10.04.2020
5113 Clouds 29 1016 54 10000 3.6 80 03:30 10.04.2020
5114 Clouds 24 1016 61 10000 4.6 80 02:48 10.04.2020
5115 Clouds 24 1016 61 10000 4.6 80 02:28 10.04.2020
5116 Clouds 22 1016 69 10000 5.7 70 01:30 10.04.2020
5117 Clouds 22 1015 73 10000 4.1 70 00:50 10.04.2020
5118 Clouds 23 1015 73 10000 4.1 70 00:23 10.04.2020
5119 Clouds 22 1015 69 10000 3.6 70 23:45 09.04.2020
5120 Clouds 23 1015 69 10000 3.6 70 23:26 09.04.2020
5121 Clouds 23 1015 65 10000 2.6 90 23:00 09.04.2020
5122 Clouds 23 1015 65 10000 7.7 80 22:41 09.04.2020
5123 Clouds 24 1015 69 10000 7.7 90 22:22 09.04.2020
5124 Clouds 23 1015 69 10000 3.6 90 21:45 09.04.2020
5125 Clear 24 1015 69 10000 3.6 90 21:26 09.04.2020
5126 Clear 23 1016 69 10000 4.1 100 20:57 09.04.2020
5127 Clear 22 1016 78 10000 4.11 106 20:38 09.04.2020
5128 Clear 22 1016 83 10000 1.5 350 20:19 09.04.2020
5129 Clear 22 1016 88 10000 0.5 350 19:41 09.04.2020
5130 Clear 22 1016 83 10000 1.5 270 19:23 09.04.2020
5131 Clear 22 1016 83 10000 1.5 270 18:58 09.04.2020
5132 Clear 22 1016 83 10000 1.5 50 18:40 09.04.2020
5133 Clear 22 1016 73 10000 3.6 110 18:18 09.04.2020
5134 Clear 22 1016 73 10000 3.6 110 18:18 09.04.2020
5135 Clear 23 1017 78 10000 4.1 190 17:39 09.04.2020
5136 Clear 23 1017 73 10000 3.6 110 17:21 09.04.2020
5137 Clear 23 1017 83 10000 3.1 190 16:41 09.04.2020
5138 Clear 23 1017 69 10000 3.6 110 16:20 09.04.2020
5139 Clear 23 1017 69 10000 3.6 110 15:57 09.04.2020
5140 Clear 23 1016 69 10000 3.6 210 15:39 09.04.2020
5141 Clouds 24 1016 69 10000 3.6 210 15:20 09.04.2020
5142 Clouds 24 1016 65 10000 3.6 110 14:56 09.04.2020
5143 Clouds 24 1016 65 10000 3.6 110 14:56 09.04.2020
5144 Clouds 24 1016 69 10000 3.6 210 14:38 09.04.2020
5145 Clear 24 1015 54 10000 3.6 110 14:20 09.04.2020
5146 Clear 24 1015 54 10000 3.6 110 14:20 09.04.2020
5147 Clear 24 1015 54 10000 3.6 110 14:20 09.04.2020
5148 Clear 25 1015 50 10000 3.6 110 13:42 09.04.2020
5149 Clear 25 1015 44 10000 4.6 210 13:24 09.04.2020
5150 Clear 26 1014 39 10000 5.7 210 12:55 09.04.2020
5151 Clear 26 1014 39 10000 5.7 210 12:36 09.04.2020
5152 Clear 27 1014 39 10000 6.2 220 12:18 09.04.2020
5153 Clear 28 1014 40 10000 5.1 230 11:43 09.04.2020
5154 Clear 29 1014 40 10000 5.1 230 11:20 09.04.2020
5155 Clear 29 1014 40 10000 5.1 230 11:20 09.04.2020
5156 Clear 30 1013 37 10000 5.7 220 10:59 09.04.2020
5157 Clear 30 1014 33 10000 5.7 230 10:41 09.04.2020
5158 Clear 30 1014 33 10000 5.7 230 10:21 09.04.2020
5159 Clear 31 1013 38 10000 6.2 270 09:57 09.04.2020
5160 Clear 32 1013 26 10000 5.1 230 09:38 09.04.2020
5161 Clear 32 1013 26 10000 5.1 230 09:20 09.04.2020
5162 Clear 34 1013 28 10000 5.7 260 08:44 09.04.2020
5163 Clear 33 1013 28 10000 5.7 260 08:23 09.04.2020
5164 Clear 34 1013 21 10000 2.6 260 07:57 09.04.2020
5165 Clear 34 1013 21 10000 2.6 260 07:28 09.04.2020
5166 Clear 33 1014 26 10000 3.1 290 06:57 09.04.2020
5167 Clear 31 1014 26 10000 2.6 60 06:25 09.04.2020
5168 Clear 32 1015 33 10000 2.6 310 05:43 09.04.2020
5169 Clear 28 1015 39 10000 2.1 360 03:55 09.04.2020
5170 Clear 22 1015 53 10000 2.1 10 02:30 09.04.2020
5171 Clear 17 1015 77 10000 1.5 80 01:41 09.04.2020
5172 Clear 17 1015 77 10000 1.5 80 01:41 09.04.2020
5173 Clear 16 1015 77 10000 1.7 63 01:23 09.04.2020
5174 Clear 16 1015 77 10000 1.7 63 00:43 09.04.2020
5175 Clear 16 1015 77 10000 1.34 46 00:20 09.04.2020
5176 Clear 16 1015 77 10000 1.34 46 23:58 08.04.2020
5177 Clear 16 1015 77 10000 1 40 23:40 08.04.2020
5178 Clear 16 1015 77 10000 1 40 23:40 08.04.2020
5179 Clear 16 1014 77 10000 2.6 40 23:21 08.04.2020
5180 Clear 16 1014 77 10000 2.6 40 22:43 08.04.2020
5181 Clear 16 1014 72 10000 1.5 40 22:24 08.04.2020
5182 Clear 16 1014 72 10000 1.5 40 22:24 08.04.2020
5183 Clear 17 1014 67 10000 2.1 10 21:56 08.04.2020
5184 Clear 17 1014 67 10000 2.1 10 21:38 08.04.2020
5185 Clear 17 1014 72 10000 3.6 20 21:19 08.04.2020
5186 Clear 17 1014 72 10000 3.6 20 20:57 08.04.2020
5187 Clear 17 1014 72 10000 2.6 350 20:38 08.04.2020
5188 Clear 18 1014 72 10000 2.6 350 20:20 08.04.2020
5189 Clear 18 1014 68 10000 3.1 30 19:42 08.04.2020
5190 Clear 18 1014 68 10000 2.6 40 19:22 08.04.2020
5191 Clear 18 1014 72 10000 2.6 40 18:59 08.04.2020
5192 Clear 18 1014 72 10000 2.6 40 18:40 08.04.2020
5193 Clear 19 1014 72 10000 2.1 20 18:22 08.04.2020
5194 Clear 20 1014 88 10000 0.56 66 17:44 08.04.2020
5195 Clear 19 1014 77 10000 2.1 20 17:22 08.04.2020
5196 Clear 19 1014 77 10000 2.1 20 17:22 08.04.2020
5197 Clear 19 1014 77 10000 2.1 20 16:59 08.04.2020
5198 Clear 20 1014 72 10000 1 40 16:41 08.04.2020
5199 Clear 20 1014 77 10000 3.6 40 16:22 08.04.2020
5200 Clear 21 1014 68 10000 2.6 250 15:40 08.04.2020
5201 Clear 21 1014 68 10000 2.6 250 15:21 08.04.2020
5202 Clear 21 1013 68 10000 3.1 270 14:59 08.04.2020
5203 Clear 22 1013 68 10000 3.1 270 14:41 08.04.2020
5204 Clear 22 1013 68 10000 3.1 270 14:22 08.04.2020
5205 Clear 22 1013 60 10000 2.1 260 14:22 08.04.2020
5206 Clear 23 1013 53 10000 2.6 270 13:45 08.04.2020
5207 Clear 23 1013 50 10000 3.1 250 13:22 08.04.2020
5208 Clear 24 1013 50 10000 3.1 250 12:58 08.04.2020
5209 Clear 24 1012 47 10000 4.1 260 12:40 08.04.2020
5210 Clear 25 1012 34 10000 4.6 250 12:18 08.04.2020
5211 Clear 26 1012 44 10000 6.2 230 11:42 08.04.2020
5212 Clear 27 1011 30 10000 5.7 240 11:23 08.04.2020
5213 Clear 28 1011 35 10000 4.6 240 10:59 08.04.2020
5214 Clear 28 1011 35 10000 4.6 240 10:40 08.04.2020
5215 Clear 29 1011 35 10000 5.1 270 10:21 08.04.2020
5216 Clear 30 1011 35 10000 5.1 270 09:59 08.04.2020
5217 Clear 30 1011 35 10000 5.1 270 09:59 08.04.2020
5218 Clear 30 1011 31 10000 5.7 290 09:41 08.04.2020
5219 Clear 31 1010 31 10000 5.7 290 09:19 08.04.2020
5220 Clear 31 1010 31 10000 5.7 290 08:57 08.04.2020
5221 Clear 32 1011 35 10000 6.2 290 08:38 08.04.2020
5222 Clear 32 1011 33 10000 5.7 280 08:20 08.04.2020
5223 Clear 31 1011 33 10000 4.6 280 07:42 08.04.2020
5224 Clear 32 1011 31 10000 5.7 270 07:21 08.04.2020
5225 Clear 31 1011 26 10000 7.2 300 06:28 08.04.2020
5226 Clear 31 1012 27 10000 8.7 10 04:54 08.04.2020
5227 Clouds 26 1012 32 10000 5.7 20 02:50 08.04.2020
5228 Clouds 24 1012 36 10000 4.1 20 02:21 08.04.2020
5229 Clouds 23 1012 38 10000 2.6 10 01:56 08.04.2020
5230 Clouds 22 1011 38 10000 3.6 20 01:27 08.04.2020
5231 Clouds 23 1011 36 10000 4.1 40 00:45 08.04.2020
5232 Clouds 23 1011 36 10000 4.1 40 00:25 08.04.2020
5233 Clouds 22 1010 33 10000 5.1 40 23:41 07.04.2020
5234 Clouds 22 1010 33 10000 5.1 40 23:22 07.04.2020
5235 Clouds 22 1010 38 10000 4.1 40 22:58 07.04.2020
5236 Clouds 20 1010 72 10000 1.5 350 22:40 07.04.2020
5237 Clouds 20 1010 72 10000 1.5 350 22:21 07.04.2020
5238 Clouds 20 1010 82 10000 4.56 42 21:58 07.04.2020
5239 Clouds 19 1010 82 10000 2.53 45 21:40 07.04.2020
5240 Clouds 19 1010 82 10000 2.53 45 21:20 07.04.2020
5241 Clouds 17 1011 87 10000 2.1 320 20:58 07.04.2020
5242 Clouds 17 1011 87 10000 2.1 320 20:39 07.04.2020
5243 Clouds 17 1011 87 10000 2.1 320 20:20 07.04.2020
5244 Clouds 17 1011 87 10000 2.1 330 19:57 07.04.2020
5245 Clouds 18 1011 87 10000 1.5 360 19:37 07.04.2020
5246 Clouds 18 1011 87 10000 1.5 360 19:18 07.04.2020
5247 Clouds 17 1010 87 10000 2.1 70 18:56 07.04.2020
5248 Clouds 18 1011 82 10000 1 40 18:38 07.04.2020
5249 Clouds 18 1011 82 10000 1.5 10 18:19 07.04.2020
5250 Clouds 18 1011 82 10000 1.38 73 17:44 07.04.2020
5251 Clouds 19 1011 82 10000 1.38 73 17:20 07.04.2020
5252 Clouds 20 1011 72 10000 2.1 10 16:46 07.04.2020
5253 Clouds 20 1011 72 10000 2.1 10 16:27 07.04.2020
5254 Clouds 21 1011 77 10000 2.1 50 15:56 07.04.2020
5255 Clouds 21 1011 73 10000 2.1 200 15:38 07.04.2020
5256 Clouds 21 1011 73 10000 2.1 200 15:19 07.04.2020
5257 Clouds 22 1011 68 10000 2.1 250 14:39 07.04.2020
5258 Clouds 22 1011 68 10000 2.1 250 14:21 07.04.2020
5259 Clouds 23 1011 60 10000 2.6 230 13:54 07.04.2020
5260 Clouds 23 1011 60 10000 3.1 210 13:36 07.04.2020
5261 Clouds 24 1010 57 10000 3.1 220 13:18 07.04.2020
5262 Clouds 24 1010 57 10000 3.1 270 12:40 07.04.2020
5263 Clouds 25 1010 57 10000 3.6 260 12:22 07.04.2020
5264 Clouds 25 1010 57 10000 3.6 260 11:59 07.04.2020
5265 Clouds 26 1009 57 10000 4.1 280 11:41 07.04.2020
5266 Clouds 26 1009 57 10000 4.1 280 11:21 07.04.2020
5267 Clouds 29 1009 45 10000 6.2 220 10:57 07.04.2020
5268 Clouds 30 1009 22 10000 5.7 320 10:37 07.04.2020
5269 Clouds 33 1008 21 10000 7.7 40 10:18 07.04.2020
5270 Clouds 32 1009 21 10000 4.1 70 09:44 07.04.2020
5271 Clouds 32 1009 23 10000 5.7 40 09:18 07.04.2020
5272 Clouds 34 1009 21 10000 7.7 30 08:42 07.04.2020
5273 Clouds 34 1009 21 10000 7.7 30 08:24 07.04.2020
5274 Clouds 33 1009 23 10000 7.2 30 07:58 07.04.2020
5275 Clouds 33 1010 24 10000 6.7 40 07:40 07.04.2020
5276 Clouds 33 1010 25 10000 5.7 70 07:21 07.04.2020
5277 Clouds 32 1011 27 10000 6.2 70 06:48 07.04.2020
5278 Clear 30 1012 29 10000 7.7 80 06:20 07.04.2020
5279 Clear 31 1012 30 10000 8.2 40 05:32 07.04.2020
5280 Clear 29 1013 32 10000 6.7 60 04:35 07.04.2020
5281 Clouds 26 1013 36 10000 7.7 70 03:24 07.04.2020
5282 Clouds 24 1013 43 10000 7.7 60 02:48 07.04.2020
5283 Clouds 22 1013 46 10000 6.7 60 01:47 07.04.2020
5284 Clouds 21 1013 45 10000 8.7 80 01:23 07.04.2020
5285 Clear 21 1013 45 10000 7.7 80 00:27 07.04.2020
5286 Clear 21 1013 45 10000 8.2 60 23:44 06.04.2020
5287 Clear 21 1013 45 10000 8.2 60 23:44 06.04.2020
5288 Clear 21 1013 45 10000 8.2 60 23:23 06.04.2020
5289 Clear 21 1012 43 10000 8.7 70 22:56 06.04.2020
5290 Clear 21 1012 43 10000 8.2 60 22:37 06.04.2020
5291 Clear 22 1012 37 10000 8.2 60 22:19 06.04.2020
5292 Clear 22 1012 37 10000 8.2 60 21:56 06.04.2020
5293 Clear 22 1012 37 10000 9.8 90 21:37 06.04.2020
5294 Clear 22 1012 37 10000 8.2 60 21:18 06.04.2020
5295 Clear 22 1012 37 10000 10.3 90 20:42 06.04.2020
5296 Clear 23 1012 37 10000 10.3 90 20:23 06.04.2020
5297 Clear 23 1012 33 10000 8.2 50 20:23 06.04.2020
5298 Clear 23 1012 33 10000 8.2 50 19:58 06.04.2020
5299 Clear 23 1012 33 10000 8.2 50 19:39 06.04.2020
5300 Clear 23 1011 31 10000 11.3 90 19:20 06.04.2020
5301 Clear 24 1011 33 10000 9.8 90 18:54 06.04.2020
5302 Clear 24 1011 33 10000 9.8 90 18:36 06.04.2020
5303 Clear 24 1011 33 10000 11.8 100 18:18 06.04.2020
5304 Clear 25 1011 29 10000 10.8 100 17:41 06.04.2020
5305 Clear 25 1011 29 10000 11.3 100 17:19 06.04.2020
5306 Clear 25 1011 26 10000 11.3 100 16:49 06.04.2020
5307 Clear 25 1011 26 10000 11.3 100 16:49 06.04.2020
5308 Clear 26 1011 26 10000 11.3 100 16:31 06.04.2020
5309 Clear 26 1011 26 10000 9.8 100 15:40 06.04.2020
5310 Clear 26 1011 26 10000 9.8 100 15:40 06.04.2020
5311 Clear 27 1011 23 10000 9.3 90 13:45 06.04.2020
5312 Clear 27 1011 23 10000 9.3 90 13:23 06.04.2020
5313 Clear 28 1010 23 10000 9.3 90 12:50 06.04.2020
5314 Clear 28 1010 23 10000 9.3 90 12:50 06.04.2020
5315 Clear 29 1010 21 10000 5.1 90 12:21 06.04.2020
5316 Clouds 29 1010 21 10000 5.1 90 12:21 06.04.2020
5317 Clouds 30 1010 20 10000 7.2 80 11:54 06.04.2020
5318 Clouds 30 1010 20 10000 7.2 80 11:54 06.04.2020
5319 Clouds 30 1010 20 10000 7.2 80 11:54 06.04.2020
5320 Clouds 30 1010 20 10000 7.2 80 11:54 06.04.2020
5321 Clouds 30 1010 20 10000 7.2 80 11:54 06.04.2020
5322 Clouds 31 1010 19 10000 6.7 80 11:28 06.04.2020
5323 Clouds 31 1010 19 10000 6.7 80 11:28 06.04.2020
5324 Clouds 31 1010 19 10000 6.7 80 11:28 06.04.2020
5325 Clouds 31 1010 19 10000 6.7 80 11:28 06.04.2020
5326 Clouds 31 1010 18 10000 8.7 90 10:49 06.04.2020
5327 Clouds 31 1010 18 10000 8.7 90 10:49 06.04.2020
5328 Clouds 31 1010 18 10000 8.7 90 10:49 06.04.2020
5329 Clouds 31 1010 18 10000 8.7 90 10:49 06.04.2020
5330 Clouds 31 1010 18 10000 8.7 90 10:49 06.04.2020
5331 Clouds 31 1010 18 10000 9.8 100 10:21 06.04.2020
5332 Clouds 31 1010 19 10000 8.2 110 09:43 06.04.2020
5333 Clouds 31 1010 19 10000 8.2 110 09:42 06.04.2020
5334 Clouds 31 1010 19 10000 8.2 110 09:42 06.04.2020
5335 Clouds 32 1010 17 10000 9.3 80 09:20 06.04.2020
5336 Clear 31 1010 19 10000 8.7 80 08:51 06.04.2020
5337 Clear 31 1010 19 10000 8.2 80 08:30 06.04.2020
5338 Clear 30 1011 22 10000 7.7 90 07:24 06.04.2020
5339 Clear 30 1013 23 10000 8.2 90 06:34 06.04.2020
5340 Clear 28 1013 23 10000 8.7 90 06:01 06.04.2020
5341 Clear 25 1014 31 10000 9.8 90 04:18 06.04.2020
5342 Clouds 22 1014 40 10000 7.2 60 02:56 06.04.2020
5343 Clouds 21 1014 42 10000 7.7 80 01:57 06.04.2020
5344 Clouds 21 1014 42 10000 7.7 80 01:57 06.04.2020
5345 Clouds 20 1013 42 10000 9.3 90 00:59 06.04.2020
5346 Clouds 20 1013 42 10000 9.3 90 00:29 06.04.2020
5347 Clouds 20 1013 42 10000 9.3 90 00:29 06.04.2020
5348 Clouds 20 1014 45 10000 9.8 100 23:59 05.04.2020
5349 Clouds 20 1013 45 10000 8.7 90 23:40 05.04.2020
5350 Clouds 20 1013 45 10000 8.7 90 23:20 05.04.2020
5351 Clouds 20 1013 45 10000 8.7 90 23:20 05.04.2020
5352 Clouds 20 1013 45 10000 8.7 90 23:20 05.04.2020
5353 Clouds 20 1013 45 10000 8.7 90 22:54 05.04.2020
5354 Clouds 20 1013 45 10000 8.7 90 22:36 05.04.2020
5355 Clouds 20 1013 45 10000 8.7 90 22:18 05.04.2020
5356 Clouds 20 1013 45 10000 7.7 70 21:43 05.04.2020
5357 Clouds 20 1013 45 10000 7.7 70 21:43 05.04.2020
5358 Clouds 20 1013 45 10000 7.7 70 21:43 05.04.2020
5359 Clouds 21 1014 43 10000 7.7 70 21:23 05.04.2020
5360 Clouds 21 1014 45 10000 6.2 90 20:24 05.04.2020
5361 Clouds 21 1014 46 10000 8.2 90 19:43 05.04.2020
5362 Clouds 21 1013 43 10000 7.7 90 19:24 05.04.2020
5363 Clouds 21 1014 43 10000 8.2 90 18:48 05.04.2020
5364 Clear 21 1014 43 10000 8.2 90 18:18 05.04.2020
5365 Clear 21 1014 43 10000 8.7 80 17:46 05.04.2020
5366 Clear 21 1014 43 10000 8.7 80 17:46 05.04.2020
5367 Clear 21 1014 43 10000 8.7 80 17:46 05.04.2020
5368 Clear 21 1014 43 10000 8.7 80 17:46 05.04.2020
5369 Clear 21 1014 43 10000 8.7 80 17:22 05.04.2020
5370 Clear 21 1014 43 10000 8.7 80 16:47 05.04.2020
5371 Clear 21 1015 40 10000 8.7 70 16:19 05.04.2020
5372 Clear 21 1015 40 10000 8.2 70 15:45 05.04.2020
5373 Clear 21 1015 40 10000 8.7 80 15:25 05.04.2020
5374 Clear 21 1015 40 10000 8.7 80 15:25 05.04.2020
5375 Clouds 22 1015 37 10000 9.3 80 14:48 05.04.2020
5376 Clouds 22 1015 37 10000 9.3 80 14:48 05.04.2020
5377 Clouds 22 1015 37 10000 9.3 80 14:48 05.04.2020
5378 Clouds 22 1015 37 10000 9.3 80 14:48 05.04.2020
5379 Clouds 22 1015 37 10000 9.3 80 14:48 05.04.2020
5380 Clouds 22 1014 38 10000 8.7 80 13:59 05.04.2020
5381 Clouds 22 1014 38 10000 8.7 90 13:40 05.04.2020
5382 Clouds 22 1014 38 10000 8.7 90 13:40 05.04.2020
5383 Clouds 22 1014 38 10000 8.7 90 13:40 05.04.2020
5384 Clouds 22 1014 38 10000 8.7 90 13:40 05.04.2020
5385 Clouds 22 1014 38 10000 8.7 90 13:40 05.04.2020
5386 Clouds 25 1013 31 10000 7.7 100 12:00 05.04.2020
5387 Clouds 25 1013 31 10000 7.7 100 12:00 05.04.2020
5388 -273 0 0 0 0 0 12:00 05.04.2020
5389 Clouds 25 1013 29 10000 7.7 80 11:39 05.04.2020
5390 Clouds 25 1013 29 10000 7.7 80 11:19 05.04.2020
5391 Clouds 26 1013 31 10000 6.7 110 10:47 05.04.2020
5392 Clouds 26 1013 31 10000 6.7 110 10:47 05.04.2020
5393 Clouds 26 1013 34 10000 6.7 110 10:22 05.04.2020
5394 Clouds 25 1013 31 10000 7.7 90 09:53 05.04.2020
5395 Clouds 25 1013 36 10000 7.7 90 09:25 05.04.2020
5396 Clouds 25 1013 36 10000 7.7 90 09:25 05.04.2020
5397 Clouds 25 1013 36 10000 7.7 90 09:25 05.04.2020
5398 Clouds 25 1013 36 10000 7.7 90 09:25 05.04.2020
5399 Clouds 25 1013 36 10000 7.7 90 09:25 05.04.2020
5400 Clouds 25 1014 41 10000 5.7 100 08:18 05.04.2020
5401 Clouds 22 1016 52 10000 4.6 110 05:37 05.04.2020
5402 Clouds 22 1016 52 10000 4.6 110 05:37 05.04.2020
5403 Clouds 22 1016 52 10000 4.6 110 05:37 05.04.2020
5404 Clouds 22 1016 52 10000 4.6 110 05:37 05.04.2020
5405 Clouds 22 1016 52 10000 4.6 110 05:37 05.04.2020
5406 Clouds 21 1016 56 10000 7.2 90 04:29 05.04.2020
5407 Clouds 21 1016 56 10000 7.2 90 04:29 05.04.2020
5408 Clouds 19 1017 55 10000 4.6 70 03:24 05.04.2020
5409 Clouds 17 1017 63 10000 4.1 90 01:57 05.04.2020
5410 Rain 16 1017 67 10000 4.6 100 01:39 05.04.2020
5411 Rain 17 1017 67 10000 4.1 80 00:52 05.04.2020
5412 Rain 16 1017 82 10000 3.6 130 00:22 05.04.2020
5413 Rain 18 1017 59 10000 4.6 50 23:58 04.04.2020
5414 Rain 17 1017 59 10000 4.6 50 23:58 04.04.2020
5415 Rain 18 1016 45 10000 4.6 50 23:38 04.04.2020
5416 Rain 18 1016 45 10000 4.6 50 23:20 04.04.2020
5417 Rain 19 1015 45 10000 7.7 90 22:56 04.04.2020
5418 Rain 19 1015 45 10000 5.1 50 22:38 04.04.2020
5419 Rain 19 1015 45 10000 5.1 50 22:19 04.04.2020
5420 Clouds 20 1015 40 10000 8.7 90 21:55 04.04.2020
5421 Clouds 20 1015 40 10000 8.7 90 21:37 04.04.2020
5422 Clouds 20 1015 40 10000 8.7 90 21:18 04.04.2020
5423 Rain 20 1015 40 10000 9.3 90 20:43 04.04.2020
5424 Clouds 20 1016 40 10000 8.7 90 20:23 04.04.2020
5425 Clouds 20 1016 40 10000 8.7 90 19:59 04.04.2020
5426 Clouds 20 1016 42 10000 7.7 90 19:39 04.04.2020
5427 Clouds 20 1016 42 10000 7.7 90 19:20 04.04.2020
5428 Rain 19 1016 45 10000 7.2 70 18:58 04.04.2020
5429 Clouds 19 1016 40 10000 9.8 90 18:39 04.04.2020
5430 Clouds 19 1016 40 10000 9.8 90 18:19 04.04.2020
5431 Rain 19 1017 45 10000 8.7 90 17:56 04.04.2020
5432 Rain 19 1017 42 10000 5.1 90 17:38 04.04.2020
5433 Rain 19 1017 42 10000 5.1 90 17:19 04.04.2020
5434 Rain 19 1017 45 10000 8.2 90 16:42 04.04.2020
5435 Rain 19 1017 42 10000 3.6 120 16:23 04.04.2020
5436 Rain 20 1017 42 10000 3.6 100 15:57 04.04.2020
5437 Rain 20 1017 40 10000 4.6 120 15:38 04.04.2020
5438 Rain 20 1017 40 10000 4.6 120 15:19 04.04.2020
5439 Rain 20 1017 45 10000 4.6 120 14:44 04.04.2020
5440 Rain 20 1017 52 10000 4.1 120 14:23 04.04.2020
5441 Rain 21 1017 59 10000 3.1 130 13:57 04.04.2020
5442 Rain 21 1017 60 10000 2.1 150 13:38 04.04.2020
5443 Drizzle 22 1018 40 10000 2.6 140 13:20 04.04.2020
5444 Rain 22 1017 28 10000 2.6 100 12:46 04.04.2020
5445 Rain 23 1017 28 10000 2.6 100 12:27 04.04.2020
5446 Clouds 23 1017 27 10000 3.6 90 11:59 04.04.2020
5447 Clouds 24 1017 27 10000 4.1 70 11:40 04.04.2020
5448 Clouds 24 1017 27 10000 4.1 70 11:21 04.04.2020
5449 Clouds 24 1017 29 10000 4.1 90 10:57 04.04.2020
5450 Clouds 24 1017 29 10000 4.1 110 10:39 04.04.2020
5451 Clouds 24 1017 29 10000 4.1 110 10:21 04.04.2020
5452 Clouds 25 1017 27 10000 4.6 70 09:55 04.04.2020
5453 Clouds 25 1017 27 10000 4.6 90 09:37 04.04.2020
5454 Clouds 25 1017 27 10000 4.6 90 09:19 04.04.2020
5455 Clouds 25 1017 29 10000 4.1 90 08:42 04.04.2020
5456 Clouds 25 1018 27 10000 4.6 80 08:21 04.04.2020
5457 Clouds 25 1018 31 10000 4.6 60 07:47 04.04.2020
5458 Clouds 24 1018 31 10000 4.1 70 07:28 04.04.2020
5459 Clouds 25 1018 31 10000 6.2 70 06:57 04.04.2020
5460 Clouds 23 1019 33 10000 5.7 60 06:20 04.04.2020
5461 Clouds 22 1019 35 10000 6.2 60 05:43 04.04.2020
5462 Clouds 22 1020 35 10000 6.7 70 05:24 04.04.2020
5463 Clouds 20 1020 40 10000 6.7 70 04:33 04.04.2020
5464 Clouds 19 1020 45 10000 5.1 80 03:55 04.04.2020
5465 Clouds 18 1020 51 10000 8.2 80 03:22 04.04.2020
5466 Clouds 16 1020 54 10000 9.3 70 02:38 04.04.2020
5467 Clouds 16 1020 54 10000 9.3 70 02:20 04.04.2020
5468 Clouds 14 1019 58 10000 10.8 80 01:26 04.04.2020
5469 Clouds 14 1019 62 10000 8.2 80 00:52 04.04.2020
5470 Clouds 13 1019 62 10000 9.8 80 00:30 04.04.2020
5471 Clear 14 1019 58 10000 8.7 90 23:41 03.04.2020
5472 Clear 14 1019 58 10000 8.7 90 23:41 03.04.2020
5473 Clear 14 1019 58 10000 8.7 90 23:21 03.04.2020
5474 Clear 14 1019 58 10000 9.3 90 22:59 03.04.2020
5475 Clear 14 1018 58 10000 9.8 90 22:39 03.04.2020
5476 Clear 14 1019 58 10000 9.3 90 22:39 03.04.2020
5477 Clear 14 1018 58 10000 9.8 90 22:39 03.04.2020
5478 Clear 14 1018 58 10000 9.8 90 22:19 03.04.2020
5479 Clear 14 1018 54 10000 10.8 90 21:45 03.04.2020
5480 Clear 14 1018 54 10000 10.3 100 21:26 03.04.2020
5481 Clear 15 1018 54 10000 9.3 100 20:57 03.04.2020
5482 Clear 15 1019 54 10000 9.3 100 20:39 03.04.2020
5483 Clear 15 1019 54 10000 9.3 100 20:21 03.04.2020
5484 Clear 15 1019 48 10000 7.2 100 19:57 03.04.2020
5485 Clear 15 1019 44 10000 6.7 110 19:39 03.04.2020
5486 Clear 15 1019 44 10000 6.7 110 19:21 03.04.2020
5487 Clear 15 1019 44 10000 5.7 100 18:59 03.04.2020
5488 Clear 15 1019 44 10000 5.7 100 18:59 03.04.2020
5489 Clear 14 1019 66 10000 2.6 90 18:41 03.04.2020
5490 Clear 14 1019 66 10000 2.6 90 18:23 03.04.2020
5491 Clear 14 1019 71 10000 3.1 60 17:55 03.04.2020
5492 Clear 13 1019 66 10000 3.6 120 17:37 03.04.2020
5493 Clear 13 1019 66 10000 3.6 120 17:18 03.04.2020
5494 Clear 14 1019 81 10000 2.6 170 16:44 03.04.2020
5495 Clear 14 1019 81 10000 2.6 170 16:22 03.04.2020
5496 Clear 15 1019 81 10000 2.6 160 15:58 03.04.2020
5497 Clear 15 1019 81 10000 2.6 160 15:58 03.04.2020
5498 Clear 15 1019 76 10000 3.68 108 15:39 03.04.2020
5499 Clear 15 1019 76 10000 3.68 108 15:20 03.04.2020
5500 Clear 16 1016 74 0 4.03 168 14:55 03.04.2020
5501 Clear 16 1016 74 0 4.03 168 14:37 03.04.2020
5502 Clouds 17 1018 59 10000 4.1 210 14:19 03.04.2020
5503 Clouds 17 1018 59 10000 4.1 210 13:42 03.04.2020
5504 Clouds 18 1018 59 10000 4.1 210 13:24 03.04.2020
5505 Clouds 18 1018 55 10000 5.1 240 12:45 03.04.2020
5506 Clouds 19 1018 55 10000 5.1 240 12:21 03.04.2020
5507 Clouds 20 1018 52 10000 5.7 220 11:57 03.04.2020
5508 Clouds 20 1018 52 10000 5.7 220 11:57 03.04.2020
5509 Clouds 20 1017 46 10000 6.7 230 11:39 03.04.2020
5510 Clouds 20 1017 46 10000 6.7 230 11:21 03.04.2020
5511 Clouds 20 1017 46 10000 6.7 230 11:21 03.04.2020
5512 Clouds 21 1017 43 10000 6.7 240 10:59 03.04.2020
5513 Clouds 21 1017 38 10000 5.7 250 10:39 03.04.2020
5514 Clouds 22 1017 38 10000 5.7 250 10:20 03.04.2020
5515 Clouds 23 1017 38 10000 5.7 260 09:59 03.04.2020
5516 Clouds 23 1017 38 10000 5.7 260 09:40 03.04.2020
5517 Clear 24 1017 25 10000 4.6 150 09:21 03.04.2020
5518 Clear 24 1017 25 10000 4.6 150 09:21 03.04.2020
5519 Clear 24 1017 25 10000 4.6 150 09:21 03.04.2020
5520 Clear 24 1017 27 10000 7.2 210 08:56 03.04.2020
5521 Clear 24 1018 28 10000 7.2 210 08:37 03.04.2020
5522 Clear 24 1018 28 10000 7.2 210 08:19 03.04.2020
5523 Clear 24 1018 31 10000 7.2 210 07:46 03.04.2020
5524 Clear 24 1018 31 10000 7.2 210 07:46 03.04.2020
5525 Clear 23 1018 30 10000 2.6 190 07:28 03.04.2020
5526 Clear 22 1019 35 10000 3.6 130 06:40 03.04.2020
5527 Clear 21 1019 35 10000 3.6 130 06:22 03.04.2020
5528 Clouds 20 1020 37 10000 3.1 130 05:39 03.04.2020
5529 Clear 17 1021 48 10000 5.7 140 03:42 03.04.2020
5530 Clouds 16 1021 55 10000 5.1 140 02:55 03.04.2020
5531 Clouds 14 1021 58 10000 4.25 132 02:18 03.04.2020
5532 Clouds 10 1020 81 10000 1.5 130 01:20 03.04.2020
5533 Clouds 10 1020 81 10000 1.5 130 01:20 03.04.2020
5534 Clouds 11 1019 76 10000 3.1 120 00:34 03.04.2020
5535 Clouds 10 1018 76 10000 3.1 90 23:58 02.04.2020
5536 Clouds 11 1018 66 10000 3.6 150 23:39 02.04.2020
5537 Clouds 11 1018 66 10000 3.6 150 23:39 02.04.2020
5538 Clouds 11 1018 66 10000 3.6 150 23:21 02.04.2020
5539 Clouds 12 1018 66 10000 3.6 200 22:43 02.04.2020
5540 Clouds 12 1018 62 10000 3.1 200 22:25 02.04.2020
5541 Clouds 12 1017 62 10000 2.6 200 21:59 02.04.2020
5542 Clouds 12 1017 66 10000 2.6 160 21:38 02.04.2020
5543 Clouds 13 1017 54 10000 3.6 170 21:19 02.04.2020
5544 Clear 13 1017 66 10000 3.1 170 20:55 02.04.2020
5545 Clear 13 1016 58 10000 4.6 180 20:37 02.04.2020
5546 Clear 13 1016 58 10000 4.6 180 20:19 02.04.2020
5547 Clear 14 1017 58 10000 4.6 190 19:42 02.04.2020
5548 Clear 14 1017 58 10000 4.6 190 19:20 02.04.2020
5549 Clear 14 1017 58 10000 4.6 190 19:20 02.04.2020
5550 Clear 14 1017 58 10000 4.6 190 19:20 02.04.2020
5551 Clear 15 1016 67 10000 5.1 190 18:57 02.04.2020
5552 Clear 15 1016 63 10000 5.7 180 18:39 02.04.2020
5553 Clouds 15 1016 63 10000 7.2 200 18:19 02.04.2020
5554 Clouds 16 1016 63 10000 7.2 200 17:44 02.04.2020
5555 Clouds 16 1016 63 10000 7.7 190 17:26 02.04.2020
5556 Clouds 16 1016 63 10000 8.2 200 16:59 02.04.2020
5557 Clouds 17 1015 59 10000 8.2 200 16:40 02.04.2020
5558 Clouds 17 1015 59 10000 8.2 200 16:22 02.04.2020
5559 Clouds 18 1015 59 10000 4.1 180 15:57 02.04.2020
5560 Clouds 18 1015 55 10000 4.1 200 15:39 02.04.2020
5561 Clouds 19 1015 55 10000 4.1 200 15:20 02.04.2020
5562 Clouds 19 1015 52 10000 6.2 200 14:58 02.04.2020
5563 Clouds 19 1015 56 10000 7.7 200 14:38 02.04.2020
5564 Clouds 19 1014 56 10000 5.1 210 14:19 02.04.2020
5565 Clouds 20 1014 56 10000 5.1 210 13:55 02.04.2020
5566 Clouds 20 1014 56 10000 6.7 210 13:37 02.04.2020
5567 Clouds 20 1014 56 10000 6.7 210 13:18 02.04.2020
5568 Clouds 20 1013 68 10000 6.2 250 12:45 02.04.2020
5569 Clouds 20 1013 68 10000 6.2 250 12:45 02.04.2020
5570 Rain 20 1013 68 10000 7.2 240 12:20 02.04.2020
5571 Rain 20 1013 68 10000 7.2 240 11:58 02.04.2020
5572 Rain 20 1013 68 10000 7.2 240 11:58 02.04.2020
5573 Clouds 20 1012 60 10000 7.7 240 11:39 02.04.2020
5574 Clouds 21 1012 60 10000 7.7 240 11:20 02.04.2020
5575 Clouds 21 1012 60 10000 7.7 240 11:20 02.04.2020
5576 Clouds 22 1012 53 10000 8.2 230 10:57 02.04.2020
5577 Clouds 22 1012 43 10000 7.7 240 10:38 02.04.2020
5578 Clouds 23 1012 43 10000 7.7 240 10:20 02.04.2020
5579 Clouds 23 1012 38 10000 7.7 240 09:58 02.04.2020
5580 Clouds 23 1012 38 10000 7.7 240 09:58 02.04.2020
5581 Clouds 23 1012 38 10000 7.7 240 09:58 02.04.2020
5582 Clouds 24 1012 38 10000 7.7 240 09:40 02.04.2020
5583 Clouds 24 1012 41 10000 9.3 220 09:20 02.04.2020
5584 Clouds 24 1012 49 10000 8.7 230 08:47 02.04.2020
5585 Clouds 24 1012 49 10000 8.2 230 08:28 02.04.2020
5586 Clouds 24 1012 47 10000 8.7 240 07:54 02.04.2020
5587 Clouds 24 1012 44 10000 8.7 240 07:36 02.04.2020
5588 Clouds 24 1012 44 10000 8.7 240 07:18 02.04.2020
5589 Clouds 23 1012 53 10000 8.7 230 06:23 02.04.2020
5590 Rain 23 1012 50 10000 7.2 230 05:46 02.04.2020
5591 Clouds 23 1013 50 10000 7.2 230 05:46 02.04.2020
5592 Clouds 22 1013 53 10000 6.7 200 04:50 02.04.2020
5593 Clouds 19 1013 68 10000 4.6 190 02:19 02.04.2020
5594 Clouds 18 1011 72 10000 4.1 200 00:58 02.04.2020
5595 Clouds 18 1011 72 10000 3.1 210 00:36 02.04.2020
5596 Clouds 18 1011 72 10000 3.1 210 00:18 02.04.2020
5597 Clouds 18 1011 72 10000 3.6 190 23:38 01.04.2020
5598 Clouds 18 1011 72 10000 3.6 190 23:38 01.04.2020
5599 Clouds 18 1011 72 10000 3.6 190 23:19 01.04.2020
5600 Clouds 18 1011 68 10000 3.6 200 22:41 01.04.2020
5601 Clouds 18 1010 63 10000 3.6 190 22:22 01.04.2020
5602 Clouds 18 1010 63 10000 4.1 200 21:58 01.04.2020
5603 Clouds 19 1010 63 10000 4.1 200 21:39 01.04.2020
5604 Clouds 19 1011 68 10000 4.1 200 21:19 01.04.2020
5605 Clouds 19 1011 68 10000 4.1 200 21:19 01.04.2020
5606 Clouds 19 1011 68 10000 4.6 210 20:56 01.04.2020
5607 Clouds 19 1011 68 10000 4.6 200 20:38 01.04.2020
5608 Clouds 19 1011 68 10000 4.6 200 20:18 01.04.2020
5609 Clouds 19 1011 72 10000 5.1 190 19:55 01.04.2020
5610 Clouds 19 1011 72 10000 5.1 190 19:37 01.04.2020
5611 Clouds 19 1011 72 10000 5.1 190 19:19 01.04.2020
5612 Clouds 20 1011 72 10000 4.6 210 18:41 01.04.2020
5613 Clouds 20 1011 72 10000 4.6 210 18:21 01.04.2020
5614 Clouds 20 1012 72 10000 5.1 210 17:56 01.04.2020
5615 Clouds 20 1012 72 10000 4.6 210 17:37 01.04.2020
5616 Clouds 20 1012 72 10000 4.6 210 17:18 01.04.2020
5617 Clouds 20 1012 72 10000 4.1 210 16:43 01.04.2020
5618 Clouds 20 1012 72 10000 4.1 210 16:43 01.04.2020
5619 Clouds 20 1012 72 10000 4.1 210 16:25 01.04.2020
5620 Clouds 20 1012 72 10000 5.7 210 15:59 01.04.2020
5621 Clouds 20 1012 72 10000 4.6 210 15:41 01.04.2020
5622 Clouds 20 1012 72 10000 4.6 210 15:22 01.04.2020
5623 Clouds 20 1012 72 10000 5.1 200 14:58 01.04.2020
5624 Clouds 20 1012 72 10000 5.7 210 14:39 01.04.2020
5625 Clouds 20 1012 72 10000 5.7 210 14:20 01.04.2020
5626 Clouds 20 1012 64 10000 5.1 200 13:58 01.04.2020
5627 Clouds 20 1012 64 10000 6.2 210 13:38 01.04.2020
5628 Clouds 21 1012 64 10000 6.2 210 13:19 01.04.2020
5629 Clouds 21 1012 64 10000 5.1 200 12:56 01.04.2020
5630 Clouds 21 1012 56 10000 6.7 230 12:37 01.04.2020
5631 Clouds 21 1012 56 10000 6.7 230 12:18 01.04.2020
5632 Clouds 22 1011 46 10000 6.7 230 11:44 01.04.2020
5633 Clouds 22 1011 46 10000 6.7 230 11:24 01.04.2020
5634 Clouds 23 1011 44 10000 6.7 240 10:59 01.04.2020
5635 Clouds 24 1010 47 10000 5.7 250 10:38 01.04.2020
5636 Clouds 24 1010 47 10000 5.7 250 10:19 01.04.2020
5637 Clouds 25 1010 47 10000 5.1 250 09:57 01.04.2020
5638 Clouds 25 1010 47 10000 5.1 250 09:39 01.04.2020
5639 Clouds 25 1010 50 10000 5.1 260 09:18 01.04.2020
5640 Clouds 26 1010 47 10000 6.2 260 08:41 01.04.2020
5641 Clouds 26 1010 47 10000 6.2 260 08:18 01.04.2020
5642 Clouds 27 1011 34 10000 3.6 260 07:44 01.04.2020
5643 Clouds 27 1011 34 10000 3.6 260 07:21 01.04.2020
5644 Clouds 27 1012 34 10000 4.1 270 06:48 01.04.2020
5645 Clouds 27 1012 32 10000 3.1 310 06:26 01.04.2020
5646 Clouds 27 1012 36 10000 3.1 270 05:56 01.04.2020
5647 Clouds 24 1014 49 10000 2.1 100 04:32 01.04.2020
5648 Clouds 21 1014 60 10000 6.7 100 03:30 01.04.2020
5649 Clouds 19 1015 63 10000 5.1 80 02:49 01.04.2020
5650 Clouds 17 1015 77 10000 1 30 01:57 01.04.2020
5651 Clouds 16 1015 87 10000 1 30 01:38 01.04.2020
5652 Clouds 15 1015 87 10000 1 30 01:18 01.04.2020
5653 Clouds 13 1015 100 10000 2.6 340 00:45 01.04.2020
5654 Clouds 14 1015 100 10000 2.6 340 00:20 01.04.2020
5655 Clouds 14 1015 93 10000 2.6 250 23:42 31.03.2020
5656 Clouds 14 1015 93 10000 2.6 250 23:23 31.03.2020
5657 Clouds 14 1015 93 10000 1.5 60 22:58 31.03.2020
5658 Clouds 14 1015 93 10000 1.5 60 22:37 31.03.2020
5659 Clouds 14 1015 93 10000 1.5 60 22:19 31.03.2020
5660 Clouds 14 1014 93 10000 3.6 220 21:56 31.03.2020
5661 Clouds 14 1014 93 10000 3.6 220 21:37 31.03.2020
5662 Clouds 14 1014 93 10000 3.6 220 21:19 31.03.2020
5663 Clouds 15 1015 93 10000 2.1 200 20:55 31.03.2020
5664 Clouds 15 1015 93 10000 2.1 200 20:36 31.03.2020
5665 Clouds 15 1015 100 10000 3.1 210 20:18 31.03.2020
5666 Clouds 15 1015 100 10000 3.1 210 20:18 31.03.2020
5667 Clouds 16 1015 87 10000 2.6 220 19:41 31.03.2020
5668 Clouds 16 1015 87 10000 2.1 190 19:22 31.03.2020
5669 Clouds 16 1015 87 10000 2.1 190 18:56 31.03.2020
5670 Clouds 16 1015 82 10000 2.6 210 18:37 31.03.2020
5671 Clouds 17 1016 77 10000 3.6 200 18:18 31.03.2020
5672 Clouds 17 1016 77 10000 3.6 200 17:54 31.03.2020
5673 Clouds 17 1016 77 10000 3.6 210 17:36 31.03.2020
5674 Clouds 17 1016 77 10000 4.6 210 17:18 31.03.2020
5675 Clouds 18 1017 77 10000 4.6 200 16:39 31.03.2020
5676 Clouds 18 1017 77 10000 4.6 200 16:19 31.03.2020
5677 Clouds 18 1016 72 10000 6.2 190 15:57 31.03.2020
5678 Clouds 18 1016 72 10000 5.7 200 15:39 31.03.2020
5679 Clouds 18 1016 72 10000 5.7 200 15:20 31.03.2020
5680 Clouds 18 1016 72 10000 5.7 200 15:20 31.03.2020
5681 Clouds 19 1016 72 10000 5.7 210 14:57 31.03.2020
5682 Clouds 19 1016 68 10000 5.1 210 14:38 31.03.2020
5683 Clouds 19 1016 68 10000 5.1 210 14:20 31.03.2020
5684 Clouds 20 1016 60 10000 6.2 210 13:42 31.03.2020
5685 Clouds 20 1016 60 10000 6.2 210 13:19 31.03.2020
5686 Clouds 20 1016 56 10000 6.2 210 12:55 31.03.2020
5687 Clouds 20 1016 56 10000 6.7 230 12:37 31.03.2020
5688 Clouds 21 1016 56 10000 6.7 230 12:18 31.03.2020
5689 Clouds 22 1015 49 10000 7.7 230 11:39 31.03.2020
5690 Clouds 23 1015 49 10000 7.7 230 11:20 31.03.2020
5691 Clouds 23 1015 49 10000 7.7 230 10:58 31.03.2020
5692 Clouds 24 1015 47 10000 7.7 220 10:39 31.03.2020
5693 Clouds 24 1015 47 10000 7.7 220 10:21 31.03.2020
5694 Clouds 24 1015 47 10000 6.7 220 09:56 31.03.2020
5695 Clouds 24 1014 47 10000 7.2 260 09:37 31.03.2020
5696 Clouds 24 1014 47 10000 7.2 260 09:37 31.03.2020
5697 Clouds 24 1014 47 10000 7.2 260 09:37 31.03.2020
5698 Clouds 24 1014 47 10000 7.2 260 09:19 31.03.2020
5699 Clouds 25 1014 44 10000 6.7 250 08:56 31.03.2020
5700 Clouds 25 1014 44 10000 6.7 250 08:56 31.03.2020
5701 Clouds 25 1014 44 10000 6.7 250 08:56 31.03.2020
5702 Clouds 25 1014 44 10000 6.2 260 08:37 31.03.2020
5703 Clouds 25 1014 44 10000 6.2 260 08:18 31.03.2020
5704 Clouds 25 1015 34 10000 3.1 200 07:54 31.03.2020
5705 Clouds 25 1015 36 10000 3.6 260 07:36 31.03.2020
5706 Clouds 25 1015 36 10000 3.6 260 07:18 31.03.2020
5707 Clouds 25 1016 38 10000 2.1 260 06:42 31.03.2020
5708 Clouds 24 1017 41 10000 2.6 140 05:53 31.03.2020
5709 Clouds 24 1017 43 10000 3.6 150 05:26 31.03.2020
5710 Clouds 18 1019 68 10000 3.6 180 02:57 31.03.2020
5711 Clouds 14 1018 100 10000 2.6 220 01:47 31.03.2020
5712 Clouds 13 1018 93 10000 2.1 220 01:27 31.03.2020
5713 Clouds 11 1018 93 10000 2.1 120 00:43 31.03.2020
5714 Clouds 11 1018 93 10000 2.1 120 00:23 31.03.2020
5715 Clouds 12 1018 93 10000 2.1 200 23:41 30.03.2020
5716 Clouds 11 1018 93 10000 2.6 260 23:20 30.03.2020
5717 Clouds 11 1017 93 10000 2.61 143 22:58 30.03.2020
5718 Clouds 12 1017 93 10000 2.61 143 22:38 30.03.2020
5719 Clouds 13 1017 93 10000 2.61 143 22:19 30.03.2020
5720 Clouds 13 1017 93 10000 2.6 150 21:57 30.03.2020
5721 Clouds 13 1017 93 10000 2.6 160 21:38 30.03.2020
5722 -273 0 0 0 0 0 21:20 30.03.2020
5723 Clouds 12 1017 93 10000 2.6 160 21:20 30.03.2020
5724 Clear 13 1017 93 10000 3.6 260 20:58 30.03.2020
5725 Clear 13 1017 93 10000 2.6 330 20:38 30.03.2020
5726 Clear 13 1017 93 10000 2.6 330 20:19 30.03.2020
5727 Clear 13 1016 87 10000 4.28 156 19:54 30.03.2020
5728 Clear 14 1016 82 10000 2.1 100 19:36 30.03.2020
5729 Clear 14 1017 76 10000 2.6 180 19:18 30.03.2020
5730 Clear 15 1017 72 10000 4.1 190 18:41 30.03.2020
5731 Clear 15 1017 72 10000 4.1 190 18:23 30.03.2020
5732 Clear 16 1017 72 10000 4.6 170 17:57 30.03.2020
5733 Clear 16 1018 72 10000 4.1 180 17:39 30.03.2020
5734 Clear 16 1018 72 10000 4.1 180 17:19 30.03.2020
5735 Clear 16 1018 72 10000 4.6 180 16:57 30.03.2020
5736 Clear 16 1018 67 10000 4.6 200 16:39 30.03.2020
5737 Clear 17 1018 67 10000 4.6 200 16:20 30.03.2020
5738 Clear 17 1018 67 10000 3.6 200 15:55 30.03.2020
5739 Clear 17 1018 67 10000 4.1 210 15:37 30.03.2020
5740 Clouds 17 1018 67 10000 4.1 210 15:18 30.03.2020
5741 Clouds 18 1018 63 10000 4.6 210 14:55 30.03.2020
5742 Clouds 18 1017 63 10000 4.6 210 14:36 30.03.2020
5743 Clouds 18 1017 63 10000 4.6 210 14:18 30.03.2020
5744 Clouds 18 1017 59 10000 5.1 210 13:43 30.03.2020
5745 Clouds 19 1016 55 10000 5.7 210 13:21 30.03.2020
5746 Clouds 19 1016 56 10000 5.7 220 12:58 30.03.2020
5747 Clouds 20 1017 56 10000 5.7 220 12:40 30.03.2020
5748 Clouds 20 1017 56 10000 5.7 220 12:19 30.03.2020
5749 Clouds 21 1016 49 10000 7.2 230 11:56 30.03.2020
5750 Clouds 21 1016 43 10000 7.2 240 11:38 30.03.2020
5751 Clouds 22 1016 43 10000 7.2 240 11:20 30.03.2020
5752 Clouds 22 1016 43 10000 7.7 230 10:40 30.03.2020
5753 Clouds 22 1016 43 10000 6.7 230 10:21 30.03.2020
5754 Clouds 22 1016 43 10000 7.2 230 09:56 30.03.2020
5755 Clouds 22 1016 40 10000 5.7 210 09:38 30.03.2020
5756 Clouds 22 1016 40 10000 5.7 210 09:18 30.03.2020
5757 Clouds 23 1016 38 10000 5.7 200 08:41 30.03.2020
5758 Clouds 23 1016 36 10000 6.2 230 08:22 30.03.2020
5759 Clouds 23 1016 36 10000 6.2 230 08:22 30.03.2020
5760 Clouds 23 1016 38 10000 4.1 190 07:49 30.03.2020
5761 Clouds 23 1017 38 10000 4.6 200 07:31 30.03.2020
5762 Clouds 23 1017 43 10000 3.6 200 06:56 30.03.2020
5763 Rain 22 1018 40 10000 3.6 230 06:31 30.03.2020
5764 Clouds 22 1018 40 10000 5.1 230 05:53 30.03.2020
5765 Clouds 22 1018 40 10000 3.1 130 05:22 30.03.2020
5766 Clouds 21 1019 49 10000 4.1 70 04:23 30.03.2020
5767 Clouds 20 1019 59 10000 3.1 140 03:38 30.03.2020
5768 Clouds 16 1019 72 10000 2.1 60 02:37 30.03.2020
5769 Clouds 13 1019 81 10000 2.85 120 01:35 30.03.2020
5770 Clouds 11 1019 93 10000 1 50 00:47 30.03.2020
5771 Clear 10 1019 100 10000 2.1 50 00:21 30.03.2020
5772 Clear 10 1019 93 10000 2.6 100 23:41 29.03.2020
5773 Clear 10 1019 93 10000 3.19 127 23:23 29.03.2020
5774 Clear 10 1018 93 10000 3.19 127 22:57 29.03.2020
5775 Clear 11 1018 93 10000 3.19 127 22:37 29.03.2020
5776 Clear 11 1018 93 10000 3.19 127 22:18 29.03.2020
5777 Clear 11 1018 93 10000 3.19 127 21:40 29.03.2020
5778 Clear 11 1018 93 10000 1.5 20 21:21 29.03.2020
5779 Clear 11 1018 93 10000 2.93 148 20:56 29.03.2020
5780 Clear 11 1018 93 10000 2.93 148 20:56 29.03.2020
5781 Clear 12 1018 87 10000 0.5 220 20:38 29.03.2020
5782 Clear 12 1018 87 10000 0.5 220 20:19 29.03.2020
5783 Clear 12 1018 93 10000 1 210 19:59 29.03.2020
5784 Clear 13 1018 93 10000 1 210 19:59 29.03.2020
5785 Clear 13 1018 87 10000 0.5 150 19:41 29.03.2020
5786 Clear 13 1018 87 10000 1.5 90 19:23 29.03.2020
5787 Clear 14 1018 87 10000 1.5 90 18:57 29.03.2020
5788 Clear 14 1019 81 10000 2.6 200 18:39 29.03.2020
5789 Clouds 14 1019 87 10000 3.1 170 18:20 29.03.2020
5790 Clouds 14 1019 87 10000 3.1 170 17:56 29.03.2020
5791 Clouds 15 1019 82 10000 3.6 140 17:38 29.03.2020
5792 Clouds 15 1019 82 10000 3.6 140 17:19 29.03.2020
5793 Clouds 15 1019 76 10000 3.6 150 16:57 29.03.2020
5794 Clouds 16 1019 72 10000 3.1 200 16:38 29.03.2020
5795 Clouds 16 1019 72 10000 3.1 200 16:38 29.03.2020
5796 Clouds 16 1019 72 10000 3.1 200 16:19 29.03.2020
5797 Clouds 16 1019 72 10000 3.1 210 15:42 29.03.2020
5798 Clouds 17 1019 72 10000 3.1 180 15:24 29.03.2020
5799 Clouds 17 1019 67 10000 3.6 160 14:58 29.03.2020
5800 Clouds 18 1019 63 10000 4.6 190 14:40 29.03.2020
5801 Clouds 18 1019 63 10000 4.6 190 14:20 29.03.2020
5802 Clouds 18 1019 59 10000 4.6 210 13:58 29.03.2020
5803 Clouds 18 1018 59 10000 4.6 210 13:39 29.03.2020
5804 Clouds 19 1018 59 10000 4.6 210 13:20 29.03.2020
5805 Clouds 19 1018 52 10000 5.7 230 12:56 29.03.2020
5806 Clouds 19 1018 52 10000 5.7 230 12:37 29.03.2020
5807 Clouds 19 1018 52 10000 5.7 230 12:37 29.03.2020
5808 Clouds 20 1018 49 10000 6.2 240 12:19 29.03.2020
5809 Clouds 20 1018 49 10000 6.2 240 11:55 29.03.2020
5810 Clouds 21 1018 49 10000 6.7 240 11:37 29.03.2020
5811 Clouds 21 1018 49 10000 6.7 240 11:18 29.03.2020
5812 Clouds 21 1018 49 10000 6.7 240 11:18 29.03.2020
5813 Clouds 22 1017 40 10000 6.7 240 10:38 29.03.2020
5814 Clouds 22 1017 40 10000 6.7 240 10:19 29.03.2020
5815 Clouds 22 1018 43 10000 5.7 260 09:41 29.03.2020
5816 Clouds 23 1018 43 10000 5.7 260 09:20 29.03.2020
5817 Clouds 22 1018 46 10000 3.6 230 08:54 29.03.2020
5818 Clouds 22 1018 46 10000 3.6 230 08:54 29.03.2020
5819 Clouds 22 1018 49 10000 4.1 230 08:30 29.03.2020
5820 Clouds 23 1018 46 10000 6.2 220 07:59 29.03.2020
5821 Clouds 22 1018 46 10000 3.6 230 07:41 29.03.2020
5822 Clouds 22 1019 49 10000 5.1 220 07:20 29.03.2020
5823 Clouds 21 1019 56 10000 3.1 100 05:41 29.03.2020
5824 Clouds 19 1020 59 10000 6.2 230 03:58 29.03.2020
5825 Clouds 18 1019 63 10000 6.2 230 03:28 29.03.2020
5826 Clouds 17 1019 63 10000 2.6 150 01:51 29.03.2020
5827 Clouds 16 1019 67 10000 1 10 01:23 29.03.2020
5828 Clouds 16 1019 67 10000 3.1 40 00:55 29.03.2020
5829 Clouds 15 1018 67 10000 3.1 40 00:32 29.03.2020
5830 Clouds 15 1017 71 10000 3.6 70 23:43 28.03.2020
5831 Clouds 14 1017 71 10000 3.6 70 23:24 28.03.2020
5832 Clouds 13 1017 87 10000 2.6 40 22:59 28.03.2020
5833 Clouds 13 1016 87 10000 0.5 50 22:39 28.03.2020
5834 Clouds 13 1016 87 10000 0.5 50 22:20 28.03.2020
5835 Clouds 14 1017 82 10000 3.02 160 21:54 28.03.2020
5836 Clouds 13 1017 87 10000 3.02 160 21:36 28.03.2020
5837 Clouds 14 1017 87 10000 3.02 160 21:18 28.03.2020
5838 Clouds 15 1017 72 10000 2.1 150 20:41 28.03.2020
5839 Clouds 15 1017 77 10000 2.6 150 20:23 28.03.2020
5840 Clouds 16 1017 77 10000 1.5 160 19:57 28.03.2020
5841 Clouds 16 1017 76 10000 3.1 170 19:38 28.03.2020
5842 Clouds 16 1017 76 10000 3.1 170 19:20 28.03.2020
5843 Clouds 16 1017 77 10000 3.1 130 18:56 28.03.2020
5844 Clouds 16 1017 77 10000 3.6 170 18:38 28.03.2020
5845 Clouds 16 1017 77 10000 3.6 170 18:38 28.03.2020
5846 Clouds 17 1017 72 10000 3.6 180 18:19 28.03.2020
5847 Clouds 17 1017 63 10000 3.1 190 17:38 28.03.2020
5848 Clouds 17 1017 63 10000 3.6 190 17:20 28.03.2020
5849 Clouds 18 1017 59 10000 3.6 190 16:43 28.03.2020
5850 Clouds 18 1017 59 10000 3.6 190 16:20 28.03.2020
5851 Clouds 18 1017 63 10000 4.6 180 15:57 28.03.2020
5852 Clouds 18 1018 63 10000 4.6 190 15:39 28.03.2020
5853 Clouds 18 1018 63 10000 4.6 190 15:19 28.03.2020
5854 Clouds 18 1018 63 10000 4.1 180 14:43 28.03.2020
5855 Clouds 18 1018 63 10000 5.1 180 14:23 28.03.2020
5856 Clouds 19 1017 59 10000 5.1 190 13:59 28.03.2020
5857 Clouds 19 1017 59 10000 5.1 200 13:38 28.03.2020
5858 Clouds 19 1017 59 10000 5.1 200 13:18 28.03.2020
5859 Clouds 19 1017 59 10000 6.2 210 12:38 28.03.2020
5860 Clouds 19 1017 59 10000 6.2 210 12:19 28.03.2020
5861 Clouds 20 1016 60 10000 6.2 230 11:42 28.03.2020
5862 Clouds 20 1016 56 10000 6.2 240 11:21 28.03.2020
5863 Clouds 20 1016 56 10000 6.2 240 10:55 28.03.2020
5864 Clouds 21 1015 49 10000 7.2 210 10:36 28.03.2020
5865 Clouds 21 1015 49 10000 7.2 210 10:18 28.03.2020
5866 Clouds 22 1015 49 10000 7.2 230 09:40 28.03.2020
5867 Clouds 22 1015 49 10000 7.2 230 09:22 28.03.2020
5868 Clouds 22 1015 56 10000 7.7 210 08:45 28.03.2020
5869 Clouds 23 1015 53 10000 7.2 240 08:25 28.03.2020
5870 Clouds 23 1015 49 10000 6.7 240 07:58 28.03.2020
5871 Clouds 23 1015 53 10000 7.2 250 07:40 28.03.2020
5872 Clouds 23 1015 53 10000 6.7 240 06:53 28.03.2020
5873 Clouds 23 1016 53 10000 6.7 210 06:26 28.03.2020
5874 Clouds 23 1016 49 10000 5.7 230 05:30 28.03.2020
5875 Clouds 22 1016 49 10000 5.7 230 05:30 28.03.2020
5876 Clouds 23 1016 49 10000 6.2 240 04:58 28.03.2020
5877 Clouds 23 1016 49 10000 6.2 230 04:39 28.03.2020
5878 Clouds 22 1016 56 10000 8.7 230 02:51 28.03.2020
5879 Clouds 21 1016 52 10000 7.7 220 01:47 28.03.2020
5880 Clouds 21 1016 56 10000 6.2 220 01:23 28.03.2020
5881 Clouds 20 1016 60 10000 5.1 220 00:49 28.03.2020
5882 Clouds 19 1015 63 10000 5.1 220 00:24 28.03.2020
5883 Clouds 19 1015 72 10000 7.7 220 23:44 27.03.2020
5884 Clouds 19 1015 72 10000 7.7 220 23:25 27.03.2020
5885 Clouds 19 1014 68 10000 7.2 220 22:57 27.03.2020
5886 Clouds 20 1014 68 10000 4.6 230 22:39 27.03.2020
5887 Clouds 20 1014 68 10000 4.6 230 22:20 27.03.2020
5888 Clouds 20 1013 72 10000 5.1 230 21:57 27.03.2020
5889 Clouds 20 1013 77 10000 5.7 230 21:38 27.03.2020
5890 Clouds 20 1013 77 10000 5.7 230 21:20 27.03.2020
5891 Clouds 20 1013 77 10000 7.7 230 20:55 27.03.2020
5892 Clouds 20 1013 77 10000 7.7 230 20:55 27.03.2020
5893 Clouds 20 1013 88 10000 5.7 230 20:37 27.03.2020
5894 Clouds 20 1013 88 10000 5.7 230 20:18 27.03.2020
5895 Rain 20 1012 88 10000 4.6 250 19:42 27.03.2020
5896 Rain 20 1012 88 10000 4.6 250 19:23 27.03.2020
5897 Drizzle 20 1012 94 5000 5.1 260 18:57 27.03.2020
5898 Drizzle 20 1012 94 6000 3.1 280 18:38 27.03.2020
5899 Drizzle 20 1012 94 6000 3.1 280 18:19 27.03.2020
5900 Rain 21 1012 100 9000 4.1 260 17:40 27.03.2020
5901 Rain 21 1012 78 10000 6.2 260 17:20 27.03.2020
5902 Rain 22 1012 78 10000 6.2 260 16:55 27.03.2020
5903 Rain 22 1012 73 10000 6.2 260 16:37 27.03.2020
5904 Rain 22 1012 73 10000 6.2 260 16:19 27.03.2020
5905 Clouds 22 1013 78 10000 4.1 290 15:42 27.03.2020
5906 Clouds 22 1013 78 10000 4.1 290 15:24 27.03.2020
5907 Rain 22 1013 78 10000 6.2 260 14:46 27.03.2020
5908 Clouds 22 1013 73 10000 3.6 290 14:25 27.03.2020
5909 Rain 22 1013 73 10000 6.2 260 13:57 27.03.2020
5910 Rain 22 1013 73 10000 6.2 260 13:57 27.03.2020
5911 Clouds 22 1012 73 10000 4.6 280 13:38 27.03.2020
5912 Clouds 22 1012 73 10000 4.6 280 13:19 27.03.2020
5913 Clouds 23 1012 78 10000 4.6 270 12:55 27.03.2020
5914 Clouds 23 1012 78 10000 5.7 270 12:37 27.03.2020
5915 Clouds 23 1012 73 10000 7.7 300 12:18 27.03.2020
5916 Clouds 23 1011 73 10000 6.7 310 11:41 27.03.2020
5917 Clouds 23 1011 78 10000 6.7 310 11:23 27.03.2020
5918 Clouds 24 1011 78 10000 6.7 310 10:55 27.03.2020
5919 Clouds 24 1011 65 10000 6.2 310 10:37 27.03.2020
5920 Clouds 24 1011 65 10000 6.2 310 10:37 27.03.2020
5921 Clouds 25 1011 65 10000 6.2 310 10:18 27.03.2020
5922 Clouds 25 1011 65 10000 6.2 290 09:56 27.03.2020
5923 Clouds 26 1011 61 10000 6.7 280 09:37 27.03.2020
5924 Clouds 26 1011 61 10000 6.7 280 09:18 27.03.2020
5925 Clouds 26 1011 65 10000 6.7 290 08:55 27.03.2020
5926 Clouds 26 1011 61 10000 6.7 310 08:37 27.03.2020
5927 Clouds 26 1011 61 10000 6.7 310 08:18 27.03.2020
5928 Clouds 26 1011 57 10000 6.2 300 07:49 27.03.2020
5929 Clouds 27 1011 65 10000 7.2 310 07:22 27.03.2020
5930 Clouds 27 1012 61 10000 6.2 290 06:45 27.03.2020
5931 Clouds 26 1012 61 10000 6.2 290 06:26 27.03.2020
5932 Clouds 27 1013 61 10000 5.1 310 03:42 27.03.2020
5933 Clouds 25 1013 69 10000 3.6 350 02:25 27.03.2020
5934 Clouds 25 1013 69 10000 4.6 10 01:21 27.03.2020
5935 Clouds 24 1012 64 10000 3.6 10 00:47 27.03.2020
5936 Clouds 23 1012 64 10000 3.6 10 00:23 27.03.2020
5937 Clouds 23 1012 64 10000 2.6 20 23:42 26.03.2020
5938 Clouds 23 1011 53 10000 4.1 330 23:19 26.03.2020
5939 Clouds 23 1011 53 10000 4.1 330 22:57 26.03.2020
5940 Clouds 23 1011 50 10000 3.1 40 22:37 26.03.2020
5941 Clouds 23 1011 50 10000 3.1 40 22:18 26.03.2020
5942 Clouds 24 1011 56 10000 3.1 10 21:40 26.03.2020
5943 Clouds 24 1011 56 10000 3.1 10 21:22 26.03.2020
5944 Clouds 24 1010 47 10000 3.6 350 20:59 26.03.2020
5945 Clouds 24 1010 56 10000 2.6 350 20:39 26.03.2020
5946 Clouds 24 1010 56 10000 2.6 350 20:21 26.03.2020
5947 Clouds 23 1010 49 10000 2.6 350 19:58 26.03.2020
5948 Clouds 24 1011 47 10000 3.6 50 19:40 26.03.2020
5949 Clouds 24 1011 47 10000 3.6 50 19:21 26.03.2020
5950 Clouds 24 1011 47 10000 3.6 50 18:58 26.03.2020
5951 Clouds 24 1011 50 10000 3.6 30 18:40 26.03.2020
5952 Clouds 24 1011 50 10000 3.6 30 18:21 26.03.2020
5953 Clouds 24 1011 53 10000 2.1 360 17:45 26.03.2020
5954 Clouds 24 1011 53 10000 2.6 30 17:20 26.03.2020
5955 Clouds 24 1011 53 10000 2.6 30 16:57 26.03.2020
5956 Clouds 25 1012 50 10000 3.1 360 16:38 26.03.2020
5957 Clouds 25 1012 50 10000 3.1 360 16:19 26.03.2020
5958 Clouds 26 1012 47 10000 3.6 30 15:56 26.03.2020
5959 Clouds 26 1012 47 10000 3.6 30 15:56 26.03.2020
5960 Clouds 26 1012 47 10000 3.6 60 15:37 26.03.2020
5961 Clouds 26 1012 47 10000 3.6 60 15:18 26.03.2020
5962 Clouds 26 1012 47 10000 2.6 60 14:43 26.03.2020
5963 Clouds 26 1012 47 10000 2.6 60 14:24 26.03.2020
5964 Clear 26 1012 47 10000 3.1 300 13:56 26.03.2020
5965 Clear 27 1012 39 10000 3.1 280 13:38 26.03.2020
5966 Clear 27 1012 39 10000 3.1 280 13:19 26.03.2020
5967 Clear 29 1012 33 10000 3.6 270 12:38 26.03.2020
5968 Clear 30 1011 29 10000 3.6 270 12:20 26.03.2020
5969 Clear 31 1011 26 10000 3.6 260 11:46 26.03.2020
5970 Clear 32 1011 24 10000 3.6 230 11:23 26.03.2020
5971 Clear 33 1011 24 10000 3.6 230 10:59 26.03.2020
5972 Clear 34 1011 23 10000 4.1 230 10:41 26.03.2020
5973 Clear 34 1011 23 10000 4.1 230 10:19 26.03.2020
5974 Clear 35 1012 23 10000 3.6 200 09:44 26.03.2020
5975 Clear 36 1012 22 10000 4.1 250 09:21 26.03.2020
5976 Clear 36 1012 23 10000 4.6 230 08:57 26.03.2020
5977 Clear 36 1012 23 10000 4.6 230 08:57 26.03.2020
5978 Clear 36 1012 22 10000 4.6 250 08:38 26.03.2020
5979 Clear 36 1012 22 10000 4.6 250 08:19 26.03.2020
5980 Rain 36 1013 25 10000 7.2 260 07:44 26.03.2020
5981 Rain 36 1013 25 10000 7.2 260 07:22 26.03.2020
5982 Rain 35 1013 23 10000 6.7 250 06:57 26.03.2020
5983 Rain 35 1013 20 10000 3.6 300 06:27 26.03.2020
5984 Rain 36 1014 21 10000 6.2 210 05:22 26.03.2020
5985 Clear 34 1015 28 10000 4.6 20 03:45 26.03.2020
5986 Clear 31 1016 35 10000 2.6 20 02:56 26.03.2020
5987 Clear 27 1016 42 10000 3.6 60 01:50 26.03.2020
5988 Clouds 24 1016 53 10000 4.1 70 00:55 26.03.2020
5989 Clouds 20 1016 60 10000 4.6 60 00:22 26.03.2020
5990 Clouds 20 1015 60 10000 4.6 70 23:41 25.03.2020
5991 Clouds 19 1015 64 10000 2.6 60 23:21 25.03.2020
5992 Clouds 18 1015 68 10000 1.5 100 22:42 25.03.2020
5993 Clouds 18 1015 68 10000 1.5 100 22:21 25.03.2020
5994 Clouds 20 1015 64 10000 1.5 60 21:56 25.03.2020
5995 Clouds 20 1015 64 10000 2.6 30 21:38 25.03.2020
5996 Clouds 20 1015 64 10000 2.6 30 21:38 25.03.2020
5997 Clouds 20 1015 64 10000 2.6 30 21:19 25.03.2020
5998 Clouds 20 1014 64 10000 2.1 50 20:55 25.03.2020
5999 Clouds 20 1014 68 10000 3.1 40 20:37 25.03.2020
6000 Clouds 20 1014 68 10000 3.1 40 20:18 25.03.2020
6001 Clouds 20 1015 68 10000 1.07 64 19:43 25.03.2020
6002 Clouds 20 1015 68 10000 1.12 87 19:23 25.03.2020
6003 Clouds 21 1015 64 10000 3.1 70 18:57 25.03.2020
6004 Clouds 21 1015 64 10000 3.1 70 18:57 25.03.2020
6005 Clouds 20 1015 77 10000 3.1 70 18:39 25.03.2020
6006 Clouds 20 1015 82 10000 1.07 64 18:21 25.03.2020
6007 Clouds 21 1015 82 10000 1.07 64 17:55 25.03.2020
6008 Clouds 21 1015 73 10000 1.07 64 17:37 25.03.2020
6009 Clouds 22 1015 73 10000 3.6 350 17:18 25.03.2020
6010 Rain 22 1015 69 10000 3.6 100 16:43 25.03.2020
6011 Rain 23 1015 69 10000 3.6 100 16:24 25.03.2020
6012 Rain 23 1015 69 10000 3.1 50 15:57 25.03.2020
6013 Clouds 23 1016 69 10000 2.6 50 15:38 25.03.2020
6014 Clouds 23 1016 69 10000 2.6 50 15:19 25.03.2020
6015 Clouds 24 1016 69 10000 2.6 210 14:42 25.03.2020
6016 Clouds 23 1016 69 10000 2.6 210 14:21 25.03.2020
6017 Clouds 24 1016 61 10000 3.6 250 13:46 25.03.2020
6018 Clouds 24 1016 61 10000 3.6 250 13:27 25.03.2020
6019 Clouds 25 1016 61 10000 4.6 210 12:57 25.03.2020
6020 Clouds 25 1015 65 10000 5.7 260 12:37 25.03.2020
6021 Clouds 25 1015 54 10000 4.6 260 12:19 25.03.2020
6022 Clouds 27 1015 48 10000 5.7 250 11:43 25.03.2020
6023 Clouds 28 1014 33 10000 3.6 280 11:22 25.03.2020
6024 Clouds 30 1014 31 10000 4.1 270 10:59 25.03.2020
6025 Clouds 31 1014 27 10000 4.1 270 10:40 25.03.2020
6026 Clouds 32 1014 27 10000 4.1 270 10:19 25.03.2020
6027 Clouds 32 1013 27 10000 4.6 250 09:59 25.03.2020
6028 Clouds 32 1013 27 10000 3.6 270 09:40 25.03.2020
6029 Clouds 33 1013 27 10000 3.6 270 09:22 25.03.2020
6030 Clouds 32 1013 27 10000 4.1 270 08:54 25.03.2020
6031 Clouds 32 1013 26 10000 4.6 260 08:36 25.03.2020
6032 Clouds 32 1013 26 10000 4.6 260 08:18 25.03.2020
6033 Clouds 33 1013 23 10000 4.6 360 07:39 25.03.2020
6034 Clouds 33 1013 23 10000 4.6 360 07:39 25.03.2020
6035 Clouds 33 1014 24 10000 3.6 360 07:19 25.03.2020
6036 Clouds 33 1014 23 10000 5.1 350 06:45 25.03.2020
6037 Clouds 33 1014 23 10000 5.1 350 06:25 25.03.2020
6038 Clouds 33 1014 22 10000 6.7 10 05:48 25.03.2020
6039 Clouds 32 1015 24 10000 7.2 30 04:46 25.03.2020
6040 Clouds 31 1015 23 10000 6.7 30 03:58 25.03.2020
6041 Clouds 31 1016 26 10000 7.7 40 03:34 25.03.2020
6042 Clouds 27 1016 29 10000 6.7 50 01:55 25.03.2020
6043 Clouds 26 1015 27 10000 7.2 50 00:58 25.03.2020
6044 Clouds 25 1015 29 10000 6.2 60 00:40 25.03.2020
6045 Clouds 24 1015 33 10000 5.1 60 00:18 25.03.2020
6046 Clouds 23 1015 35 10000 5.1 80 23:40 24.03.2020
6047 Clouds 23 1015 35 10000 5.7 70 23:21 24.03.2020
6048 Clouds 23 1015 35 10000 5.7 70 22:55 24.03.2020
6049 Clouds 23 1015 35 10000 5.7 70 22:36 24.03.2020
6050 Clouds 23 1015 35 10000 5.7 70 22:18 24.03.2020
6051 Clouds 23 1015 35 10000 5.7 80 21:43 24.03.2020
6052 Clouds 23 1015 35 10000 5.1 70 21:19 24.03.2020
6053 Clouds 23 1015 35 10000 5.7 70 20:59 24.03.2020
6054 Clouds 24 1015 33 10000 4.6 50 20:41 24.03.2020
6055 Clouds 23 1015 33 10000 4.6 50 20:23 24.03.2020
6056 Clouds 24 1015 33 10000 4.6 70 19:48 24.03.2020
6057 Clouds 23 1015 33 10000 4.6 70 19:48 24.03.2020
6058 Clouds 24 1014 31 10000 7.2 70 19:24 24.03.2020
6059 Clouds 24 1014 31 10000 7.2 70 18:59 24.03.2020
6060 Clouds 24 1014 31 10000 6.7 70 18:40 24.03.2020
6061 Clouds 24 1014 29 10000 6.2 70 18:20 24.03.2020
6062 Clouds 25 1014 31 10000 7.2 70 17:58 24.03.2020
6063 Clouds 25 1014 31 10000 7.2 70 17:40 24.03.2020
6064 Clouds 25 1014 31 10000 7.2 70 17:40 24.03.2020
6065 Clouds 25 1014 31 10000 7.2 70 17:40 24.03.2020
6066 Clouds 25 1014 29 10000 7.7 80 17:22 24.03.2020
6067 Clear 25 1014 29 10000 7.7 80 16:57 24.03.2020
6068 Clear 25 1014 29 10000 7.7 80 16:57 24.03.2020
6069 Clear 26 1014 29 10000 8.2 90 16:38 24.03.2020
6070 Clear 26 1014 29 10000 8.2 90 16:20 24.03.2020
6071 Clear 27 1015 30 10000 6.7 90 15:43 24.03.2020
6072 Clear 27 1015 30 10000 6.7 90 15:25 24.03.2020
6073 Clear 27 1015 32 10000 5.7 90 14:44 24.03.2020
6074 Clear 27 1015 32 10000 5.7 90 14:24 24.03.2020
6075 Clear 27 1015 32 10000 5.7 90 13:59 24.03.2020
6076 Clear 27 1014 30 10000 4.1 100 13:41 24.03.2020
6077 Clear 27 1014 30 10000 4.1 100 13:41 24.03.2020
6078 Clear 27 1014 30 10000 4.1 100 13:22 24.03.2020
6079 Clear 28 1014 28 10000 4.1 130 12:43 24.03.2020
6080 Clear 28 1014 28 10000 4.1 130 12:25 24.03.2020
6081 Clear 29 1014 23 10000 4.1 100 11:56 24.03.2020
6082 Clear 30 1014 22 10000 4.1 100 11:37 24.03.2020
6083 Clear 32 1014 18 10000 4.1 100 11:18 24.03.2020
6084 Clear 33 1014 18 10000 2.6 200 10:41 24.03.2020
6085 Clear 33 1014 18 10000 2.6 200 10:19 24.03.2020
6086 Clear 33 1014 18 10000 2.6 200 10:19 24.03.2020
6087 Clear 34 1014 17 10000 3.1 170 09:47 24.03.2020
6088 Clear 34 1014 18 10000 3.6 190 09:27 24.03.2020
6089 Clear 34 1014 19 10000 3.6 170 08:57 24.03.2020
6090 Clear 34 1014 18 10000 3.1 200 08:38 24.03.2020
6091 Clear 34 1014 18 10000 3.1 200 08:19 24.03.2020
6092 Clear 34 1014 21 10000 3.1 350 07:44 24.03.2020
6093 Clear 34 1014 21 10000 2.6 180 07:22 24.03.2020
6094 Clear 33 1015 22 10000 2.6 30 06:42 24.03.2020
6095 Clear 33 1015 24 10000 3.6 50 06:21 24.03.2020
6096 Clear 31 1016 29 10000 5.1 60 04:52 24.03.2020
6097 Clear 29 1017 35 10000 5.7 60 03:32 24.03.2020
6098 Clear 27 1017 39 10000 6.7 60 02:43 24.03.2020
6099 Clouds 23 1017 49 10000 8.7 70 00:57 24.03.2020
6100 Clouds 22 1017 49 10000 6.2 70 00:28 24.03.2020
6101 Clouds 22 1017 49 10000 6.2 70 00:28 24.03.2020
6102 Clouds 22 1017 52 10000 8.7 70 23:58 23.03.2020
6103 Clouds 22 1017 49 10000 5.7 60 23:38 23.03.2020
6104 Clouds 21 1017 52 10000 6.2 70 23:19 23.03.2020
6105 Clouds 21 1016 52 10000 6.7 70 22:44 23.03.2020
6106 Clouds 21 1016 52 10000 6.7 70 22:23 23.03.2020
6107 Clouds 22 1016 52 10000 7.2 70 21:55 23.03.2020
6108 Clouds 22 1016 52 10000 7.2 70 21:37 23.03.2020
6109 Clouds 22 1016 52 10000 7.2 70 21:18 23.03.2020
6110 Clouds 22 1016 52 10000 7.2 70 21:18 23.03.2020
6111 Clouds 22 1016 52 10000 8.7 70 20:44 23.03.2020
6112 Clouds 22 1016 46 10000 5.1 60 20:26 23.03.2020
6113 Clouds 22 1016 46 10000 6.2 70 19:59 23.03.2020
6114 Clouds 22 1016 46 10000 7.2 80 19:41 23.03.2020
6115 Clouds 22 1016 46 10000 7.2 80 19:22 23.03.2020
6116 Clouds 23 1016 43 10000 8.7 90 18:54 23.03.2020
6117 Clouds 23 1016 43 10000 8.7 90 18:36 23.03.2020
6118 Clouds 23 1017 40 10000 9.8 90 18:18 23.03.2020
6119 Clouds 24 1017 38 10000 8.7 90 17:41 23.03.2020
6120 Clouds 24 1017 36 10000 9.3 90 17:20 23.03.2020
6121 Clouds 24 1017 36 10000 9.3 90 16:44 23.03.2020
6122 Clouds 24 1017 36 10000 9.3 90 16:26 23.03.2020
6123 Clouds 24 1017 31 10000 9.3 90 15:59 23.03.2020
6124 Clouds 24 1017 31 10000 8.2 70 15:39 23.03.2020
6125 Clouds 24 1017 31 10000 8.2 70 15:19 23.03.2020
6126 Clouds 23 1017 40 10000 1.5 100 14:37 23.03.2020
6127 Clouds 24 1018 44 10000 4.1 180 14:19 23.03.2020
6128 Clouds 25 1018 44 10000 4.1 180 13:57 23.03.2020
6129 Clouds 25 1017 40 10000 1.5 170 13:38 23.03.2020
6130 Clouds 25 1017 40 10000 1.5 170 13:38 23.03.2020
6131 Clouds 25 1017 40 10000 1.5 170 13:20 23.03.2020
6132 Clouds 26 1016 34 10000 1.5 150 12:43 23.03.2020
6133 Clouds 26 1016 34 10000 1.5 150 12:43 23.03.2020
6134 Clouds 26 1016 34 10000 1.5 150 12:23 23.03.2020
6135 Clouds 28 1016 27 10000 3.6 100 11:56 23.03.2020
6136 Clouds 28 1016 27 10000 3.6 100 11:37 23.03.2020
6137 Clouds 29 1016 23 10000 3.6 130 11:19 23.03.2020
6138 Clouds 30 1016 23 10000 3.6 130 10:56 23.03.2020
6139 Clouds 31 1016 22 10000 3.6 110 10:36 23.03.2020
6140 Clouds 31 1016 22 10000 3.6 110 10:18 23.03.2020
6141 Clouds 31 1016 22 10000 4.1 110 09:42 23.03.2020
6142 Clouds 31 1016 22 10000 4.1 110 09:20 23.03.2020
6143 Clouds 33 1016 24 10000 3.6 70 08:38 23.03.2020
6144 Clear 33 1016 24 10000 3.6 70 08:20 23.03.2020
6145 Clear 32 1016 25 10000 3.1 60 07:52 23.03.2020
6146 Clear 32 1017 24 10000 5.1 130 07:33 23.03.2020
6147 Clear 32 1017 27 10000 5.1 70 06:56 23.03.2020
6148 Clear 32 1017 27 10000 5.1 70 06:34 23.03.2020
6149 Clear 31 1018 33 10000 7.7 80 05:44 23.03.2020
6150 Clear 31 1018 33 10000 7.7 80 05:44 23.03.2020
6151 Clear 28 1020 39 10000 5.1 60 03:54 23.03.2020
6152 Clear 26 1020 50 10000 7.2 60 02:45 23.03.2020
6153 Clear 24 1020 60 10000 7.2 70 01:50 23.03.2020
6154 Clear 21 1020 72 10000 8.2 70 00:47 23.03.2020
6155 Clear 21 1020 72 10000 8.2 70 00:27 23.03.2020
6156 Clear 20 1020 72 10000 7.2 70 23:42 22.03.2020
6157 Clear 20 1020 72 10000 7.2 70 23:24 22.03.2020
6158 Clear 20 1019 77 10000 8.7 80 22:42 22.03.2020
6159 Clear 20 1019 77 10000 8.7 80 22:21 22.03.2020
6160 Clear 20 1019 72 10000 9.3 80 21:41 22.03.2020
6161 Clear 20 1019 72 10000 9.3 80 21:23 22.03.2020
6162 Clear 20 1019 72 10000 9.3 80 20:59 22.03.2020
6163 Clear 20 1019 60 10000 7.7 80 20:40 22.03.2020
6164 Clear 21 1019 72 10000 10.8 90 20:22 22.03.2020
6165 Clear 21 1019 64 10000 11.3 90 19:56 22.03.2020
6166 Clear 21 1019 64 10000 10.8 90 19:38 22.03.2020
6167 Clear 21 1019 64 10000 10.8 90 19:19 22.03.2020
6168 Clear 21 1019 64 10000 10.8 100 18:57 22.03.2020
6169 Clear 22 1019 56 10000 10.8 90 18:39 22.03.2020
6170 Clear 22 1019 56 10000 10.8 90 18:20 22.03.2020
6171 Clear 22 1019 53 10000 10.8 100 17:57 22.03.2020
6172 Clear 23 1019 53 10000 8.7 80 17:38 22.03.2020
6173 Clear 23 1019 53 10000 8.7 80 17:20 22.03.2020
6174 Clear 23 1020 53 10000 9.8 100 16:57 22.03.2020
6175 Clear 23 1020 53 10000 9.8 100 16:57 22.03.2020
6176 Clear 23 1020 50 10000 8.7 60 16:39 22.03.2020
6177 Clear 24 1020 50 10000 8.7 60 16:20 22.03.2020
6178 Clear 24 1020 50 10000 9.8 100 15:40 22.03.2020
6179 Clear 24 1020 50 10000 9.8 100 15:19 22.03.2020
6180 Clear 25 1020 50 10000 7.2 80 14:46 22.03.2020
6181 Clear 25 1020 50 10000 7.2 80 14:46 22.03.2020
6182 Clear 25 1020 50 10000 8.2 110 14:18 22.03.2020
6183 Clear 26 1020 47 10000 6.7 110 13:42 22.03.2020
6184 Clear 26 1020 47 10000 6.7 110 13:20 22.03.2020
6185 Clear 27 1020 44 10000 7.2 90 12:47 22.03.2020
6186 Clear 27 1019 42 10000 7.2 90 12:23 22.03.2020
6187 Clouds 28 1019 39 10000 6.7 130 11:59 22.03.2020
6188 Clear 29 1019 37 10000 6.7 120 11:41 22.03.2020
6189 Clear 29 1019 37 10000 6.7 120 11:23 22.03.2020
6190 Clear 30 1019 33 10000 6.7 110 10:57 22.03.2020
6191 Clear 31 1019 33 10000 6.7 130 10:39 22.03.2020
6192 Clear 31 1019 33 10000 6.7 130 10:21 22.03.2020
6193 Clear 31 1019 31 10000 5.1 90 09:43 22.03.2020
6194 Clear 31 1019 33 10000 6.2 100 09:23 22.03.2020
6195 Clear 32 1019 29 10000 6.2 110 08:44 22.03.2020
6196 Clear 32 1019 33 10000 6.7 110 08:25 22.03.2020
6197 Clear 31 1019 33 10000 6.7 110 07:53 22.03.2020
6198 Clear 32 1019 33 10000 7.7 110 07:28 22.03.2020
6199 Clear 31 1020 37 10000 7.7 90 06:40 22.03.2020
6200 Clear 29 1021 39 10000 8.2 90 05:35 22.03.2020
6201 Clouds 27 1022 44 10000 6.2 90 03:46 22.03.2020
6202 Clouds 22 1023 64 10000 9.8 90 01:28 22.03.2020
6203 Clear 20 1023 72 10000 7.7 100 00:48 22.03.2020
6204 Clear 20 1022 64 10000 9.8 80 00:29 22.03.2020
6205 Clear 19 1022 68 10000 11.8 100 23:43 21.03.2020
6206 Clear 19 1022 68 10000 11.3 100 23:19 21.03.2020
6207 Clear 19 1022 68 10000 11.3 100 22:55 21.03.2020
6208 Clear 19 1022 68 10000 10.8 100 22:37 21.03.2020
6209 Clear 19 1022 68 10000 10.8 100 22:18 21.03.2020
6210 Clear 19 1021 68 10000 10.3 100 21:42 21.03.2020
6211 Clear 19 1021 68 10000 10.3 100 21:23 21.03.2020
6212 Clear 19 1021 64 10000 8.2 100 20:59 21.03.2020
6213 Clear 19 1021 72 10000 5.7 110 20:41 21.03.2020
6214 Clear 19 1021 72 10000 5.7 110 20:19 21.03.2020
6215 Clouds 20 1021 64 10000 9.3 110 19:44 21.03.2020
6216 Clear 20 1021 68 10000 6.2 100 19:25 21.03.2020
6217 Rain 20 1021 68 10000 9.3 110 18:57 21.03.2020
6218 Clear 20 1022 72 10000 8.2 100 18:38 21.03.2020
6219 Clear 20 1021 68 10000 9.3 110 18:20 21.03.2020
6220 Clear 20 1021 68 10000 9.3 110 18:20 21.03.2020
6221 Clear 20 1021 68 10000 14.4 100 17:55 21.03.2020
6222 Clear 20 1021 68 10000 14.4 100 17:37 21.03.2020
6223 Clear 20 1021 68 10000 14.4 100 17:37 21.03.2020
6224 Clear 20 1021 68 10000 14.4 100 17:18 21.03.2020
6225 Clear 20 1021 68 10000 14.4 100 17:18 21.03.2020
6226 Clear 21 1021 64 10000 12.9 100 16:41 21.03.2020
6227 Clear 21 1021 64 10000 12.9 100 16:20 21.03.2020
6228 Clear 21 1021 64 10000 13.9 100 15:56 21.03.2020
6229 Clear 21 1021 68 10000 12.9 100 15:37 21.03.2020
6230 Clear 21 1021 68 10000 12.9 100 15:18 21.03.2020
6231 Clear 22 1021 64 10000 13.9 110 14:54 21.03.2020
6232 Clouds 22 1022 68 10000 9.3 120 14:36 21.03.2020
6233 Clouds 22 1022 68 10000 9.3 120 14:18 21.03.2020
6234 Rain 23 1020 60 10000 14.4 110 13:56 21.03.2020
6235 Rain 24 1020 57 10000 12.3 110 13:38 21.03.2020
6236 Rain 24 1020 57 10000 12.3 110 13:19 21.03.2020
6237 Rain 25 1020 57 10000 7.7 130 12:39 21.03.2020
6238 Clouds 26 1018 37 10000 9.8 70 12:19 21.03.2020
6239 Clouds 27 1018 37 10000 9.8 70 11:58 21.03.2020
6240 Rain 27 1018 44 10000 7.7 130 11:39 21.03.2020
6241 Rain 28 1018 35 10000 9.3 110 11:19 21.03.2020
6242 Rain 28 1018 35 10000 9.3 110 11:19 21.03.2020
6243 Rain 30 1018 35 10000 9.3 110 10:57 21.03.2020
6244 Rain 29 1018 35 10000 9.3 110 10:57 21.03.2020
6245 Clouds 30 1018 35 10000 7.7 130 10:39 21.03.2020
6246 Clouds 30 1018 35 10000 7.7 130 10:20 21.03.2020
6247 Clouds 30 1018 35 10000 7.7 130 10:20 21.03.2020
6248 Clouds 31 1018 35 10000 7.2 120 09:57 21.03.2020
6249 Clouds 31 1018 35 10000 7.7 120 09:37 21.03.2020
6250 Clouds 31 1018 35 10000 7.7 120 09:37 21.03.2020
6251 Clouds 31 1018 35 10000 7.7 120 09:19 21.03.2020
6252 Clouds 31 1018 35 10000 7.2 130 08:45 21.03.2020
6253 Clouds 31 1018 35 10000 5.7 100 08:25 21.03.2020
6254 Rain 30 1018 35 10000 7.2 100 07:52 21.03.2020
6255 Rain 30 1018 33 10000 6.7 90 07:32 21.03.2020
6256 Rain 31 1019 35 10000 6.2 90 06:48 21.03.2020
6257 Rain 31 1019 35 10000 6.2 90 06:29 21.03.2020
6258 Rain 30 1020 45 10000 5.1 100 05:48 21.03.2020
6259 Clear 30 1020 45 10000 5.7 90 05:18 21.03.2020
6260 Clear 27 1021 57 10000 7.2 100 03:26 21.03.2020
6261 Clear 25 1021 60 10000 7.7 100 02:34 21.03.2020
6262 Clouds 23 1021 64 10000 7.2 90 01:38 21.03.2020
6263 Clouds 22 1021 64 10000 7.2 90 01:18 21.03.2020
6264 Clouds 20 1020 68 10000 6.7 80 00:38 21.03.2020
6265 Clouds 19 1019 68 10000 5.1 80 23:58 20.03.2020
6266 Clouds 19 1019 77 10000 3.6 90 23:40 20.03.2020
6267 Clouds 18 1019 82 10000 2.6 70 23:18 20.03.2020
6268 Clouds 17 1019 87 10000 2.1 200 22:41 20.03.2020
6269 Clouds 17 1019 87 10000 2.1 200 22:22 20.03.2020
6270 Clouds 17 1019 88 10000 2.6 220 21:56 20.03.2020
6271 Clouds 17 1019 87 10000 2.05 84 21:38 20.03.2020
6272 Clouds 17 1019 87 10000 2.05 84 21:18 20.03.2020
6273 Clouds 17 1018 88 10000 2.05 84 20:57 20.03.2020
6274 Clouds 18 1018 87 10000 1 60 20:38 20.03.2020
6275 Clouds 17 1018 87 10000 1 60 20:18 20.03.2020
6276 Clouds 18 1018 87 10000 1.5 120 19:45 20.03.2020
6277 Clouds 18 1018 87 10000 2.1 180 19:19 20.03.2020
6278 Clouds 18 1018 87 10000 2.1 180 19:19 20.03.2020
6279 Clouds 18 1019 82 10000 3.1 210 18:55 20.03.2020
6280 Clouds 19 1018 82 10000 2.6 210 18:37 20.03.2020
6281 Clouds 19 1018 77 10000 2.6 180 18:19 20.03.2020
6282 Clouds 19 1018 72 10000 3.6 200 17:39 20.03.2020
6283 Clouds 20 1018 68 10000 3.6 210 17:21 20.03.2020
6284 Clouds 20 1018 68 10000 3.6 210 17:21 20.03.2020
6285 Clouds 20 1018 68 10000 3.6 210 16:58 20.03.2020
6286 Clouds 21 1019 68 10000 4.1 190 16:39 20.03.2020
6287 Clouds 21 1019 68 10000 4.1 190 16:18 20.03.2020
6288 Clouds 21 1019 68 10000 3.1 210 15:42 20.03.2020
6289 Clouds 21 1019 60 10000 3.6 200 15:21 20.03.2020
6290 Clouds 21 1019 60 10000 4.6 200 14:55 20.03.2020
6291 Clouds 22 1020 64 10000 4.1 200 14:37 20.03.2020
6292 Clouds 22 1020 64 10000 4.1 200 14:18 20.03.2020
6293 Clouds 22 1019 56 10000 3.6 200 13:42 20.03.2020
6294 Rain 23 1019 50 10000 6.7 200 13:19 20.03.2020
6295 Rain 24 1018 47 10000 4.6 230 12:39 20.03.2020
6296 Rain 24 1018 44 10000 5.1 220 12:20 20.03.2020
6297 Rain 24 1018 44 10000 5.1 220 11:57 20.03.2020
6298 Rain 25 1018 47 10000 5.1 230 11:38 20.03.2020
6299 Clouds 25 1017 44 10000 4.6 230 11:18 20.03.2020
6300 Clouds 27 1017 45 10000 4.1 270 10:41 20.03.2020
6301 Clouds 28 1017 45 10000 4.1 270 10:21 20.03.2020
6302 Clouds 28 1017 39 10000 5.7 250 09:55 20.03.2020
6303 Clouds 28 1017 39 10000 5.7 250 09:55 20.03.2020
6304 Clouds 28 1017 37 10000 5.7 260 09:37 20.03.2020
6305 Clouds 29 1017 37 10000 5.7 260 09:18 20.03.2020
6306 Clouds 30 1017 31 10000 5.1 280 08:41 20.03.2020
6307 Rain 30 1017 31 10000 5.1 280 08:22 20.03.2020
6308 Clouds 31 1017 31 10000 5.1 280 07:48 20.03.2020
6309 Clouds 31 1018 31 10000 2.6 350 07:26 20.03.2020
6310 Clouds 31 1018 33 10000 2.6 300 06:49 20.03.2020
6311 Clouds 31 1019 33 10000 3.6 360 06:31 20.03.2020
6312 Clouds 27 1021 50 10000 6.7 70 04:49 20.03.2020
6313 Rain 23 1021 56 10000 6.2 70 03:19 20.03.2020
6314 Clouds 21 1021 56 10000 3.1 80 01:51 20.03.2020
6315 Clouds 19 1021 72 10000 2.1 150 00:46 20.03.2020
6316 Clouds 19 1021 72 10000 2.1 150 00:25 20.03.2020
6317 Clouds 19 1020 63 10000 5.7 190 23:44 19.03.2020
6318 Clouds 19 1020 63 10000 5.7 190 23:25 19.03.2020
6319 Clouds 19 1020 59 10000 2.6 240 22:56 19.03.2020
6320 Clouds 19 1019 59 10000 2.1 70 22:37 19.03.2020
6321 Clouds 19 1019 59 10000 2.1 70 22:18 19.03.2020
6322 Clouds 19 1019 55 10000 1.5 280 21:41 19.03.2020
6323 Clouds 19 1019 55 10000 1.5 280 21:20 19.03.2020
6324 Clouds 20 1019 55 10000 2.6 260 20:55 19.03.2020
6325 Clouds 20 1019 43 10000 2.6 190 20:37 19.03.2020
6326 Clouds 20 1019 43 10000 2.6 190 20:19 19.03.2020
6327 Clouds 20 1018 43 10000 2.6 100 19:54 19.03.2020
6328 Clouds 20 1019 43 10000 3.1 130 19:36 19.03.2020
6329 Clouds 20 1019 49 10000 2.1 110 19:18 19.03.2020
6330 Clouds 19 1019 72 10000 3.1 210 18:41 19.03.2020
6331 Clouds 18 1019 72 10000 3.1 210 18:22 19.03.2020
6332 Clouds 18 1021 68 10000 3.6 190 17:56 19.03.2020
6333 Clouds 18 1021 68 10000 3.6 190 17:37 19.03.2020
6334 Clouds 18 1021 72 10000 3.6 170 17:18 19.03.2020
6335 Clouds 19 1022 68 10000 2.1 250 16:43 19.03.2020
6336 Clouds 19 1022 68 10000 2.1 250 16:22 19.03.2020
6337 Clouds 19 1022 68 10000 4.1 200 15:44 19.03.2020
6338 Clouds 19 1022 68 10000 4.1 200 15:25 19.03.2020
6339 Clouds 19 1022 68 10000 5.7 190 14:54 19.03.2020
6340 Clouds 19 1022 68 10000 6.2 190 14:36 19.03.2020
6341 Clouds 19 1022 68 10000 6.2 190 14:18 19.03.2020
6342 Clouds 19 1022 64 10000 6.7 190 13:38 19.03.2020
6343 Clouds 19 1023 64 10000 6.7 190 13:18 19.03.2020
6344 Clouds 19 1022 60 10000 7.2 190 12:42 19.03.2020
6345 Clouds 20 1022 60 10000 7.2 190 12:24 19.03.2020
6346 Clouds 20 1022 60 10000 7.2 190 11:59 19.03.2020
6347 Clouds 20 1022 56 10000 5.7 220 11:40 19.03.2020
6348 Clouds 20 1022 56 10000 6.2 210 11:22 19.03.2020
6349 Clouds 21 1021 53 10000 5.1 220 10:43 19.03.2020
6350 Clouds 21 1021 53 10000 5.1 220 10:22 19.03.2020
6351 Clouds 21 1021 53 10000 5.1 230 09:58 19.03.2020
6352 Clouds 22 1021 53 10000 5.7 230 09:39 19.03.2020
6353 Clouds 22 1021 53 10000 5.7 230 09:19 19.03.2020
6354 Clouds 23 1021 46 10000 6.2 220 08:46 19.03.2020
6355 Clouds 23 1021 36 10000 3.1 200 08:22 19.03.2020
6356 Clouds 24 1022 36 10000 2.6 220 07:47 19.03.2020
6357 Clouds 24 1022 36 10000 2.6 220 07:29 19.03.2020
6358 Clouds 25 1022 38 10000 2.1 290 06:51 19.03.2020
6359 Clouds 23 1023 43 10000 1.5 80 05:52 19.03.2020
6360 Clouds 23 1023 43 10000 3.6 100 05:19 19.03.2020
6361 Clouds 22 1024 49 10000 4.6 110 04:40 19.03.2020
6362 Clouds 19 1025 52 10000 7.2 100 03:20 19.03.2020
6363 Clouds 16 1025 67 10000 2.6 90 01:27 19.03.2020
6364 Clouds 14 1024 76 10000 2.6 140 00:35 19.03.2020
6365 Clouds 14 1024 87 10000 3.1 100 23:57 18.03.2020
6366 Clouds 13 1023 81 10000 3.1 10 23:31 18.03.2020
6367 Clouds 13 1023 76 10000 3.1 150 22:58 18.03.2020
6368 Clouds 13 1022 81 10000 4.1 190 22:40 18.03.2020
6369 Clouds 13 1022 81 10000 4.1 190 22:21 18.03.2020
6370 Clouds 13 1022 87 10000 1.5 30 21:43 18.03.2020
6371 Clouds 13 1022 87 10000 1.5 30 21:43 18.03.2020
6372 Clouds 13 1022 76 10000 2.6 160 21:22 18.03.2020
6373 Clouds 14 1022 76 10000 5.1 160 20:59 18.03.2020
6374 Clouds 14 1023 76 10000 2.6 80 20:41 18.03.2020
6375 Clouds 14 1023 76 10000 2.6 80 20:20 18.03.2020
6376 Clouds 14 1023 67 10000 4.1 140 19:58 18.03.2020
6377 Clouds 14 1022 63 10000 5.1 150 19:39 18.03.2020
6378 Clouds 15 1022 63 10000 5.1 150 19:20 18.03.2020
6379 Clouds 15 1023 76 10000 3.1 130 18:42 18.03.2020
6380 Clouds 15 1023 76 10000 3.1 130 18:42 18.03.2020
6381 Clouds 15 1023 76 10000 3.1 130 18:21 18.03.2020
6382 Clouds 15 1023 76 10000 3.1 130 18:21 18.03.2020
6383 Clouds 15 1023 76 10000 3.1 130 17:59 18.03.2020
6384 Clouds 15 1022 72 10000 4.6 160 17:41 18.03.2020
6385 Clouds 16 1022 77 10000 4.1 170 17:22 18.03.2020
6386 Clouds 16 1022 77 10000 4.1 170 16:58 18.03.2020
6387 Clouds 16 1022 77 10000 3.1 120 16:40 18.03.2020
6388 Clouds 16 1022 77 10000 3.1 120 16:20 18.03.2020
6389 Clouds 16 1022 77 10000 3.1 120 16:20 18.03.2020
6390 Clouds 17 1023 72 10000 3.6 170 15:45 18.03.2020
6391 Clouds 16 1023 72 10000 3.6 170 15:23 18.03.2020
6392 Clouds 17 1023 72 10000 3.1 170 14:56 18.03.2020
6393 Clouds 17 1023 63 10000 2.6 200 14:38 18.03.2020
6394 Clouds 17 1023 63 10000 2.6 200 14:19 18.03.2020
6395 Clouds 18 1022 55 10000 4.6 210 13:38 18.03.2020
6396 Clouds 18 1022 55 10000 4.6 210 13:19 18.03.2020
6397 Clouds 19 1021 55 10000 4.6 220 12:42 18.03.2020
6398 Clouds 19 1021 55 10000 4.6 220 12:20 18.03.2020
6399 Clouds 19 1021 49 10000 6.7 230 11:41 18.03.2020
6400 Clouds 20 1020 46 10000 7.2 220 11:21 18.03.2020
6401 Clear 20 1020 46 10000 7.2 220 10:58 18.03.2020
6402 Clear 21 1020 49 10000 7.2 220 10:39 18.03.2020
6403 Clear 21 1020 49 10000 7.2 220 10:20 18.03.2020
6404 Clear 21 1020 46 10000 6.7 210 09:59 18.03.2020
6405 Clear 22 1020 40 10000 7.7 240 09:39 18.03.2020
6406 Clear 22 1020 40 10000 7.7 240 09:21 18.03.2020
6407 Clear 23 1019 38 10000 7.7 230 08:40 18.03.2020
6408 Clear 23 1019 38 10000 7.7 230 08:21 18.03.2020
6409 Clear 23 1019 40 10000 7.7 230 07:49 18.03.2020
6410 Clear 23 1019 38 10000 6.2 250 07:30 18.03.2020
6411 Clouds 23 1019 40 10000 6.7 240 06:50 18.03.2020
6412 Clouds 23 1019 43 10000 5.7 270 06:24 18.03.2020
6413 Clear 23 1019 43 10000 5.7 230 05:36 18.03.2020
6414 Clear 21 1020 43 10000 7.2 230 04:29 18.03.2020
6415 Clear 21 1020 49 10000 7.7 230 02:51 18.03.2020
6416 Rain 20 1019 55 10000 6.7 250 02:23 18.03.2020
6417 Clouds 19 1018 59 10000 3.1 240 01:29 18.03.2020
6418 Clouds 17 1018 82 10000 3.6 220 00:26 18.03.2020
6419 Rain 17 1017 76 10000 0.5 140 23:57 17.03.2020
6420 Rain 16 1017 76 10000 0.5 140 23:37 17.03.2020
6421 Rain 16 1017 77 10000 3.6 250 23:18 17.03.2020
6422 Clouds 17 1017 67 10000 3.6 240 22:41 17.03.2020
6423 Clouds 17 1017 67 10000 4.6 200 22:22 17.03.2020
6424 Clouds 16 1017 67 10000 4.6 200 21:42 17.03.2020
6425 Clouds 17 1016 59 10000 5.1 240 21:22 17.03.2020
6426 Clouds 18 1016 55 10000 5.1 240 20:41 17.03.2020
6427 Clouds 17 1016 63 10000 5.7 240 20:23 17.03.2020
6428 Clouds 18 1016 59 10000 4.1 260 19:59 17.03.2020
6429 Clouds 18 1016 59 10000 5.1 270 19:40 17.03.2020
6430 Clouds 18 1015 59 10000 4.6 260 19:18 17.03.2020
6431 Clouds 18 1015 59 10000 4.6 260 18:56 17.03.2020
6432 Clouds 18 1015 59 10000 5.1 270 18:37 17.03.2020
6433 Clouds 18 1015 59 10000 4.6 270 18:19 17.03.2020
6434 Clouds 18 1015 55 10000 3.6 280 17:41 17.03.2020
6435 Clouds 18 1015 55 10000 3.6 280 17:41 17.03.2020
6436 Clouds 18 1015 55 10000 4.1 280 17:22 17.03.2020
6437 Clouds 18 1015 55 10000 4.1 280 16:55 17.03.2020
6438 Clouds 18 1015 55 10000 4.1 270 16:37 17.03.2020
6439 Clouds 18 1015 55 10000 4.1 270 16:18 17.03.2020
6440 Clouds 18 1015 55 10000 5.1 260 15:43 17.03.2020
6441 Clouds 18 1015 55 10000 5.1 260 15:21 17.03.2020
6442 Clouds 18 1015 59 10000 5.1 260 14:43 17.03.2020
6443 Clouds 18 1015 59 10000 4.6 260 14:21 17.03.2020
6444 Clouds 18 1015 68 10000 5.7 250 13:45 17.03.2020
6445 Rain 19 1015 68 9000 5.1 250 13:27 17.03.2020
6446 Clouds 18 1014 72 10000 4.1 240 12:59 17.03.2020
6447 Clouds 18 1014 72 10000 4.1 270 12:40 17.03.2020
6448 Rain 18 1015 93 7000 2.1 280 12:22 17.03.2020
6449 Clouds 18 1014 82 10000 3.1 250 11:47 17.03.2020
6450 Clouds 18 1014 82 10000 3.1 250 11:28 17.03.2020
6451 Drizzle 18 1014 88 8000 4.1 250 10:58 17.03.2020
6452 Drizzle 18 1013 93 7000 7.2 270 10:38 17.03.2020
6453 Drizzle 18 1013 93 7000 7.2 270 10:20 17.03.2020
6454 Rain 18 1013 93 6000 5.1 280 09:57 17.03.2020
6455 Rain 18 1013 88 3500 8.7 270 09:39 17.03.2020
6456 Rain 18 1013 88 3500 8.7 270 09:18 17.03.2020
6457 Rain 19 1013 88 4000 6.2 270 08:43 17.03.2020
6458 Rain 19 1013 88 4000 6.2 270 08:21 17.03.2020
6459 Clouds 22 1012 56 10000 6.7 330 07:50 17.03.2020
6460 Clouds 22 1013 68 10000 7.7 290 07:26 17.03.2020
6461 Clouds 22 1013 68 10000 7.7 290 06:58 17.03.2020
6462 Rain 21 1013 82 10000 5.7 280 06:33 17.03.2020
6463 Clouds 23 1013 53 10000 8.7 300 05:41 17.03.2020
6464 Clouds 23 1014 60 10000 5.7 290 03:36 17.03.2020
6465 Clouds 23 1014 60 10000 5.7 280 02:45 17.03.2020
6466 Clouds 21 1013 82 10000 3.1 10 01:41 17.03.2020
6467 Clouds 21 1013 82 10000 3.1 10 01:19 17.03.2020
6468 Clouds 20 1013 93 10000 3.1 30 00:19 17.03.2020
6469 Clouds 20 1013 93 10000 3.1 20 23:44 16.03.2020
6470 Clouds 19 1012 93 10000 2.6 20 23:23 16.03.2020
6471 Rain 20 1012 93 10000 4.1 20 22:40 16.03.2020
6472 Rain 19 1012 93 10000 4.1 20 22:22 16.03.2020
6473 Clouds 20 1012 93 10000 2.6 40 21:55 16.03.2020
6474 Clouds 20 1012 93 10000 2.6 40 21:36 16.03.2020
6475 Clouds 20 1012 93 10000 2.6 360 21:18 16.03.2020
6476 Clouds 20 1012 93 10000 2.1 30 20:42 16.03.2020
6477 Clouds 20 1012 93 10000 2.1 30 20:24 16.03.2020
6478 Clouds 20 1012 93 10000 2.1 20 19:47 16.03.2020
6479 Clouds 20 1012 93 10000 2.1 20 19:47 16.03.2020
6480 Clouds 20 1012 88 10000 2.1 10 19:25 16.03.2020
6481 Rain 20 1012 88 10000 3.6 360 19:00 16.03.2020
6482 Rain 20 1012 88 10000 3.1 30 18:40 16.03.2020
6483 Clouds 20 1012 88 10000 3.1 30 18:20 16.03.2020
6484 Clouds 20 1012 88 10000 3.1 20 17:46 16.03.2020
6485 Clouds 20 1012 88 10000 3.1 20 17:26 16.03.2020
6486 Clouds 20 1013 82 10000 2.6 310 16:58 16.03.2020
6487 Clouds 21 1013 82 10000 2.6 310 16:40 16.03.2020
6488 Clouds 21 1013 82 10000 2.6 310 16:40 16.03.2020
6489 Clouds 21 1013 82 10000 2.6 310 16:21 16.03.2020
6490 Clouds 21 1013 83 10000 4.1 310 15:43 16.03.2020
6491 Clouds 21 1013 83 10000 4.1 310 15:24 16.03.2020
6492 Clouds 21 1013 83 10000 3.1 320 14:48 16.03.2020
6493 Clouds 22 1013 78 10000 3.6 280 14:24 16.03.2020
6494 Clouds 22 1013 68 10000 3.1 300 13:51 16.03.2020
6495 Clouds 22 1013 68 10000 3.1 300 13:29 16.03.2020
6496 Clouds 22 1013 68 10000 3.6 290 12:58 16.03.2020
6497 Clouds 22 1013 60 10000 3.6 280 12:39 16.03.2020
6498 Clouds 22 1012 56 10000 3.6 290 12:20 16.03.2020
6499 Clouds 23 1012 53 10000 3.6 280 11:43 16.03.2020
6500 Clouds 24 1012 47 10000 5.1 300 11:25 16.03.2020
6501 Clouds 24 1012 44 10000 4.1 290 10:45 16.03.2020
6502 Clouds 25 1012 44 10000 4.1 290 10:24 16.03.2020
6503 Clouds 26 1012 47 10000 4.6 300 09:56 16.03.2020
6504 Clouds 26 1012 44 10000 4.6 260 09:37 16.03.2020
6505 Clouds 26 1012 44 10000 4.6 260 09:19 16.03.2020
6506 Clouds 27 1012 47 10000 5.7 270 08:41 16.03.2020
6507 Clouds 27 1012 47 10000 5.7 270 08:21 16.03.2020
6508 Clouds 27 1012 44 10000 5.1 290 07:42 16.03.2020
6509 Clouds 27 1012 44 10000 5.1 290 07:19 16.03.2020
6510 Clouds 26 1013 47 10000 3.1 330 06:29 16.03.2020
6511 Clouds 26 1013 53 10000 5.7 330 05:59 16.03.2020
6512 Clouds 25 1013 57 10000 1.5 290 04:21 16.03.2020
6513 Clouds 21 1014 77 10000 3.6 180 01:46 16.03.2020
6514 Clouds 20 1013 88 10000 3.1 190 00:45 16.03.2020
6515 Clouds 20 1013 88 10000 3.1 190 00:25 16.03.2020
6516 Clouds 19 1012 93 10000 4.6 190 23:39 15.03.2020
6517 Clouds 19 1012 94 10000 3.1 210 23:18 15.03.2020
6518 Drizzle 19 1012 93 10000 0.5 50 22:41 15.03.2020
6519 Drizzle 19 1012 93 10000 0.5 50 22:20 15.03.2020
6520 Clouds 20 1011 100 10000 0.5 10 21:39 15.03.2020
6521 Clouds 19 1011 100 10000 0.5 10 21:21 15.03.2020
6522 Clouds 19 1011 93 10000 2.1 40 20:55 15.03.2020
6523 Clouds 19 1011 93 10000 2.1 50 20:36 15.03.2020
6524 Clouds 19 1011 93 10000 2.1 50 20:18 15.03.2020
6525 Drizzle 20 1011 93 10000 2.6 70 19:42 15.03.2020
6526 Clouds 20 1011 93 10000 2.99 261 19:24 15.03.2020
6527 Clouds 20 1011 93 10000 1.5 40 18:59 15.03.2020
6528 Clouds 19 1011 88 10000 2.6 350 18:39 15.03.2020
6529 Clouds 20 1011 88 10000 2.6 350 18:21 15.03.2020
6530 Clouds 20 1011 88 10000 3.1 330 17:54 15.03.2020
6531 Clouds 20 1011 88 10000 3.1 350 17:36 15.03.2020
6532 Clouds 20 1011 93 10000 2.6 10 17:18 15.03.2020
6533 Clouds 20 1011 93 10000 3.6 360 16:42 15.03.2020
6534 Clouds 20 1011 93 10000 3.6 360 16:24 15.03.2020
6535 Rain 20 1011 88 10000 2.6 270 15:57 15.03.2020
6536 Rain 20 1011 88 10000 2.6 270 15:57 15.03.2020
6537 Rain 21 1012 88 10000 2.6 270 15:38 15.03.2020
6538 Rain 21 1012 88 10000 2.6 270 15:19 15.03.2020
6539 Rain 21 1012 83 10000 2.6 270 14:46 15.03.2020
6540 Clouds 21 1012 83 10000 2.6 360 14:24 15.03.2020
6541 Rain 22 1011 78 10000 2.6 270 13:57 15.03.2020
6542 Rain 22 1011 78 10000 2.6 270 13:38 15.03.2020
6543 Rain 22 1011 78 10000 2.6 270 13:19 15.03.2020
6544 Clouds 22 1010 73 10000 3.1 280 12:43 15.03.2020
6545 Clouds 22 1010 73 10000 3.1 280 12:25 15.03.2020
6546 Clouds 23 1010 69 10000 5.1 280 11:45 15.03.2020
6547 Clouds 23 1009 73 10000 5.1 280 11:26 15.03.2020
6548 Clouds 24 1009 73 10000 5.1 280 11:00 15.03.2020
6549 Clouds 24 1009 65 10000 5.7 290 10:41 15.03.2020
6550 Clouds 24 1009 65 10000 5.7 290 10:23 15.03.2020
6551 Clouds 25 1009 65 10000 4.6 280 09:59 15.03.2020
6552 Clouds 25 1009 65 10000 4.6 280 09:59 15.03.2020
6553 Clouds 24 1009 69 10000 5.1 290 09:39 15.03.2020
6554 Clouds 25 1009 69 10000 5.1 290 09:20 15.03.2020
6555 Clouds 25 1009 69 10000 5.1 280 08:41 15.03.2020
6556 Clouds 25 1008 65 10000 6.2 270 08:19 15.03.2020
6557 Clouds 25 1008 69 10000 5.7 290 07:49 15.03.2020
6558 Clouds 25 1008 69 10000 5.1 270 07:22 15.03.2020
6559 Clouds 26 1008 65 10000 5.1 270 06:44 15.03.2020
6560 Clouds 26 1008 65 10000 3.6 290 05:48 15.03.2020
6561 Rain 26 1009 73 10000 7.2 280 04:57 15.03.2020
6562 Clouds 25 1009 78 10000 3.1 340 04:38 15.03.2020
6563 Clouds 25 1009 78 10000 3.1 340 04:20 15.03.2020
6564 Clouds 23 1009 83 10000 3.6 350 03:19 15.03.2020
6565 Rain 22 1009 94 10000 4.6 10 02:22 15.03.2020
6566 Rain 21 1009 94 10000 2.6 30 00:58 15.03.2020
6567 Clouds 21 1008 100 10000 3.1 30 00:40 15.03.2020
6568 Clouds 20 1008 100 10000 2.6 20 00:19 15.03.2020
6569 Clouds 20 1008 100 10000 2.6 30 23:39 14.03.2020
6570 Clouds 20 1008 100 10000 2.1 40 23:20 14.03.2020
6571 Clouds 20 1008 100 10000 2.1 40 22:56 14.03.2020
6572 Clouds 20 1008 94 10000 1.5 20 22:37 14.03.2020
6573 Clouds 20 1008 94 10000 1.5 20 22:37 14.03.2020
6574 Clouds 20 1008 94 10000 1.5 20 22:19 14.03.2020
6575 Rain 20 1007 94 10000 4.1 340 21:55 14.03.2020
6576 Rain 20 1007 94 10000 4.1 340 21:55 14.03.2020
6577 Clouds 20 1007 100 10000 2.1 30 21:36 14.03.2020
6578 Clouds 20 1007 100 10000 2.1 30 21:18 14.03.2020
6579 Rain 20 1007 100 10000 4.1 340 20:55 14.03.2020
6580 Clouds 20 1007 100 10000 2.6 60 20:37 14.03.2020
6581 Clouds 21 1007 100 10000 2.6 60 20:18 14.03.2020
6582 Clouds 20 1008 94 10000 3.14 48 19:40 14.03.2020
6583 Clouds 20 1008 94 10000 3.14 48 19:20 14.03.2020
6584 Drizzle 20 1008 100 7000 4.1 70 18:40 14.03.2020
6585 Drizzle 20 1008 100 7000 4.1 70 18:40 14.03.2020
6586 Drizzle 20 1008 100 5000 3.1 90 18:20 14.03.2020
6587 Drizzle 20 1008 100 5000 2.6 200 17:42 14.03.2020
6588 Rain 20 1009 100 7000 2.1 320 17:23 14.03.2020
6589 Rain 20 1009 100 7000 2.1 320 17:23 14.03.2020
6590 Rain 21 1009 100 7000 2.1 320 16:58 14.03.2020
6591 Rain 21 1009 100 4800 2.6 10 16:38 14.03.2020
6592 Rain 21 1009 100 4800 2.6 10 16:19 14.03.2020
6593 Rain 21 1009 94 10000 4.25 58 15:44 14.03.2020
6594 Drizzle 21 1009 100 5000 4.1 20 15:22 14.03.2020
6595 Rain 21 1010 100 5000 5.7 290 14:40 14.03.2020
6596 Rain 21 1010 100 5000 5.7 290 14:21 14.03.2020
6597 Rain 21 1010 94 6000 2.6 20 13:57 14.03.2020
6598 Rain 21 1010 88 6000 2.6 50 13:38 14.03.2020
6599 Rain 21 1010 88 6000 2.6 50 13:19 14.03.2020
6600 Rain 22 1009 83 10000 7.2 70 12:44 14.03.2020
6601 Rain 22 1009 83 10000 7.2 70 12:25 14.03.2020
6602 Rain 24 1010 83 4400 4.1 30 11:45 14.03.2020
6603 Rain 25 1008 57 10000 7.2 70 11:26 14.03.2020
6604 Rain 26 1008 57 10000 7.2 70 10:55 14.03.2020
6605 Rain 26 1008 57 10000 7.2 70 10:36 14.03.2020
6606 Rain 26 1008 57 10000 7.2 70 10:18 14.03.2020
6607 Rain 27 1007 48 10000 7.7 10 09:41 14.03.2020
6608 Rain 28 1007 48 10000 7.7 10 09:22 14.03.2020
6609 Rain 28 1008 51 10000 2.6 50 08:47 14.03.2020
6610 Rain 30 1008 37 10000 4.1 350 08:27 14.03.2020
6611 Rain 30 1008 35 10000 5.1 60 07:45 14.03.2020
6612 Rain 30 1008 35 10000 4.6 70 07:23 14.03.2020
6613 Rain 31 1009 35 10000 6.7 90 06:59 14.03.2020
6614 Rain 30 1009 37 10000 6.2 90 06:39 14.03.2020
6615 Clouds 28 1012 42 10000 6.7 70 04:57 14.03.2020
6616 Clouds 27 1013 47 10000 5.7 60 03:40 14.03.2020
6617 Clouds 25 1013 50 10000 4.6 80 02:53 14.03.2020
6618 Rain 24 1013 50 10000 6.7 80 01:47 14.03.2020
6619 Clouds 24 1013 53 10000 6.7 80 00:36 14.03.2020
6620 Clouds 24 1013 56 10000 6.2 80 23:44 13.03.2020
6621 Clouds 23 1013 56 10000 6.2 80 23:23 13.03.2020
6622 Clouds 23 1013 56 10000 5.7 70 22:46 13.03.2020
6623 Clouds 23 1013 56 10000 6.7 80 22:24 13.03.2020
6624 Clouds 24 1013 56 10000 6.7 70 21:42 13.03.2020
6625 Clouds 24 1013 53 10000 6.7 70 21:19 13.03.2020
6626 Clouds 24 1013 53 10000 6.7 70 20:43 13.03.2020
6627 Clouds 24 1013 53 10000 6.7 70 20:23 13.03.2020
6628 Clouds 24 1013 53 10000 9.3 80 19:59 13.03.2020
6629 Clouds 24 1013 50 10000 7.7 80 19:40 13.03.2020
6630 Clouds 24 1013 50 10000 7.7 80 19:22 13.03.2020
6631 Clouds 25 1012 41 10000 9.3 80 18:44 13.03.2020
6632 Clouds 25 1012 39 10000 8.2 80 18:23 13.03.2020
6633 Clouds 25 1013 47 10000 7.7 90 17:43 13.03.2020
6634 Clouds 26 1013 44 10000 8.2 90 17:21 13.03.2020
6635 Clouds 26 1013 44 10000 8.2 90 16:59 13.03.2020
6636 Clouds 26 1013 39 10000 9.3 90 16:39 13.03.2020
6637 Clouds 26 1013 39 10000 9.3 90 16:20 13.03.2020
6638 Clouds 27 1014 39 10000 9.8 80 15:46 13.03.2020
6639 Clouds 27 1014 39 10000 7.7 90 15:23 13.03.2020
6640 Clouds 27 1014 39 10000 7.2 70 14:59 13.03.2020
6641 Clouds 28 1014 37 10000 7.2 70 14:40 13.03.2020
6642 Clouds 28 1014 37 10000 7.2 70 14:21 13.03.2020
6643 Clouds 28 1014 34 10000 3.6 90 13:43 13.03.2020
6644 Clouds 28 1014 34 10000 3.6 90 13:24 13.03.2020
6645 Clouds 28 1014 37 10000 3.6 80 12:59 13.03.2020
6646 Clouds 29 1014 32 10000 6.2 90 12:38 13.03.2020
6647 Clouds 29 1014 32 10000 6.2 90 12:20 13.03.2020
6648 Clouds 30 1014 29 10000 8.2 90 11:56 13.03.2020
6649 Clouds 30 1014 29 10000 8.2 90 11:36 13.03.2020
6650 Clouds 31 1014 31 10000 7.7 100 11:18 13.03.2020
6651 Clouds 31 1014 27 10000 7.7 70 10:46 13.03.2020
6652 Rain 32 1014 27 10000 7.7 70 10:25 13.03.2020
6653 Rain 32 1014 27 10000 8.2 90 09:48 13.03.2020
6654 -273 0 0 0 0 0 09:28 13.03.2020
6655 Clouds 32 1014 27 10000 7.7 100 08:57 13.03.2020
6656 Clouds 32 1014 26 10000 6.7 130 08:38 13.03.2020
6657 Clouds 32 1014 26 10000 6.7 130 08:19 13.03.2020
6658 Clouds 32 1015 27 10000 8.2 110 07:44 13.03.2020
6659 Clouds 32 1015 27 10000 8.2 110 07:23 13.03.2020
6660 Clouds 31 1016 31 10000 7.7 100 06:46 13.03.2020
6661 Clouds 31 1016 31 10000 7.7 100 06:21 13.03.2020
6662 Clouds 30 1017 35 10000 9.8 100 05:44 13.03.2020
6663 Clear 28 1017 39 10000 8.7 110 04:39 13.03.2020
6664 Clear 27 1018 44 10000 10.3 100 03:51 13.03.2020
6665 Clouds 24 1018 50 10000 9.3 90 02:29 13.03.2020
6666 Clouds 22 1018 56 10000 5.7 90 01:20 13.03.2020
6667 Clouds 21 1018 64 10000 6.7 100 00:59 13.03.2020
6668 Clouds 21 1019 68 10000 9.3 100 00:39 13.03.2020
6669 Clouds 20 1018 64 10000 5.1 110 00:18 13.03.2020
6670 Clouds 19 1017 68 10000 10.8 90 23:37 12.03.2020
6671 Clouds 19 1018 72 10000 8.2 100 23:18 12.03.2020
6672 Clouds 19 1018 68 10000 6.7 110 22:44 12.03.2020
6673 Clouds 19 1018 68 10000 6.7 110 22:25 12.03.2020
6674 Clouds 20 1018 64 10000 6.7 120 21:55 12.03.2020
6675 Clouds 20 1018 72 10000 7.7 110 21:36 12.03.2020
6676 Clouds 20 1018 72 10000 7.7 110 21:18 12.03.2020
6677 Clouds 20 1017 64 10000 4.6 110 20:42 12.03.2020
6678 Clear 20 1017 64 10000 4.6 110 20:20 12.03.2020
6679 Clear 20 1018 68 10000 7.7 110 19:42 12.03.2020